﻿<?xml version="1.0" encoding="utf-8" standalone="yes"?>
<gpx version="1.0" creator="CanWay - http://www.canwaygps.com" xmlns:xsi="http://www.w3.org/2001/XMLSchema-instance" xmlns="http://www.topografix.com/GPX/1/0" xsi:schemaLocation="http://www.topografix.com/GPX/1/0 http://www.topografix.com/GPX/1/0/gpx.xsd">
<time>2023-05-14T21:30:44Z</time>
<bounds minlat="47.207359" minlon="8.586959" maxlat="47.247880" maxlon="8.627854" />
<trk>
<name>Hirzel-Horgener Bergweiher-Hirzel</name>
<trkseg>
<trkpt lat="47.217062" lon="8.606334">
<ele>728.2</ele>
<time>2003-06-27T06:53:24Z</time>
<speed>0.0</speed>
</trkpt>
<trkpt lat="47.217094" lon="8.606325">
<ele>729.0</ele>
<time>2003-06-27T06:53:29Z</time>
<speed>0.0</speed>
</trkpt>
<trkpt lat="47.217095" lon="8.606310">
<ele>730.3</ele>
<time>2003-06-27T06:53:34Z</time>
<speed>0.0</speed>
</trkpt>
<trkpt lat="47.217095" lon="8.606310">
<ele>730.3</ele>
<time>2003-06-27T06:53:39Z</time>
<speed>0.0</speed>
</trkpt>
<trkpt lat="47.217095" lon="8.606310">
<ele>730.3</ele>
<time>2003-06-27T06:53:44Z</time>
<speed>0.0</speed>
</trkpt>
<trkpt lat="47.217095" lon="8.606312">
<ele>728.9</ele>
<time>2003-06-27T06:53:49Z</time>
<speed>0.0</speed>
</trkpt>
<trkpt lat="47.217102" lon="8.606316">
<ele>726.8</ele>
<time>2003-06-27T06:53:54Z</time>
<speed>0.0</speed>
</trkpt>
<trkpt lat="47.217096" lon="8.606316">
<ele>726.1</ele>
<time>2003-06-27T06:53:59Z</time>
<speed>0.0</speed>
</trkpt>
<trkpt lat="47.217096" lon="8.606316">
<ele>726.1</ele>
<time>2003-06-27T06:54:04Z</time>
<speed>0.0</speed>
</trkpt>
<trkpt lat="47.217096" lon="8.606316">
<ele>726.1</ele>
<time>2003-06-27T06:54:09Z</time>
<speed>0.0</speed>
</trkpt>
<trkpt lat="47.217096" lon="8.606316">
<ele>726.1</ele>
<time>2003-06-27T06:54:14Z</time>
<speed>0.0</speed>
</trkpt>
<trkpt lat="47.217083" lon="8.606312">
<ele>727.4</ele>
<time>2003-06-27T06:54:19Z</time>
<speed>0.0</speed>
</trkpt>
<trkpt lat="47.217077" lon="8.606312">
<ele>726.7</ele>
<time>2003-06-27T06:54:24Z</time>
<speed>0.0</speed>
</trkpt>
<trkpt lat="47.217069" lon="8.606323">
<ele>727.4</ele>
<time>2003-06-27T06:54:29Z</time>
<speed>0.0</speed>
</trkpt>
<trkpt lat="47.217070" lon="8.606325">
<ele>726.0</ele>
<time>2003-06-27T06:54:34Z</time>
<speed>0.0</speed>
</trkpt>
<trkpt lat="47.217070" lon="8.606325">
<ele>726.0</ele>
<time>2003-06-27T06:54:39Z</time>
<speed>0.0</speed>
</trkpt>
<trkpt lat="47.217064" lon="8.606310">
<ele>726.6</ele>
<time>2003-06-27T06:54:44Z</time>
<speed>0.0</speed>
</trkpt>
<trkpt lat="47.217064" lon="8.606310">
<ele>726.6</ele>
<time>2003-06-27T06:54:49Z</time>
<speed>0.0</speed>
</trkpt>
<trkpt lat="47.217064" lon="8.606310">
<ele>726.6</ele>
<time>2003-06-27T06:54:54Z</time>
<speed>0.0</speed>
</trkpt>
<trkpt lat="47.217064" lon="8.606310">
<ele>726.6</ele>
<time>2003-06-27T06:54:59Z</time>
<speed>0.0</speed>
</trkpt>
<trkpt lat="47.217064" lon="8.606310">
<ele>726.6</ele>
<time>2003-06-27T06:55:04Z</time>
<speed>0.0</speed>
</trkpt>
<trkpt lat="47.217064" lon="8.606310">
<ele>726.6</ele>
<time>2003-06-27T06:55:09Z</time>
<speed>0.0</speed>
</trkpt>
<trkpt lat="47.217077" lon="8.606312">
<ele>726.7</ele>
<time>2003-06-27T06:55:14Z</time>
<speed>0.0</speed>
</trkpt>
<trkpt lat="47.217070" lon="8.606312">
<ele>725.9</ele>
<time>2003-06-27T06:55:19Z</time>
<speed>0.0</speed>
</trkpt>
<trkpt lat="47.217070" lon="8.606312">
<ele>725.9</ele>
<time>2003-06-27T06:55:24Z</time>
<speed>0.0</speed>
</trkpt>
<trkpt lat="47.217070" lon="8.606312">
<ele>725.9</ele>
<time>2003-06-27T06:55:29Z</time>
<speed>0.0</speed>
</trkpt>
<trkpt lat="47.217077" lon="8.606312">
<ele>726.7</ele>
<time>2003-06-27T06:55:34Z</time>
<speed>0.0</speed>
</trkpt>
<trkpt lat="47.217078" lon="8.606299">
<ele>726.6</ele>
<time>2003-06-27T06:55:39Z</time>
<speed>0.0</speed>
</trkpt>
<trkpt lat="47.217078" lon="8.606299">
<ele>726.6</ele>
<time>2003-06-27T06:55:44Z</time>
<speed>0.0</speed>
</trkpt>
<trkpt lat="47.217078" lon="8.606299">
<ele>726.6</ele>
<time>2003-06-27T06:55:49Z</time>
<speed>0.0</speed>
</trkpt>
<trkpt lat="47.217078" lon="8.606299">
<ele>726.6</ele>
<time>2003-06-27T06:55:54Z</time>
<speed>0.0</speed>
</trkpt>
<trkpt lat="47.217078" lon="8.606299">
<ele>726.6</ele>
<time>2003-06-27T06:55:59Z</time>
<speed>0.0</speed>
</trkpt>
<trkpt lat="47.217083" lon="8.606314">
<ele>726.0</ele>
<time>2003-06-27T06:56:04Z</time>
<speed>0.0</speed>
</trkpt>
<trkpt lat="47.217078" lon="8.606299">
<ele>726.6</ele>
<time>2003-06-27T06:56:09Z</time>
<speed>0.0</speed>
</trkpt>
<trkpt lat="47.217078" lon="8.606299">
<ele>726.6</ele>
<time>2003-06-27T06:56:14Z</time>
<speed>0.0</speed>
</trkpt>
<trkpt lat="47.217078" lon="8.606299">
<ele>726.6</ele>
<time>2003-06-27T06:56:19Z</time>
<speed>0.0</speed>
</trkpt>
<trkpt lat="47.217078" lon="8.606299">
<ele>726.6</ele>
<time>2003-06-27T06:56:24Z</time>
<speed>0.0</speed>
</trkpt>
<trkpt lat="47.217085" lon="8.606288">
<ele>725.8</ele>
<time>2003-06-27T06:56:29Z</time>
<speed>0.0</speed>
</trkpt>
<trkpt lat="47.217085" lon="8.606288">
<ele>725.8</ele>
<time>2003-06-27T06:56:34Z</time>
<speed>0.0</speed>
</trkpt>
<trkpt lat="47.217085" lon="8.606288">
<ele>725.8</ele>
<time>2003-06-27T06:56:39Z</time>
<speed>0.0</speed>
</trkpt>
<trkpt lat="47.217092" lon="8.606290">
<ele>725.1</ele>
<time>2003-06-27T06:56:44Z</time>
<speed>0.0</speed>
</trkpt>
<trkpt lat="47.217085" lon="8.606303">
<ele>724.5</ele>
<time>2003-06-27T06:56:49Z</time>
<speed>0.0</speed>
</trkpt>
<trkpt lat="47.217085" lon="8.606303">
<ele>724.5</ele>
<time>2003-06-27T06:56:54Z</time>
<speed>0.0</speed>
</trkpt>
<trkpt lat="47.217072" lon="8.606301">
<ele>724.4</ele>
<time>2003-06-27T06:56:59Z</time>
<speed>0.0</speed>
</trkpt>
<trkpt lat="47.217072" lon="8.606301">
<ele>724.4</ele>
<time>2003-06-27T06:57:04Z</time>
<speed>0.0</speed>
</trkpt>
<trkpt lat="47.217053" lon="8.606297">
<ele>725.0</ele>
<time>2003-06-27T06:57:09Z</time>
<speed>0.3</speed>
</trkpt>
<trkpt lat="47.217040" lon="8.606295">
<ele>725.0</ele>
<time>2003-06-27T06:57:14Z</time>
<speed>0.0</speed>
</trkpt>
<trkpt lat="47.217027" lon="8.606293">
<ele>724.9</ele>
<time>2003-06-27T06:57:19Z</time>
<speed>0.3</speed>
</trkpt>
<trkpt lat="47.216984" lon="8.606274">
<ele>723.9</ele>
<time>2003-06-27T06:57:24Z</time>
<speed>0.8</speed>
</trkpt>
<trkpt lat="47.216927" lon="8.606279">
<ele>723.0</ele>
<time>2003-06-27T06:57:29Z</time>
<speed>1.1</speed>
</trkpt>
<trkpt lat="47.216881" lon="8.606299">
<ele>722.3</ele>
<time>2003-06-27T06:57:34Z</time>
<speed>1.1</speed>
</trkpt>
<trkpt lat="47.216839" lon="8.606345">
<ele>722.5</ele>
<time>2003-06-27T06:57:39Z</time>
<speed>0.8</speed>
</trkpt>
<trkpt lat="47.216815" lon="8.606409">
<ele>722.2</ele>
<time>2003-06-27T06:57:44Z</time>
<speed>1.1</speed>
</trkpt>
<trkpt lat="47.216779" lon="8.606470">
<ele>721.9</ele>
<time>2003-06-27T06:57:49Z</time>
<speed>1.1</speed>
</trkpt>
<trkpt lat="47.216743" lon="8.606533">
<ele>720.1</ele>
<time>2003-06-27T06:57:54Z</time>
<speed>1.1</speed>
</trkpt>
<trkpt lat="47.216726" lon="8.606584">
<ele>720.5</ele>
<time>2003-06-27T06:57:59Z</time>
<speed>0.8</speed>
</trkpt>
<trkpt lat="47.216715" lon="8.606649">
<ele>720.2</ele>
<time>2003-06-27T06:58:04Z</time>
<speed>0.8</speed>
</trkpt>
<trkpt lat="47.216661" lon="8.606693">
<ele>720.4</ele>
<time>2003-06-27T06:58:10Z</time>
<speed>1.1</speed>
</trkpt>
<trkpt lat="47.216583" lon="8.606724">
<ele>717.5</ele>
<time>2003-06-27T06:58:15Z</time>
<speed>1.1</speed>
</trkpt>
<trkpt lat="47.216514" lon="8.606714">
<ele>716.5</ele>
<time>2003-06-27T06:58:20Z</time>
<speed>1.1</speed>
</trkpt>
<trkpt lat="47.216467" lon="8.606654">
<ele>715.8</ele>
<time>2003-06-27T06:58:25Z</time>
<speed>1.1</speed>
</trkpt>
<trkpt lat="47.216437" lon="8.606637">
<ele>714.8</ele>
<time>2003-06-27T06:58:30Z</time>
<speed>0.3</speed>
</trkpt>
<trkpt lat="47.216437" lon="8.606637">
<ele>714.8</ele>
<time>2003-06-27T06:58:35Z</time>
<speed>0.0</speed>
</trkpt>
<trkpt lat="47.216438" lon="8.606626">
<ele>713.3</ele>
<time>2003-06-27T06:58:40Z</time>
<speed>0.0</speed>
</trkpt>
<trkpt lat="47.216432" lon="8.606624">
<ele>714.0</ele>
<time>2003-06-27T06:58:45Z</time>
<speed>0.0</speed>
</trkpt>
<trkpt lat="47.216432" lon="8.606624">
<ele>714.0</ele>
<time>2003-06-27T06:58:50Z</time>
<speed>0.0</speed>
</trkpt>
<trkpt lat="47.216425" lon="8.606624">
<ele>713.3</ele>
<time>2003-06-27T06:58:55Z</time>
<speed>0.0</speed>
</trkpt>
<trkpt lat="47.216412" lon="8.606620">
<ele>714.6</ele>
<time>2003-06-27T06:59:00Z</time>
<speed>0.3</speed>
</trkpt>
<trkpt lat="47.216387" lon="8.606616">
<ele>714.5</ele>
<time>2003-06-27T06:59:05Z</time>
<speed>0.3</speed>
</trkpt>
<trkpt lat="47.216380" lon="8.606627">
<ele>715.3</ele>
<time>2003-06-27T06:59:10Z</time>
<speed>0.3</speed>
</trkpt>
<trkpt lat="47.216353" lon="8.606637">
<ele>715.2</ele>
<time>2003-06-27T06:59:15Z</time>
<speed>0.6</speed>
</trkpt>
<trkpt lat="47.216289" lon="8.606559">
<ele>715.1</ele>
<time>2003-06-27T06:59:20Z</time>
<speed>0.8</speed>
</trkpt>
<trkpt lat="47.216250" lon="8.606473">
<ele>715.0</ele>
<time>2003-06-27T06:59:25Z</time>
<speed>1.1</speed>
</trkpt>
<trkpt lat="47.216189" lon="8.606422">
<ele>715.8</ele>
<time>2003-06-27T06:59:30Z</time>
<speed>0.8</speed>
</trkpt>
<trkpt lat="47.216126" lon="8.606412">
<ele>715.4</ele>
<time>2003-06-27T06:59:35Z</time>
<speed>1.1</speed>
</trkpt>
<trkpt lat="47.216068" lon="8.606416">
<ele>716.0</ele>
<time>2003-06-27T06:59:40Z</time>
<speed>0.8</speed>
</trkpt>
<trkpt lat="47.216018" lon="8.606393">
<ele>717.0</ele>
<time>2003-06-27T06:59:45Z</time>
<speed>0.6</speed>
</trkpt>
<trkpt lat="47.215988" lon="8.606361">
<ele>717.4</ele>
<time>2003-06-27T06:59:50Z</time>
<speed>0.8</speed>
</trkpt>
<trkpt lat="47.215930" lon="8.606364">
<ele>717.9</ele>
<time>2003-06-27T06:59:55Z</time>
<speed>1.1</speed>
</trkpt>
<trkpt lat="47.215878" lon="8.606382">
<ele>717.8</ele>
<time>2003-06-27T07:00:00Z</time>
<speed>1.1</speed>
</trkpt>
<trkpt lat="47.215823" lon="8.606426">
<ele>718.0</ele>
<time>2003-06-27T07:00:05Z</time>
<speed>1.1</speed>
</trkpt>
<trkpt lat="47.215739" lon="8.606454">
<ele>717.2</ele>
<time>2003-06-27T07:00:10Z</time>
<speed>1.4</speed>
</trkpt>
<trkpt lat="47.215679" lon="8.606470">
<ele>717.8</ele>
<time>2003-06-27T07:00:15Z</time>
<speed>1.4</speed>
</trkpt>
<trkpt lat="47.215646" lon="8.606492">
<ele>717.2</ele>
<time>2003-06-27T07:00:20Z</time>
<speed>0.8</speed>
</trkpt>
<trkpt lat="47.215612" lon="8.606512">
<ele>717.9</ele>
<time>2003-06-27T07:00:25Z</time>
<speed>1.1</speed>
</trkpt>
<trkpt lat="47.215560" lon="8.606530">
<ele>717.9</ele>
<time>2003-06-27T07:00:30Z</time>
<speed>1.1</speed>
</trkpt>
<trkpt lat="47.215483" lon="8.606532">
<ele>717.6</ele>
<time>2003-06-27T07:00:35Z</time>
<speed>1.1</speed>
</trkpt>
<trkpt lat="47.215399" lon="8.606546">
<ele>716.7</ele>
<time>2003-06-27T07:00:40Z</time>
<speed>1.1</speed>
</trkpt>
<trkpt lat="47.215340" lon="8.606577">
<ele>716.0</ele>
<time>2003-06-27T07:00:45Z</time>
<speed>1.1</speed>
</trkpt>
<trkpt lat="47.215274" lon="8.606593">
<ele>715.9</ele>
<time>2003-06-27T07:00:50Z</time>
<speed>1.1</speed>
</trkpt>
<trkpt lat="47.215227" lon="8.606626">
<ele>715.3</ele>
<time>2003-06-27T07:00:55Z</time>
<speed>1.1</speed>
</trkpt>
<trkpt lat="47.215186" lon="8.606673">
<ele>715.5</ele>
<time>2003-06-27T07:01:00Z</time>
<speed>0.8</speed>
</trkpt>
<trkpt lat="47.215126" lon="8.606689">
<ele>716.1</ele>
<time>2003-06-27T07:01:05Z</time>
<speed>1.1</speed>
</trkpt>
<trkpt lat="47.215067" lon="8.606720">
<ele>715.5</ele>
<time>2003-06-27T07:01:10Z</time>
<speed>1.1</speed>
</trkpt>
<trkpt lat="47.215007" lon="8.606751">
<ele>714.8</ele>
<time>2003-06-27T07:01:15Z</time>
<speed>1.4</speed>
</trkpt>
<trkpt lat="47.214942" lon="8.606768">
<ele>714.7</ele>
<time>2003-06-27T07:01:20Z</time>
<speed>1.1</speed>
</trkpt>
<trkpt lat="47.214872" lon="8.606771">
<ele>713.7</ele>
<time>2003-06-27T07:01:25Z</time>
<speed>1.4</speed>
</trkpt>
<trkpt lat="47.214772" lon="8.606759">
<ele>710.4</ele>
<time>2003-06-27T07:01:30Z</time>
<speed>1.4</speed>
</trkpt>
<trkpt lat="47.214695" lon="8.606762">
<ele>708.7</ele>
<time>2003-06-27T07:01:35Z</time>
<speed>1.1</speed>
</trkpt>
<trkpt lat="47.214624" lon="8.606778">
<ele>707.9</ele>
<time>2003-06-27T07:01:40Z</time>
<speed>1.1</speed>
</trkpt>
<trkpt lat="47.214574" lon="8.606772">
<ele>706.2</ele>
<time>2003-06-27T07:01:45Z</time>
<speed>1.1</speed>
</trkpt>
<trkpt lat="47.214524" lon="8.606767">
<ele>704.6</ele>
<time>2003-06-27T07:01:50Z</time>
<speed>1.1</speed>
</trkpt>
<trkpt lat="47.214465" lon="8.606787">
<ele>702.4</ele>
<time>2003-06-27T07:01:55Z</time>
<speed>1.4</speed>
</trkpt>
<trkpt lat="47.214401" lon="8.606790">
<ele>702.2</ele>
<time>2003-06-27T07:02:00Z</time>
<speed>1.1</speed>
</trkpt>
<trkpt lat="47.214337" lon="8.606793">
<ele>702.0</ele>
<time>2003-06-27T07:02:05Z</time>
<speed>1.4</speed>
</trkpt>
<trkpt lat="47.214272" lon="8.606811">
<ele>700.5</ele>
<time>2003-06-27T07:02:10Z</time>
<speed>1.1</speed>
</trkpt>
<trkpt lat="47.214213" lon="8.606843">
<ele>699.8</ele>
<time>2003-06-27T07:02:15Z</time>
<speed>1.4</speed>
</trkpt>
<trkpt lat="47.214159" lon="8.606874">
<ele>699.9</ele>
<time>2003-06-27T07:02:20Z</time>
<speed>1.4</speed>
</trkpt>
<trkpt lat="47.214111" lon="8.606920">
<ele>699.3</ele>
<time>2003-06-27T07:02:25Z</time>
<speed>1.4</speed>
</trkpt>
<trkpt lat="47.214056" lon="8.606977">
<ele>699.6</ele>
<time>2003-06-27T07:02:30Z</time>
<speed>1.1</speed>
</trkpt>
<trkpt lat="47.214007" lon="8.607037">
<ele>699.2</ele>
<time>2003-06-27T07:02:35Z</time>
<speed>1.1</speed>
</trkpt>
<trkpt lat="47.213952" lon="8.607096">
<ele>698.0</ele>
<time>2003-06-27T07:02:40Z</time>
<speed>1.4</speed>
</trkpt>
<trkpt lat="47.213908" lon="8.607168">
<ele>698.5</ele>
<time>2003-06-27T07:02:45Z</time>
<speed>1.1</speed>
</trkpt>
<trkpt lat="47.213878" lon="8.607232">
<ele>697.4</ele>
<time>2003-06-27T07:02:50Z</time>
<speed>1.1</speed>
</trkpt>
<trkpt lat="47.213846" lon="8.607319">
<ele>698.0</ele>
<time>2003-06-27T07:02:55Z</time>
<speed>1.4</speed>
</trkpt>
<trkpt lat="47.213796" lon="8.607392">
<ele>697.7</ele>
<time>2003-06-27T07:03:00Z</time>
<speed>1.1</speed>
</trkpt>
<trkpt lat="47.213749" lon="8.607425">
<ele>697.1</ele>
<time>2003-06-27T07:03:05Z</time>
<speed>0.8</speed>
</trkpt>
<trkpt lat="47.213736" lon="8.607516">
<ele>697.1</ele>
<time>2003-06-27T07:03:10Z</time>
<speed>0.8</speed>
</trkpt>
<trkpt lat="47.213723" lon="8.607607">
<ele>697.1</ele>
<time>2003-06-27T07:03:15Z</time>
<speed>1.1</speed>
</trkpt>
<trkpt lat="47.213710" lon="8.607701">
<ele>695.6</ele>
<time>2003-06-27T07:03:20Z</time>
<speed>1.4</speed>
</trkpt>
<trkpt lat="47.213691" lon="8.607792">
<ele>694.9</ele>
<time>2003-06-27T07:03:25Z</time>
<speed>1.1</speed>
</trkpt>
<trkpt lat="47.213685" lon="8.607887">
<ele>692.8</ele>
<time>2003-06-27T07:03:30Z</time>
<speed>1.4</speed>
</trkpt>
<trkpt lat="47.213679" lon="8.607981">
<ele>692.1</ele>
<time>2003-06-27T07:03:35Z</time>
<speed>1.1</speed>
</trkpt>
<trkpt lat="47.213686" lon="8.608063">
<ele>691.3</ele>
<time>2003-06-27T07:03:40Z</time>
<speed>0.8</speed>
</trkpt>
<trkpt lat="47.213684" lon="8.608089">
<ele>691.6</ele>
<time>2003-06-27T07:03:45Z</time>
<speed>0.3</speed>
</trkpt>
<trkpt lat="47.213682" lon="8.608020">
<ele>693.1</ele>
<time>2003-06-27T07:03:50Z</time>
<speed>0.8</speed>
</trkpt>
<trkpt lat="47.213649" lon="8.607934">
<ele>693.7</ele>
<time>2003-06-27T07:03:55Z</time>
<speed>1.1</speed>
</trkpt>
<trkpt lat="47.213628" lon="8.607878">
<ele>693.2</ele>
<time>2003-06-27T07:04:00Z</time>
<speed>0.3</speed>
</trkpt>
<trkpt lat="47.213568" lon="8.607831">
<ele>691.2</ele>
<time>2003-06-27T07:04:05Z</time>
<speed>0.8</speed>
</trkpt>
<trkpt lat="47.213509" lon="8.607783">
<ele>689.2</ele>
<time>2003-06-27T07:04:10Z</time>
<speed>0.8</speed>
</trkpt>
<trkpt lat="47.213439" lon="8.607789">
<ele>686.8</ele>
<time>2003-06-27T07:04:15Z</time>
<speed>0.8</speed>
</trkpt>
<trkpt lat="47.213381" lon="8.607794">
<ele>685.9</ele>
<time>2003-06-27T07:04:20Z</time>
<speed>0.8</speed>
</trkpt>
<trkpt lat="47.213336" lon="8.607801">
<ele>685.1</ele>
<time>2003-06-27T07:04:25Z</time>
<speed>0.8</speed>
</trkpt>
<trkpt lat="47.213291" lon="8.607808">
<ele>684.3</ele>
<time>2003-06-27T07:04:30Z</time>
<speed>0.8</speed>
</trkpt>
<trkpt lat="47.213228" lon="8.607798">
<ele>684.0</ele>
<time>2003-06-27T07:04:35Z</time>
<speed>1.1</speed>
</trkpt>
<trkpt lat="47.213183" lon="8.607805">
<ele>683.2</ele>
<time>2003-06-27T07:04:40Z</time>
<speed>0.8</speed>
</trkpt>
<trkpt lat="47.213145" lon="8.607797">
<ele>684.4</ele>
<time>2003-06-27T07:04:45Z</time>
<speed>0.8</speed>
</trkpt>
<trkpt lat="47.213107" lon="8.607791">
<ele>684.2</ele>
<time>2003-06-27T07:04:50Z</time>
<speed>0.8</speed>
</trkpt>
<trkpt lat="47.213068" lon="8.607799">
<ele>684.1</ele>
<time>2003-06-27T07:04:55Z</time>
<speed>0.6</speed>
</trkpt>
<trkpt lat="47.213056" lon="8.607799">
<ele>682.6</ele>
<time>2003-06-27T07:05:00Z</time>
<speed>0.0</speed>
</trkpt>
<trkpt lat="47.213049" lon="8.607797">
<ele>683.3</ele>
<time>2003-06-27T07:05:05Z</time>
<speed>0.0</speed>
</trkpt>
<trkpt lat="47.213043" lon="8.607797">
<ele>682.6</ele>
<time>2003-06-27T07:05:10Z</time>
<speed>0.0</speed>
</trkpt>
<trkpt lat="47.213036" lon="8.607810">
<ele>681.9</ele>
<time>2003-06-27T07:05:15Z</time>
<speed>0.3</speed>
</trkpt>
<trkpt lat="47.213029" lon="8.607808">
<ele>682.6</ele>
<time>2003-06-27T07:05:20Z</time>
<speed>0.0</speed>
</trkpt>
<trkpt lat="47.213017" lon="8.607806">
<ele>682.5</ele>
<time>2003-06-27T07:05:25Z</time>
<speed>0.3</speed>
</trkpt>
<trkpt lat="47.212992" lon="8.607804">
<ele>681.0</ele>
<time>2003-06-27T07:05:30Z</time>
<speed>0.6</speed>
</trkpt>
<trkpt lat="47.212966" lon="8.607813">
<ele>681.0</ele>
<time>2003-06-27T07:05:35Z</time>
<speed>0.3</speed>
</trkpt>
<trkpt lat="47.212921" lon="8.607820">
<ele>680.2</ele>
<time>2003-06-27T07:05:40Z</time>
<speed>0.8</speed>
</trkpt>
<trkpt lat="47.212863" lon="8.607825">
<ele>679.3</ele>
<time>2003-06-27T07:05:45Z</time>
<speed>1.4</speed>
</trkpt>
<trkpt lat="47.212794" lon="8.607815">
<ele>678.2</ele>
<time>2003-06-27T07:05:50Z</time>
<speed>0.8</speed>
</trkpt>
<trkpt lat="47.212730" lon="8.607820">
<ele>676.6</ele>
<time>2003-06-27T07:05:55Z</time>
<speed>1.1</speed>
</trkpt>
<trkpt lat="47.212677" lon="8.607839">
<ele>676.6</ele>
<time>2003-06-27T07:06:00Z</time>
<speed>0.8</speed>
</trkpt>
<trkpt lat="47.212626" lon="8.607844">
<ele>676.4</ele>
<time>2003-06-27T07:06:05Z</time>
<speed>1.1</speed>
</trkpt>
<trkpt lat="47.212562" lon="8.607847">
<ele>676.2</ele>
<time>2003-06-27T07:06:10Z</time>
<speed>1.1</speed>
</trkpt>
<trkpt lat="47.212516" lon="8.607852">
<ele>676.8</ele>
<time>2003-06-27T07:06:15Z</time>
<speed>1.4</speed>
</trkpt>
<trkpt lat="47.212459" lon="8.607857">
<ele>675.9</ele>
<time>2003-06-27T07:06:20Z</time>
<speed>1.1</speed>
</trkpt>
<trkpt lat="47.212393" lon="8.607873">
<ele>675.8</ele>
<time>2003-06-27T07:06:25Z</time>
<speed>1.1</speed>
</trkpt>
<trkpt lat="47.212348" lon="8.607881">
<ele>675.0</ele>
<time>2003-06-27T07:06:30Z</time>
<speed>1.1</speed>
</trkpt>
<trkpt lat="47.212291" lon="8.607886">
<ele>674.1</ele>
<time>2003-06-27T07:06:35Z</time>
<speed>1.1</speed>
</trkpt>
<trkpt lat="47.212231" lon="8.607917">
<ele>673.5</ele>
<time>2003-06-27T07:06:40Z</time>
<speed>1.1</speed>
</trkpt>
<trkpt lat="47.212184" lon="8.607950">
<ele>672.8</ele>
<time>2003-06-27T07:06:45Z</time>
<speed>1.1</speed>
</trkpt>
<trkpt lat="47.212137" lon="8.607983">
<ele>672.2</ele>
<time>2003-06-27T07:06:50Z</time>
<speed>1.1</speed>
</trkpt>
<trkpt lat="47.212090" lon="8.608017">
<ele>671.6</ele>
<time>2003-06-27T07:06:55Z</time>
<speed>0.8</speed>
</trkpt>
<trkpt lat="47.212038" lon="8.608035">
<ele>671.6</ele>
<time>2003-06-27T07:07:00Z</time>
<speed>1.1</speed>
</trkpt>
<trkpt lat="47.211979" lon="8.608053">
<ele>670.8</ele>
<time>2003-06-27T07:07:05Z</time>
<speed>1.1</speed>
</trkpt>
<trkpt lat="47.211920" lon="8.608069">
<ele>671.4</ele>
<time>2003-06-27T07:07:10Z</time>
<speed>1.1</speed>
</trkpt>
<trkpt lat="47.211856" lon="8.608072">
<ele>671.2</ele>
<time>2003-06-27T07:07:15Z</time>
<speed>1.1</speed>
</trkpt>
<trkpt lat="47.211798" lon="8.608076">
<ele>671.7</ele>
<time>2003-06-27T07:07:20Z</time>
<speed>1.1</speed>
</trkpt>
<trkpt lat="47.211751" lon="8.608109">
<ele>671.1</ele>
<time>2003-06-27T07:07:25Z</time>
<speed>1.1</speed>
</trkpt>
<trkpt lat="47.211720" lon="8.608185">
<ele>670.2</ele>
<time>2003-06-27T07:07:30Z</time>
<speed>1.1</speed>
</trkpt>
<trkpt lat="47.211683" lon="8.608259">
<ele>669.9</ele>
<time>2003-06-27T07:07:35Z</time>
<speed>1.4</speed>
</trkpt>
<trkpt lat="47.211653" lon="8.608321">
<ele>670.3</ele>
<time>2003-06-27T07:07:40Z</time>
<speed>1.1</speed>
</trkpt>
<trkpt lat="47.211659" lon="8.608401">
<ele>671.0</ele>
<time>2003-06-27T07:07:45Z</time>
<speed>1.1</speed>
</trkpt>
<trkpt lat="47.211698" lon="8.608489">
<ele>669.7</ele>
<time>2003-06-27T07:07:50Z</time>
<speed>1.1</speed>
</trkpt>
<trkpt lat="47.211745" lon="8.608551">
<ele>669.0</ele>
<time>2003-06-27T07:07:55Z</time>
<speed>1.4</speed>
</trkpt>
<trkpt lat="47.211770" lon="8.608651">
<ele>667.7</ele>
<time>2003-06-27T07:08:00Z</time>
<speed>1.4</speed>
</trkpt>
<trkpt lat="47.211754" lon="8.608703">
<ele>666.7</ele>
<time>2003-06-27T07:08:05Z</time>
<speed>1.1</speed>
</trkpt>
<trkpt lat="47.211723" lon="8.608699">
<ele>665.8</ele>
<time>2003-06-27T07:08:10Z</time>
<speed>0.6</speed>
</trkpt>
<trkpt lat="47.211694" lon="8.608654">
<ele>666.0</ele>
<time>2003-06-27T07:08:15Z</time>
<speed>1.1</speed>
</trkpt>
<trkpt lat="47.211647" lon="8.608607">
<ele>665.5</ele>
<time>2003-06-27T07:08:20Z</time>
<speed>0.8</speed>
</trkpt>
<trkpt lat="47.211603" lon="8.608586">
<ele>665.9</ele>
<time>2003-06-27T07:08:25Z</time>
<speed>1.1</speed>
</trkpt>
<trkpt lat="47.211553" lon="8.608658">
<ele>665.6</ele>
<time>2003-06-27T07:08:30Z</time>
<speed>1.4</speed>
</trkpt>
<trkpt lat="47.211504" lon="8.608717">
<ele>665.2</ele>
<time>2003-06-27T07:08:35Z</time>
<speed>1.1</speed>
</trkpt>
<trkpt lat="47.211474" lon="8.608781">
<ele>664.1</ele>
<time>2003-06-27T07:08:40Z</time>
<speed>1.1</speed>
</trkpt>
<trkpt lat="47.211438" lon="8.608842">
<ele>663.8</ele>
<time>2003-06-27T07:08:45Z</time>
<speed>1.1</speed>
</trkpt>
<trkpt lat="47.211396" lon="8.608903">
<ele>662.7</ele>
<time>2003-06-27T07:08:50Z</time>
<speed>1.1</speed>
</trkpt>
<trkpt lat="47.211353" lon="8.608965">
<ele>661.6</ele>
<time>2003-06-27T07:08:55Z</time>
<speed>1.4</speed>
</trkpt>
<trkpt lat="47.211317" lon="8.609026">
<ele>661.3</ele>
<time>2003-06-27T07:09:00Z</time>
<speed>1.1</speed>
</trkpt>
<trkpt lat="47.211281" lon="8.609087">
<ele>660.9</ele>
<time>2003-06-27T07:09:05Z</time>
<speed>1.1</speed>
</trkpt>
<trkpt lat="47.211245" lon="8.609135">
<ele>660.5</ele>
<time>2003-06-27T07:09:10Z</time>
<speed>1.1</speed>
</trkpt>
<trkpt lat="47.211198" lon="8.609184">
<ele>658.5</ele>
<time>2003-06-27T07:09:15Z</time>
<speed>1.1</speed>
</trkpt>
<trkpt lat="47.211138" lon="8.609215">
<ele>657.9</ele>
<time>2003-06-27T07:09:20Z</time>
<speed>1.1</speed>
</trkpt>
<trkpt lat="47.211099" lon="8.609237">
<ele>656.5</ele>
<time>2003-06-27T07:09:25Z</time>
<speed>1.1</speed>
</trkpt>
<trkpt lat="47.211047" lon="8.609257">
<ele>655.0</ele>
<time>2003-06-27T07:09:30Z</time>
<speed>1.1</speed>
</trkpt>
<trkpt lat="47.210989" lon="8.609262">
<ele>654.1</ele>
<time>2003-06-27T07:09:35Z</time>
<speed>1.4</speed>
</trkpt>
<trkpt lat="47.210937" lon="8.609283">
<ele>652.7</ele>
<time>2003-06-27T07:09:40Z</time>
<speed>1.1</speed>
</trkpt>
<trkpt lat="47.210878" lon="8.609301">
<ele>651.9</ele>
<time>2003-06-27T07:09:45Z</time>
<speed>1.1</speed>
</trkpt>
<trkpt lat="47.210819" lon="8.609332">
<ele>651.2</ele>
<time>2003-06-27T07:09:50Z</time>
<speed>1.1</speed>
</trkpt>
<trkpt lat="47.210765" lon="8.609363">
<ele>651.3</ele>
<time>2003-06-27T07:09:55Z</time>
<speed>1.4</speed>
</trkpt>
<trkpt lat="47.210699" lon="8.609395">
<ele>649.9</ele>
<time>2003-06-27T07:10:00Z</time>
<speed>1.1</speed>
</trkpt>
<trkpt lat="47.210639" lon="8.609439">
<ele>649.3</ele>
<time>2003-06-27T07:10:05Z</time>
<speed>1.4</speed>
</trkpt>
<trkpt lat="47.210577" lon="8.609496">
<ele>648.8</ele>
<time>2003-06-27T07:10:11Z</time>
<speed>1.4</speed>
</trkpt>
<trkpt lat="47.210516" lon="8.609540">
<ele>648.3</ele>
<time>2003-06-27T07:10:16Z</time>
<speed>1.1</speed>
</trkpt>
<trkpt lat="47.210468" lon="8.609600">
<ele>647.8</ele>
<time>2003-06-27T07:10:21Z</time>
<speed>1.1</speed>
</trkpt>
<trkpt lat="47.210425" lon="8.609661">
<ele>646.8</ele>
<time>2003-06-27T07:10:26Z</time>
<speed>1.1</speed>
</trkpt>
<trkpt lat="47.210370" lon="8.609718">
<ele>647.0</ele>
<time>2003-06-27T07:10:31Z</time>
<speed>1.1</speed>
</trkpt>
<trkpt lat="47.210333" lon="8.609780">
<ele>646.7</ele>
<time>2003-06-27T07:10:36Z</time>
<speed>1.1</speed>
</trkpt>
<trkpt lat="47.210291" lon="8.609841">
<ele>645.6</ele>
<time>2003-06-27T07:10:41Z</time>
<speed>1.1</speed>
</trkpt>
<trkpt lat="47.210254" lon="8.609915">
<ele>645.3</ele>
<time>2003-06-27T07:10:46Z</time>
<speed>1.1</speed>
</trkpt>
<trkpt lat="47.210211" lon="8.609975">
<ele>645.7</ele>
<time>2003-06-27T07:10:51Z</time>
<speed>1.1</speed>
</trkpt>
<trkpt lat="47.210168" lon="8.610034">
<ele>646.0</ele>
<time>2003-06-27T07:10:56Z</time>
<speed>1.1</speed>
</trkpt>
<trkpt lat="47.210138" lon="8.610095">
<ele>646.4</ele>
<time>2003-06-27T07:11:01Z</time>
<speed>1.1</speed>
</trkpt>
<trkpt lat="47.210100" lon="8.610168">
<ele>647.5</ele>
<time>2003-06-27T07:11:06Z</time>
<speed>1.1</speed>
</trkpt>
<trkpt lat="47.210057" lon="8.610227">
<ele>647.8</ele>
<time>2003-06-27T07:11:11Z</time>
<speed>1.1</speed>
</trkpt>
<trkpt lat="47.210026" lon="8.610301">
<ele>648.3</ele>
<time>2003-06-27T07:11:16Z</time>
<speed>1.1</speed>
</trkpt>
<trkpt lat="47.209977" lon="8.610359">
<ele>649.3</ele>
<time>2003-06-27T07:11:21Z</time>
<speed>1.1</speed>
</trkpt>
<trkpt lat="47.209940" lon="8.610420">
<ele>649.0</ele>
<time>2003-06-27T07:11:26Z</time>
<speed>1.4</speed>
</trkpt>
<trkpt lat="47.209909" lon="8.610494">
<ele>649.5</ele>
<time>2003-06-27T07:11:31Z</time>
<speed>1.1</speed>
</trkpt>
<trkpt lat="47.209883" lon="8.610584">
<ele>649.4</ele>
<time>2003-06-27T07:11:36Z</time>
<speed>1.4</speed>
</trkpt>
<trkpt lat="47.209852" lon="8.610658">
<ele>649.9</ele>
<time>2003-06-27T07:11:41Z</time>
<speed>1.1</speed>
</trkpt>
<trkpt lat="47.209815" lon="8.610732">
<ele>649.6</ele>
<time>2003-06-27T07:11:46Z</time>
<speed>1.1</speed>
</trkpt>
<trkpt lat="47.209790" lon="8.610809">
<ele>649.4</ele>
<time>2003-06-27T07:11:51Z</time>
<speed>1.1</speed>
</trkpt>
<trkpt lat="47.209752" lon="8.610896">
<ele>649.3</ele>
<time>2003-06-27T07:11:56Z</time>
<speed>1.4</speed>
</trkpt>
<trkpt lat="47.209720" lon="8.610984">
<ele>649.9</ele>
<time>2003-06-27T07:12:01Z</time>
<speed>1.1</speed>
</trkpt>
<trkpt lat="47.209695" lon="8.611060">
<ele>649.7</ele>
<time>2003-06-27T07:12:06Z</time>
<speed>1.1</speed>
</trkpt>
<trkpt lat="47.209657" lon="8.611147">
<ele>649.5</ele>
<time>2003-06-27T07:12:11Z</time>
<speed>1.4</speed>
</trkpt>
<trkpt lat="47.209625" lon="8.611222">
<ele>650.0</ele>
<time>2003-06-27T07:12:16Z</time>
<speed>1.1</speed>
</trkpt>
<trkpt lat="47.209607" lon="8.611300">
<ele>649.2</ele>
<time>2003-06-27T07:12:21Z</time>
<speed>1.1</speed>
</trkpt>
<trkpt lat="47.209569" lon="8.611387">
<ele>649.0</ele>
<time>2003-06-27T07:12:26Z</time>
<speed>1.1</speed>
</trkpt>
<trkpt lat="47.209525" lon="8.611460">
<ele>649.4</ele>
<time>2003-06-27T07:12:31Z</time>
<speed>1.4</speed>
</trkpt>
<trkpt lat="47.209488" lon="8.611534">
<ele>649.2</ele>
<time>2003-06-27T07:12:36Z</time>
<speed>1.1</speed>
</trkpt>
<trkpt lat="47.209468" lon="8.611623">
<ele>649.8</ele>
<time>2003-06-27T07:12:41Z</time>
<speed>1.4</speed>
</trkpt>
<trkpt lat="47.209444" lon="8.611700">
<ele>649.7</ele>
<time>2003-06-27T07:12:46Z</time>
<speed>1.4</speed>
</trkpt>
<trkpt lat="47.209413" lon="8.611776">
<ele>648.7</ele>
<time>2003-06-27T07:12:51Z</time>
<speed>1.1</speed>
</trkpt>
<trkpt lat="47.209387" lon="8.611865">
<ele>648.7</ele>
<time>2003-06-27T07:12:56Z</time>
<speed>1.4</speed>
</trkpt>
<trkpt lat="47.209362" lon="8.611955">
<ele>648.6</ele>
<time>2003-06-27T07:13:01Z</time>
<speed>1.1</speed>
</trkpt>
<trkpt lat="47.209343" lon="8.612033">
<ele>647.7</ele>
<time>2003-06-27T07:13:06Z</time>
<speed>1.1</speed>
</trkpt>
<trkpt lat="47.209338" lon="8.612113">
<ele>646.9</ele>
<time>2003-06-27T07:13:11Z</time>
<speed>1.1</speed>
</trkpt>
<trkpt lat="47.209331" lon="8.612207">
<ele>646.2</ele>
<time>2003-06-27T07:13:16Z</time>
<speed>1.4</speed>
</trkpt>
<trkpt lat="47.209346" lon="8.612278">
<ele>644.7</ele>
<time>2003-06-27T07:13:21Z</time>
<speed>1.1</speed>
</trkpt>
<trkpt lat="47.209366" lon="8.612362">
<ele>644.0</ele>
<time>2003-06-27T07:13:26Z</time>
<speed>1.1</speed>
</trkpt>
<trkpt lat="47.209392" lon="8.612448">
<ele>642.7</ele>
<time>2003-06-27T07:13:31Z</time>
<speed>1.1</speed>
</trkpt>
<trkpt lat="47.209413" lon="8.612519">
<ele>641.9</ele>
<time>2003-06-27T07:13:36Z</time>
<speed>1.1</speed>
</trkpt>
<trkpt lat="47.209419" lon="8.612615">
<ele>641.3</ele>
<time>2003-06-27T07:13:41Z</time>
<speed>1.1</speed>
</trkpt>
<trkpt lat="47.209432" lon="8.612697">
<ele>641.3</ele>
<time>2003-06-27T07:13:46Z</time>
<speed>1.4</speed>
</trkpt>
<trkpt lat="47.209425" lon="8.612788">
<ele>642.0</ele>
<time>2003-06-27T07:13:51Z</time>
<speed>1.1</speed>
</trkpt>
<trkpt lat="47.209420" lon="8.612869">
<ele>641.2</ele>
<time>2003-06-27T07:13:56Z</time>
<speed>1.1</speed>
</trkpt>
<trkpt lat="47.209413" lon="8.612960">
<ele>641.9</ele>
<time>2003-06-27T07:14:01Z</time>
<speed>1.1</speed>
</trkpt>
<trkpt lat="47.209401" lon="8.613038">
<ele>641.8</ele>
<time>2003-06-27T07:14:06Z</time>
<speed>1.1</speed>
</trkpt>
<trkpt lat="47.209394" lon="8.613132">
<ele>641.1</ele>
<time>2003-06-27T07:14:11Z</time>
<speed>1.1</speed>
</trkpt>
<trkpt lat="47.209395" lon="8.613214">
<ele>639.6</ele>
<time>2003-06-27T07:14:16Z</time>
<speed>1.1</speed>
</trkpt>
<trkpt lat="47.209377" lon="8.613292">
<ele>638.8</ele>
<time>2003-06-27T07:14:21Z</time>
<speed>1.1</speed>
</trkpt>
<trkpt lat="47.209371" lon="8.613385">
<ele>638.1</ele>
<time>2003-06-27T07:14:26Z</time>
<speed>1.1</speed>
</trkpt>
<trkpt lat="47.209365" lon="8.613466">
<ele>637.3</ele>
<time>2003-06-27T07:14:31Z</time>
<speed>1.1</speed>
</trkpt>
<trkpt lat="47.209346" lon="8.613557">
<ele>636.5</ele>
<time>2003-06-27T07:14:36Z</time>
<speed>1.1</speed>
</trkpt>
<trkpt lat="47.209349" lon="8.613611">
<ele>636.3</ele>
<time>2003-06-27T07:14:41Z</time>
<speed>0.3</speed>
</trkpt>
<trkpt lat="47.209348" lon="8.613624">
<ele>636.4</ele>
<time>2003-06-27T07:14:46Z</time>
<speed>0.0</speed>
</trkpt>
<trkpt lat="47.209348" lon="8.613624">
<ele>636.4</ele>
<time>2003-06-27T07:14:51Z</time>
<speed>0.0</speed>
</trkpt>
<trkpt lat="47.209339" lon="8.613648">
<ele>637.3</ele>
<time>2003-06-27T07:14:56Z</time>
<speed>0.6</speed>
</trkpt>
<trkpt lat="47.209342" lon="8.613703">
<ele>637.0</ele>
<time>2003-06-27T07:15:01Z</time>
<speed>0.8</speed>
</trkpt>
<trkpt lat="47.209311" lon="8.613764">
<ele>637.4</ele>
<time>2003-06-27T07:15:06Z</time>
<speed>1.1</speed>
</trkpt>
<trkpt lat="47.209263" lon="8.613806">
<ele>639.7</ele>
<time>2003-06-27T07:15:11Z</time>
<speed>1.1</speed>
</trkpt>
<trkpt lat="47.209221" lon="8.613854">
<ele>638.5</ele>
<time>2003-06-27T07:15:16Z</time>
<speed>1.1</speed>
</trkpt>
<trkpt lat="47.209180" lon="8.613888">
<ele>638.6</ele>
<time>2003-06-27T07:15:21Z</time>
<speed>0.8</speed>
</trkpt>
<trkpt lat="47.209139" lon="8.613921">
<ele>638.7</ele>
<time>2003-06-27T07:15:26Z</time>
<speed>1.1</speed>
</trkpt>
<trkpt lat="47.209087" lon="8.613939">
<ele>638.7</ele>
<time>2003-06-27T07:15:31Z</time>
<speed>0.8</speed>
</trkpt>
<trkpt lat="47.209035" lon="8.613944">
<ele>638.5</ele>
<time>2003-06-27T07:15:36Z</time>
<speed>0.8</speed>
</trkpt>
<trkpt lat="47.208991" lon="8.613936">
<ele>639.0</ele>
<time>2003-06-27T07:15:41Z</time>
<speed>0.8</speed>
</trkpt>
<trkpt lat="47.208933" lon="8.613939">
<ele>639.5</ele>
<time>2003-06-27T07:15:46Z</time>
<speed>1.1</speed>
</trkpt>
<trkpt lat="47.208875" lon="8.613945">
<ele>638.7</ele>
<time>2003-06-27T07:15:51Z</time>
<speed>1.1</speed>
</trkpt>
<trkpt lat="47.208816" lon="8.613961">
<ele>639.3</ele>
<time>2003-06-27T07:15:56Z</time>
<speed>1.4</speed>
</trkpt>
<trkpt lat="47.208752" lon="8.613964">
<ele>639.1</ele>
<time>2003-06-27T07:16:01Z</time>
<speed>1.1</speed>
</trkpt>
<trkpt lat="47.208705" lon="8.613995">
<ele>639.9</ele>
<time>2003-06-27T07:16:06Z</time>
<speed>0.8</speed>
</trkpt>
<trkpt lat="47.208665" lon="8.614015">
<ele>639.9</ele>
<time>2003-06-27T07:16:11Z</time>
<speed>1.1</speed>
</trkpt>
<trkpt lat="47.208607" lon="8.614019">
<ele>640.4</ele>
<time>2003-06-27T07:16:16Z</time>
<speed>0.8</speed>
</trkpt>
<trkpt lat="47.208559" lon="8.614050">
<ele>641.2</ele>
<time>2003-06-27T07:16:21Z</time>
<speed>1.1</speed>
</trkpt>
<trkpt lat="47.208512" lon="8.614081">
<ele>642.0</ele>
<time>2003-06-27T07:16:26Z</time>
<speed>0.8</speed>
</trkpt>
<trkpt lat="47.208471" lon="8.614114">
<ele>642.1</ele>
<time>2003-06-27T07:16:31Z</time>
<speed>1.1</speed>
</trkpt>
<trkpt lat="47.208424" lon="8.614146">
<ele>642.9</ele>
<time>2003-06-27T07:16:36Z</time>
<speed>0.8</speed>
</trkpt>
<trkpt lat="47.208376" lon="8.614177">
<ele>643.7</ele>
<time>2003-06-27T07:16:41Z</time>
<speed>0.8</speed>
</trkpt>
<trkpt lat="47.208340" lon="8.614223">
<ele>644.7</ele>
<time>2003-06-27T07:16:46Z</time>
<speed>1.1</speed>
</trkpt>
<trkpt lat="47.208292" lon="8.614267">
<ele>645.5</ele>
<time>2003-06-27T07:16:51Z</time>
<speed>1.4</speed>
</trkpt>
<trkpt lat="47.208243" lon="8.614327">
<ele>645.1</ele>
<time>2003-06-27T07:16:56Z</time>
<speed>1.1</speed>
</trkpt>
<trkpt lat="47.208200" lon="8.614386">
<ele>645.5</ele>
<time>2003-06-27T07:17:01Z</time>
<speed>1.1</speed>
</trkpt>
<trkpt lat="47.208152" lon="8.614432">
<ele>644.9</ele>
<time>2003-06-27T07:17:06Z</time>
<speed>1.1</speed>
</trkpt>
<trkpt lat="47.208104" lon="8.614478">
<ele>644.4</ele>
<time>2003-06-27T07:17:11Z</time>
<speed>1.1</speed>
</trkpt>
<trkpt lat="47.208050" lon="8.614525">
<ele>643.2</ele>
<time>2003-06-27T07:17:16Z</time>
<speed>1.1</speed>
</trkpt>
<trkpt lat="47.207997" lon="8.614556">
<ele>643.2</ele>
<time>2003-06-27T07:17:21Z</time>
<speed>0.8</speed>
</trkpt>
<trkpt lat="47.207943" lon="8.614587">
<ele>643.3</ele>
<time>2003-06-27T07:17:26Z</time>
<speed>1.4</speed>
</trkpt>
<trkpt lat="47.207883" lon="8.614632">
<ele>642.7</ele>
<time>2003-06-27T07:17:31Z</time>
<speed>1.4</speed>
</trkpt>
<trkpt lat="47.207835" lon="8.614678">
<ele>642.2</ele>
<time>2003-06-27T07:17:36Z</time>
<speed>1.4</speed>
</trkpt>
<trkpt lat="47.207787" lon="8.614724">
<ele>641.7</ele>
<time>2003-06-27T07:17:41Z</time>
<speed>1.1</speed>
</trkpt>
<trkpt lat="47.207750" lon="8.614785">
<ele>641.3</ele>
<time>2003-06-27T07:17:46Z</time>
<speed>1.1</speed>
</trkpt>
<trkpt lat="47.207738" lon="8.614879">
<ele>639.9</ele>
<time>2003-06-27T07:17:51Z</time>
<speed>1.1</speed>
</trkpt>
<trkpt lat="47.207731" lon="8.614972">
<ele>639.2</ele>
<time>2003-06-27T07:17:56Z</time>
<speed>1.1</speed>
</trkpt>
<trkpt lat="47.207725" lon="8.615050">
<ele>639.8</ele>
<time>2003-06-27T07:18:01Z</time>
<speed>1.1</speed>
</trkpt>
<trkpt lat="47.207725" lon="8.615144">
<ele>639.9</ele>
<time>2003-06-27T07:18:06Z</time>
<speed>1.1</speed>
</trkpt>
<trkpt lat="47.207738" lon="8.615226">
<ele>639.9</ele>
<time>2003-06-27T07:18:11Z</time>
<speed>1.1</speed>
</trkpt>
<trkpt lat="47.207739" lon="8.615306">
<ele>639.8</ele>
<time>2003-06-27T07:18:16Z</time>
<speed>1.1</speed>
</trkpt>
<trkpt lat="47.207746" lon="8.615388">
<ele>639.1</ele>
<time>2003-06-27T07:18:21Z</time>
<speed>1.1</speed>
</trkpt>
<trkpt lat="47.207746" lon="8.615469">
<ele>639.0</ele>
<time>2003-06-27T07:18:26Z</time>
<speed>0.8</speed>
</trkpt>
<trkpt lat="47.207752" lon="8.615562">
<ele>639.8</ele>
<time>2003-06-27T07:18:31Z</time>
<speed>1.1</speed>
</trkpt>
<trkpt lat="47.207740" lon="8.615640">
<ele>639.7</ele>
<time>2003-06-27T07:18:36Z</time>
<speed>0.8</speed>
</trkpt>
<trkpt lat="47.207728" lon="8.615719">
<ele>639.5</ele>
<time>2003-06-27T07:18:41Z</time>
<speed>1.1</speed>
</trkpt>
<trkpt lat="47.207709" lon="8.615808">
<ele>640.2</ele>
<time>2003-06-27T07:18:46Z</time>
<speed>1.1</speed>
</trkpt>
<trkpt lat="47.207691" lon="8.615873">
<ele>639.2</ele>
<time>2003-06-27T07:18:51Z</time>
<speed>1.1</speed>
</trkpt>
<trkpt lat="47.207665" lon="8.615961">
<ele>640.6</ele>
<time>2003-06-27T07:18:56Z</time>
<speed>1.1</speed>
</trkpt>
<trkpt lat="47.207648" lon="8.616024">
<ele>641.0</ele>
<time>2003-06-27T07:19:01Z</time>
<speed>0.8</speed>
</trkpt>
<trkpt lat="47.207629" lon="8.616100">
<ele>641.6</ele>
<time>2003-06-27T07:19:06Z</time>
<speed>1.1</speed>
</trkpt>
<trkpt lat="47.207598" lon="8.616175">
<ele>642.0</ele>
<time>2003-06-27T07:19:11Z</time>
<speed>1.1</speed>
</trkpt>
<trkpt lat="47.207579" lon="8.616251">
<ele>642.6</ele>
<time>2003-06-27T07:19:16Z</time>
<speed>1.1</speed>
</trkpt>
<trkpt lat="47.207561" lon="8.616327">
<ele>643.1</ele>
<time>2003-06-27T07:19:21Z</time>
<speed>1.1</speed>
</trkpt>
<trkpt lat="47.207542" lon="8.616403">
<ele>643.7</ele>
<time>2003-06-27T07:19:26Z</time>
<speed>1.4</speed>
</trkpt>
<trkpt lat="47.207511" lon="8.616478">
<ele>644.2</ele>
<time>2003-06-27T07:19:31Z</time>
<speed>1.1</speed>
</trkpt>
<trkpt lat="47.207493" lon="8.616539">
<ele>646.0</ele>
<time>2003-06-27T07:19:36Z</time>
<speed>0.8</speed>
</trkpt>
<trkpt lat="47.207474" lon="8.616615">
<ele>646.6</ele>
<time>2003-06-27T07:19:41Z</time>
<speed>1.1</speed>
</trkpt>
<trkpt lat="47.207457" lon="8.616679">
<ele>647.0</ele>
<time>2003-06-27T07:19:46Z</time>
<speed>1.1</speed>
</trkpt>
<trkpt lat="47.207438" lon="8.616755">
<ele>647.6</ele>
<time>2003-06-27T07:19:51Z</time>
<speed>1.1</speed>
</trkpt>
<trkpt lat="47.207433" lon="8.616820">
<ele>648.1</ele>
<time>2003-06-27T07:19:56Z</time>
<speed>0.8</speed>
</trkpt>
<trkpt lat="47.207415" lon="8.616897">
<ele>648.6</ele>
<time>2003-06-27T07:20:01Z</time>
<speed>0.8</speed>
</trkpt>
<trkpt lat="47.207396" lon="8.616973">
<ele>649.2</ele>
<time>2003-06-27T07:20:06Z</time>
<speed>1.1</speed>
</trkpt>
<trkpt lat="47.207384" lon="8.617051">
<ele>649.1</ele>
<time>2003-06-27T07:20:11Z</time>
<speed>1.1</speed>
</trkpt>
<trkpt lat="47.207371" lon="8.617143">
<ele>649.0</ele>
<time>2003-06-27T07:20:16Z</time>
<speed>1.1</speed>
</trkpt>
<trkpt lat="47.207359" lon="8.617221">
<ele>648.9</ele>
<time>2003-06-27T07:20:21Z</time>
<speed>1.1</speed>
</trkpt>
<trkpt lat="47.207360" lon="8.617301">
<ele>648.8</ele>
<time>2003-06-27T07:20:26Z</time>
<speed>1.1</speed>
</trkpt>
<trkpt lat="47.207374" lon="8.617370">
<ele>648.7</ele>
<time>2003-06-27T07:20:31Z</time>
<speed>1.1</speed>
</trkpt>
<trkpt lat="47.207402" lon="8.617428">
<ele>648.6</ele>
<time>2003-06-27T07:20:36Z</time>
<speed>0.6</speed>
</trkpt>
<trkpt lat="47.207430" lon="8.617471">
<ele>649.8</ele>
<time>2003-06-27T07:20:41Z</time>
<speed>1.1</speed>
</trkpt>
<trkpt lat="47.207477" lon="8.617532">
<ele>650.4</ele>
<time>2003-06-27T07:20:46Z</time>
<speed>1.1</speed>
</trkpt>
<trkpt lat="47.207523" lon="8.617592">
<ele>651.1</ele>
<time>2003-06-27T07:20:51Z</time>
<speed>1.4</speed>
</trkpt>
<trkpt lat="47.207576" lon="8.617654">
<ele>651.1</ele>
<time>2003-06-27T07:20:56Z</time>
<speed>1.1</speed>
</trkpt>
<trkpt lat="47.207617" lon="8.617714">
<ele>651.0</ele>
<time>2003-06-27T07:21:01Z</time>
<speed>1.1</speed>
</trkpt>
<trkpt lat="47.207657" lon="8.617774">
<ele>650.9</ele>
<time>2003-06-27T07:21:06Z</time>
<speed>1.4</speed>
</trkpt>
<trkpt lat="47.207718" lon="8.617823">
<ele>651.5</ele>
<time>2003-06-27T07:21:11Z</time>
<speed>1.1</speed>
</trkpt>
<trkpt lat="47.207772" lon="8.617872">
<ele>651.4</ele>
<time>2003-06-27T07:21:16Z</time>
<speed>1.1</speed>
</trkpt>
<trkpt lat="47.207826" lon="8.617906">
<ele>652.6</ele>
<time>2003-06-27T07:21:21Z</time>
<speed>1.1</speed>
</trkpt>
<trkpt lat="47.207869" lon="8.617940">
<ele>652.3</ele>
<time>2003-06-27T07:21:26Z</time>
<speed>1.1</speed>
</trkpt>
<trkpt lat="47.207923" lon="8.617987">
<ele>653.6</ele>
<time>2003-06-27T07:21:31Z</time>
<speed>1.1</speed>
</trkpt>
<trkpt lat="47.207971" lon="8.618021">
<ele>654.1</ele>
<time>2003-06-27T07:21:36Z</time>
<speed>1.1</speed>
</trkpt>
<trkpt lat="47.208018" lon="8.618081">
<ele>654.7</ele>
<time>2003-06-27T07:21:41Z</time>
<speed>1.1</speed>
</trkpt>
<trkpt lat="47.208066" lon="8.618115">
<ele>655.2</ele>
<time>2003-06-27T07:21:46Z</time>
<speed>1.1</speed>
</trkpt>
<trkpt lat="47.208121" lon="8.618151">
<ele>654.9</ele>
<time>2003-06-27T07:21:51Z</time>
<speed>1.1</speed>
</trkpt>
<trkpt lat="47.208177" lon="8.618172">
<ele>656.0</ele>
<time>2003-06-27T07:21:56Z</time>
<speed>1.4</speed>
</trkpt>
<trkpt lat="47.208241" lon="8.618184">
<ele>654.9</ele>
<time>2003-06-27T07:22:01Z</time>
<speed>1.1</speed>
</trkpt>
<trkpt lat="47.208294" lon="8.618231">
<ele>656.2</ele>
<time>2003-06-27T07:22:06Z</time>
<speed>1.1</speed>
</trkpt>
<trkpt lat="47.208337" lon="8.618265">
<ele>655.9</ele>
<time>2003-06-27T07:22:11Z</time>
<speed>1.1</speed>
</trkpt>
<trkpt lat="47.208385" lon="8.618299">
<ele>656.4</ele>
<time>2003-06-27T07:22:16Z</time>
<speed>1.1</speed>
</trkpt>
<trkpt lat="47.208435" lon="8.618320">
<ele>656.7</ele>
<time>2003-06-27T07:22:21Z</time>
<speed>1.1</speed>
</trkpt>
<trkpt lat="47.208482" lon="8.618367">
<ele>657.3</ele>
<time>2003-06-27T07:22:26Z</time>
<speed>1.1</speed>
</trkpt>
<trkpt lat="47.208531" lon="8.618401">
<ele>657.7</ele>
<time>2003-06-27T07:22:31Z</time>
<speed>0.8</speed>
</trkpt>
<trkpt lat="47.208580" lon="8.618437">
<ele>656.8</ele>
<time>2003-06-27T07:22:36Z</time>
<speed>1.1</speed>
</trkpt>
<trkpt lat="47.208635" lon="8.618471">
<ele>658.0</ele>
<time>2003-06-27T07:22:41Z</time>
<speed>1.1</speed>
</trkpt>
<trkpt lat="47.208682" lon="8.618518">
<ele>658.5</ele>
<time>2003-06-27T07:22:46Z</time>
<speed>1.1</speed>
</trkpt>
<trkpt lat="47.208725" lon="8.618552">
<ele>658.3</ele>
<time>2003-06-27T07:22:51Z</time>
<speed>1.1</speed>
</trkpt>
<trkpt lat="47.208778" lon="8.618599">
<ele>659.5</ele>
<time>2003-06-27T07:22:56Z</time>
<speed>1.1</speed>
</trkpt>
<trkpt lat="47.208826" lon="8.618646">
<ele>660.1</ele>
<time>2003-06-27T07:23:01Z</time>
<speed>1.1</speed>
</trkpt>
<trkpt lat="47.208881" lon="8.618680">
<ele>661.3</ele>
<time>2003-06-27T07:23:06Z</time>
<speed>1.1</speed>
</trkpt>
<trkpt lat="47.208927" lon="8.618741">
<ele>661.9</ele>
<time>2003-06-27T07:23:11Z</time>
<speed>1.1</speed>
</trkpt>
<trkpt lat="47.208982" lon="8.618775">
<ele>663.1</ele>
<time>2003-06-27T07:23:16Z</time>
<speed>0.8</speed>
</trkpt>
<trkpt lat="47.209029" lon="8.618822">
<ele>663.7</ele>
<time>2003-06-27T07:23:21Z</time>
<speed>1.1</speed>
</trkpt>
<trkpt lat="47.209078" lon="8.618856">
<ele>664.1</ele>
<time>2003-06-27T07:23:26Z</time>
<speed>1.1</speed>
</trkpt>
<trkpt lat="47.209139" lon="8.618892">
<ele>664.6</ele>
<time>2003-06-27T07:23:31Z</time>
<speed>1.1</speed>
</trkpt>
<trkpt lat="47.209181" lon="8.618939">
<ele>664.5</ele>
<time>2003-06-27T07:23:36Z</time>
<speed>1.1</speed>
</trkpt>
<trkpt lat="47.209237" lon="8.618962">
<ele>664.1</ele>
<time>2003-06-27T07:23:41Z</time>
<speed>1.1</speed>
</trkpt>
<trkpt lat="47.209292" lon="8.618998">
<ele>663.9</ele>
<time>2003-06-27T07:23:46Z</time>
<speed>1.4</speed>
</trkpt>
<trkpt lat="47.209355" lon="8.619009">
<ele>662.8</ele>
<time>2003-06-27T07:23:51Z</time>
<speed>1.1</speed>
</trkpt>
<trkpt lat="47.209420" lon="8.619008">
<ele>661.6</ele>
<time>2003-06-27T07:23:56Z</time>
<speed>1.1</speed>
</trkpt>
<trkpt lat="47.209478" lon="8.619005">
<ele>661.1</ele>
<time>2003-06-27T07:24:01Z</time>
<speed>1.4</speed>
</trkpt>
<trkpt lat="47.209538" lon="8.618976">
<ele>660.4</ele>
<time>2003-06-27T07:24:06Z</time>
<speed>1.4</speed>
</trkpt>
<trkpt lat="47.209592" lon="8.618945">
<ele>660.3</ele>
<time>2003-06-27T07:24:11Z</time>
<speed>1.4</speed>
</trkpt>
<trkpt lat="47.209652" lon="8.618915">
<ele>659.6</ele>
<time>2003-06-27T07:24:16Z</time>
<speed>1.4</speed>
</trkpt>
<trkpt lat="47.209713" lon="8.618873">
<ele>658.8</ele>
<time>2003-06-27T07:24:21Z</time>
<speed>1.1</speed>
</trkpt>
<trkpt lat="47.209774" lon="8.618831">
<ele>657.9</ele>
<time>2003-06-27T07:24:26Z</time>
<speed>1.4</speed>
</trkpt>
<trkpt lat="47.209822" lon="8.618786">
<ele>657.0</ele>
<time>2003-06-27T07:24:31Z</time>
<speed>1.4</speed>
</trkpt>
<trkpt lat="47.209876" lon="8.618755">
<ele>657.0</ele>
<time>2003-06-27T07:24:36Z</time>
<speed>1.1</speed>
</trkpt>
<trkpt lat="47.209936" lon="8.618711">
<ele>657.6</ele>
<time>2003-06-27T07:24:41Z</time>
<speed>1.1</speed>
</trkpt>
<trkpt lat="47.209984" lon="8.618680">
<ele>656.8</ele>
<time>2003-06-27T07:24:46Z</time>
<speed>0.8</speed>
</trkpt>
<trkpt lat="47.210037" lon="8.618646">
<ele>658.1</ele>
<time>2003-06-27T07:24:51Z</time>
<speed>0.8</speed>
</trkpt>
<trkpt lat="47.210091" lon="8.618602">
<ele>658.0</ele>
<time>2003-06-27T07:24:56Z</time>
<speed>0.8</speed>
</trkpt>
<trkpt lat="47.210145" lon="8.618571">
<ele>657.9</ele>
<time>2003-06-27T07:25:01Z</time>
<speed>1.1</speed>
</trkpt>
<trkpt lat="47.210216" lon="8.618553">
<ele>660.2</ele>
<time>2003-06-27T07:25:06Z</time>
<speed>1.1</speed>
</trkpt>
<trkpt lat="47.210263" lon="8.618520">
<ele>660.8</ele>
<time>2003-06-27T07:25:11Z</time>
<speed>0.8</speed>
</trkpt>
<trkpt lat="47.210316" lon="8.618488">
<ele>660.7</ele>
<time>2003-06-27T07:25:16Z</time>
<speed>1.1</speed>
</trkpt>
<trkpt lat="47.210363" lon="8.618457">
<ele>659.9</ele>
<time>2003-06-27T07:25:21Z</time>
<speed>1.1</speed>
</trkpt>
<trkpt lat="47.210404" lon="8.618424">
<ele>659.8</ele>
<time>2003-06-27T07:25:26Z</time>
<speed>1.1</speed>
</trkpt>
<trkpt lat="47.210477" lon="8.618395">
<ele>660.5</ele>
<time>2003-06-27T07:25:31Z</time>
<speed>0.8</speed>
</trkpt>
<trkpt lat="47.210537" lon="8.618365">
<ele>659.8</ele>
<time>2003-06-27T07:25:36Z</time>
<speed>0.8</speed>
</trkpt>
<trkpt lat="47.210600" lon="8.618377">
<ele>658.7</ele>
<time>2003-06-27T07:25:41Z</time>
<speed>1.4</speed>
</trkpt>
<trkpt lat="47.210663" lon="8.618387">
<ele>659.0</ele>
<time>2003-06-27T07:25:46Z</time>
<speed>1.1</speed>
</trkpt>
<trkpt lat="47.210712" lon="8.618423">
<ele>658.1</ele>
<time>2003-06-27T07:25:51Z</time>
<speed>1.1</speed>
</trkpt>
<trkpt lat="47.210753" lon="8.618483">
<ele>658.0</ele>
<time>2003-06-27T07:25:56Z</time>
<speed>1.1</speed>
</trkpt>
<trkpt lat="47.210787" lon="8.618541">
<ele>658.6</ele>
<time>2003-06-27T07:26:01Z</time>
<speed>0.8</speed>
</trkpt>
<trkpt lat="47.210813" lon="8.618626">
<ele>658.7</ele>
<time>2003-06-27T07:26:06Z</time>
<speed>1.1</speed>
</trkpt>
<trkpt lat="47.210833" lon="8.618695">
<ele>659.3</ele>
<time>2003-06-27T07:26:11Z</time>
<speed>1.1</speed>
</trkpt>
<trkpt lat="47.210860" lon="8.618766">
<ele>659.3</ele>
<time>2003-06-27T07:26:16Z</time>
<speed>0.8</speed>
</trkpt>
<trkpt lat="47.210881" lon="8.618837">
<ele>658.5</ele>
<time>2003-06-27T07:26:21Z</time>
<speed>1.1</speed>
</trkpt>
<trkpt lat="47.210941" lon="8.618886">
<ele>659.1</ele>
<time>2003-06-27T07:26:26Z</time>
<speed>1.1</speed>
</trkpt>
<trkpt lat="47.210981" lon="8.618946">
<ele>659.0</ele>
<time>2003-06-27T07:26:31Z</time>
<speed>1.1</speed>
</trkpt>
<trkpt lat="47.211009" lon="8.619006">
<ele>657.5</ele>
<time>2003-06-27T07:26:36Z</time>
<speed>0.8</speed>
</trkpt>
<trkpt lat="47.211006" lon="8.619061">
<ele>656.5</ele>
<time>2003-06-27T07:26:41Z</time>
<speed>0.8</speed>
</trkpt>
<trkpt lat="47.210997" lon="8.619100">
<ele>656.0</ele>
<time>2003-06-27T07:26:46Z</time>
<speed>0.8</speed>
</trkpt>
<trkpt lat="47.210939" lon="8.619120">
<ele>653.9</ele>
<time>2003-06-27T07:26:51Z</time>
<speed>1.4</speed>
</trkpt>
<trkpt lat="47.210855" lon="8.619134">
<ele>653.0</ele>
<time>2003-06-27T07:26:56Z</time>
<speed>1.4</speed>
</trkpt>
<trkpt lat="47.210782" lon="8.619163">
<ele>652.2</ele>
<time>2003-06-27T07:27:01Z</time>
<speed>1.1</speed>
</trkpt>
<trkpt lat="47.210705" lon="8.619180">
<ele>650.6</ele>
<time>2003-06-27T07:27:06Z</time>
<speed>1.1</speed>
</trkpt>
<trkpt lat="47.210645" lon="8.619211">
<ele>650.0</ele>
<time>2003-06-27T07:27:11Z</time>
<speed>1.1</speed>
</trkpt>
<trkpt lat="47.210694" lon="8.619338">
<ele>650.5</ele>
<time>2003-06-27T07:27:16Z</time>
<speed>0.8</speed>
</trkpt>
<trkpt lat="47.210711" lon="8.619446">
<ele>651.4</ele>
<time>2003-06-27T07:27:21Z</time>
<speed>1.4</speed>
</trkpt>
<trkpt lat="47.210741" lon="8.619555">
<ele>653.8</ele>
<time>2003-06-27T07:27:26Z</time>
<speed>1.1</speed>
</trkpt>
<trkpt lat="47.210790" lon="8.619654">
<ele>655.5</ele>
<time>2003-06-27T07:27:31Z</time>
<speed>1.1</speed>
</trkpt>
<trkpt lat="47.210822" lon="8.619738">
<ele>656.3</ele>
<time>2003-06-27T07:27:36Z</time>
<speed>1.1</speed>
</trkpt>
<trkpt lat="47.210842" lon="8.619823">
<ele>655.6</ele>
<time>2003-06-27T07:27:41Z</time>
<speed>1.1</speed>
</trkpt>
<trkpt lat="47.210874" lon="8.619907">
<ele>656.4</ele>
<time>2003-06-27T07:27:46Z</time>
<speed>1.4</speed>
</trkpt>
<trkpt lat="47.210892" lon="8.620002">
<ele>657.3</ele>
<time>2003-06-27T07:27:51Z</time>
<speed>1.1</speed>
</trkpt>
<trkpt lat="47.210918" lon="8.620084">
<ele>658.7</ele>
<time>2003-06-27T07:27:56Z</time>
<speed>1.1</speed>
</trkpt>
<trkpt lat="47.210943" lon="8.620182">
<ele>658.9</ele>
<time>2003-06-27T07:28:01Z</time>
<speed>1.4</speed>
</trkpt>
<trkpt lat="47.210976" lon="8.620255">
<ele>658.2</ele>
<time>2003-06-27T07:28:06Z</time>
<speed>1.1</speed>
</trkpt>
<trkpt lat="47.211008" lon="8.620339">
<ele>659.0</ele>
<time>2003-06-27T07:28:11Z</time>
<speed>1.4</speed>
</trkpt>
<trkpt lat="47.211040" lon="8.620421">
<ele>661.2</ele>
<time>2003-06-27T07:28:16Z</time>
<speed>1.1</speed>
</trkpt>
<trkpt lat="47.211040" lon="8.620502">
<ele>661.1</ele>
<time>2003-06-27T07:28:21Z</time>
<speed>1.4</speed>
</trkpt>
<trkpt lat="47.211028" lon="8.620580">
<ele>661.0</ele>
<time>2003-06-27T07:28:26Z</time>
<speed>1.1</speed>
</trkpt>
<trkpt lat="47.211016" lon="8.620658">
<ele>660.9</ele>
<time>2003-06-27T07:28:31Z</time>
<speed>1.1</speed>
</trkpt>
<trkpt lat="47.210998" lon="8.620735">
<ele>661.4</ele>
<time>2003-06-27T07:28:36Z</time>
<speed>1.4</speed>
</trkpt>
<trkpt lat="47.210965" lon="8.620822">
<ele>662.0</ele>
<time>2003-06-27T07:28:41Z</time>
<speed>1.1</speed>
</trkpt>
<trkpt lat="47.210935" lon="8.620898">
<ele>661.1</ele>
<time>2003-06-27T07:28:46Z</time>
<speed>1.1</speed>
</trkpt>
<trkpt lat="47.210916" lon="8.620975">
<ele>661.6</ele>
<time>2003-06-27T07:28:51Z</time>
<speed>1.1</speed>
</trkpt>
<trkpt lat="47.210892" lon="8.621038">
<ele>661.4</ele>
<time>2003-06-27T07:28:56Z</time>
<speed>1.1</speed>
</trkpt>
<trkpt lat="47.210861" lon="8.621114">
<ele>660.4</ele>
<time>2003-06-27T07:29:01Z</time>
<speed>1.1</speed>
</trkpt>
<trkpt lat="47.210843" lon="8.621190">
<ele>661.0</ele>
<time>2003-06-27T07:29:06Z</time>
<speed>1.1</speed>
</trkpt>
<trkpt lat="47.210823" lon="8.621280">
<ele>661.6</ele>
<time>2003-06-27T07:29:11Z</time>
<speed>1.1</speed>
</trkpt>
<trkpt lat="47.210804" lon="8.621369">
<ele>662.3</ele>
<time>2003-06-27T07:29:16Z</time>
<speed>0.8</speed>
</trkpt>
<trkpt lat="47.210792" lon="8.621447">
<ele>662.2</ele>
<time>2003-06-27T07:29:21Z</time>
<speed>1.1</speed>
</trkpt>
<trkpt lat="47.210785" lon="8.621539">
<ele>662.9</ele>
<time>2003-06-27T07:29:26Z</time>
<speed>0.8</speed>
</trkpt>
<trkpt lat="47.210791" lon="8.621619">
<ele>663.6</ele>
<time>2003-06-27T07:29:31Z</time>
<speed>1.1</speed>
</trkpt>
<trkpt lat="47.210797" lon="8.621712">
<ele>664.3</ele>
<time>2003-06-27T07:29:36Z</time>
<speed>1.1</speed>
</trkpt>
<trkpt lat="47.210817" lon="8.621795">
<ele>665.1</ele>
<time>2003-06-27T07:29:41Z</time>
<speed>1.1</speed>
</trkpt>
<trkpt lat="47.210829" lon="8.621875">
<ele>666.5</ele>
<time>2003-06-27T07:29:46Z</time>
<speed>0.8</speed>
</trkpt>
<trkpt lat="47.210836" lon="8.621955">
<ele>667.1</ele>
<time>2003-06-27T07:29:51Z</time>
<speed>0.8</speed>
</trkpt>
<trkpt lat="47.210843" lon="8.622036">
<ele>667.8</ele>
<time>2003-06-27T07:29:56Z</time>
<speed>0.8</speed>
</trkpt>
<trkpt lat="47.210848" lon="8.622129">
<ele>668.6</ele>
<time>2003-06-27T07:30:01Z</time>
<speed>0.8</speed>
</trkpt>
<trkpt lat="47.210868" lon="8.622211">
<ele>669.3</ele>
<time>2003-06-27T07:30:06Z</time>
<speed>0.8</speed>
</trkpt>
<trkpt lat="47.210868" lon="8.622289">
<ele>670.7</ele>
<time>2003-06-27T07:30:11Z</time>
<speed>0.8</speed>
</trkpt>
<trkpt lat="47.210887" lon="8.622387">
<ele>670.1</ele>
<time>2003-06-27T07:30:16Z</time>
<speed>0.8</speed>
</trkpt>
<trkpt lat="47.210892" lon="8.622480">
<ele>670.9</ele>
<time>2003-06-27T07:30:21Z</time>
<speed>1.1</speed>
</trkpt>
<trkpt lat="47.210900" lon="8.622547">
<ele>671.5</ele>
<time>2003-06-27T07:30:26Z</time>
<speed>0.8</speed>
</trkpt>
<trkpt lat="47.210919" lon="8.622629">
<ele>672.2</ele>
<time>2003-06-27T07:30:31Z</time>
<speed>0.8</speed>
</trkpt>
<trkpt lat="47.210934" lon="8.622699">
<ele>672.1</ele>
<time>2003-06-27T07:30:36Z</time>
<speed>0.8</speed>
</trkpt>
<trkpt lat="47.210953" lon="8.622781">
<ele>672.8</ele>
<time>2003-06-27T07:30:41Z</time>
<speed>0.8</speed>
</trkpt>
<trkpt lat="47.210972" lon="8.622863">
<ele>673.6</ele>
<time>2003-06-27T07:30:46Z</time>
<speed>0.8</speed>
</trkpt>
<trkpt lat="47.211006" lon="8.622936">
<ele>672.9</ele>
<time>2003-06-27T07:30:51Z</time>
<speed>0.8</speed>
</trkpt>
<trkpt lat="47.211032" lon="8.623006">
<ele>674.2</ele>
<time>2003-06-27T07:30:56Z</time>
<speed>1.1</speed>
</trkpt>
<trkpt lat="47.211057" lon="8.623103">
<ele>674.4</ele>
<time>2003-06-27T07:31:01Z</time>
<speed>0.8</speed>
</trkpt>
<trkpt lat="47.211089" lon="8.623189">
<ele>673.8</ele>
<time>2003-06-27T07:31:06Z</time>
<speed>1.1</speed>
</trkpt>
<trkpt lat="47.211129" lon="8.623262">
<ele>673.8</ele>
<time>2003-06-27T07:31:11Z</time>
<speed>1.4</speed>
</trkpt>
<trkpt lat="47.211168" lon="8.623335">
<ele>673.8</ele>
<time>2003-06-27T07:31:16Z</time>
<speed>1.4</speed>
</trkpt>
<trkpt lat="47.211208" lon="8.623409">
<ele>673.8</ele>
<time>2003-06-27T07:31:21Z</time>
<speed>1.1</speed>
</trkpt>
<trkpt lat="47.211254" lon="8.623469">
<ele>674.5</ele>
<time>2003-06-27T07:31:26Z</time>
<speed>1.1</speed>
</trkpt>
<trkpt lat="47.211310" lon="8.623505">
<ele>674.3</ele>
<time>2003-06-27T07:31:31Z</time>
<speed>1.4</speed>
</trkpt>
<trkpt lat="47.211364" lon="8.623554">
<ele>674.2</ele>
<time>2003-06-27T07:31:36Z</time>
<speed>1.4</speed>
</trkpt>
<trkpt lat="47.211419" lon="8.623575">
<ele>675.3</ele>
<time>2003-06-27T07:31:41Z</time>
<speed>1.1</speed>
</trkpt>
<trkpt lat="47.211480" lon="8.623611">
<ele>675.8</ele>
<time>2003-06-27T07:31:46Z</time>
<speed>1.1</speed>
</trkpt>
<trkpt lat="47.211530" lon="8.623632">
<ele>676.1</ele>
<time>2003-06-27T07:31:51Z</time>
<speed>1.4</speed>
</trkpt>
<trkpt lat="47.211592" lon="8.623655">
<ele>676.5</ele>
<time>2003-06-27T07:31:56Z</time>
<speed>1.4</speed>
</trkpt>
<trkpt lat="47.211647" lon="8.623691">
<ele>676.3</ele>
<time>2003-06-27T07:32:01Z</time>
<speed>1.4</speed>
</trkpt>
<trkpt lat="47.211708" lon="8.623727">
<ele>676.8</ele>
<time>2003-06-27T07:32:06Z</time>
<speed>1.1</speed>
</trkpt>
<trkpt lat="47.211757" lon="8.623761">
<ele>677.3</ele>
<time>2003-06-27T07:32:11Z</time>
<speed>1.1</speed>
</trkpt>
<trkpt lat="47.211817" lon="8.623810">
<ele>677.9</ele>
<time>2003-06-27T07:32:16Z</time>
<speed>1.4</speed>
</trkpt>
<trkpt lat="47.211872" lon="8.623846">
<ele>677.7</ele>
<time>2003-06-27T07:32:21Z</time>
<speed>1.4</speed>
</trkpt>
<trkpt lat="47.211925" lon="8.623908">
<ele>677.7</ele>
<time>2003-06-27T07:32:26Z</time>
<speed>1.1</speed>
</trkpt>
<trkpt lat="47.211972" lon="8.623970">
<ele>676.9</ele>
<time>2003-06-27T07:32:31Z</time>
<speed>1.4</speed>
</trkpt>
<trkpt lat="47.212013" lon="8.624030">
<ele>676.8</ele>
<time>2003-06-27T07:32:36Z</time>
<speed>0.8</speed>
</trkpt>
<trkpt lat="47.212046" lon="8.624103">
<ele>676.1</ele>
<time>2003-06-27T07:32:41Z</time>
<speed>1.1</speed>
</trkpt>
<trkpt lat="47.212081" lon="8.624163">
<ele>675.3</ele>
<time>2003-06-27T07:32:46Z</time>
<speed>1.4</speed>
</trkpt>
<trkpt lat="47.212114" lon="8.624236">
<ele>674.6</ele>
<time>2003-06-27T07:32:51Z</time>
<speed>1.1</speed>
</trkpt>
<trkpt lat="47.212140" lon="8.624321">
<ele>674.7</ele>
<time>2003-06-27T07:32:56Z</time>
<speed>1.4</speed>
</trkpt>
<trkpt lat="47.212172" lon="8.624407">
<ele>674.1</ele>
<time>2003-06-27T07:33:01Z</time>
<speed>1.4</speed>
</trkpt>
<trkpt lat="47.212205" lon="8.624478">
<ele>674.8</ele>
<time>2003-06-27T07:33:06Z</time>
<speed>1.4</speed>
</trkpt>
<trkpt lat="47.212232" lon="8.624551">
<ele>673.3</ele>
<time>2003-06-27T07:33:11Z</time>
<speed>1.1</speed>
</trkpt>
<trkpt lat="47.212266" lon="8.624624">
<ele>672.6</ele>
<time>2003-06-27T07:33:16Z</time>
<speed>1.4</speed>
</trkpt>
<trkpt lat="47.212298" lon="8.624709">
<ele>673.4</ele>
<time>2003-06-27T07:33:21Z</time>
<speed>1.4</speed>
</trkpt>
<trkpt lat="47.212330" lon="8.624795">
<ele>672.8</ele>
<time>2003-06-27T07:33:26Z</time>
<speed>1.4</speed>
</trkpt>
<trkpt lat="47.212363" lon="8.624866">
<ele>673.5</ele>
<time>2003-06-27T07:33:31Z</time>
<speed>1.4</speed>
</trkpt>
<trkpt lat="47.212403" lon="8.624939">
<ele>673.5</ele>
<time>2003-06-27T07:33:36Z</time>
<speed>1.1</speed>
</trkpt>
<trkpt lat="47.212435" lon="8.625023">
<ele>674.3</ele>
<time>2003-06-27T07:33:41Z</time>
<speed>1.4</speed>
</trkpt>
<trkpt lat="47.212475" lon="8.625084">
<ele>674.2</ele>
<time>2003-06-27T07:33:46Z</time>
<speed>1.1</speed>
</trkpt>
<trkpt lat="47.212507" lon="8.625170">
<ele>673.6</ele>
<time>2003-06-27T07:33:51Z</time>
<speed>1.4</speed>
</trkpt>
<trkpt lat="47.212547" lon="8.625243">
<ele>673.7</ele>
<time>2003-06-27T07:33:56Z</time>
<speed>1.4</speed>
</trkpt>
<trkpt lat="47.212586" lon="8.625314">
<ele>675.1</ele>
<time>2003-06-27T07:34:01Z</time>
<speed>1.1</speed>
</trkpt>
<trkpt lat="47.212625" lon="8.625400">
<ele>675.2</ele>
<time>2003-06-27T07:34:06Z</time>
<speed>1.4</speed>
</trkpt>
<trkpt lat="47.212671" lon="8.625460">
<ele>675.9</ele>
<time>2003-06-27T07:34:11Z</time>
<speed>1.4</speed>
</trkpt>
<trkpt lat="47.212718" lon="8.625523">
<ele>675.1</ele>
<time>2003-06-27T07:34:16Z</time>
<speed>1.4</speed>
</trkpt>
<trkpt lat="47.212765" lon="8.625583">
<ele>675.8</ele>
<time>2003-06-27T07:34:21Z</time>
<speed>1.1</speed>
</trkpt>
<trkpt lat="47.212806" lon="8.625630">
<ele>675.6</ele>
<time>2003-06-27T07:34:26Z</time>
<speed>1.1</speed>
</trkpt>
<trkpt lat="47.212866" lon="8.625679">
<ele>676.2</ele>
<time>2003-06-27T07:34:31Z</time>
<speed>1.1</speed>
</trkpt>
<trkpt lat="47.212920" lon="8.625728">
<ele>676.1</ele>
<time>2003-06-27T07:34:36Z</time>
<speed>1.1</speed>
</trkpt>
<trkpt lat="47.212968" lon="8.625775">
<ele>676.7</ele>
<time>2003-06-27T07:34:41Z</time>
<speed>1.1</speed>
</trkpt>
<trkpt lat="47.213021" lon="8.625837">
<ele>676.6</ele>
<time>2003-06-27T07:34:46Z</time>
<speed>1.4</speed>
</trkpt>
<trkpt lat="47.213070" lon="8.625873">
<ele>675.7</ele>
<time>2003-06-27T07:34:51Z</time>
<speed>1.1</speed>
</trkpt>
<trkpt lat="47.213123" lon="8.625935">
<ele>675.7</ele>
<time>2003-06-27T07:34:56Z</time>
<speed>1.1</speed>
</trkpt>
<trkpt lat="47.213178" lon="8.625971">
<ele>675.5</ele>
<time>2003-06-27T07:35:01Z</time>
<speed>1.4</speed>
</trkpt>
<trkpt lat="47.213226" lon="8.626018">
<ele>676.0</ele>
<time>2003-06-27T07:35:06Z</time>
<speed>1.4</speed>
</trkpt>
<trkpt lat="47.213280" lon="8.626067">
<ele>675.9</ele>
<time>2003-06-27T07:35:11Z</time>
<speed>1.1</speed>
</trkpt>
<trkpt lat="47.213335" lon="8.626103">
<ele>675.7</ele>
<time>2003-06-27T07:35:16Z</time>
<speed>1.1</speed>
</trkpt>
<trkpt lat="47.213383" lon="8.626150">
<ele>676.2</ele>
<time>2003-06-27T07:35:21Z</time>
<speed>1.1</speed>
</trkpt>
<trkpt lat="47.213429" lon="8.626210">
<ele>676.9</ele>
<time>2003-06-27T07:35:26Z</time>
<speed>1.1</speed>
</trkpt>
<trkpt lat="47.213472" lon="8.626244">
<ele>676.6</ele>
<time>2003-06-27T07:35:31Z</time>
<speed>1.1</speed>
</trkpt>
<trkpt lat="47.213513" lon="8.626291">
<ele>676.4</ele>
<time>2003-06-27T07:35:36Z</time>
<speed>1.4</speed>
</trkpt>
<trkpt lat="47.213560" lon="8.626352">
<ele>677.1</ele>
<time>2003-06-27T07:35:41Z</time>
<speed>1.1</speed>
</trkpt>
<trkpt lat="47.213600" lon="8.626410">
<ele>678.4</ele>
<time>2003-06-27T07:35:46Z</time>
<speed>1.1</speed>
</trkpt>
<trkpt lat="47.213647" lon="8.626457">
<ele>679.0</ele>
<time>2003-06-27T07:35:51Z</time>
<speed>1.1</speed>
</trkpt>
<trkpt lat="47.213694" lon="8.626517">
<ele>679.6</ele>
<time>2003-06-27T07:35:56Z</time>
<speed>0.8</speed>
</trkpt>
<trkpt lat="47.213728" lon="8.626575">
<ele>680.2</ele>
<time>2003-06-27T07:36:01Z</time>
<speed>1.1</speed>
</trkpt>
<trkpt lat="47.213775" lon="8.626622">
<ele>680.8</ele>
<time>2003-06-27T07:36:06Z</time>
<speed>1.1</speed>
</trkpt>
<trkpt lat="47.213823" lon="8.626669">
<ele>681.3</ele>
<time>2003-06-27T07:36:11Z</time>
<speed>1.1</speed>
</trkpt>
<trkpt lat="47.213870" lon="8.626729">
<ele>682.0</ele>
<time>2003-06-27T07:36:16Z</time>
<speed>0.8</speed>
</trkpt>
<trkpt lat="47.213903" lon="8.626787">
<ele>682.6</ele>
<time>2003-06-27T07:36:21Z</time>
<speed>1.1</speed>
</trkpt>
<trkpt lat="47.213950" lon="8.626848">
<ele>683.2</ele>
<time>2003-06-27T07:36:26Z</time>
<speed>0.8</speed>
</trkpt>
<trkpt lat="47.213977" lon="8.626904">
<ele>684.5</ele>
<time>2003-06-27T07:36:31Z</time>
<speed>1.1</speed>
</trkpt>
<trkpt lat="47.214018" lon="8.626964">
<ele>684.4</ele>
<time>2003-06-27T07:36:36Z</time>
<speed>1.1</speed>
</trkpt>
<trkpt lat="47.214059" lon="8.627009">
<ele>685.6</ele>
<time>2003-06-27T07:36:41Z</time>
<speed>0.8</speed>
</trkpt>
<trkpt lat="47.214106" lon="8.627069">
<ele>686.3</ele>
<time>2003-06-27T07:36:46Z</time>
<speed>1.1</speed>
</trkpt>
<trkpt lat="47.214140" lon="8.627127">
<ele>686.9</ele>
<time>2003-06-27T07:36:51Z</time>
<speed>1.1</speed>
</trkpt>
<trkpt lat="47.214173" lon="8.627185">
<ele>687.5</ele>
<time>2003-06-27T07:36:56Z</time>
<speed>1.1</speed>
</trkpt>
<trkpt lat="47.214220" lon="8.627246">
<ele>688.2</ele>
<time>2003-06-27T07:37:01Z</time>
<speed>1.1</speed>
</trkpt>
<trkpt lat="47.214242" lon="8.627289">
<ele>688.6</ele>
<time>2003-06-27T07:37:06Z</time>
<speed>0.3</speed>
</trkpt>
<trkpt lat="47.214264" lon="8.627345">
<ele>689.1</ele>
<time>2003-06-27T07:37:11Z</time>
<speed>1.1</speed>
</trkpt>
<trkpt lat="47.214304" lon="8.627403">
<ele>690.4</ele>
<time>2003-06-27T07:37:16Z</time>
<speed>1.1</speed>
</trkpt>
<trkpt lat="47.214338" lon="8.627461">
<ele>691.0</ele>
<time>2003-06-27T07:37:21Z</time>
<speed>0.8</speed>
</trkpt>
<trkpt lat="47.214385" lon="8.627508">
<ele>691.6</ele>
<time>2003-06-27T07:37:26Z</time>
<speed>0.8</speed>
</trkpt>
<trkpt lat="47.214409" lon="8.627538">
<ele>691.9</ele>
<time>2003-06-27T07:37:31Z</time>
<speed>0.6</speed>
</trkpt>
<trkpt lat="47.214407" lon="8.627564">
<ele>692.1</ele>
<time>2003-06-27T07:37:36Z</time>
<speed>0.6</speed>
</trkpt>
<trkpt lat="47.214405" lon="8.627590">
<ele>692.3</ele>
<time>2003-06-27T07:37:41Z</time>
<speed>0.3</speed>
</trkpt>
<trkpt lat="47.214434" lon="8.627622">
<ele>692.0</ele>
<time>2003-06-27T07:37:46Z</time>
<speed>0.6</speed>
</trkpt>
<trkpt lat="47.214440" lon="8.627637">
<ele>691.4</ele>
<time>2003-06-27T07:37:51Z</time>
<speed>0.6</speed>
</trkpt>
<trkpt lat="47.214418" lon="8.627675">
<ele>690.9</ele>
<time>2003-06-27T07:37:56Z</time>
<speed>0.6</speed>
</trkpt>
<trkpt lat="47.214366" lon="8.627693">
<ele>690.9</ele>
<time>2003-06-27T07:38:02Z</time>
<speed>0.8</speed>
</trkpt>
<trkpt lat="47.214320" lon="8.627698">
<ele>691.5</ele>
<time>2003-06-27T07:38:07Z</time>
<speed>0.6</speed>
</trkpt>
<trkpt lat="47.214286" lon="8.627657">
<ele>688.2</ele>
<time>2003-06-27T07:38:12Z</time>
<speed>0.6</speed>
</trkpt>
<trkpt lat="47.214271" lon="8.627618">
<ele>685.7</ele>
<time>2003-06-27T07:38:17Z</time>
<speed>0.0</speed>
</trkpt>
<trkpt lat="47.214246" lon="8.627618">
<ele>682.7</ele>
<time>2003-06-27T07:38:22Z</time>
<speed>0.3</speed>
</trkpt>
<trkpt lat="47.214265" lon="8.627620">
<ele>683.5</ele>
<time>2003-06-27T07:38:27Z</time>
<speed>0.0</speed>
</trkpt>
<trkpt lat="47.214277" lon="8.627635">
<ele>683.7</ele>
<time>2003-06-27T07:38:32Z</time>
<speed>0.6</speed>
</trkpt>
<trkpt lat="47.214278" lon="8.627622">
<ele>683.6</ele>
<time>2003-06-27T07:38:37Z</time>
<speed>0.3</speed>
</trkpt>
<trkpt lat="47.214278" lon="8.627622">
<ele>683.6</ele>
<time>2003-06-27T07:38:42Z</time>
<speed>0.0</speed>
</trkpt>
<trkpt lat="47.214282" lon="8.627569">
<ele>683.2</ele>
<time>2003-06-27T07:38:47Z</time>
<speed>0.6</speed>
</trkpt>
<trkpt lat="47.214285" lon="8.627530">
<ele>682.9</ele>
<time>2003-06-27T07:38:52Z</time>
<speed>0.0</speed>
</trkpt>
<trkpt lat="47.214277" lon="8.627541">
<ele>683.6</ele>
<time>2003-06-27T07:38:57Z</time>
<speed>0.6</speed>
</trkpt>
<trkpt lat="47.214290" lon="8.627528">
<ele>685.0</ele>
<time>2003-06-27T07:39:02Z</time>
<speed>0.0</speed>
</trkpt>
<trkpt lat="47.214278" lon="8.627526">
<ele>684.9</ele>
<time>2003-06-27T07:39:07Z</time>
<speed>0.0</speed>
</trkpt>
<trkpt lat="47.214270" lon="8.627537">
<ele>685.7</ele>
<time>2003-06-27T07:39:12Z</time>
<speed>1.1</speed>
</trkpt>
<trkpt lat="47.214241" lon="8.627586">
<ele>686.0</ele>
<time>2003-06-27T07:39:17Z</time>
<speed>0.6</speed>
</trkpt>
<trkpt lat="47.214268" lon="8.627640">
<ele>688.7</ele>
<time>2003-06-27T07:39:22Z</time>
<speed>0.3</speed>
</trkpt>
<trkpt lat="47.214268" lon="8.627642">
<ele>687.3</ele>
<time>2003-06-27T07:39:27Z</time>
<speed>0.0</speed>
</trkpt>
<trkpt lat="47.214293" lon="8.627659">
<ele>687.5</ele>
<time>2003-06-27T07:39:32Z</time>
<speed>0.0</speed>
</trkpt>
<trkpt lat="47.214293" lon="8.627659">
<ele>687.5</ele>
<time>2003-06-27T07:39:37Z</time>
<speed>0.0</speed>
</trkpt>
<trkpt lat="47.214287" lon="8.627659">
<ele>686.8</ele>
<time>2003-06-27T07:39:42Z</time>
<speed>0.3</speed>
</trkpt>
<trkpt lat="47.214239" lon="8.627705">
<ele>686.2</ele>
<time>2003-06-27T07:39:47Z</time>
<speed>0.8</speed>
</trkpt>
<trkpt lat="47.214211" lon="8.627727">
<ele>686.3</ele>
<time>2003-06-27T07:39:52Z</time>
<speed>0.8</speed>
</trkpt>
<trkpt lat="47.214157" lon="8.627771">
<ele>686.5</ele>
<time>2003-06-27T07:39:57Z</time>
<speed>0.8</speed>
</trkpt>
<trkpt lat="47.214116" lon="8.627805">
<ele>686.6</ele>
<time>2003-06-27T07:40:02Z</time>
<speed>0.6</speed>
</trkpt>
<trkpt lat="47.214102" lon="8.627816">
<ele>686.6</ele>
<time>2003-06-27T07:40:07Z</time>
<speed>0.3</speed>
</trkpt>
<trkpt lat="47.214132" lon="8.627768">
<ele>686.4</ele>
<time>2003-06-27T07:40:12Z</time>
<speed>0.8</speed>
</trkpt>
<trkpt lat="47.214168" lon="8.627708">
<ele>685.3</ele>
<time>2003-06-27T07:40:17Z</time>
<speed>0.8</speed>
</trkpt>
<trkpt lat="47.214198" lon="8.627660">
<ele>685.0</ele>
<time>2003-06-27T07:40:22Z</time>
<speed>1.1</speed>
</trkpt>
<trkpt lat="47.214233" lon="8.627612">
<ele>685.5</ele>
<time>2003-06-27T07:40:27Z</time>
<speed>0.6</speed>
</trkpt>
<trkpt lat="47.214255" lon="8.627577">
<ele>684.6</ele>
<time>2003-06-27T07:40:32Z</time>
<speed>0.0</speed>
</trkpt>
<trkpt lat="47.214255" lon="8.627577">
<ele>684.6</ele>
<time>2003-06-27T07:40:37Z</time>
<speed>0.0</speed>
</trkpt>
<trkpt lat="47.214255" lon="8.627577">
<ele>684.6</ele>
<time>2003-06-27T07:40:42Z</time>
<speed>0.0</speed>
</trkpt>
<trkpt lat="47.214255" lon="8.627577">
<ele>684.6</ele>
<time>2003-06-27T07:40:47Z</time>
<speed>0.0</speed>
</trkpt>
<trkpt lat="47.214255" lon="8.627577">
<ele>684.6</ele>
<time>2003-06-27T07:40:52Z</time>
<speed>0.0</speed>
</trkpt>
<trkpt lat="47.214255" lon="8.627577">
<ele>684.6</ele>
<time>2003-06-27T07:40:57Z</time>
<speed>0.0</speed>
</trkpt>
<trkpt lat="47.214256" lon="8.627563">
<ele>684.5</ele>
<time>2003-06-27T07:41:02Z</time>
<speed>0.0</speed>
</trkpt>
<trkpt lat="47.214256" lon="8.627563">
<ele>684.5</ele>
<time>2003-06-27T07:41:07Z</time>
<speed>0.0</speed>
</trkpt>
<trkpt lat="47.214263" lon="8.627550">
<ele>685.1</ele>
<time>2003-06-27T07:41:12Z</time>
<speed>0.0</speed>
</trkpt>
<trkpt lat="47.214263" lon="8.627550">
<ele>685.1</ele>
<time>2003-06-27T07:41:17Z</time>
<speed>0.0</speed>
</trkpt>
<trkpt lat="47.214263" lon="8.627550">
<ele>685.1</ele>
<time>2003-06-27T07:41:22Z</time>
<speed>0.0</speed>
</trkpt>
<trkpt lat="47.214270" lon="8.627552">
<ele>684.4</ele>
<time>2003-06-27T07:41:27Z</time>
<speed>0.0</speed>
</trkpt>
<trkpt lat="47.214270" lon="8.627552">
<ele>684.4</ele>
<time>2003-06-27T07:41:32Z</time>
<speed>0.3</speed>
</trkpt>
<trkpt lat="47.214276" lon="8.627552">
<ele>685.1</ele>
<time>2003-06-27T07:41:37Z</time>
<speed>0.0</speed>
</trkpt>
<trkpt lat="47.214276" lon="8.627552">
<ele>685.1</ele>
<time>2003-06-27T07:41:42Z</time>
<speed>0.0</speed>
</trkpt>
<trkpt lat="47.214276" lon="8.627552">
<ele>685.1</ele>
<time>2003-06-27T07:41:47Z</time>
<speed>0.0</speed>
</trkpt>
<trkpt lat="47.214276" lon="8.627552">
<ele>685.1</ele>
<time>2003-06-27T07:41:52Z</time>
<speed>0.0</speed>
</trkpt>
<trkpt lat="47.214282" lon="8.627554">
<ele>684.5</ele>
<time>2003-06-27T07:41:57Z</time>
<speed>0.0</speed>
</trkpt>
<trkpt lat="47.214282" lon="8.627554">
<ele>684.5</ele>
<time>2003-06-27T07:42:02Z</time>
<speed>0.0</speed>
</trkpt>
<trkpt lat="47.214282" lon="8.627554">
<ele>684.5</ele>
<time>2003-06-27T07:42:07Z</time>
<speed>0.0</speed>
</trkpt>
<trkpt lat="47.214269" lon="8.627565">
<ele>684.5</ele>
<time>2003-06-27T07:42:12Z</time>
<speed>0.0</speed>
</trkpt>
<trkpt lat="47.214241" lon="8.627588">
<ele>684.6</ele>
<time>2003-06-27T07:42:17Z</time>
<speed>0.6</speed>
</trkpt>
<trkpt lat="47.214202" lon="8.627608">
<ele>684.6</ele>
<time>2003-06-27T07:42:22Z</time>
<speed>0.6</speed>
</trkpt>
<trkpt lat="47.214168" lon="8.627630">
<ele>684.0</ele>
<time>2003-06-27T07:42:27Z</time>
<speed>0.3</speed>
</trkpt>
<trkpt lat="47.214140" lon="8.627665">
<ele>684.1</ele>
<time>2003-06-27T07:42:32Z</time>
<speed>0.6</speed>
</trkpt>
<trkpt lat="47.214107" lon="8.627687">
<ele>683.5</ele>
<time>2003-06-27T07:42:37Z</time>
<speed>0.3</speed>
</trkpt>
<trkpt lat="47.214103" lon="8.627739">
<ele>683.9</ele>
<time>2003-06-27T07:42:42Z</time>
<speed>0.6</speed>
</trkpt>
<trkpt lat="47.214125" lon="8.627783">
<ele>684.3</ele>
<time>2003-06-27T07:42:47Z</time>
<speed>0.6</speed>
</trkpt>
<trkpt lat="47.214144" lon="8.627785">
<ele>685.1</ele>
<time>2003-06-27T07:42:52Z</time>
<speed>0.3</speed>
</trkpt>
<trkpt lat="47.214168" lon="8.627802">
<ele>685.3</ele>
<time>2003-06-27T07:42:57Z</time>
<speed>0.6</speed>
</trkpt>
<trkpt lat="47.214199" lon="8.627805">
<ele>686.2</ele>
<time>2003-06-27T07:43:02Z</time>
<speed>0.6</speed>
</trkpt>
<trkpt lat="47.214215" lon="8.627768">
<ele>686.0</ele>
<time>2003-06-27T07:43:07Z</time>
<speed>0.3</speed>
</trkpt>
<trkpt lat="47.214221" lon="8.627768">
<ele>686.7</ele>
<time>2003-06-27T07:43:12Z</time>
<speed>0.0</speed>
</trkpt>
<trkpt lat="47.214221" lon="8.627768">
<ele>686.7</ele>
<time>2003-06-27T07:43:17Z</time>
<speed>0.0</speed>
</trkpt>
<trkpt lat="47.214221" lon="8.627768">
<ele>686.7</ele>
<time>2003-06-27T07:43:22Z</time>
<speed>0.0</speed>
</trkpt>
<trkpt lat="47.214220" lon="8.627781">
<ele>686.8</ele>
<time>2003-06-27T07:43:27Z</time>
<speed>0.0</speed>
</trkpt>
<trkpt lat="47.214226" lon="8.627781">
<ele>687.5</ele>
<time>2003-06-27T07:43:32Z</time>
<speed>0.0</speed>
</trkpt>
<trkpt lat="47.214220" lon="8.627779">
<ele>688.2</ele>
<time>2003-06-27T07:43:37Z</time>
<speed>0.0</speed>
</trkpt>
<trkpt lat="47.214220" lon="8.627779">
<ele>688.2</ele>
<time>2003-06-27T07:43:42Z</time>
<speed>0.3</speed>
</trkpt>
<trkpt lat="47.214226" lon="8.627779">
<ele>688.9</ele>
<time>2003-06-27T07:43:47Z</time>
<speed>0.0</speed>
</trkpt>
<trkpt lat="47.214226" lon="8.627779">
<ele>688.9</ele>
<time>2003-06-27T07:43:52Z</time>
<speed>0.0</speed>
</trkpt>
<trkpt lat="47.214225" lon="8.627777">
<ele>690.3</ele>
<time>2003-06-27T07:43:57Z</time>
<speed>0.0</speed>
</trkpt>
<trkpt lat="47.214225" lon="8.627777">
<ele>690.3</ele>
<time>2003-06-27T07:44:02Z</time>
<speed>0.0</speed>
</trkpt>
<trkpt lat="47.214225" lon="8.627777">
<ele>690.3</ele>
<time>2003-06-27T07:44:07Z</time>
<speed>0.0</speed>
</trkpt>
<trkpt lat="47.214225" lon="8.627777">
<ele>690.3</ele>
<time>2003-06-27T07:44:12Z</time>
<speed>0.0</speed>
</trkpt>
<trkpt lat="47.214225" lon="8.627777">
<ele>690.3</ele>
<time>2003-06-27T07:44:17Z</time>
<speed>0.0</speed>
</trkpt>
<trkpt lat="47.214225" lon="8.627777">
<ele>690.3</ele>
<time>2003-06-27T07:44:22Z</time>
<speed>0.0</speed>
</trkpt>
<trkpt lat="47.214225" lon="8.627777">
<ele>690.3</ele>
<time>2003-06-27T07:44:27Z</time>
<speed>0.0</speed>
</trkpt>
<trkpt lat="47.214225" lon="8.627777">
<ele>690.3</ele>
<time>2003-06-27T07:44:32Z</time>
<speed>0.0</speed>
</trkpt>
<trkpt lat="47.214225" lon="8.627777">
<ele>690.3</ele>
<time>2003-06-27T07:44:37Z</time>
<speed>0.0</speed>
</trkpt>
<trkpt lat="47.214224" lon="8.627790">
<ele>690.4</ele>
<time>2003-06-27T07:44:42Z</time>
<speed>0.0</speed>
</trkpt>
<trkpt lat="47.214224" lon="8.627790">
<ele>690.4</ele>
<time>2003-06-27T07:44:47Z</time>
<speed>0.0</speed>
</trkpt>
<trkpt lat="47.214224" lon="8.627790">
<ele>690.4</ele>
<time>2003-06-27T07:44:52Z</time>
<speed>0.0</speed>
</trkpt>
<trkpt lat="47.214224" lon="8.627790">
<ele>690.4</ele>
<time>2003-06-27T07:44:57Z</time>
<speed>0.0</speed>
</trkpt>
<trkpt lat="47.214224" lon="8.627790">
<ele>690.4</ele>
<time>2003-06-27T07:45:02Z</time>
<speed>0.0</speed>
</trkpt>
<trkpt lat="47.214224" lon="8.627790">
<ele>690.4</ele>
<time>2003-06-27T07:45:07Z</time>
<speed>0.0</speed>
</trkpt>
<trkpt lat="47.214220" lon="8.627764">
<ele>689.5</ele>
<time>2003-06-27T07:45:12Z</time>
<speed>0.3</speed>
</trkpt>
<trkpt lat="47.214220" lon="8.627764">
<ele>689.5</ele>
<time>2003-06-27T07:45:17Z</time>
<speed>0.0</speed>
</trkpt>
<trkpt lat="47.214220" lon="8.627764">
<ele>689.5</ele>
<time>2003-06-27T07:45:22Z</time>
<speed>0.0</speed>
</trkpt>
<trkpt lat="47.214220" lon="8.627764">
<ele>689.5</ele>
<time>2003-06-27T07:45:27Z</time>
<speed>0.0</speed>
</trkpt>
<trkpt lat="47.214220" lon="8.627764">
<ele>689.5</ele>
<time>2003-06-27T07:45:32Z</time>
<speed>0.0</speed>
</trkpt>
<trkpt lat="47.214220" lon="8.627764">
<ele>689.5</ele>
<time>2003-06-27T07:45:37Z</time>
<speed>0.0</speed>
</trkpt>
<trkpt lat="47.214220" lon="8.627764">
<ele>689.5</ele>
<time>2003-06-27T07:45:42Z</time>
<speed>0.0</speed>
</trkpt>
<trkpt lat="47.214220" lon="8.627764">
<ele>689.5</ele>
<time>2003-06-27T07:45:47Z</time>
<speed>0.0</speed>
</trkpt>
<trkpt lat="47.214207" lon="8.627775">
<ele>689.5</ele>
<time>2003-06-27T07:45:52Z</time>
<speed>0.0</speed>
</trkpt>
<trkpt lat="47.214213" lon="8.627777">
<ele>688.9</ele>
<time>2003-06-27T07:45:57Z</time>
<speed>0.0</speed>
</trkpt>
<trkpt lat="47.214213" lon="8.627777">
<ele>688.9</ele>
<time>2003-06-27T07:46:02Z</time>
<speed>0.0</speed>
</trkpt>
<trkpt lat="47.214213" lon="8.627777">
<ele>688.9</ele>
<time>2003-06-27T07:46:07Z</time>
<speed>0.0</speed>
</trkpt>
<trkpt lat="47.214213" lon="8.627777">
<ele>688.9</ele>
<time>2003-06-27T07:46:12Z</time>
<speed>0.0</speed>
</trkpt>
<trkpt lat="47.214213" lon="8.627777">
<ele>688.9</ele>
<time>2003-06-27T07:46:17Z</time>
<speed>0.0</speed>
</trkpt>
<trkpt lat="47.214213" lon="8.627777">
<ele>688.9</ele>
<time>2003-06-27T07:46:22Z</time>
<speed>0.0</speed>
</trkpt>
<trkpt lat="47.214213" lon="8.627777">
<ele>688.9</ele>
<time>2003-06-27T07:46:27Z</time>
<speed>0.0</speed>
</trkpt>
<trkpt lat="47.214213" lon="8.627777">
<ele>688.9</ele>
<time>2003-06-27T07:46:32Z</time>
<speed>0.0</speed>
</trkpt>
<trkpt lat="47.214213" lon="8.627777">
<ele>688.9</ele>
<time>2003-06-27T07:46:37Z</time>
<speed>0.0</speed>
</trkpt>
<trkpt lat="47.214213" lon="8.627777">
<ele>688.9</ele>
<time>2003-06-27T07:46:42Z</time>
<speed>0.0</speed>
</trkpt>
<trkpt lat="47.214213" lon="8.627777">
<ele>688.9</ele>
<time>2003-06-27T07:46:47Z</time>
<speed>0.0</speed>
</trkpt>
<trkpt lat="47.214220" lon="8.627779">
<ele>688.2</ele>
<time>2003-06-27T07:46:52Z</time>
<speed>0.0</speed>
</trkpt>
<trkpt lat="47.214220" lon="8.627779">
<ele>688.2</ele>
<time>2003-06-27T07:46:57Z</time>
<speed>0.0</speed>
</trkpt>
<trkpt lat="47.214220" lon="8.627779">
<ele>688.2</ele>
<time>2003-06-27T07:47:02Z</time>
<speed>0.0</speed>
</trkpt>
<trkpt lat="47.214226" lon="8.627779">
<ele>688.9</ele>
<time>2003-06-27T07:47:07Z</time>
<speed>0.0</speed>
</trkpt>
<trkpt lat="47.214220" lon="8.627779">
<ele>688.2</ele>
<time>2003-06-27T07:47:12Z</time>
<speed>0.0</speed>
</trkpt>
<trkpt lat="47.214250" lon="8.627798">
<ele>687.8</ele>
<time>2003-06-27T07:47:17Z</time>
<speed>0.8</speed>
</trkpt>
<trkpt lat="47.214291" lon="8.627765">
<ele>687.6</ele>
<time>2003-06-27T07:47:22Z</time>
<speed>0.8</speed>
</trkpt>
<trkpt lat="47.214337" lon="8.627745">
<ele>688.4</ele>
<time>2003-06-27T07:47:27Z</time>
<speed>0.6</speed>
</trkpt>
<trkpt lat="47.214389" lon="8.627725">
<ele>689.8</ele>
<time>2003-06-27T07:47:32Z</time>
<speed>1.1</speed>
</trkpt>
<trkpt lat="47.214435" lon="8.627705">
<ele>690.5</ele>
<time>2003-06-27T07:47:37Z</time>
<speed>0.8</speed>
</trkpt>
<trkpt lat="47.214463" lon="8.627668">
<ele>691.7</ele>
<time>2003-06-27T07:47:42Z</time>
<speed>0.8</speed>
</trkpt>
<trkpt lat="47.214487" lon="8.627604">
<ele>692.0</ele>
<time>2003-06-27T07:47:47Z</time>
<speed>0.6</speed>
</trkpt>
<trkpt lat="47.214509" lon="8.627567">
<ele>692.5</ele>
<time>2003-06-27T07:47:52Z</time>
<speed>0.6</speed>
</trkpt>
<trkpt lat="47.214538" lon="8.627521">
<ele>690.8</ele>
<time>2003-06-27T07:47:57Z</time>
<speed>0.8</speed>
</trkpt>
<trkpt lat="47.214537" lon="8.627456">
<ele>689.6</ele>
<time>2003-06-27T07:48:02Z</time>
<speed>0.6</speed>
</trkpt>
<trkpt lat="47.214548" lon="8.627390">
<ele>689.8</ele>
<time>2003-06-27T07:48:07Z</time>
<speed>0.6</speed>
</trkpt>
<trkpt lat="47.214576" lon="8.627294">
<ele>685.6</ele>
<time>2003-06-27T07:48:12Z</time>
<speed>0.8</speed>
</trkpt>
<trkpt lat="47.214585" lon="8.627193">
<ele>682.0</ele>
<time>2003-06-27T07:48:17Z</time>
<speed>0.6</speed>
</trkpt>
<trkpt lat="47.214617" lon="8.627108">
<ele>680.0</ele>
<time>2003-06-27T07:48:22Z</time>
<speed>0.6</speed>
</trkpt>
<trkpt lat="47.214642" lon="8.627032">
<ele>680.1</ele>
<time>2003-06-27T07:48:27Z</time>
<speed>0.6</speed>
</trkpt>
<trkpt lat="47.214641" lon="8.626964">
<ele>680.3</ele>
<time>2003-06-27T07:48:32Z</time>
<speed>0.8</speed>
</trkpt>
<trkpt lat="47.214653" lon="8.626886">
<ele>680.4</ele>
<time>2003-06-27T07:48:37Z</time>
<speed>0.8</speed>
</trkpt>
<trkpt lat="47.214670" lon="8.626821">
<ele>681.4</ele>
<time>2003-06-27T07:48:42Z</time>
<speed>0.8</speed>
</trkpt>
<trkpt lat="47.214679" lon="8.626782">
<ele>681.8</ele>
<time>2003-06-27T07:48:47Z</time>
<speed>0.0</speed>
</trkpt>
<trkpt lat="47.214679" lon="8.626782">
<ele>681.8</ele>
<time>2003-06-27T07:48:52Z</time>
<speed>0.0</speed>
</trkpt>
<trkpt lat="47.214679" lon="8.626782">
<ele>681.8</ele>
<time>2003-06-27T07:48:57Z</time>
<speed>0.0</speed>
</trkpt>
<trkpt lat="47.214679" lon="8.626782">
<ele>681.8</ele>
<time>2003-06-27T07:49:02Z</time>
<speed>0.0</speed>
</trkpt>
<trkpt lat="47.214679" lon="8.626782">
<ele>681.8</ele>
<time>2003-06-27T07:49:07Z</time>
<speed>0.0</speed>
</trkpt>
<trkpt lat="47.214679" lon="8.626782">
<ele>681.8</ele>
<time>2003-06-27T07:49:12Z</time>
<speed>0.0</speed>
</trkpt>
<trkpt lat="47.214679" lon="8.626782">
<ele>681.8</ele>
<time>2003-06-27T07:49:17Z</time>
<speed>0.0</speed>
</trkpt>
<trkpt lat="47.214679" lon="8.626782">
<ele>681.8</ele>
<time>2003-06-27T07:49:22Z</time>
<speed>0.0</speed>
</trkpt>
<trkpt lat="47.214645" lon="8.626802">
<ele>682.6</ele>
<time>2003-06-27T07:49:27Z</time>
<speed>0.6</speed>
</trkpt>
<trkpt lat="47.214634" lon="8.626865">
<ele>683.7</ele>
<time>2003-06-27T07:49:32Z</time>
<speed>0.6</speed>
</trkpt>
<trkpt lat="47.214628" lon="8.626945">
<ele>683.0</ele>
<time>2003-06-27T07:49:37Z</time>
<speed>0.8</speed>
</trkpt>
<trkpt lat="47.214611" lon="8.626996">
<ele>683.3</ele>
<time>2003-06-27T07:49:42Z</time>
<speed>0.8</speed>
</trkpt>
<trkpt lat="47.214587" lon="8.627055">
<ele>685.8</ele>
<time>2003-06-27T07:49:47Z</time>
<speed>0.6</speed>
</trkpt>
<trkpt lat="47.214552" lon="8.627103">
<ele>685.4</ele>
<time>2003-06-27T07:49:52Z</time>
<speed>0.8</speed>
</trkpt>
<trkpt lat="47.214516" lon="8.627151">
<ele>684.9</ele>
<time>2003-06-27T07:49:57Z</time>
<speed>0.6</speed>
</trkpt>
<trkpt lat="47.214498" lon="8.627228">
<ele>685.5</ele>
<time>2003-06-27T07:50:02Z</time>
<speed>0.6</speed>
</trkpt>
<trkpt lat="47.214485" lon="8.627321">
<ele>684.0</ele>
<time>2003-06-27T07:50:07Z</time>
<speed>0.6</speed>
</trkpt>
<trkpt lat="47.214474" lon="8.627386">
<ele>683.8</ele>
<time>2003-06-27T07:50:12Z</time>
<speed>0.3</speed>
</trkpt>
<trkpt lat="47.214459" lon="8.627410">
<ele>684.0</ele>
<time>2003-06-27T07:50:17Z</time>
<speed>0.0</speed>
</trkpt>
<trkpt lat="47.214452" lon="8.627422">
<ele>684.7</ele>
<time>2003-06-27T07:50:22Z</time>
<speed>0.0</speed>
</trkpt>
<trkpt lat="47.214458" lon="8.627422">
<ele>685.5</ele>
<time>2003-06-27T07:50:27Z</time>
<speed>0.0</speed>
</trkpt>
<trkpt lat="47.214450" lon="8.627433">
<ele>686.2</ele>
<time>2003-06-27T07:50:32Z</time>
<speed>0.3</speed>
</trkpt>
<trkpt lat="47.214438" lon="8.627431">
<ele>686.2</ele>
<time>2003-06-27T07:50:37Z</time>
<speed>0.0</speed>
</trkpt>
<trkpt lat="47.214437" lon="8.627444">
<ele>686.3</ele>
<time>2003-06-27T07:50:42Z</time>
<speed>0.0</speed>
</trkpt>
<trkpt lat="47.214437" lon="8.627444">
<ele>686.3</ele>
<time>2003-06-27T07:50:47Z</time>
<speed>0.0</speed>
</trkpt>
<trkpt lat="47.214443" lon="8.627444">
<ele>687.0</ele>
<time>2003-06-27T07:50:52Z</time>
<speed>0.0</speed>
</trkpt>
<trkpt lat="47.214436" lon="8.627457">
<ele>686.4</ele>
<time>2003-06-27T07:50:57Z</time>
<speed>0.0</speed>
</trkpt>
<trkpt lat="47.214471" lon="8.627487">
<ele>688.2</ele>
<time>2003-06-27T07:51:02Z</time>
<speed>0.6</speed>
</trkpt>
<trkpt lat="47.214509" lon="8.627493">
<ele>688.4</ele>
<time>2003-06-27T07:51:07Z</time>
<speed>0.6</speed>
</trkpt>
<trkpt lat="47.214522" lon="8.627495">
<ele>688.4</ele>
<time>2003-06-27T07:51:12Z</time>
<speed>0.0</speed>
</trkpt>
<trkpt lat="47.214552" lon="8.627512">
<ele>689.4</ele>
<time>2003-06-27T07:51:17Z</time>
<speed>0.6</speed>
</trkpt>
<trkpt lat="47.214596" lon="8.627518">
<ele>690.3</ele>
<time>2003-06-27T07:51:22Z</time>
<speed>0.8</speed>
</trkpt>
<trkpt lat="47.214588" lon="8.627467">
<ele>687.0</ele>
<time>2003-06-27T07:51:27Z</time>
<speed>0.8</speed>
</trkpt>
<trkpt lat="47.214546" lon="8.627433">
<ele>687.3</ele>
<time>2003-06-27T07:51:32Z</time>
<speed>0.6</speed>
</trkpt>
<trkpt lat="47.214545" lon="8.627446">
<ele>687.4</ele>
<time>2003-06-27T07:51:37Z</time>
<speed>0.8</speed>
</trkpt>
<trkpt lat="47.214643" lon="8.627516">
<ele>686.9</ele>
<time>2003-06-27T07:51:42Z</time>
<speed>1.1</speed>
</trkpt>
<trkpt lat="47.214728" lon="8.627553">
<ele>690.4</ele>
<time>2003-06-27T07:51:47Z</time>
<speed>1.1</speed>
</trkpt>
<trkpt lat="47.214786" lon="8.627549">
<ele>689.8</ele>
<time>2003-06-27T07:51:52Z</time>
<speed>0.8</speed>
</trkpt>
<trkpt lat="47.214856" lon="8.627559">
<ele>690.9</ele>
<time>2003-06-27T07:51:57Z</time>
<speed>0.8</speed>
</trkpt>
<trkpt lat="47.214912" lon="8.627567">
<ele>691.9</ele>
<time>2003-06-27T07:52:02Z</time>
<speed>1.1</speed>
</trkpt>
<trkpt lat="47.214979" lon="8.627603">
<ele>693.1</ele>
<time>2003-06-27T07:52:07Z</time>
<speed>1.1</speed>
</trkpt>
<trkpt lat="47.215030" lon="8.627611">
<ele>693.4</ele>
<time>2003-06-27T07:52:12Z</time>
<speed>0.6</speed>
</trkpt>
<trkpt lat="47.215098" lon="8.627649">
<ele>693.2</ele>
<time>2003-06-27T07:52:17Z</time>
<speed>1.1</speed>
</trkpt>
<trkpt lat="47.215179" lon="8.627691">
<ele>691.7</ele>
<time>2003-06-27T07:52:22Z</time>
<speed>1.1</speed>
</trkpt>
<trkpt lat="47.215234" lon="8.627727">
<ele>691.5</ele>
<time>2003-06-27T07:52:27Z</time>
<speed>0.8</speed>
</trkpt>
<trkpt lat="47.215287" lon="8.627774">
<ele>692.8</ele>
<time>2003-06-27T07:52:32Z</time>
<speed>1.1</speed>
</trkpt>
<trkpt lat="47.215354" lon="8.627808">
<ele>695.4</ele>
<time>2003-06-27T07:52:37Z</time>
<speed>0.8</speed>
</trkpt>
<trkpt lat="47.215417" lon="8.627818">
<ele>695.7</ele>
<time>2003-06-27T07:52:42Z</time>
<speed>1.1</speed>
</trkpt>
<trkpt lat="47.215488" lon="8.627815">
<ele>696.7</ele>
<time>2003-06-27T07:52:47Z</time>
<speed>1.1</speed>
</trkpt>
<trkpt lat="47.215544" lon="8.627823">
<ele>697.7</ele>
<time>2003-06-27T07:52:52Z</time>
<speed>0.8</speed>
</trkpt>
<trkpt lat="47.215602" lon="8.627818">
<ele>698.6</ele>
<time>2003-06-27T07:52:57Z</time>
<speed>0.8</speed>
</trkpt>
<trkpt lat="47.215664" lon="8.627839">
<ele>700.4</ele>
<time>2003-06-27T07:53:02Z</time>
<speed>0.8</speed>
</trkpt>
<trkpt lat="47.215720" lon="8.627847">
<ele>701.4</ele>
<time>2003-06-27T07:53:07Z</time>
<speed>0.8</speed>
</trkpt>
<trkpt lat="47.215771" lon="8.627854">
<ele>701.6</ele>
<time>2003-06-27T07:53:12Z</time>
<speed>0.6</speed>
</trkpt>
<trkpt lat="47.215830" lon="8.627823">
<ele>702.3</ele>
<time>2003-06-27T07:53:17Z</time>
<speed>0.6</speed>
</trkpt>
<trkpt lat="47.215904" lon="8.627722">
<ele>697.5</ele>
<time>2003-06-27T07:53:22Z</time>
<speed>0.8</speed>
</trkpt>
<trkpt lat="47.215950" lon="8.627566">
<ele>690.0</ele>
<time>2003-06-27T07:53:27Z</time>
<speed>1.1</speed>
</trkpt>
<trkpt lat="47.215983" lon="8.627480">
<ele>688.0</ele>
<time>2003-06-27T07:53:32Z</time>
<speed>0.8</speed>
</trkpt>
<trkpt lat="47.215992" lon="8.627380">
<ele>684.4</ele>
<time>2003-06-27T07:53:37Z</time>
<speed>1.1</speed>
</trkpt>
<trkpt lat="47.215993" lon="8.627276">
<ele>682.8</ele>
<time>2003-06-27T07:53:42Z</time>
<speed>1.1</speed>
</trkpt>
<trkpt lat="47.215981" lon="8.627180">
<ele>682.7</ele>
<time>2003-06-27T07:53:47Z</time>
<speed>1.1</speed>
</trkpt>
<trkpt lat="47.215988" lon="8.627089">
<ele>682.0</ele>
<time>2003-06-27T07:53:52Z</time>
<speed>1.1</speed>
</trkpt>
<trkpt lat="47.215987" lon="8.627007">
<ele>683.5</ele>
<time>2003-06-27T07:53:57Z</time>
<speed>1.1</speed>
</trkpt>
<trkpt lat="47.215987" lon="8.626911">
<ele>684.8</ele>
<time>2003-06-27T07:54:02Z</time>
<speed>0.8</speed>
</trkpt>
<trkpt lat="47.215997" lon="8.626842">
<ele>687.9</ele>
<time>2003-06-27T07:54:07Z</time>
<speed>0.8</speed>
</trkpt>
<trkpt lat="47.216009" lon="8.626762">
<ele>689.4</ele>
<time>2003-06-27T07:54:12Z</time>
<speed>0.8</speed>
</trkpt>
<trkpt lat="47.216008" lon="8.626682">
<ele>689.4</ele>
<time>2003-06-27T07:54:17Z</time>
<speed>0.8</speed>
</trkpt>
<trkpt lat="47.216013" lon="8.626616">
<ele>688.9</ele>
<time>2003-06-27T07:54:22Z</time>
<speed>0.3</speed>
</trkpt>
<trkpt lat="47.216042" lon="8.626583">
<ele>687.3</ele>
<time>2003-06-27T07:54:27Z</time>
<speed>0.6</speed>
</trkpt>
<trkpt lat="47.216048" lon="8.626505">
<ele>686.7</ele>
<time>2003-06-27T07:54:32Z</time>
<speed>0.8</speed>
</trkpt>
<trkpt lat="47.216074" lon="8.626398">
<ele>689.5</ele>
<time>2003-06-27T07:54:37Z</time>
<speed>0.6</speed>
</trkpt>
<trkpt lat="47.216092" lon="8.626322">
<ele>689.0</ele>
<time>2003-06-27T07:54:42Z</time>
<speed>0.6</speed>
</trkpt>
<trkpt lat="47.216101" lon="8.626266">
<ele>692.1</ele>
<time>2003-06-27T07:54:47Z</time>
<speed>0.6</speed>
</trkpt>
<trkpt lat="47.216084" lon="8.626156">
<ele>692.6</ele>
<time>2003-06-27T07:54:52Z</time>
<speed>0.6</speed>
</trkpt>
<trkpt lat="47.216113" lon="8.626029">
<ele>691.0</ele>
<time>2003-06-27T07:54:57Z</time>
<speed>0.6</speed>
</trkpt>
<trkpt lat="47.216116" lon="8.625914">
<ele>687.9</ele>
<time>2003-06-27T07:55:02Z</time>
<speed>0.8</speed>
</trkpt>
<trkpt lat="47.216095" lon="8.625779">
<ele>686.0</ele>
<time>2003-06-27T07:55:07Z</time>
<speed>1.1</speed>
</trkpt>
<trkpt lat="47.216068" lon="8.625634">
<ele>681.9</ele>
<time>2003-06-27T07:55:12Z</time>
<speed>1.1</speed>
</trkpt>
<trkpt lat="47.216057" lon="8.625523">
<ele>683.1</ele>
<time>2003-06-27T07:55:18Z</time>
<speed>0.8</speed>
</trkpt>
<trkpt lat="47.216040" lon="8.625417">
<ele>680.8</ele>
<time>2003-06-27T07:55:23Z</time>
<speed>1.1</speed>
</trkpt>
<trkpt lat="47.216017" lon="8.625295">
<ele>679.0</ele>
<time>2003-06-27T07:55:28Z</time>
<speed>1.4</speed>
</trkpt>
<trkpt lat="47.216006" lon="8.625189">
<ele>677.4</ele>
<time>2003-06-27T07:55:33Z</time>
<speed>1.4</speed>
</trkpt>
<trkpt lat="47.216001" lon="8.625096">
<ele>676.6</ele>
<time>2003-06-27T07:55:38Z</time>
<speed>1.1</speed>
</trkpt>
<trkpt lat="47.216006" lon="8.625015">
<ele>677.4</ele>
<time>2003-06-27T07:55:43Z</time>
<speed>1.1</speed>
</trkpt>
<trkpt lat="47.216000" lon="8.624920">
<ele>678.0</ele>
<time>2003-06-27T07:55:48Z</time>
<speed>0.8</speed>
</trkpt>
<trkpt lat="47.215993" lon="8.624836">
<ele>680.2</ele>
<time>2003-06-27T07:55:53Z</time>
<speed>0.8</speed>
</trkpt>
<trkpt lat="47.215980" lon="8.624738">
<ele>681.5</ele>
<time>2003-06-27T07:55:58Z</time>
<speed>0.8</speed>
</trkpt>
<trkpt lat="47.215967" lon="8.624656">
<ele>681.5</ele>
<time>2003-06-27T07:56:03Z</time>
<speed>1.1</speed>
</trkpt>
<trkpt lat="47.215973" lon="8.624578">
<ele>680.8</ele>
<time>2003-06-27T07:56:08Z</time>
<speed>1.1</speed>
</trkpt>
<trkpt lat="47.215973" lon="8.624485">
<ele>680.8</ele>
<time>2003-06-27T07:56:13Z</time>
<speed>0.8</speed>
</trkpt>
<trkpt lat="47.215979" lon="8.624406">
<ele>680.2</ele>
<time>2003-06-27T07:56:18Z</time>
<speed>0.8</speed>
</trkpt>
<trkpt lat="47.215980" lon="8.624298">
<ele>681.5</ele>
<time>2003-06-27T07:56:23Z</time>
<speed>1.1</speed>
</trkpt>
<trkpt lat="47.215980" lon="8.624203">
<ele>682.8</ele>
<time>2003-06-27T07:56:28Z</time>
<speed>1.1</speed>
</trkpt>
<trkpt lat="47.215973" lon="8.624120">
<ele>683.5</ele>
<time>2003-06-27T07:56:33Z</time>
<speed>0.8</speed>
</trkpt>
<trkpt lat="47.215967" lon="8.624025">
<ele>684.2</ele>
<time>2003-06-27T07:56:38Z</time>
<speed>0.8</speed>
</trkpt>
<trkpt lat="47.215949" lon="8.623917">
<ele>683.2</ele>
<time>2003-06-27T07:56:43Z</time>
<speed>0.8</speed>
</trkpt>
<trkpt lat="47.215931" lon="8.623823">
<ele>681.0</ele>
<time>2003-06-27T07:56:48Z</time>
<speed>0.8</speed>
</trkpt>
<trkpt lat="47.215915" lon="8.623717">
<ele>678.6</ele>
<time>2003-06-27T07:56:53Z</time>
<speed>0.6</speed>
</trkpt>
<trkpt lat="47.215889" lon="8.623633">
<ele>678.6</ele>
<time>2003-06-27T07:56:58Z</time>
<speed>0.8</speed>
</trkpt>
<trkpt lat="47.215863" lon="8.623548">
<ele>678.5</ele>
<time>2003-06-27T07:57:03Z</time>
<speed>0.8</speed>
</trkpt>
<trkpt lat="47.215843" lon="8.623466">
<ele>677.8</ele>
<time>2003-06-27T07:57:08Z</time>
<speed>0.8</speed>
</trkpt>
<trkpt lat="47.215826" lon="8.623436">
<ele>678.2</ele>
<time>2003-06-27T07:57:13Z</time>
<speed>0.0</speed>
</trkpt>
<trkpt lat="47.215804" lon="8.623393">
<ele>677.8</ele>
<time>2003-06-27T07:57:18Z</time>
<speed>1.1</speed>
</trkpt>
<trkpt lat="47.215785" lon="8.623311">
<ele>677.0</ele>
<time>2003-06-27T07:57:23Z</time>
<speed>0.3</speed>
</trkpt>
<trkpt lat="47.215800" lon="8.623274">
<ele>676.8</ele>
<time>2003-06-27T07:57:28Z</time>
<speed>0.0</speed>
</trkpt>
<trkpt lat="47.215789" lon="8.623244">
<ele>677.9</ele>
<time>2003-06-27T07:57:33Z</time>
<speed>0.6</speed>
</trkpt>
<trkpt lat="47.215789" lon="8.623163">
<ele>678.0</ele>
<time>2003-06-27T07:57:38Z</time>
<speed>0.8</speed>
</trkpt>
<trkpt lat="47.215775" lon="8.623079">
<ele>679.4</ele>
<time>2003-06-27T07:57:43Z</time>
<speed>1.1</speed>
</trkpt>
<trkpt lat="47.215758" lon="8.622954">
<ele>681.2</ele>
<time>2003-06-27T07:57:48Z</time>
<speed>1.4</speed>
</trkpt>
<trkpt lat="47.215725" lon="8.622806">
<ele>677.7</ele>
<time>2003-06-27T07:57:53Z</time>
<speed>1.1</speed>
</trkpt>
<trkpt lat="47.215708" lon="8.622698">
<ele>676.8</ele>
<time>2003-06-27T07:57:58Z</time>
<speed>1.1</speed>
</trkpt>
<trkpt lat="47.215697" lon="8.622591">
<ele>675.2</ele>
<time>2003-06-27T07:58:03Z</time>
<speed>1.1</speed>
</trkpt>
<trkpt lat="47.215677" lon="8.622507">
<ele>675.8</ele>
<time>2003-06-27T07:58:08Z</time>
<speed>1.1</speed>
</trkpt>
<trkpt lat="47.215677" lon="8.622429">
<ele>674.5</ele>
<time>2003-06-27T07:58:13Z</time>
<speed>1.1</speed>
</trkpt>
<trkpt lat="47.215670" lon="8.622349">
<ele>673.8</ele>
<time>2003-06-27T07:58:18Z</time>
<speed>0.8</speed>
</trkpt>
<trkpt lat="47.215669" lon="8.622281">
<ele>674.0</ele>
<time>2003-06-27T07:58:23Z</time>
<speed>0.8</speed>
</trkpt>
<trkpt lat="47.215668" lon="8.622201">
<ele>674.0</ele>
<time>2003-06-27T07:58:28Z</time>
<speed>0.8</speed>
</trkpt>
<trkpt lat="47.215660" lon="8.622132">
<ele>674.9</ele>
<time>2003-06-27T07:58:33Z</time>
<speed>0.8</speed>
</trkpt>
<trkpt lat="47.215659" lon="8.622052">
<ele>674.9</ele>
<time>2003-06-27T07:58:38Z</time>
<speed>1.1</speed>
</trkpt>
<trkpt lat="47.215658" lon="8.621969">
<ele>676.4</ele>
<time>2003-06-27T07:58:43Z</time>
<speed>1.1</speed>
</trkpt>
<trkpt lat="47.215639" lon="8.621887">
<ele>675.7</ele>
<time>2003-06-27T07:58:48Z</time>
<speed>1.1</speed>
</trkpt>
<trkpt lat="47.215638" lon="8.621820">
<ele>675.8</ele>
<time>2003-06-27T07:58:53Z</time>
<speed>0.6</speed>
</trkpt>
<trkpt lat="47.215648" lon="8.621768">
<ele>676.1</ele>
<time>2003-06-27T07:58:58Z</time>
<speed>0.6</speed>
</trkpt>
<trkpt lat="47.215645" lon="8.621713">
<ele>676.4</ele>
<time>2003-06-27T07:59:03Z</time>
<speed>0.3</speed>
</trkpt>
<trkpt lat="47.215645" lon="8.621713">
<ele>676.4</ele>
<time>2003-06-27T07:59:08Z</time>
<speed>0.0</speed>
</trkpt>
<trkpt lat="47.215639" lon="8.621698">
<ele>677.0</ele>
<time>2003-06-27T07:59:13Z</time>
<speed>0.6</speed>
</trkpt>
<trkpt lat="47.215639" lon="8.621618">
<ele>677.0</ele>
<time>2003-06-27T07:59:18Z</time>
<speed>1.1</speed>
</trkpt>
<trkpt lat="47.215632" lon="8.621536">
<ele>677.8</ele>
<time>2003-06-27T07:59:23Z</time>
<speed>1.1</speed>
</trkpt>
<trkpt lat="47.215631" lon="8.621456">
<ele>677.8</ele>
<time>2003-06-27T07:59:28Z</time>
<speed>1.1</speed>
</trkpt>
<trkpt lat="47.215643" lon="8.621375">
<ele>679.4</ele>
<time>2003-06-27T07:59:33Z</time>
<speed>1.1</speed>
</trkpt>
<trkpt lat="47.215623" lon="8.621291">
<ele>680.0</ele>
<time>2003-06-27T07:59:38Z</time>
<speed>0.8</speed>
</trkpt>
<trkpt lat="47.215602" lon="8.621220">
<ele>680.8</ele>
<time>2003-06-27T07:59:43Z</time>
<speed>1.1</speed>
</trkpt>
<trkpt lat="47.215576" lon="8.621136">
<ele>680.7</ele>
<time>2003-06-27T07:59:48Z</time>
<speed>1.4</speed>
</trkpt>
<trkpt lat="47.215552" lon="8.621038">
<ele>680.6</ele>
<time>2003-06-27T07:59:53Z</time>
<speed>1.1</speed>
</trkpt>
<trkpt lat="47.215540" lon="8.620930">
<ele>680.4</ele>
<time>2003-06-27T07:59:58Z</time>
<speed>1.1</speed>
</trkpt>
<trkpt lat="47.215514" lon="8.620844">
<ele>681.7</ele>
<time>2003-06-27T08:00:03Z</time>
<speed>1.1</speed>
</trkpt>
<trkpt lat="47.215477" lon="8.620744">
<ele>681.5</ele>
<time>2003-06-27T08:00:08Z</time>
<speed>1.1</speed>
</trkpt>
<trkpt lat="47.215452" lon="8.620647">
<ele>681.3</ele>
<time>2003-06-27T08:00:13Z</time>
<speed>1.1</speed>
</trkpt>
<trkpt lat="47.215447" lon="8.620560">
<ele>676.3</ele>
<time>2003-06-27T08:00:18Z</time>
<speed>1.4</speed>
</trkpt>
<trkpt lat="47.215443" lon="8.620472">
<ele>671.3</ele>
<time>2003-06-27T08:00:23Z</time>
<speed>1.1</speed>
</trkpt>
<trkpt lat="47.215432" lon="8.620385">
<ele>665.6</ele>
<time>2003-06-27T08:00:28Z</time>
<speed>1.4</speed>
</trkpt>
<trkpt lat="47.215445" lon="8.620292">
<ele>667.0</ele>
<time>2003-06-27T08:00:33Z</time>
<speed>1.1</speed>
</trkpt>
<trkpt lat="47.215475" lon="8.620213">
<ele>669.4</ele>
<time>2003-06-27T08:00:38Z</time>
<speed>0.8</speed>
</trkpt>
<trkpt lat="47.215494" lon="8.620120">
<ele>671.5</ele>
<time>2003-06-27T08:00:43Z</time>
<speed>1.1</speed>
</trkpt>
<trkpt lat="47.215513" lon="8.620027">
<ele>673.7</ele>
<time>2003-06-27T08:00:48Z</time>
<speed>1.1</speed>
</trkpt>
<trkpt lat="47.215544" lon="8.619937">
<ele>674.5</ele>
<time>2003-06-27T08:00:53Z</time>
<speed>1.4</speed>
</trkpt>
<trkpt lat="47.215570" lon="8.619848">
<ele>674.6</ele>
<time>2003-06-27T08:00:58Z</time>
<speed>1.1</speed>
</trkpt>
<trkpt lat="47.215595" lon="8.619756">
<ele>676.1</ele>
<time>2003-06-27T08:01:03Z</time>
<speed>1.1</speed>
</trkpt>
<trkpt lat="47.215621" lon="8.619667">
<ele>676.2</ele>
<time>2003-06-27T08:01:08Z</time>
<speed>1.4</speed>
</trkpt>
<trkpt lat="47.215639" lon="8.619589">
<ele>677.0</ele>
<time>2003-06-27T08:01:13Z</time>
<speed>1.1</speed>
</trkpt>
<trkpt lat="47.215658" lon="8.619497">
<ele>677.8</ele>
<time>2003-06-27T08:01:18Z</time>
<speed>1.1</speed>
</trkpt>
<trkpt lat="47.215684" lon="8.619408">
<ele>677.9</ele>
<time>2003-06-27T08:01:23Z</time>
<speed>1.1</speed>
</trkpt>
<trkpt lat="47.215709" lon="8.619332">
<ele>678.0</ele>
<time>2003-06-27T08:01:28Z</time>
<speed>1.1</speed>
</trkpt>
<trkpt lat="47.215727" lon="8.619255">
<ele>677.5</ele>
<time>2003-06-27T08:01:33Z</time>
<speed>0.6</speed>
</trkpt>
<trkpt lat="47.215733" lon="8.619255">
<ele>678.2</ele>
<time>2003-06-27T08:01:38Z</time>
<speed>0.0</speed>
</trkpt>
<trkpt lat="47.215743" lon="8.619203">
<ele>678.5</ele>
<time>2003-06-27T08:01:43Z</time>
<speed>1.1</speed>
</trkpt>
<trkpt lat="47.215748" lon="8.619138">
<ele>678.0</ele>
<time>2003-06-27T08:01:48Z</time>
<speed>0.8</speed>
</trkpt>
<trkpt lat="47.215759" lon="8.619073">
<ele>678.3</ele>
<time>2003-06-27T08:01:53Z</time>
<speed>1.1</speed>
</trkpt>
<trkpt lat="47.215759" lon="8.618992">
<ele>678.3</ele>
<time>2003-06-27T08:01:58Z</time>
<speed>1.1</speed>
</trkpt>
<trkpt lat="47.215764" lon="8.618927">
<ele>677.8</ele>
<time>2003-06-27T08:02:03Z</time>
<speed>1.1</speed>
</trkpt>
<trkpt lat="47.215757" lon="8.618847">
<ele>677.1</ele>
<time>2003-06-27T08:02:08Z</time>
<speed>1.4</speed>
</trkpt>
<trkpt lat="47.215750" lon="8.618767">
<ele>676.5</ele>
<time>2003-06-27T08:02:13Z</time>
<speed>1.1</speed>
</trkpt>
<trkpt lat="47.215731" lon="8.618684">
<ele>675.7</ele>
<time>2003-06-27T08:02:18Z</time>
<speed>1.4</speed>
</trkpt>
<trkpt lat="47.215712" lon="8.618602">
<ele>675.0</ele>
<time>2003-06-27T08:02:23Z</time>
<speed>1.1</speed>
</trkpt>
<trkpt lat="47.215673" lon="8.618531">
<ele>673.6</ele>
<time>2003-06-27T08:02:28Z</time>
<speed>1.1</speed>
</trkpt>
<trkpt lat="47.215625" lon="8.618484">
<ele>673.0</ele>
<time>2003-06-27T08:02:33Z</time>
<speed>0.8</speed>
</trkpt>
<trkpt lat="47.215578" lon="8.618424">
<ele>672.4</ele>
<time>2003-06-27T08:02:38Z</time>
<speed>1.4</speed>
</trkpt>
<trkpt lat="47.215524" lon="8.618375">
<ele>672.5</ele>
<time>2003-06-27T08:02:43Z</time>
<speed>0.8</speed>
</trkpt>
<trkpt lat="47.215470" lon="8.618341">
<ele>671.3</ele>
<time>2003-06-27T08:02:48Z</time>
<speed>1.4</speed>
</trkpt>
<trkpt lat="47.215417" lon="8.618279">
<ele>671.3</ele>
<time>2003-06-27T08:02:53Z</time>
<speed>1.1</speed>
</trkpt>
<trkpt lat="47.215365" lon="8.618205">
<ele>669.8</ele>
<time>2003-06-27T08:02:59Z</time>
<speed>1.1</speed>
</trkpt>
<trkpt lat="47.215324" lon="8.618160">
<ele>668.6</ele>
<time>2003-06-27T08:03:04Z</time>
<speed>0.8</speed>
</trkpt>
<trkpt lat="47.215301" lon="8.618132">
<ele>666.9</ele>
<time>2003-06-27T08:03:09Z</time>
<speed>0.0</speed>
</trkpt>
<trkpt lat="47.215295" lon="8.618117">
<ele>667.4</ele>
<time>2003-06-27T08:03:14Z</time>
<speed>0.0</speed>
</trkpt>
<trkpt lat="47.215295" lon="8.618117">
<ele>667.4</ele>
<time>2003-06-27T08:03:19Z</time>
<speed>0.0</speed>
</trkpt>
<trkpt lat="47.215296" lon="8.618104">
<ele>667.3</ele>
<time>2003-06-27T08:03:24Z</time>
<speed>0.3</speed>
</trkpt>
<trkpt lat="47.215304" lon="8.618093">
<ele>666.5</ele>
<time>2003-06-27T08:03:29Z</time>
<speed>0.0</speed>
</trkpt>
<trkpt lat="47.215290" lon="8.618104">
<ele>666.6</ele>
<time>2003-06-27T08:03:34Z</time>
<speed>0.0</speed>
</trkpt>
<trkpt lat="47.215290" lon="8.618104">
<ele>666.6</ele>
<time>2003-06-27T08:03:39Z</time>
<speed>0.0</speed>
</trkpt>
<trkpt lat="47.215279" lon="8.618089">
<ele>666.4</ele>
<time>2003-06-27T08:03:44Z</time>
<speed>0.6</speed>
</trkpt>
<trkpt lat="47.215250" lon="8.618046">
<ele>665.3</ele>
<time>2003-06-27T08:03:49Z</time>
<speed>0.8</speed>
</trkpt>
<trkpt lat="47.215229" lon="8.617990">
<ele>664.7</ele>
<time>2003-06-27T08:03:54Z</time>
<speed>0.8</speed>
</trkpt>
<trkpt lat="47.215196" lon="8.617919">
<ele>664.0</ele>
<time>2003-06-27T08:03:59Z</time>
<speed>0.8</speed>
</trkpt>
<trkpt lat="47.215163" lon="8.617847">
<ele>663.3</ele>
<time>2003-06-27T08:04:04Z</time>
<speed>1.1</speed>
</trkpt>
<trkpt lat="47.215131" lon="8.617763">
<ele>662.5</ele>
<time>2003-06-27T08:04:09Z</time>
<speed>1.4</speed>
</trkpt>
<trkpt lat="47.215104" lon="8.617692">
<ele>662.6</ele>
<time>2003-06-27T08:04:14Z</time>
<speed>1.1</speed>
</trkpt>
<trkpt lat="47.215072" lon="8.617608">
<ele>661.8</ele>
<time>2003-06-27T08:04:19Z</time>
<speed>1.1</speed>
</trkpt>
<trkpt lat="47.215058" lon="8.617541">
<ele>660.5</ele>
<time>2003-06-27T08:04:24Z</time>
<speed>0.8</speed>
</trkpt>
<trkpt lat="47.215080" lon="8.617503">
<ele>661.0</ele>
<time>2003-06-27T08:04:29Z</time>
<speed>1.1</speed>
</trkpt>
<trkpt lat="47.215127" lon="8.617485">
<ele>660.3</ele>
<time>2003-06-27T08:04:34Z</time>
<speed>0.8</speed>
</trkpt>
<trkpt lat="47.215173" lon="8.617465">
<ele>661.0</ele>
<time>2003-06-27T08:04:39Z</time>
<speed>0.3</speed>
</trkpt>
<trkpt lat="47.215219" lon="8.617447">
<ele>660.3</ele>
<time>2003-06-27T08:04:44Z</time>
<speed>1.1</speed>
</trkpt>
<trkpt lat="47.215272" lon="8.617416">
<ele>660.2</ele>
<time>2003-06-27T08:04:49Z</time>
<speed>1.1</speed>
</trkpt>
<trkpt lat="47.215320" lon="8.617384">
<ele>659.5</ele>
<time>2003-06-27T08:04:54Z</time>
<speed>1.1</speed>
</trkpt>
<trkpt lat="47.215373" lon="8.617353">
<ele>659.4</ele>
<time>2003-06-27T08:04:59Z</time>
<speed>1.1</speed>
</trkpt>
<trkpt lat="47.215421" lon="8.617307">
<ele>659.9</ele>
<time>2003-06-27T08:05:04Z</time>
<speed>1.1</speed>
</trkpt>
<trkpt lat="47.215468" lon="8.617289">
<ele>659.2</ele>
<time>2003-06-27T08:05:09Z</time>
<speed>0.8</speed>
</trkpt>
<trkpt lat="47.215515" lon="8.617255">
<ele>659.8</ele>
<time>2003-06-27T08:05:14Z</time>
<speed>0.8</speed>
</trkpt>
<trkpt lat="47.215568" lon="8.617224">
<ele>659.8</ele>
<time>2003-06-27T08:05:19Z</time>
<speed>1.1</speed>
</trkpt>
<trkpt lat="47.215615" lon="8.617191">
<ele>660.4</ele>
<time>2003-06-27T08:05:24Z</time>
<speed>1.1</speed>
</trkpt>
<trkpt lat="47.215674" lon="8.617173">
<ele>661.2</ele>
<time>2003-06-27T08:05:29Z</time>
<speed>1.1</speed>
</trkpt>
<trkpt lat="47.215727" lon="8.617142">
<ele>661.1</ele>
<time>2003-06-27T08:05:34Z</time>
<speed>1.1</speed>
</trkpt>
<trkpt lat="47.215767" lon="8.617121">
<ele>661.1</ele>
<time>2003-06-27T08:05:39Z</time>
<speed>0.8</speed>
</trkpt>
<trkpt lat="47.215821" lon="8.617090">
<ele>661.1</ele>
<time>2003-06-27T08:05:44Z</time>
<speed>0.8</speed>
</trkpt>
<trkpt lat="47.215874" lon="8.617059">
<ele>661.0</ele>
<time>2003-06-27T08:05:49Z</time>
<speed>1.1</speed>
</trkpt>
<trkpt lat="47.215927" lon="8.617041">
<ele>661.0</ele>
<time>2003-06-27T08:05:54Z</time>
<speed>1.1</speed>
</trkpt>
<trkpt lat="47.215992" lon="8.617024">
<ele>661.2</ele>
<time>2003-06-27T08:05:59Z</time>
<speed>1.1</speed>
</trkpt>
<trkpt lat="47.216052" lon="8.616993">
<ele>661.8</ele>
<time>2003-06-27T08:06:04Z</time>
<speed>1.1</speed>
</trkpt>
<trkpt lat="47.216117" lon="8.616977">
<ele>661.9</ele>
<time>2003-06-27T08:06:09Z</time>
<speed>1.4</speed>
</trkpt>
<trkpt lat="47.216177" lon="8.616933">
<ele>662.5</ele>
<time>2003-06-27T08:06:14Z</time>
<speed>1.1</speed>
</trkpt>
<trkpt lat="47.216237" lon="8.616903">
<ele>661.8</ele>
<time>2003-06-27T08:06:19Z</time>
<speed>1.1</speed>
</trkpt>
<trkpt lat="47.216284" lon="8.616870">
<ele>662.4</ele>
<time>2003-06-27T08:06:24Z</time>
<speed>1.1</speed>
</trkpt>
<trkpt lat="47.216339" lon="8.616826">
<ele>662.2</ele>
<time>2003-06-27T08:06:29Z</time>
<speed>1.1</speed>
</trkpt>
<trkpt lat="47.216392" lon="8.616793">
<ele>663.6</ele>
<time>2003-06-27T08:06:34Z</time>
<speed>1.1</speed>
</trkpt>
<trkpt lat="47.216446" lon="8.616748">
<ele>663.4</ele>
<time>2003-06-27T08:06:39Z</time>
<speed>1.1</speed>
</trkpt>
<trkpt lat="47.216494" lon="8.616702">
<ele>663.9</ele>
<time>2003-06-27T08:06:44Z</time>
<speed>0.8</speed>
</trkpt>
<trkpt lat="47.216542" lon="8.616656">
<ele>664.5</ele>
<time>2003-06-27T08:06:49Z</time>
<speed>0.8</speed>
</trkpt>
<trkpt lat="47.216584" lon="8.616610">
<ele>664.2</ele>
<time>2003-06-27T08:06:54Z</time>
<speed>0.8</speed>
</trkpt>
<trkpt lat="47.216625" lon="8.616576">
<ele>664.1</ele>
<time>2003-06-27T08:06:59Z</time>
<speed>1.1</speed>
</trkpt>
<trkpt lat="47.216668" lon="8.616517">
<ele>663.8</ele>
<time>2003-06-27T08:07:04Z</time>
<speed>1.1</speed>
</trkpt>
<trkpt lat="47.216730" lon="8.616460">
<ele>664.3</ele>
<time>2003-06-27T08:07:09Z</time>
<speed>1.1</speed>
</trkpt>
<trkpt lat="47.216771" lon="8.616413">
<ele>664.1</ele>
<time>2003-06-27T08:07:14Z</time>
<speed>1.1</speed>
</trkpt>
<trkpt lat="47.216820" lon="8.616354">
<ele>664.5</ele>
<time>2003-06-27T08:07:19Z</time>
<speed>1.1</speed>
</trkpt>
<trkpt lat="47.216875" lon="8.616310">
<ele>664.3</ele>
<time>2003-06-27T08:07:24Z</time>
<speed>1.4</speed>
</trkpt>
<trkpt lat="47.216930" lon="8.616253">
<ele>664.1</ele>
<time>2003-06-27T08:07:29Z</time>
<speed>1.1</speed>
</trkpt>
<trkpt lat="47.216972" lon="8.616206">
<ele>663.8</ele>
<time>2003-06-27T08:07:34Z</time>
<speed>1.1</speed>
</trkpt>
<trkpt lat="47.217028" lon="8.616149">
<ele>663.6</ele>
<time>2003-06-27T08:07:39Z</time>
<speed>1.1</speed>
</trkpt>
<trkpt lat="47.217082" lon="8.616105">
<ele>663.4</ele>
<time>2003-06-27T08:07:44Z</time>
<speed>1.1</speed>
</trkpt>
<trkpt lat="47.217130" lon="8.616058">
<ele>663.9</ele>
<time>2003-06-27T08:07:49Z</time>
<speed>1.1</speed>
</trkpt>
<trkpt lat="47.217185" lon="8.616014">
<ele>663.8</ele>
<time>2003-06-27T08:07:54Z</time>
<speed>1.1</speed>
</trkpt>
<trkpt lat="47.217245" lon="8.615970">
<ele>664.4</ele>
<time>2003-06-27T08:07:59Z</time>
<speed>1.1</speed>
</trkpt>
<trkpt lat="47.217300" lon="8.615925">
<ele>664.2</ele>
<time>2003-06-27T08:08:04Z</time>
<speed>1.1</speed>
</trkpt>
<trkpt lat="47.217342" lon="8.615879">
<ele>664.0</ele>
<time>2003-06-27T08:08:09Z</time>
<speed>0.8</speed>
</trkpt>
<trkpt lat="47.217384" lon="8.615820">
<ele>663.7</ele>
<time>2003-06-27T08:08:14Z</time>
<speed>0.8</speed>
</trkpt>
<trkpt lat="47.217433" lon="8.615761">
<ele>664.1</ele>
<time>2003-06-27T08:08:19Z</time>
<speed>1.1</speed>
</trkpt>
<trkpt lat="47.217476" lon="8.615701">
<ele>663.7</ele>
<time>2003-06-27T08:08:24Z</time>
<speed>1.1</speed>
</trkpt>
<trkpt lat="47.217513" lon="8.615642">
<ele>662.7</ele>
<time>2003-06-27T08:08:29Z</time>
<speed>1.1</speed>
</trkpt>
<trkpt lat="47.217555" lon="8.615581">
<ele>663.8</ele>
<time>2003-06-27T08:08:34Z</time>
<speed>0.8</speed>
</trkpt>
<trkpt lat="47.217584" lon="8.615530">
<ele>664.9</ele>
<time>2003-06-27T08:08:39Z</time>
<speed>0.8</speed>
</trkpt>
<trkpt lat="47.217621" lon="8.615469">
<ele>665.2</ele>
<time>2003-06-27T08:08:44Z</time>
<speed>1.1</speed>
</trkpt>
<trkpt lat="47.217681" lon="8.615425">
<ele>665.8</ele>
<time>2003-06-27T08:08:49Z</time>
<speed>0.8</speed>
</trkpt>
<trkpt lat="47.217729" lon="8.615376">
<ele>667.7</ele>
<time>2003-06-27T08:08:54Z</time>
<speed>0.8</speed>
</trkpt>
<trkpt lat="47.217789" lon="8.615332">
<ele>668.3</ele>
<time>2003-06-27T08:08:59Z</time>
<speed>0.8</speed>
</trkpt>
<trkpt lat="47.217849" lon="8.615301">
<ele>669.0</ele>
<time>2003-06-27T08:09:04Z</time>
<speed>1.1</speed>
</trkpt>
<trkpt lat="47.217898" lon="8.615244">
<ele>668.0</ele>
<time>2003-06-27T08:09:09Z</time>
<speed>1.1</speed>
</trkpt>
<trkpt lat="47.217940" lon="8.615197">
<ele>667.8</ele>
<time>2003-06-27T08:09:14Z</time>
<speed>0.8</speed>
</trkpt>
<trkpt lat="47.217982" lon="8.615151">
<ele>667.6</ele>
<time>2003-06-27T08:09:19Z</time>
<speed>1.1</speed>
</trkpt>
<trkpt lat="47.218037" lon="8.615092">
<ele>668.7</ele>
<time>2003-06-27T08:09:24Z</time>
<speed>1.1</speed>
</trkpt>
<trkpt lat="47.218091" lon="8.615060">
<ele>668.7</ele>
<time>2003-06-27T08:09:29Z</time>
<speed>0.8</speed>
</trkpt>
<trkpt lat="47.218138" lon="8.615027">
<ele>669.3</ele>
<time>2003-06-27T08:09:34Z</time>
<speed>0.8</speed>
</trkpt>
<trkpt lat="47.218173" lon="8.614979">
<ele>669.7</ele>
<time>2003-06-27T08:09:39Z</time>
<speed>0.6</speed>
</trkpt>
<trkpt lat="47.218227" lon="8.614935">
<ele>669.6</ele>
<time>2003-06-27T08:09:44Z</time>
<speed>0.8</speed>
</trkpt>
<trkpt lat="47.218293" lon="8.614920">
<ele>668.3</ele>
<time>2003-06-27T08:09:49Z</time>
<speed>1.1</speed>
</trkpt>
<trkpt lat="47.218351" lon="8.614915">
<ele>669.1</ele>
<time>2003-06-27T08:09:54Z</time>
<speed>1.1</speed>
</trkpt>
<trkpt lat="47.218403" lon="8.614897">
<ele>669.2</ele>
<time>2003-06-27T08:09:59Z</time>
<speed>1.1</speed>
</trkpt>
<trkpt lat="47.218474" lon="8.614881">
<ele>670.0</ele>
<time>2003-06-27T08:10:04Z</time>
<speed>0.8</speed>
</trkpt>
<trkpt lat="47.218526" lon="8.614876">
<ele>670.2</ele>
<time>2003-06-27T08:10:09Z</time>
<speed>0.8</speed>
</trkpt>
<trkpt lat="47.218589" lon="8.614886">
<ele>670.5</ele>
<time>2003-06-27T08:10:14Z</time>
<speed>1.1</speed>
</trkpt>
<trkpt lat="47.218646" lon="8.614894">
<ele>671.5</ele>
<time>2003-06-27T08:10:19Z</time>
<speed>0.8</speed>
</trkpt>
<trkpt lat="47.218696" lon="8.614901">
<ele>671.7</ele>
<time>2003-06-27T08:10:24Z</time>
<speed>0.6</speed>
</trkpt>
<trkpt lat="47.218759" lon="8.614911">
<ele>672.0</ele>
<time>2003-06-27T08:10:29Z</time>
<speed>0.6</speed>
</trkpt>
<trkpt lat="47.218805" lon="8.614891">
<ele>672.8</ele>
<time>2003-06-27T08:10:34Z</time>
<speed>0.6</speed>
</trkpt>
<trkpt lat="47.218883" lon="8.614875">
<ele>674.3</ele>
<time>2003-06-27T08:10:39Z</time>
<speed>0.8</speed>
</trkpt>
<trkpt lat="47.218968" lon="8.614850">
<ele>673.7</ele>
<time>2003-06-27T08:10:44Z</time>
<speed>0.8</speed>
</trkpt>
<trkpt lat="47.219027" lon="8.614833">
<ele>673.1</ele>
<time>2003-06-27T08:10:49Z</time>
<speed>0.8</speed>
</trkpt>
<trkpt lat="47.219093" lon="8.614804">
<ele>673.1</ele>
<time>2003-06-27T08:10:54Z</time>
<speed>1.1</speed>
</trkpt>
<trkpt lat="47.219139" lon="8.614784">
<ele>673.8</ele>
<time>2003-06-27T08:10:59Z</time>
<speed>0.6</speed>
</trkpt>
<trkpt lat="47.219173" lon="8.614762">
<ele>674.5</ele>
<time>2003-06-27T08:11:04Z</time>
<speed>0.8</speed>
</trkpt>
<trkpt lat="47.219219" lon="8.614742">
<ele>675.2</ele>
<time>2003-06-27T08:11:09Z</time>
<speed>0.6</speed>
</trkpt>
<trkpt lat="47.219262" lon="8.614746">
<ele>677.5</ele>
<time>2003-06-27T08:11:14Z</time>
<speed>0.6</speed>
</trkpt>
<trkpt lat="47.219313" lon="8.614754">
<ele>677.8</ele>
<time>2003-06-27T08:11:19Z</time>
<speed>0.6</speed>
</trkpt>
<trkpt lat="47.219373" lon="8.614724">
<ele>677.1</ele>
<time>2003-06-27T08:11:24Z</time>
<speed>0.6</speed>
</trkpt>
<trkpt lat="47.219426" lon="8.614693">
<ele>677.0</ele>
<time>2003-06-27T08:11:29Z</time>
<speed>0.6</speed>
</trkpt>
<trkpt lat="47.219481" lon="8.614649">
<ele>676.8</ele>
<time>2003-06-27T08:11:34Z</time>
<speed>0.6</speed>
</trkpt>
<trkpt lat="47.219533" lon="8.614629">
<ele>678.3</ele>
<time>2003-06-27T08:11:39Z</time>
<speed>0.8</speed>
</trkpt>
<trkpt lat="47.219605" lon="8.614614">
<ele>677.7</ele>
<time>2003-06-27T08:11:44Z</time>
<speed>0.6</speed>
</trkpt>
<trkpt lat="47.219676" lon="8.614598">
<ele>678.6</ele>
<time>2003-06-27T08:11:49Z</time>
<speed>0.8</speed>
</trkpt>
<trkpt lat="47.219734" lon="8.614593">
<ele>679.5</ele>
<time>2003-06-27T08:11:54Z</time>
<speed>1.1</speed>
</trkpt>
<trkpt lat="47.219798" lon="8.614590">
<ele>679.7</ele>
<time>2003-06-27T08:11:59Z</time>
<speed>1.1</speed>
</trkpt>
<trkpt lat="47.219869" lon="8.614576">
<ele>679.1</ele>
<time>2003-06-27T08:12:04Z</time>
<speed>1.1</speed>
</trkpt>
<trkpt lat="47.219940" lon="8.614572">
<ele>680.0</ele>
<time>2003-06-27T08:12:09Z</time>
<speed>0.8</speed>
</trkpt>
<trkpt lat="47.220017" lon="8.614556">
<ele>681.6</ele>
<time>2003-06-27T08:12:14Z</time>
<speed>1.1</speed>
</trkpt>
<trkpt lat="47.220075" lon="8.614551">
<ele>682.5</ele>
<time>2003-06-27T08:12:19Z</time>
<speed>0.6</speed>
</trkpt>
<trkpt lat="47.220128" lon="8.614535">
<ele>681.1</ele>
<time>2003-06-27T08:12:24Z</time>
<speed>0.6</speed>
</trkpt>
<trkpt lat="47.220186" lon="8.614532">
<ele>680.6</ele>
<time>2003-06-27T08:12:29Z</time>
<speed>0.8</speed>
</trkpt>
<trkpt lat="47.220236" lon="8.614538">
<ele>682.3</ele>
<time>2003-06-27T08:12:34Z</time>
<speed>0.8</speed>
</trkpt>
<trkpt lat="47.220280" lon="8.614543">
<ele>683.2</ele>
<time>2003-06-27T08:12:39Z</time>
<speed>0.6</speed>
</trkpt>
<trkpt lat="47.220324" lon="8.614549">
<ele>684.1</ele>
<time>2003-06-27T08:12:44Z</time>
<speed>0.8</speed>
</trkpt>
<trkpt lat="47.220363" lon="8.614542">
<ele>684.2</ele>
<time>2003-06-27T08:12:49Z</time>
<speed>0.8</speed>
</trkpt>
<trkpt lat="47.220432" lon="8.614552">
<ele>685.3</ele>
<time>2003-06-27T08:12:54Z</time>
<speed>1.1</speed>
</trkpt>
<trkpt lat="47.220495" lon="8.614562">
<ele>685.6</ele>
<time>2003-06-27T08:12:59Z</time>
<speed>0.8</speed>
</trkpt>
<trkpt lat="47.220552" lon="8.614570">
<ele>686.6</ele>
<time>2003-06-27T08:13:04Z</time>
<speed>0.8</speed>
</trkpt>
<trkpt lat="47.220628" lon="8.614567">
<ele>688.2</ele>
<time>2003-06-27T08:13:09Z</time>
<speed>0.8</speed>
</trkpt>
<trkpt lat="47.220700" lon="8.614553">
<ele>687.7</ele>
<time>2003-06-27T08:13:14Z</time>
<speed>0.8</speed>
</trkpt>
<trkpt lat="47.220763" lon="8.614564">
<ele>686.6</ele>
<time>2003-06-27T08:13:19Z</time>
<speed>0.8</speed>
</trkpt>
<trkpt lat="47.220825" lon="8.614600">
<ele>687.1</ele>
<time>2003-06-27T08:13:24Z</time>
<speed>0.8</speed>
</trkpt>
<trkpt lat="47.220883" lon="8.614597">
<ele>686.6</ele>
<time>2003-06-27T08:13:29Z</time>
<speed>0.8</speed>
</trkpt>
<trkpt lat="47.220951" lon="8.614544">
<ele>685.0</ele>
<time>2003-06-27T08:13:34Z</time>
<speed>0.6</speed>
</trkpt>
<trkpt lat="47.221000" lon="8.614500">
<ele>684.1</ele>
<time>2003-06-27T08:13:39Z</time>
<speed>0.8</speed>
</trkpt>
<trkpt lat="47.221074" lon="8.614446">
<ele>683.2</ele>
<time>2003-06-27T08:13:44Z</time>
<speed>1.1</speed>
</trkpt>
<trkpt lat="47.221129" lon="8.614402">
<ele>683.0</ele>
<time>2003-06-27T08:13:49Z</time>
<speed>0.8</speed>
</trkpt>
<trkpt lat="47.221172" lon="8.614343">
<ele>682.7</ele>
<time>2003-06-27T08:13:54Z</time>
<speed>0.6</speed>
</trkpt>
<trkpt lat="47.221229" lon="8.614257">
<ele>683.7</ele>
<time>2003-06-27T08:13:59Z</time>
<speed>1.1</speed>
</trkpt>
<trkpt lat="47.221279" lon="8.614170">
<ele>685.3</ele>
<time>2003-06-27T08:14:04Z</time>
<speed>1.1</speed>
</trkpt>
<trkpt lat="47.221335" lon="8.614097">
<ele>686.3</ele>
<time>2003-06-27T08:14:09Z</time>
<speed>1.1</speed>
</trkpt>
<trkpt lat="47.221393" lon="8.614016">
<ele>684.5</ele>
<time>2003-06-27T08:14:14Z</time>
<speed>1.4</speed>
</trkpt>
<trkpt lat="47.221442" lon="8.613957">
<ele>684.9</ele>
<time>2003-06-27T08:14:19Z</time>
<speed>1.1</speed>
</trkpt>
<trkpt lat="47.221481" lon="8.613871">
<ele>683.6</ele>
<time>2003-06-27T08:14:24Z</time>
<speed>0.8</speed>
</trkpt>
<trkpt lat="47.221510" lon="8.613823">
<ele>683.3</ele>
<time>2003-06-27T08:14:29Z</time>
<speed>0.8</speed>
</trkpt>
<trkpt lat="47.221558" lon="8.613775">
<ele>685.3</ele>
<time>2003-06-27T08:14:34Z</time>
<speed>0.6</speed>
</trkpt>
<trkpt lat="47.221600" lon="8.613713">
<ele>686.3</ele>
<time>2003-06-27T08:14:39Z</time>
<speed>0.8</speed>
</trkpt>
<trkpt lat="47.221629" lon="8.613665">
<ele>686.1</ele>
<time>2003-06-27T08:14:44Z</time>
<speed>0.6</speed>
</trkpt>
<trkpt lat="47.221671" lon="8.613617">
<ele>687.2</ele>
<time>2003-06-27T08:14:49Z</time>
<speed>0.8</speed>
</trkpt>
<trkpt lat="47.221706" lon="8.613568">
<ele>687.7</ele>
<time>2003-06-27T08:14:54Z</time>
<speed>0.6</speed>
</trkpt>
<trkpt lat="47.221747" lon="8.613520">
<ele>688.9</ele>
<time>2003-06-27T08:14:59Z</time>
<speed>0.8</speed>
</trkpt>
<trkpt lat="47.221805" lon="8.613439">
<ele>687.0</ele>
<time>2003-06-27T08:15:04Z</time>
<speed>0.8</speed>
</trkpt>
<trkpt lat="47.221850" lon="8.613368">
<ele>685.2</ele>
<time>2003-06-27T08:15:09Z</time>
<speed>0.8</speed>
</trkpt>
<trkpt lat="47.221900" lon="8.613300">
<ele>682.7</ele>
<time>2003-06-27T08:15:14Z</time>
<speed>0.8</speed>
</trkpt>
<trkpt lat="47.221951" lon="8.613214">
<ele>682.9</ele>
<time>2003-06-27T08:15:19Z</time>
<speed>1.1</speed>
</trkpt>
<trkpt lat="47.222010" lon="8.613118">
<ele>682.3</ele>
<time>2003-06-27T08:15:24Z</time>
<speed>0.8</speed>
</trkpt>
<trkpt lat="47.222047" lon="8.613046">
<ele>681.2</ele>
<time>2003-06-27T08:15:29Z</time>
<speed>0.8</speed>
</trkpt>
<trkpt lat="47.222085" lon="8.612973">
<ele>680.0</ele>
<time>2003-06-27T08:15:34Z</time>
<speed>1.1</speed>
</trkpt>
<trkpt lat="47.222129" lon="8.612903">
<ele>678.2</ele>
<time>2003-06-27T08:15:39Z</time>
<speed>1.4</speed>
</trkpt>
<trkpt lat="47.222167" lon="8.612830">
<ele>677.0</ele>
<time>2003-06-27T08:15:44Z</time>
<speed>1.1</speed>
</trkpt>
<trkpt lat="47.222205" lon="8.612758">
<ele>675.9</ele>
<time>2003-06-27T08:15:49Z</time>
<speed>1.1</speed>
</trkpt>
<trkpt lat="47.222255" lon="8.612688">
<ele>674.8</ele>
<time>2003-06-27T08:15:54Z</time>
<speed>1.1</speed>
</trkpt>
<trkpt lat="47.222291" lon="8.612641">
<ele>673.8</ele>
<time>2003-06-27T08:15:59Z</time>
<speed>1.1</speed>
</trkpt>
<trkpt lat="47.222333" lon="8.612597">
<ele>672.2</ele>
<time>2003-06-27T08:16:04Z</time>
<speed>1.1</speed>
</trkpt>
<trkpt lat="47.222394" lon="8.612553">
<ele>672.8</ele>
<time>2003-06-27T08:16:09Z</time>
<speed>1.4</speed>
</trkpt>
<trkpt lat="47.222447" lon="8.612521">
<ele>672.7</ele>
<time>2003-06-27T08:16:14Z</time>
<speed>0.8</speed>
</trkpt>
<trkpt lat="47.222494" lon="8.612488">
<ele>673.3</ele>
<time>2003-06-27T08:16:19Z</time>
<speed>1.1</speed>
</trkpt>
<trkpt lat="47.222554" lon="8.612459">
<ele>672.6</ele>
<time>2003-06-27T08:16:24Z</time>
<speed>1.1</speed>
</trkpt>
<trkpt lat="47.222608" lon="8.612428">
<ele>672.6</ele>
<time>2003-06-27T08:16:29Z</time>
<speed>1.1</speed>
</trkpt>
<trkpt lat="47.222668" lon="8.612398">
<ele>671.8</ele>
<time>2003-06-27T08:16:34Z</time>
<speed>1.1</speed>
</trkpt>
<trkpt lat="47.222721" lon="8.612367">
<ele>671.8</ele>
<time>2003-06-27T08:16:39Z</time>
<speed>1.4</speed>
</trkpt>
<trkpt lat="47.222762" lon="8.612334">
<ele>671.7</ele>
<time>2003-06-27T08:16:44Z</time>
<speed>1.1</speed>
</trkpt>
<trkpt lat="47.222810" lon="8.612288">
<ele>672.2</ele>
<time>2003-06-27T08:16:49Z</time>
<speed>1.1</speed>
</trkpt>
<trkpt lat="47.222871" lon="8.612245">
<ele>671.3</ele>
<time>2003-06-27T08:16:54Z</time>
<speed>0.8</speed>
</trkpt>
<trkpt lat="47.222919" lon="8.612199">
<ele>671.9</ele>
<time>2003-06-27T08:16:59Z</time>
<speed>1.1</speed>
</trkpt>
<trkpt lat="47.222967" lon="8.612153">
<ele>672.4</ele>
<time>2003-06-27T08:17:04Z</time>
<speed>1.1</speed>
</trkpt>
<trkpt lat="47.223020" lon="8.612120">
<ele>673.7</ele>
<time>2003-06-27T08:17:09Z</time>
<speed>1.1</speed>
</trkpt>
<trkpt lat="47.223060" lon="8.612082">
<ele>676.4</ele>
<time>2003-06-27T08:17:14Z</time>
<speed>0.8</speed>
</trkpt>
<trkpt lat="47.223088" lon="8.612045">
<ele>677.6</ele>
<time>2003-06-27T08:17:19Z</time>
<speed>0.6</speed>
</trkpt>
<trkpt lat="47.223129" lon="8.612010">
<ele>678.9</ele>
<time>2003-06-27T08:17:24Z</time>
<speed>0.8</speed>
</trkpt>
<trkpt lat="47.223186" lon="8.612003">
<ele>681.2</ele>
<time>2003-06-27T08:17:29Z</time>
<speed>0.8</speed>
</trkpt>
<trkpt lat="47.223246" lon="8.611976">
<ele>679.1</ele>
<time>2003-06-27T08:17:34Z</time>
<speed>0.8</speed>
</trkpt>
<trkpt lat="47.223297" lon="8.611968">
<ele>680.6</ele>
<time>2003-06-27T08:17:39Z</time>
<speed>0.6</speed>
</trkpt>
<trkpt lat="47.223349" lon="8.611963">
<ele>680.8</ele>
<time>2003-06-27T08:17:44Z</time>
<speed>0.6</speed>
</trkpt>
<trkpt lat="47.223394" lon="8.611958">
<ele>680.2</ele>
<time>2003-06-27T08:17:49Z</time>
<speed>0.8</speed>
</trkpt>
<trkpt lat="47.223452" lon="8.611955">
<ele>679.7</ele>
<time>2003-06-27T08:17:54Z</time>
<speed>0.6</speed>
</trkpt>
<trkpt lat="47.223491" lon="8.611948">
<ele>679.8</ele>
<time>2003-06-27T08:17:59Z</time>
<speed>0.3</speed>
</trkpt>
<trkpt lat="47.223548" lon="8.611956">
<ele>680.8</ele>
<time>2003-06-27T08:18:04Z</time>
<speed>0.6</speed>
</trkpt>
<trkpt lat="47.223608" lon="8.611926">
<ele>680.0</ele>
<time>2003-06-27T08:18:09Z</time>
<speed>0.6</speed>
</trkpt>
<trkpt lat="47.223666" lon="8.611923">
<ele>679.5</ele>
<time>2003-06-27T08:18:14Z</time>
<speed>0.8</speed>
</trkpt>
<trkpt lat="47.223744" lon="8.611909">
<ele>679.7</ele>
<time>2003-06-27T08:18:19Z</time>
<speed>0.8</speed>
</trkpt>
<trkpt lat="47.223786" lon="8.611863">
<ele>679.5</ele>
<time>2003-06-27T08:18:24Z</time>
<speed>0.6</speed>
</trkpt>
<trkpt lat="47.223834" lon="8.611817">
<ele>680.0</ele>
<time>2003-06-27T08:18:29Z</time>
<speed>0.6</speed>
</trkpt>
<trkpt lat="47.223886" lon="8.611781">
<ele>682.7</ele>
<time>2003-06-27T08:18:34Z</time>
<speed>0.6</speed>
</trkpt>
<trkpt lat="47.223944" lon="8.611778">
<ele>682.2</ele>
<time>2003-06-27T08:18:39Z</time>
<speed>1.1</speed>
</trkpt>
<trkpt lat="47.224011" lon="8.611734">
<ele>683.5</ele>
<time>2003-06-27T08:18:44Z</time>
<speed>0.8</speed>
</trkpt>
<trkpt lat="47.224063" lon="8.611714">
<ele>685.0</ele>
<time>2003-06-27T08:18:49Z</time>
<speed>0.6</speed>
</trkpt>
<trkpt lat="47.224110" lon="8.611695">
<ele>684.3</ele>
<time>2003-06-27T08:18:54Z</time>
<speed>0.6</speed>
</trkpt>
<trkpt lat="47.224135" lon="8.611699">
<ele>684.4</ele>
<time>2003-06-27T08:18:59Z</time>
<speed>0.3</speed>
</trkpt>
<trkpt lat="47.224181" lon="8.611664">
<ele>686.4</ele>
<time>2003-06-27T08:19:04Z</time>
<speed>0.3</speed>
</trkpt>
<trkpt lat="47.224228" lon="8.611631">
<ele>687.0</ele>
<time>2003-06-27T08:19:09Z</time>
<speed>0.6</speed>
</trkpt>
<trkpt lat="47.224281" lon="8.611611">
<ele>688.5</ele>
<time>2003-06-27T08:19:14Z</time>
<speed>0.3</speed>
</trkpt>
<trkpt lat="47.224325" lon="8.611602">
<ele>690.7</ele>
<time>2003-06-27T08:19:19Z</time>
<speed>0.3</speed>
</trkpt>
<trkpt lat="47.224370" lon="8.611595">
<ele>691.5</ele>
<time>2003-06-27T08:19:24Z</time>
<speed>0.6</speed>
</trkpt>
<trkpt lat="47.224416" lon="8.611574">
<ele>692.3</ele>
<time>2003-06-27T08:19:29Z</time>
<speed>0.3</speed>
</trkpt>
<trkpt lat="47.224470" lon="8.611543">
<ele>692.2</ele>
<time>2003-06-27T08:19:34Z</time>
<speed>0.6</speed>
</trkpt>
<trkpt lat="47.224528" lon="8.611525">
<ele>693.0</ele>
<time>2003-06-27T08:19:39Z</time>
<speed>0.6</speed>
</trkpt>
<trkpt lat="47.224602" lon="8.611483">
<ele>693.6</ele>
<time>2003-06-27T08:19:44Z</time>
<speed>0.6</speed>
</trkpt>
<trkpt lat="47.224647" lon="8.611475">
<ele>694.4</ele>
<time>2003-06-27T08:19:49Z</time>
<speed>0.6</speed>
</trkpt>
<trkpt lat="47.224716" lon="8.611409">
<ele>692.7</ele>
<time>2003-06-27T08:19:54Z</time>
<speed>0.6</speed>
</trkpt>
<trkpt lat="47.224764" lon="8.611365">
<ele>691.9</ele>
<time>2003-06-27T08:19:59Z</time>
<speed>0.8</speed>
</trkpt>
<trkpt lat="47.224827" lon="8.611296">
<ele>690.8</ele>
<time>2003-06-27T08:20:04Z</time>
<speed>0.6</speed>
</trkpt>
<trkpt lat="47.224871" lon="8.611239">
<ele>689.1</ele>
<time>2003-06-27T08:20:09Z</time>
<speed>0.3</speed>
</trkpt>
<trkpt lat="47.224901" lon="8.611178">
<ele>688.7</ele>
<time>2003-06-27T08:20:14Z</time>
<speed>0.8</speed>
</trkpt>
<trkpt lat="47.224944" lon="8.611118">
<ele>688.4</ele>
<time>2003-06-27T08:20:19Z</time>
<speed>0.6</speed>
</trkpt>
<trkpt lat="47.225006" lon="8.611063">
<ele>687.5</ele>
<time>2003-06-27T08:20:24Z</time>
<speed>1.1</speed>
</trkpt>
<trkpt lat="47.225060" lon="8.611019">
<ele>687.3</ele>
<time>2003-06-27T08:20:29Z</time>
<speed>0.6</speed>
</trkpt>
<trkpt lat="47.225088" lon="8.610981">
<ele>688.5</ele>
<time>2003-06-27T08:20:34Z</time>
<speed>0.6</speed>
</trkpt>
<trkpt lat="47.225117" lon="8.610948">
<ele>686.9</ele>
<time>2003-06-27T08:20:39Z</time>
<speed>0.3</speed>
</trkpt>
<trkpt lat="47.225128" lon="8.610963">
<ele>687.1</ele>
<time>2003-06-27T08:20:44Z</time>
<speed>0.0</speed>
</trkpt>
<trkpt lat="47.225144" lon="8.610926">
<ele>686.9</ele>
<time>2003-06-27T08:20:49Z</time>
<speed>0.6</speed>
</trkpt>
<trkpt lat="47.225169" lon="8.610833">
<ele>689.8</ele>
<time>2003-06-27T08:20:54Z</time>
<speed>1.1</speed>
</trkpt>
<trkpt lat="47.225178" lon="8.610794">
<ele>690.2</ele>
<time>2003-06-27T08:20:59Z</time>
<speed>0.6</speed>
</trkpt>
<trkpt lat="47.225168" lon="8.610829">
<ele>692.6</ele>
<time>2003-06-27T08:21:04Z</time>
<speed>0.0</speed>
</trkpt>
<trkpt lat="47.225174" lon="8.610829">
<ele>693.3</ele>
<time>2003-06-27T08:21:09Z</time>
<speed>0.3</speed>
</trkpt>
<trkpt lat="47.225217" lon="8.610769">
<ele>693.0</ele>
<time>2003-06-27T08:21:14Z</time>
<speed>0.8</speed>
</trkpt>
<trkpt lat="47.225251" lon="8.610732">
<ele>694.9</ele>
<time>2003-06-27T08:21:19Z</time>
<speed>0.6</speed>
</trkpt>
<trkpt lat="47.225299" lon="8.610686">
<ele>695.5</ele>
<time>2003-06-27T08:21:24Z</time>
<speed>0.8</speed>
</trkpt>
<trkpt lat="47.225358" lon="8.610655">
<ele>696.1</ele>
<time>2003-06-27T08:21:29Z</time>
<speed>0.6</speed>
</trkpt>
<trkpt lat="47.225395" lon="8.610595">
<ele>695.1</ele>
<time>2003-06-27T08:21:34Z</time>
<speed>0.8</speed>
</trkpt>
<trkpt lat="47.225428" lon="8.610586">
<ele>695.8</ele>
<time>2003-06-27T08:21:39Z</time>
<speed>0.8</speed>
</trkpt>
<trkpt lat="47.225474" lon="8.610566">
<ele>696.6</ele>
<time>2003-06-27T08:21:44Z</time>
<speed>0.6</speed>
</trkpt>
<trkpt lat="47.225526" lon="8.610548">
<ele>696.6</ele>
<time>2003-06-27T08:21:49Z</time>
<speed>0.6</speed>
</trkpt>
<trkpt lat="47.225562" lon="8.610502">
<ele>695.7</ele>
<time>2003-06-27T08:21:54Z</time>
<speed>0.6</speed>
</trkpt>
<trkpt lat="47.225615" lon="8.610470">
<ele>695.6</ele>
<time>2003-06-27T08:21:59Z</time>
<speed>0.8</speed>
</trkpt>
<trkpt lat="47.225660" lon="8.610400">
<ele>693.8</ele>
<time>2003-06-27T08:22:04Z</time>
<speed>1.1</speed>
</trkpt>
<trkpt lat="47.225716" lon="8.610329">
<ele>693.4</ele>
<time>2003-06-27T08:22:09Z</time>
<speed>1.1</speed>
</trkpt>
<trkpt lat="47.225765" lon="8.610348">
<ele>695.2</ele>
<time>2003-06-27T08:22:14Z</time>
<speed>0.6</speed>
</trkpt>
<trkpt lat="47.225801" lon="8.610380">
<ele>695.6</ele>
<time>2003-06-27T08:22:19Z</time>
<speed>0.6</speed>
</trkpt>
<trkpt lat="47.225835" lon="8.610345">
<ele>696.1</ele>
<time>2003-06-27T08:22:24Z</time>
<speed>0.3</speed>
</trkpt>
<trkpt lat="47.225874" lon="8.610338">
<ele>696.2</ele>
<time>2003-06-27T08:22:29Z</time>
<speed>0.3</speed>
</trkpt>
<trkpt lat="47.225936" lon="8.610298">
<ele>694.0</ele>
<time>2003-06-27T08:22:34Z</time>
<speed>0.6</speed>
</trkpt>
<trkpt lat="47.225990" lon="8.610269">
<ele>692.5</ele>
<time>2003-06-27T08:22:39Z</time>
<speed>0.3</speed>
</trkpt>
<trkpt lat="47.226056" lon="8.610241">
<ele>691.1</ele>
<time>2003-06-27T08:22:44Z</time>
<speed>0.6</speed>
</trkpt>
<trkpt lat="47.226118" lon="8.610186">
<ele>690.2</ele>
<time>2003-06-27T08:22:49Z</time>
<speed>0.6</speed>
</trkpt>
<trkpt lat="47.226175" lon="8.610117">
<ele>688.4</ele>
<time>2003-06-27T08:22:54Z</time>
<speed>0.3</speed>
</trkpt>
<trkpt lat="47.226223" lon="8.610088">
<ele>686.2</ele>
<time>2003-06-27T08:22:59Z</time>
<speed>0.6</speed>
</trkpt>
<trkpt lat="47.226270" lon="8.610057">
<ele>685.4</ele>
<time>2003-06-27T08:23:04Z</time>
<speed>0.6</speed>
</trkpt>
<trkpt lat="47.226336" lon="8.610041">
<ele>685.5</ele>
<time>2003-06-27T08:23:09Z</time>
<speed>0.8</speed>
</trkpt>
<trkpt lat="47.226379" lon="8.610045">
<ele>687.9</ele>
<time>2003-06-27T08:23:14Z</time>
<speed>0.8</speed>
</trkpt>
<trkpt lat="47.226424" lon="8.610037">
<ele>688.7</ele>
<time>2003-06-27T08:23:19Z</time>
<speed>0.8</speed>
</trkpt>
<trkpt lat="47.226513" lon="8.609960">
<ele>687.7</ele>
<time>2003-06-27T08:23:24Z</time>
<speed>1.4</speed>
</trkpt>
<trkpt lat="47.226580" lon="8.609918">
<ele>687.6</ele>
<time>2003-06-27T08:23:29Z</time>
<speed>1.1</speed>
</trkpt>
<trkpt lat="47.226636" lon="8.609858">
<ele>688.7</ele>
<time>2003-06-27T08:23:34Z</time>
<speed>1.1</speed>
</trkpt>
<trkpt lat="47.226703" lon="8.609816">
<ele>688.6</ele>
<time>2003-06-27T08:23:39Z</time>
<speed>0.8</speed>
</trkpt>
<trkpt lat="47.226759" lon="8.609761">
<ele>687.0</ele>
<time>2003-06-27T08:23:44Z</time>
<speed>0.8</speed>
</trkpt>
<trkpt lat="47.226787" lon="8.609727">
<ele>685.4</ele>
<time>2003-06-27T08:23:49Z</time>
<speed>0.6</speed>
</trkpt>
<trkpt lat="47.226799" lon="8.609742">
<ele>685.6</ele>
<time>2003-06-27T08:23:54Z</time>
<speed>0.3</speed>
</trkpt>
<trkpt lat="47.226821" lon="8.609707">
<ele>684.6</ele>
<time>2003-06-27T08:23:59Z</time>
<speed>0.0</speed>
</trkpt>
<trkpt lat="47.226822" lon="8.609696">
<ele>683.1</ele>
<time>2003-06-27T08:24:04Z</time>
<speed>0.0</speed>
</trkpt>
<trkpt lat="47.226822" lon="8.609696">
<ele>683.1</ele>
<time>2003-06-27T08:24:09Z</time>
<speed>0.0</speed>
</trkpt>
<trkpt lat="47.226827" lon="8.609646">
<ele>681.3</ele>
<time>2003-06-27T08:24:14Z</time>
<speed>0.0</speed>
</trkpt>
<trkpt lat="47.226830" lon="8.609624">
<ele>678.3</ele>
<time>2003-06-27T08:24:19Z</time>
<speed>0.0</speed>
</trkpt>
<trkpt lat="47.226830" lon="8.609624">
<ele>678.3</ele>
<time>2003-06-27T08:24:24Z</time>
<speed>0.0</speed>
</trkpt>
<trkpt lat="47.226830" lon="8.609624">
<ele>678.3</ele>
<time>2003-06-27T08:24:29Z</time>
<speed>0.0</speed>
</trkpt>
<trkpt lat="47.226830" lon="8.609624">
<ele>678.3</ele>
<time>2003-06-27T08:24:34Z</time>
<speed>0.0</speed>
</trkpt>
<trkpt lat="47.226819" lon="8.609596">
<ele>678.0</ele>
<time>2003-06-27T08:24:39Z</time>
<speed>0.0</speed>
</trkpt>
<trkpt lat="47.226819" lon="8.609596">
<ele>678.0</ele>
<time>2003-06-27T08:24:44Z</time>
<speed>0.0</speed>
</trkpt>
<trkpt lat="47.226819" lon="8.609596">
<ele>678.0</ele>
<time>2003-06-27T08:24:49Z</time>
<speed>0.0</speed>
</trkpt>
<trkpt lat="47.226819" lon="8.609596">
<ele>678.0</ele>
<time>2003-06-27T08:24:54Z</time>
<speed>0.0</speed>
</trkpt>
<trkpt lat="47.226820" lon="8.609583">
<ele>677.9</ele>
<time>2003-06-27T08:24:59Z</time>
<speed>0.0</speed>
</trkpt>
<trkpt lat="47.226820" lon="8.609583">
<ele>677.9</ele>
<time>2003-06-27T08:25:04Z</time>
<speed>0.0</speed>
</trkpt>
<trkpt lat="47.226820" lon="8.609583">
<ele>677.9</ele>
<time>2003-06-27T08:25:09Z</time>
<speed>0.0</speed>
</trkpt>
<trkpt lat="47.226820" lon="8.609583">
<ele>677.9</ele>
<time>2003-06-27T08:25:14Z</time>
<speed>0.0</speed>
</trkpt>
<trkpt lat="47.226820" lon="8.609583">
<ele>677.9</ele>
<time>2003-06-27T08:25:19Z</time>
<speed>0.0</speed>
</trkpt>
<trkpt lat="47.226820" lon="8.609583">
<ele>677.9</ele>
<time>2003-06-27T08:25:24Z</time>
<speed>0.0</speed>
</trkpt>
<trkpt lat="47.226820" lon="8.609583">
<ele>677.9</ele>
<time>2003-06-27T08:25:29Z</time>
<speed>0.0</speed>
</trkpt>
<trkpt lat="47.226821" lon="8.609569">
<ele>677.8</ele>
<time>2003-06-27T08:25:34Z</time>
<speed>0.0</speed>
</trkpt>
<trkpt lat="47.226816" lon="8.609556">
<ele>677.0</ele>
<time>2003-06-27T08:25:39Z</time>
<speed>0.0</speed>
</trkpt>
<trkpt lat="47.226816" lon="8.609556">
<ele>677.0</ele>
<time>2003-06-27T08:25:44Z</time>
<speed>0.0</speed>
</trkpt>
<trkpt lat="47.226810" lon="8.609556">
<ele>676.3</ele>
<time>2003-06-27T08:25:49Z</time>
<speed>0.0</speed>
</trkpt>
<trkpt lat="47.226809" lon="8.609569">
<ele>676.4</ele>
<time>2003-06-27T08:25:54Z</time>
<speed>0.0</speed>
</trkpt>
<trkpt lat="47.226809" lon="8.609569">
<ele>676.4</ele>
<time>2003-06-27T08:25:59Z</time>
<speed>0.0</speed>
</trkpt>
<trkpt lat="47.226809" lon="8.609569">
<ele>676.4</ele>
<time>2003-06-27T08:26:04Z</time>
<speed>0.0</speed>
</trkpt>
<trkpt lat="47.226809" lon="8.609569">
<ele>676.4</ele>
<time>2003-06-27T08:26:09Z</time>
<speed>0.0</speed>
</trkpt>
<trkpt lat="47.226809" lon="8.609569">
<ele>676.4</ele>
<time>2003-06-27T08:26:14Z</time>
<speed>0.0</speed>
</trkpt>
<trkpt lat="47.226809" lon="8.609569">
<ele>676.4</ele>
<time>2003-06-27T08:26:19Z</time>
<speed>0.0</speed>
</trkpt>
<trkpt lat="47.226809" lon="8.609569">
<ele>676.4</ele>
<time>2003-06-27T08:26:24Z</time>
<speed>0.0</speed>
</trkpt>
<trkpt lat="47.226796" lon="8.609567">
<ele>676.3</ele>
<time>2003-06-27T08:26:29Z</time>
<speed>0.0</speed>
</trkpt>
<trkpt lat="47.226796" lon="8.609567">
<ele>676.3</ele>
<time>2003-06-27T08:26:34Z</time>
<speed>0.0</speed>
</trkpt>
<trkpt lat="47.226796" lon="8.609567">
<ele>676.3</ele>
<time>2003-06-27T08:26:39Z</time>
<speed>0.0</speed>
</trkpt>
<trkpt lat="47.226796" lon="8.609567">
<ele>676.3</ele>
<time>2003-06-27T08:26:44Z</time>
<speed>0.0</speed>
</trkpt>
<trkpt lat="47.226796" lon="8.609567">
<ele>676.3</ele>
<time>2003-06-27T08:26:49Z</time>
<speed>0.0</speed>
</trkpt>
<trkpt lat="47.226796" lon="8.609567">
<ele>676.3</ele>
<time>2003-06-27T08:26:54Z</time>
<speed>0.0</speed>
</trkpt>
<trkpt lat="47.226796" lon="8.609567">
<ele>676.3</ele>
<time>2003-06-27T08:26:59Z</time>
<speed>0.0</speed>
</trkpt>
<trkpt lat="47.226796" lon="8.609567">
<ele>676.3</ele>
<time>2003-06-27T08:27:04Z</time>
<speed>0.0</speed>
</trkpt>
<trkpt lat="47.226796" lon="8.609567">
<ele>676.3</ele>
<time>2003-06-27T08:27:09Z</time>
<speed>0.0</speed>
</trkpt>
<trkpt lat="47.226796" lon="8.609567">
<ele>676.3</ele>
<time>2003-06-27T08:27:14Z</time>
<speed>0.0</speed>
</trkpt>
<trkpt lat="47.226796" lon="8.609567">
<ele>676.3</ele>
<time>2003-06-27T08:27:19Z</time>
<speed>0.0</speed>
</trkpt>
<trkpt lat="47.226803" lon="8.609569">
<ele>675.6</ele>
<time>2003-06-27T08:27:24Z</time>
<speed>0.0</speed>
</trkpt>
<trkpt lat="47.226803" lon="8.609569">
<ele>675.6</ele>
<time>2003-06-27T08:27:29Z</time>
<speed>0.0</speed>
</trkpt>
<trkpt lat="47.226796" lon="8.609567">
<ele>676.3</ele>
<time>2003-06-27T08:27:34Z</time>
<speed>0.0</speed>
</trkpt>
<trkpt lat="47.226796" lon="8.609567">
<ele>676.3</ele>
<time>2003-06-27T08:27:39Z</time>
<speed>0.0</speed>
</trkpt>
<trkpt lat="47.226796" lon="8.609567">
<ele>676.3</ele>
<time>2003-06-27T08:27:44Z</time>
<speed>0.0</speed>
</trkpt>
<trkpt lat="47.226796" lon="8.609567">
<ele>676.3</ele>
<time>2003-06-27T08:27:49Z</time>
<speed>0.0</speed>
</trkpt>
<trkpt lat="47.226796" lon="8.609567">
<ele>676.3</ele>
<time>2003-06-27T08:27:54Z</time>
<speed>0.0</speed>
</trkpt>
<trkpt lat="47.226796" lon="8.609567">
<ele>676.3</ele>
<time>2003-06-27T08:27:59Z</time>
<speed>0.0</speed>
</trkpt>
<trkpt lat="47.226796" lon="8.609567">
<ele>676.3</ele>
<time>2003-06-27T08:28:04Z</time>
<speed>0.0</speed>
</trkpt>
<trkpt lat="47.226796" lon="8.609567">
<ele>676.3</ele>
<time>2003-06-27T08:28:09Z</time>
<speed>0.0</speed>
</trkpt>
<trkpt lat="47.226796" lon="8.609567">
<ele>676.3</ele>
<time>2003-06-27T08:28:14Z</time>
<speed>0.0</speed>
</trkpt>
<trkpt lat="47.226807" lon="8.609596">
<ele>676.6</ele>
<time>2003-06-27T08:28:19Z</time>
<speed>0.3</speed>
</trkpt>
<trkpt lat="47.226838" lon="8.609615">
<ele>676.1</ele>
<time>2003-06-27T08:28:24Z</time>
<speed>0.3</speed>
</trkpt>
<trkpt lat="47.226874" lon="8.609634">
<ele>676.4</ele>
<time>2003-06-27T08:28:29Z</time>
<speed>0.8</speed>
</trkpt>
<trkpt lat="47.226890" lon="8.609675">
<ele>677.5</ele>
<time>2003-06-27T08:28:34Z</time>
<speed>0.6</speed>
</trkpt>
<trkpt lat="47.226927" lon="8.609694">
<ele>677.8</ele>
<time>2003-06-27T08:28:39Z</time>
<speed>0.8</speed>
</trkpt>
<trkpt lat="47.226958" lon="8.609713">
<ele>677.4</ele>
<time>2003-06-27T08:28:44Z</time>
<speed>0.6</speed>
</trkpt>
<trkpt lat="47.227006" lon="8.609745">
<ele>679.2</ele>
<time>2003-06-27T08:28:49Z</time>
<speed>0.6</speed>
</trkpt>
<trkpt lat="47.227051" lon="8.609738">
<ele>680.0</ele>
<time>2003-06-27T08:28:54Z</time>
<speed>0.8</speed>
</trkpt>
<trkpt lat="47.227110" lon="8.609721">
<ele>679.4</ele>
<time>2003-06-27T08:28:59Z</time>
<speed>0.8</speed>
</trkpt>
<trkpt lat="47.227175" lon="8.609705">
<ele>679.5</ele>
<time>2003-06-27T08:29:04Z</time>
<speed>1.1</speed>
</trkpt>
<trkpt lat="47.227228" lon="8.609687">
<ele>679.6</ele>
<time>2003-06-27T08:29:09Z</time>
<speed>0.8</speed>
</trkpt>
<trkpt lat="47.227268" lon="8.609667">
<ele>679.6</ele>
<time>2003-06-27T08:29:14Z</time>
<speed>0.8</speed>
</trkpt>
<trkpt lat="47.227353" lon="8.609641">
<ele>679.0</ele>
<time>2003-06-27T08:29:19Z</time>
<speed>1.1</speed>
</trkpt>
<trkpt lat="47.227412" lon="8.609623">
<ele>679.7</ele>
<time>2003-06-27T08:29:24Z</time>
<speed>0.8</speed>
</trkpt>
<trkpt lat="47.227459" lon="8.609592">
<ele>679.0</ele>
<time>2003-06-27T08:29:29Z</time>
<speed>0.8</speed>
</trkpt>
<trkpt lat="47.227512" lon="8.609574">
<ele>679.0</ele>
<time>2003-06-27T08:29:34Z</time>
<speed>0.8</speed>
</trkpt>
<trkpt lat="47.227571" lon="8.609558">
<ele>678.4</ele>
<time>2003-06-27T08:29:39Z</time>
<speed>0.8</speed>
</trkpt>
<trkpt lat="47.227631" lon="8.609528">
<ele>677.7</ele>
<time>2003-06-27T08:29:44Z</time>
<speed>1.1</speed>
</trkpt>
<trkpt lat="47.227704" lon="8.609488">
<ele>676.9</ele>
<time>2003-06-27T08:29:49Z</time>
<speed>0.8</speed>
</trkpt>
<trkpt lat="47.227764" lon="8.609459">
<ele>676.2</ele>
<time>2003-06-27T08:29:54Z</time>
<speed>0.8</speed>
</trkpt>
<trkpt lat="47.227838" lon="8.609418">
<ele>675.4</ele>
<time>2003-06-27T08:29:59Z</time>
<speed>0.8</speed>
</trkpt>
<trkpt lat="47.227912" lon="8.609363">
<ele>675.9</ele>
<time>2003-06-27T08:30:04Z</time>
<speed>1.1</speed>
</trkpt>
<trkpt lat="47.227978" lon="8.609332">
<ele>677.4</ele>
<time>2003-06-27T08:30:09Z</time>
<speed>1.1</speed>
</trkpt>
<trkpt lat="47.228026" lon="8.609285">
<ele>677.9</ele>
<time>2003-06-27T08:30:14Z</time>
<speed>1.1</speed>
</trkpt>
<trkpt lat="47.228086" lon="8.609254">
<ele>678.5</ele>
<time>2003-06-27T08:30:19Z</time>
<speed>1.4</speed>
</trkpt>
<trkpt lat="47.228133" lon="8.609208">
<ele>679.1</ele>
<time>2003-06-27T08:30:24Z</time>
<speed>1.1</speed>
</trkpt>
<trkpt lat="47.228195" lon="8.609152">
<ele>678.1</ele>
<time>2003-06-27T08:30:29Z</time>
<speed>1.1</speed>
</trkpt>
<trkpt lat="47.228245" lon="8.609095">
<ele>677.1</ele>
<time>2003-06-27T08:30:34Z</time>
<speed>1.1</speed>
</trkpt>
<trkpt lat="47.228299" lon="8.609051">
<ele>677.0</ele>
<time>2003-06-27T08:30:39Z</time>
<speed>0.8</speed>
</trkpt>
<trkpt lat="47.228327" lon="8.609029">
<ele>676.9</ele>
<time>2003-06-27T08:30:44Z</time>
<speed>0.3</speed>
</trkpt>
<trkpt lat="47.228369" lon="8.608969">
<ele>676.6</ele>
<time>2003-06-27T08:30:49Z</time>
<speed>1.4</speed>
</trkpt>
<trkpt lat="47.228419" lon="8.608912">
<ele>675.6</ele>
<time>2003-06-27T08:30:54Z</time>
<speed>1.1</speed>
</trkpt>
<trkpt lat="47.228474" lon="8.608854">
<ele>675.3</ele>
<time>2003-06-27T08:30:59Z</time>
<speed>1.1</speed>
</trkpt>
<trkpt lat="47.228534" lon="8.608823">
<ele>676.0</ele>
<time>2003-06-27T08:31:04Z</time>
<speed>1.1</speed>
</trkpt>
<trkpt lat="47.228587" lon="8.608792">
<ele>676.0</ele>
<time>2003-06-27T08:31:09Z</time>
<speed>1.1</speed>
</trkpt>
<trkpt lat="47.228643" lon="8.608735">
<ele>675.7</ele>
<time>2003-06-27T08:31:14Z</time>
<speed>1.1</speed>
</trkpt>
<trkpt lat="47.228698" lon="8.608675">
<ele>676.9</ele>
<time>2003-06-27T08:31:19Z</time>
<speed>1.1</speed>
</trkpt>
<trkpt lat="47.228759" lon="8.608633">
<ele>676.0</ele>
<time>2003-06-27T08:31:24Z</time>
<speed>1.1</speed>
</trkpt>
<trkpt lat="47.228796" lon="8.608559">
<ele>676.3</ele>
<time>2003-06-27T08:31:29Z</time>
<speed>1.1</speed>
</trkpt>
<trkpt lat="47.228845" lon="8.608499">
<ele>676.7</ele>
<time>2003-06-27T08:31:34Z</time>
<speed>1.1</speed>
</trkpt>
<trkpt lat="47.228895" lon="8.608442">
<ele>675.7</ele>
<time>2003-06-27T08:31:39Z</time>
<speed>1.1</speed>
</trkpt>
<trkpt lat="47.228926" lon="8.608367">
<ele>675.2</ele>
<time>2003-06-27T08:31:44Z</time>
<speed>1.1</speed>
</trkpt>
<trkpt lat="47.228971" lon="8.608284">
<ele>673.3</ele>
<time>2003-06-27T08:31:49Z</time>
<speed>1.1</speed>
</trkpt>
<trkpt lat="47.229014" lon="8.608225">
<ele>673.0</ele>
<time>2003-06-27T08:31:54Z</time>
<speed>1.4</speed>
</trkpt>
<trkpt lat="47.229051" lon="8.608150">
<ele>673.2</ele>
<time>2003-06-27T08:31:59Z</time>
<speed>1.1</speed>
</trkpt>
<trkpt lat="47.229075" lon="8.608089">
<ele>672.1</ele>
<time>2003-06-27T08:32:04Z</time>
<speed>1.1</speed>
</trkpt>
<trkpt lat="47.229131" lon="8.608032">
<ele>671.8</ele>
<time>2003-06-27T08:32:09Z</time>
<speed>0.8</speed>
</trkpt>
<trkpt lat="47.229192" lon="8.607989">
<ele>671.0</ele>
<time>2003-06-27T08:32:14Z</time>
<speed>1.1</speed>
</trkpt>
<trkpt lat="47.229235" lon="8.607930">
<ele>670.7</ele>
<time>2003-06-27T08:32:19Z</time>
<speed>0.8</speed>
</trkpt>
<trkpt lat="47.229285" lon="8.607857">
<ele>671.0</ele>
<time>2003-06-27T08:32:24Z</time>
<speed>1.1</speed>
</trkpt>
<trkpt lat="47.229333" lon="8.607811">
<ele>671.5</ele>
<time>2003-06-27T08:32:29Z</time>
<speed>1.1</speed>
</trkpt>
<trkpt lat="47.229387" lon="8.607765">
<ele>672.8</ele>
<time>2003-06-27T08:32:34Z</time>
<speed>1.1</speed>
</trkpt>
<trkpt lat="47.229441" lon="8.607719">
<ele>674.0</ele>
<time>2003-06-27T08:32:39Z</time>
<speed>1.1</speed>
</trkpt>
<trkpt lat="47.229488" lon="8.607685">
<ele>674.6</ele>
<time>2003-06-27T08:32:44Z</time>
<speed>1.1</speed>
</trkpt>
<trkpt lat="47.229542" lon="8.607641">
<ele>674.5</ele>
<time>2003-06-27T08:32:49Z</time>
<speed>1.1</speed>
</trkpt>
<trkpt lat="47.229597" lon="8.607597">
<ele>674.3</ele>
<time>2003-06-27T08:32:54Z</time>
<speed>1.1</speed>
</trkpt>
<trkpt lat="47.229651" lon="8.607552">
<ele>674.2</ele>
<time>2003-06-27T08:32:59Z</time>
<speed>1.1</speed>
</trkpt>
<trkpt lat="47.229711" lon="8.607523">
<ele>673.4</ele>
<time>2003-06-27T08:33:04Z</time>
<speed>1.4</speed>
</trkpt>
<trkpt lat="47.229747" lon="8.607475">
<ele>673.9</ele>
<time>2003-06-27T08:33:09Z</time>
<speed>0.8</speed>
</trkpt>
<trkpt lat="47.229793" lon="8.607455">
<ele>674.6</ele>
<time>2003-06-27T08:33:14Z</time>
<speed>0.8</speed>
</trkpt>
<trkpt lat="47.229826" lon="8.607433">
<ele>675.3</ele>
<time>2003-06-27T08:33:19Z</time>
<speed>0.8</speed>
</trkpt>
<trkpt lat="47.229886" lon="8.607401">
<ele>675.9</ele>
<time>2003-06-27T08:33:24Z</time>
<speed>0.8</speed>
</trkpt>
<trkpt lat="47.229939" lon="8.607370">
<ele>675.9</ele>
<time>2003-06-27T08:33:29Z</time>
<speed>1.1</speed>
</trkpt>
<trkpt lat="47.230005" lon="8.607341">
<ele>675.9</ele>
<time>2003-06-27T08:33:34Z</time>
<speed>1.1</speed>
</trkpt>
<trkpt lat="47.230058" lon="8.607323">
<ele>676.0</ele>
<time>2003-06-27T08:33:39Z</time>
<speed>0.8</speed>
</trkpt>
<trkpt lat="47.230111" lon="8.607289">
<ele>677.3</ele>
<time>2003-06-27T08:33:44Z</time>
<speed>0.8</speed>
</trkpt>
<trkpt lat="47.230169" lon="8.607271">
<ele>678.1</ele>
<time>2003-06-27T08:33:49Z</time>
<speed>1.1</speed>
</trkpt>
<trkpt lat="47.230235" lon="8.607255">
<ele>678.2</ele>
<time>2003-06-27T08:33:54Z</time>
<speed>1.1</speed>
</trkpt>
<trkpt lat="47.230301" lon="8.607226">
<ele>678.2</ele>
<time>2003-06-27T08:33:59Z</time>
<speed>1.1</speed>
</trkpt>
<trkpt lat="47.230361" lon="8.607196">
<ele>677.5</ele>
<time>2003-06-27T08:34:04Z</time>
<speed>1.4</speed>
</trkpt>
<trkpt lat="47.230414" lon="8.607165">
<ele>677.4</ele>
<time>2003-06-27T08:34:09Z</time>
<speed>1.1</speed>
</trkpt>
<trkpt lat="47.230474" lon="8.607136">
<ele>676.7</ele>
<time>2003-06-27T08:34:14Z</time>
<speed>1.1</speed>
</trkpt>
<trkpt lat="47.230534" lon="8.607106">
<ele>676.0</ele>
<time>2003-06-27T08:34:19Z</time>
<speed>1.4</speed>
</trkpt>
<trkpt lat="47.230596" lon="8.607051">
<ele>675.0</ele>
<time>2003-06-27T08:34:24Z</time>
<speed>1.1</speed>
</trkpt>
<trkpt lat="47.230656" lon="8.607020">
<ele>675.7</ele>
<time>2003-06-27T08:34:29Z</time>
<speed>1.1</speed>
</trkpt>
<trkpt lat="47.230717" lon="8.606975">
<ele>676.3</ele>
<time>2003-06-27T08:34:34Z</time>
<speed>1.4</speed>
</trkpt>
<trkpt lat="47.230771" lon="8.606931">
<ele>676.1</ele>
<time>2003-06-27T08:34:39Z</time>
<speed>1.1</speed>
</trkpt>
<trkpt lat="47.230831" lon="8.606902">
<ele>675.4</ele>
<time>2003-06-27T08:34:44Z</time>
<speed>1.1</speed>
</trkpt>
<trkpt lat="47.230885" lon="8.606871">
<ele>675.4</ele>
<time>2003-06-27T08:34:49Z</time>
<speed>1.1</speed>
</trkpt>
<trkpt lat="47.230945" lon="8.606826">
<ele>675.9</ele>
<time>2003-06-27T08:34:54Z</time>
<speed>1.1</speed>
</trkpt>
<trkpt lat="47.231000" lon="8.606782">
<ele>675.8</ele>
<time>2003-06-27T08:34:59Z</time>
<speed>1.4</speed>
</trkpt>
<trkpt lat="47.231065" lon="8.606766">
<ele>675.9</ele>
<time>2003-06-27T08:35:04Z</time>
<speed>1.1</speed>
</trkpt>
<trkpt lat="47.231118" lon="8.606734">
<ele>675.8</ele>
<time>2003-06-27T08:35:09Z</time>
<speed>1.1</speed>
</trkpt>
<trkpt lat="47.231171" lon="8.606716">
<ele>675.9</ele>
<time>2003-06-27T08:35:14Z</time>
<speed>1.4</speed>
</trkpt>
<trkpt lat="47.231237" lon="8.606687">
<ele>675.9</ele>
<time>2003-06-27T08:35:19Z</time>
<speed>1.4</speed>
</trkpt>
<trkpt lat="47.231304" lon="8.606660">
<ele>674.5</ele>
<time>2003-06-27T08:35:24Z</time>
<speed>1.4</speed>
</trkpt>
<trkpt lat="47.231356" lon="8.606641">
<ele>674.6</ele>
<time>2003-06-27T08:35:29Z</time>
<speed>1.4</speed>
</trkpt>
<trkpt lat="47.231403" lon="8.606608">
<ele>675.2</ele>
<time>2003-06-27T08:35:34Z</time>
<speed>0.6</speed>
</trkpt>
<trkpt lat="47.231448" lon="8.606603">
<ele>674.6</ele>
<time>2003-06-27T08:35:39Z</time>
<speed>0.8</speed>
</trkpt>
<trkpt lat="47.231488" lon="8.606583">
<ele>674.6</ele>
<time>2003-06-27T08:35:44Z</time>
<speed>0.8</speed>
</trkpt>
<trkpt lat="47.231541" lon="8.606565">
<ele>674.6</ele>
<time>2003-06-27T08:35:49Z</time>
<speed>1.4</speed>
</trkpt>
<trkpt lat="47.231607" lon="8.606535">
<ele>674.6</ele>
<time>2003-06-27T08:35:54Z</time>
<speed>1.4</speed>
</trkpt>
<trkpt lat="47.231667" lon="8.606506">
<ele>673.9</ele>
<time>2003-06-27T08:35:59Z</time>
<speed>1.4</speed>
</trkpt>
<trkpt lat="47.231732" lon="8.606490">
<ele>674.0</ele>
<time>2003-06-27T08:36:04Z</time>
<speed>1.4</speed>
</trkpt>
<trkpt lat="47.231791" lon="8.606474">
<ele>673.4</ele>
<time>2003-06-27T08:36:09Z</time>
<speed>1.1</speed>
</trkpt>
<trkpt lat="47.231856" lon="8.606457">
<ele>673.5</ele>
<time>2003-06-27T08:36:14Z</time>
<speed>1.4</speed>
</trkpt>
<trkpt lat="47.231915" lon="8.606441">
<ele>672.9</ele>
<time>2003-06-27T08:36:19Z</time>
<speed>1.4</speed>
</trkpt>
<trkpt lat="47.231981" lon="8.606425">
<ele>673.0</ele>
<time>2003-06-27T08:36:24Z</time>
<speed>1.1</speed>
</trkpt>
<trkpt lat="47.232047" lon="8.606396">
<ele>673.0</ele>
<time>2003-06-27T08:36:29Z</time>
<speed>1.1</speed>
</trkpt>
<trkpt lat="47.232112" lon="8.606381">
<ele>671.7</ele>
<time>2003-06-27T08:36:34Z</time>
<speed>1.4</speed>
</trkpt>
<trkpt lat="47.232190" lon="8.606367">
<ele>671.9</ele>
<time>2003-06-27T08:36:40Z</time>
<speed>1.1</speed>
</trkpt>
<trkpt lat="47.232262" lon="8.606353">
<ele>671.3</ele>
<time>2003-06-27T08:36:45Z</time>
<speed>1.1</speed>
</trkpt>
<trkpt lat="47.232315" lon="8.606337">
<ele>670.0</ele>
<time>2003-06-27T08:36:50Z</time>
<speed>1.1</speed>
</trkpt>
<trkpt lat="47.232374" lon="8.606320">
<ele>669.3</ele>
<time>2003-06-27T08:36:55Z</time>
<speed>1.1</speed>
</trkpt>
<trkpt lat="47.232438" lon="8.606317">
<ele>669.5</ele>
<time>2003-06-27T08:37:00Z</time>
<speed>1.1</speed>
</trkpt>
<trkpt lat="47.232498" lon="8.606288">
<ele>668.8</ele>
<time>2003-06-27T08:37:05Z</time>
<speed>1.4</speed>
</trkpt>
<trkpt lat="47.232557" lon="8.606270">
<ele>669.6</ele>
<time>2003-06-27T08:37:10Z</time>
<speed>1.1</speed>
</trkpt>
<trkpt lat="47.232616" lon="8.606254">
<ele>669.0</ele>
<time>2003-06-27T08:37:15Z</time>
<speed>1.1</speed>
</trkpt>
<trkpt lat="47.232682" lon="8.606224">
<ele>669.0</ele>
<time>2003-06-27T08:37:20Z</time>
<speed>1.4</speed>
</trkpt>
<trkpt lat="47.232740" lon="8.606206">
<ele>669.8</ele>
<time>2003-06-27T08:37:25Z</time>
<speed>1.1</speed>
</trkpt>
<trkpt lat="47.232798" lon="8.606203">
<ele>669.2</ele>
<time>2003-06-27T08:37:30Z</time>
<speed>1.1</speed>
</trkpt>
<trkpt lat="47.232850" lon="8.606198">
<ele>669.4</ele>
<time>2003-06-27T08:37:35Z</time>
<speed>1.1</speed>
</trkpt>
<trkpt lat="47.232902" lon="8.606180">
<ele>669.4</ele>
<time>2003-06-27T08:37:40Z</time>
<speed>1.1</speed>
</trkpt>
<trkpt lat="47.232956" lon="8.606148">
<ele>669.4</ele>
<time>2003-06-27T08:37:45Z</time>
<speed>1.1</speed>
</trkpt>
<trkpt lat="47.233016" lon="8.606117">
<ele>670.1</ele>
<time>2003-06-27T08:37:50Z</time>
<speed>0.8</speed>
</trkpt>
<trkpt lat="47.233057" lon="8.606069">
<ele>671.3</ele>
<time>2003-06-27T08:37:55Z</time>
<speed>1.1</speed>
</trkpt>
<trkpt lat="47.233094" lon="8.606009">
<ele>670.2</ele>
<time>2003-06-27T08:38:00Z</time>
<speed>0.8</speed>
</trkpt>
<trkpt lat="47.233134" lon="8.605898">
<ele>668.7</ele>
<time>2003-06-27T08:38:05Z</time>
<speed>1.1</speed>
</trkpt>
<trkpt lat="47.233154" lon="8.605806">
<ele>669.5</ele>
<time>2003-06-27T08:38:10Z</time>
<speed>1.4</speed>
</trkpt>
<trkpt lat="47.233167" lon="8.605700">
<ele>670.8</ele>
<time>2003-06-27T08:38:15Z</time>
<speed>1.4</speed>
</trkpt>
<trkpt lat="47.233192" lon="8.605609">
<ele>672.3</ele>
<time>2003-06-27T08:38:20Z</time>
<speed>1.4</speed>
</trkpt>
<trkpt lat="47.233209" lon="8.605558">
<ele>672.0</ele>
<time>2003-06-27T08:38:25Z</time>
<speed>0.0</speed>
</trkpt>
<trkpt lat="47.233257" lon="8.605514">
<ele>671.1</ele>
<time>2003-06-27T08:38:30Z</time>
<speed>1.1</speed>
</trkpt>
<trkpt lat="47.233313" lon="8.605457">
<ele>670.8</ele>
<time>2003-06-27T08:38:35Z</time>
<speed>1.4</speed>
</trkpt>
<trkpt lat="47.233361" lon="8.605410">
<ele>671.3</ele>
<time>2003-06-27T08:38:40Z</time>
<speed>1.1</speed>
</trkpt>
<trkpt lat="47.233409" lon="8.605366">
<ele>670.4</ele>
<time>2003-06-27T08:38:45Z</time>
<speed>1.1</speed>
</trkpt>
<trkpt lat="47.233463" lon="8.605335">
<ele>670.4</ele>
<time>2003-06-27T08:38:50Z</time>
<speed>1.1</speed>
</trkpt>
<trkpt lat="47.233517" lon="8.605290">
<ele>670.2</ele>
<time>2003-06-27T08:38:55Z</time>
<speed>1.4</speed>
</trkpt>
<trkpt lat="47.233559" lon="8.605244">
<ele>670.0</ele>
<time>2003-06-27T08:39:00Z</time>
<speed>1.1</speed>
</trkpt>
<trkpt lat="47.233621" lon="8.605189">
<ele>669.1</ele>
<time>2003-06-27T08:39:05Z</time>
<speed>1.1</speed>
</trkpt>
<trkpt lat="47.233643" lon="8.605154">
<ele>668.2</ele>
<time>2003-06-27T08:39:10Z</time>
<speed>0.8</speed>
</trkpt>
<trkpt lat="47.233710" lon="8.605111">
<ele>668.1</ele>
<time>2003-06-27T08:39:15Z</time>
<speed>1.1</speed>
</trkpt>
<trkpt lat="47.233771" lon="8.605067">
<ele>668.7</ele>
<time>2003-06-27T08:39:20Z</time>
<speed>1.1</speed>
</trkpt>
<trkpt lat="47.233825" lon="8.605023">
<ele>668.5</ele>
<time>2003-06-27T08:39:25Z</time>
<speed>1.4</speed>
</trkpt>
<trkpt lat="47.233886" lon="8.604978">
<ele>669.1</ele>
<time>2003-06-27T08:39:30Z</time>
<speed>1.1</speed>
</trkpt>
<trkpt lat="47.233940" lon="8.604934">
<ele>668.9</ele>
<time>2003-06-27T08:39:35Z</time>
<speed>1.1</speed>
</trkpt>
<trkpt lat="47.233994" lon="8.604903">
<ele>668.9</ele>
<time>2003-06-27T08:39:40Z</time>
<speed>1.1</speed>
</trkpt>
<trkpt lat="47.234054" lon="8.604871">
<ele>669.6</ele>
<time>2003-06-27T08:39:45Z</time>
<speed>1.4</speed>
</trkpt>
<trkpt lat="47.234120" lon="8.604842">
<ele>669.6</ele>
<time>2003-06-27T08:39:50Z</time>
<speed>1.4</speed>
</trkpt>
<trkpt lat="47.234186" lon="8.604815">
<ele>668.2</ele>
<time>2003-06-27T08:39:55Z</time>
<speed>1.1</speed>
</trkpt>
<trkpt lat="47.234252" lon="8.604785">
<ele>668.2</ele>
<time>2003-06-27T08:40:00Z</time>
<speed>1.1</speed>
</trkpt>
<trkpt lat="47.234311" lon="8.604769">
<ele>667.6</ele>
<time>2003-06-27T08:40:05Z</time>
<speed>1.1</speed>
</trkpt>
<trkpt lat="47.234378" lon="8.604740">
<ele>667.6</ele>
<time>2003-06-27T08:40:10Z</time>
<speed>1.1</speed>
</trkpt>
<trkpt lat="47.234431" lon="8.604709">
<ele>667.5</ele>
<time>2003-06-27T08:40:15Z</time>
<speed>1.1</speed>
</trkpt>
<trkpt lat="47.234505" lon="8.604668">
<ele>666.8</ele>
<time>2003-06-27T08:40:20Z</time>
<speed>1.4</speed>
</trkpt>
<trkpt lat="47.234557" lon="8.604650">
<ele>666.8</ele>
<time>2003-06-27T08:40:25Z</time>
<speed>1.1</speed>
</trkpt>
<trkpt lat="47.234617" lon="8.604621">
<ele>666.1</ele>
<time>2003-06-27T08:40:30Z</time>
<speed>1.4</speed>
</trkpt>
<trkpt lat="47.234677" lon="8.604590">
<ele>666.8</ele>
<time>2003-06-27T08:40:35Z</time>
<speed>1.4</speed>
</trkpt>
<trkpt lat="47.234738" lon="8.604545">
<ele>667.3</ele>
<time>2003-06-27T08:40:40Z</time>
<speed>1.4</speed>
</trkpt>
<trkpt lat="47.234791" lon="8.604514">
<ele>667.3</ele>
<time>2003-06-27T08:40:45Z</time>
<speed>1.4</speed>
</trkpt>
<trkpt lat="47.234851" lon="8.604483">
<ele>668.0</ele>
<time>2003-06-27T08:40:50Z</time>
<speed>1.1</speed>
</trkpt>
<trkpt lat="47.234905" lon="8.604438">
<ele>667.8</ele>
<time>2003-06-27T08:40:55Z</time>
<speed>1.1</speed>
</trkpt>
<trkpt lat="47.234959" lon="8.604407">
<ele>667.8</ele>
<time>2003-06-27T08:41:00Z</time>
<speed>1.1</speed>
</trkpt>
<trkpt lat="47.235019" lon="8.604378">
<ele>667.0</ele>
<time>2003-06-27T08:41:05Z</time>
<speed>1.4</speed>
</trkpt>
<trkpt lat="47.235071" lon="8.604360">
<ele>667.1</ele>
<time>2003-06-27T08:41:10Z</time>
<speed>1.4</speed>
</trkpt>
<trkpt lat="47.235126" lon="8.604315">
<ele>666.9</ele>
<time>2003-06-27T08:41:15Z</time>
<speed>1.1</speed>
</trkpt>
<trkpt lat="47.235179" lon="8.604284">
<ele>666.9</ele>
<time>2003-06-27T08:41:20Z</time>
<speed>1.4</speed>
</trkpt>
<trkpt lat="47.235239" lon="8.604253">
<ele>667.5</ele>
<time>2003-06-27T08:41:25Z</time>
<speed>1.1</speed>
</trkpt>
<trkpt lat="47.235292" lon="8.604221">
<ele>667.5</ele>
<time>2003-06-27T08:41:30Z</time>
<speed>1.1</speed>
</trkpt>
<trkpt lat="47.235357" lon="8.604205">
<ele>667.6</ele>
<time>2003-06-27T08:41:35Z</time>
<speed>1.1</speed>
</trkpt>
<trkpt lat="47.235411" lon="8.604174">
<ele>667.6</ele>
<time>2003-06-27T08:41:40Z</time>
<speed>1.1</speed>
</trkpt>
<trkpt lat="47.235470" lon="8.604156">
<ele>668.3</ele>
<time>2003-06-27T08:41:45Z</time>
<speed>1.1</speed>
</trkpt>
<trkpt lat="47.235530" lon="8.604126">
<ele>667.6</ele>
<time>2003-06-27T08:41:50Z</time>
<speed>1.1</speed>
</trkpt>
<trkpt lat="47.235589" lon="8.604095">
<ele>668.3</ele>
<time>2003-06-27T08:41:55Z</time>
<speed>1.1</speed>
</trkpt>
<trkpt lat="47.235642" lon="8.604077">
<ele>668.3</ele>
<time>2003-06-27T08:42:00Z</time>
<speed>1.4</speed>
</trkpt>
<trkpt lat="47.235695" lon="8.604046">
<ele>668.3</ele>
<time>2003-06-27T08:42:05Z</time>
<speed>1.1</speed>
</trkpt>
<trkpt lat="47.235760" lon="8.604030">
<ele>668.4</ele>
<time>2003-06-27T08:42:10Z</time>
<speed>1.4</speed>
</trkpt>
<trkpt lat="47.235813" lon="8.604011">
<ele>668.4</ele>
<time>2003-06-27T08:42:15Z</time>
<speed>1.1</speed>
</trkpt>
<trkpt lat="47.235865" lon="8.603993">
<ele>668.5</ele>
<time>2003-06-27T08:42:20Z</time>
<speed>1.1</speed>
</trkpt>
<trkpt lat="47.235919" lon="8.603962">
<ele>668.4</ele>
<time>2003-06-27T08:42:25Z</time>
<speed>1.1</speed>
</trkpt>
<trkpt lat="47.235971" lon="8.603944">
<ele>668.5</ele>
<time>2003-06-27T08:42:30Z</time>
<speed>1.1</speed>
</trkpt>
<trkpt lat="47.236037" lon="8.603927">
<ele>668.6</ele>
<time>2003-06-27T08:42:35Z</time>
<speed>1.4</speed>
</trkpt>
<trkpt lat="47.236089" lon="8.603909">
<ele>668.6</ele>
<time>2003-06-27T08:42:40Z</time>
<speed>1.1</speed>
</trkpt>
<trkpt lat="47.236143" lon="8.603878">
<ele>668.6</ele>
<time>2003-06-27T08:42:45Z</time>
<speed>1.1</speed>
</trkpt>
<trkpt lat="47.236195" lon="8.603860">
<ele>668.6</ele>
<time>2003-06-27T08:42:50Z</time>
<speed>0.8</speed>
</trkpt>
<trkpt lat="47.236248" lon="8.603841">
<ele>668.7</ele>
<time>2003-06-27T08:42:55Z</time>
<speed>0.8</speed>
</trkpt>
<trkpt lat="47.236289" lon="8.603808">
<ele>668.6</ele>
<time>2003-06-27T08:43:00Z</time>
<speed>0.8</speed>
</trkpt>
<trkpt lat="47.236357" lon="8.603753">
<ele>668.4</ele>
<time>2003-06-27T08:43:05Z</time>
<speed>1.1</speed>
</trkpt>
<trkpt lat="47.236406" lon="8.603695">
<ele>667.4</ele>
<time>2003-06-27T08:43:10Z</time>
<speed>0.8</speed>
</trkpt>
<trkpt lat="47.236474" lon="8.603640">
<ele>667.2</ele>
<time>2003-06-27T08:43:15Z</time>
<speed>1.4</speed>
</trkpt>
<trkpt lat="47.236536" lon="8.603583">
<ele>667.7</ele>
<time>2003-06-27T08:43:20Z</time>
<speed>1.1</speed>
</trkpt>
<trkpt lat="47.236592" lon="8.603512">
<ele>667.3</ele>
<time>2003-06-27T08:43:25Z</time>
<speed>1.1</speed>
</trkpt>
<trkpt lat="47.236641" lon="8.603468">
<ele>666.4</ele>
<time>2003-06-27T08:43:30Z</time>
<speed>1.1</speed>
</trkpt>
<trkpt lat="47.236695" lon="8.603424">
<ele>666.3</ele>
<time>2003-06-27T08:43:35Z</time>
<speed>0.8</speed>
</trkpt>
<trkpt lat="47.236744" lon="8.603366">
<ele>665.3</ele>
<time>2003-06-27T08:43:40Z</time>
<speed>1.1</speed>
</trkpt>
<trkpt lat="47.236787" lon="8.603322">
<ele>663.7</ele>
<time>2003-06-27T08:43:45Z</time>
<speed>0.8</speed>
</trkpt>
<trkpt lat="47.236847" lon="8.603278">
<ele>664.2</ele>
<time>2003-06-27T08:43:50Z</time>
<speed>1.1</speed>
</trkpt>
<trkpt lat="47.236903" lon="8.603220">
<ele>664.0</ele>
<time>2003-06-27T08:43:55Z</time>
<speed>1.4</speed>
</trkpt>
<trkpt lat="47.236952" lon="8.603163">
<ele>663.0</ele>
<time>2003-06-27T08:44:00Z</time>
<speed>1.1</speed>
</trkpt>
<trkpt lat="47.237002" lon="8.603105">
<ele>662.0</ele>
<time>2003-06-27T08:44:05Z</time>
<speed>1.1</speed>
</trkpt>
<trkpt lat="47.237043" lon="8.603059">
<ele>661.8</ele>
<time>2003-06-27T08:44:10Z</time>
<speed>1.1</speed>
</trkpt>
<trkpt lat="47.237080" lon="8.602998">
<ele>662.1</ele>
<time>2003-06-27T08:44:15Z</time>
<speed>1.1</speed>
</trkpt>
<trkpt lat="47.237135" lon="8.602940">
<ele>661.9</ele>
<time>2003-06-27T08:44:20Z</time>
<speed>1.4</speed>
</trkpt>
<trkpt lat="47.237190" lon="8.602896">
<ele>661.7</ele>
<time>2003-06-27T08:44:25Z</time>
<speed>1.1</speed>
</trkpt>
<trkpt lat="47.237245" lon="8.602854">
<ele>660.2</ele>
<time>2003-06-27T08:44:30Z</time>
<speed>1.1</speed>
</trkpt>
<trkpt lat="47.237294" lon="8.602796">
<ele>659.2</ele>
<time>2003-06-27T08:44:35Z</time>
<speed>1.4</speed>
</trkpt>
<trkpt lat="47.237342" lon="8.602750">
<ele>659.7</ele>
<time>2003-06-27T08:44:40Z</time>
<speed>1.1</speed>
</trkpt>
<trkpt lat="47.237395" lon="8.602719">
<ele>659.6</ele>
<time>2003-06-27T08:44:45Z</time>
<speed>1.1</speed>
</trkpt>
<trkpt lat="47.237437" lon="8.602672">
<ele>659.4</ele>
<time>2003-06-27T08:44:50Z</time>
<speed>1.1</speed>
</trkpt>
<trkpt lat="47.237497" lon="8.602643">
<ele>658.7</ele>
<time>2003-06-27T08:44:55Z</time>
<speed>1.1</speed>
</trkpt>
<trkpt lat="47.237575" lon="8.602629">
<ele>658.9</ele>
<time>2003-06-27T08:45:00Z</time>
<speed>1.1</speed>
</trkpt>
<trkpt lat="47.237629" lon="8.602598">
<ele>658.8</ele>
<time>2003-06-27T08:45:05Z</time>
<speed>0.8</speed>
</trkpt>
<trkpt lat="47.237670" lon="8.602564">
<ele>658.7</ele>
<time>2003-06-27T08:45:10Z</time>
<speed>0.8</speed>
</trkpt>
<trkpt lat="47.237722" lon="8.602546">
<ele>658.7</ele>
<time>2003-06-27T08:45:15Z</time>
<speed>1.1</speed>
</trkpt>
<trkpt lat="47.237775" lon="8.602528">
<ele>658.8</ele>
<time>2003-06-27T08:45:20Z</time>
<speed>0.8</speed>
</trkpt>
<trkpt lat="47.237826" lon="8.602523">
<ele>658.9</ele>
<time>2003-06-27T08:45:25Z</time>
<speed>0.8</speed>
</trkpt>
<trkpt lat="47.237892" lon="8.602492">
<ele>660.4</ele>
<time>2003-06-27T08:45:30Z</time>
<speed>0.8</speed>
</trkpt>
<trkpt lat="47.237938" lon="8.602471">
<ele>661.1</ele>
<time>2003-06-27T08:45:35Z</time>
<speed>0.6</speed>
</trkpt>
<trkpt lat="47.237990" lon="8.602453">
<ele>661.1</ele>
<time>2003-06-27T08:45:40Z</time>
<speed>0.8</speed>
</trkpt>
<trkpt lat="47.238048" lon="8.602448">
<ele>662.0</ele>
<time>2003-06-27T08:45:45Z</time>
<speed>0.8</speed>
</trkpt>
<trkpt lat="47.238113" lon="8.602430">
<ele>663.5</ele>
<time>2003-06-27T08:45:50Z</time>
<speed>0.8</speed>
</trkpt>
<trkpt lat="47.238177" lon="8.602412">
<ele>665.0</ele>
<time>2003-06-27T08:45:55Z</time>
<speed>0.8</speed>
</trkpt>
<trkpt lat="47.238243" lon="8.602395">
<ele>665.2</ele>
<time>2003-06-27T08:46:00Z</time>
<speed>0.8</speed>
</trkpt>
<trkpt lat="47.238282" lon="8.602375">
<ele>665.1</ele>
<time>2003-06-27T08:46:05Z</time>
<speed>0.8</speed>
</trkpt>
<trkpt lat="47.238342" lon="8.602346">
<ele>664.4</ele>
<time>2003-06-27T08:46:10Z</time>
<speed>1.1</speed>
</trkpt>
<trkpt lat="47.238408" lon="8.602332">
<ele>663.1</ele>
<time>2003-06-27T08:46:15Z</time>
<speed>0.8</speed>
</trkpt>
<trkpt lat="47.238473" lon="8.602315">
<ele>663.2</ele>
<time>2003-06-27T08:46:20Z</time>
<speed>1.1</speed>
</trkpt>
<trkpt lat="47.238539" lon="8.602301">
<ele>661.9</ele>
<time>2003-06-27T08:46:25Z</time>
<speed>0.6</speed>
</trkpt>
<trkpt lat="47.238596" lon="8.602296">
<ele>662.8</ele>
<time>2003-06-27T08:46:30Z</time>
<speed>0.8</speed>
</trkpt>
<trkpt lat="47.238662" lon="8.602282">
<ele>661.5</ele>
<time>2003-06-27T08:46:35Z</time>
<speed>0.6</speed>
</trkpt>
<trkpt lat="47.238707" lon="8.602276">
<ele>660.9</ele>
<time>2003-06-27T08:46:40Z</time>
<speed>0.3</speed>
</trkpt>
<trkpt lat="47.238765" lon="8.602271">
<ele>661.8</ele>
<time>2003-06-27T08:46:45Z</time>
<speed>0.8</speed>
</trkpt>
<trkpt lat="47.238835" lon="8.602285">
<ele>660.1</ele>
<time>2003-06-27T08:46:50Z</time>
<speed>0.8</speed>
</trkpt>
<trkpt lat="47.238911" lon="8.602297">
<ele>660.4</ele>
<time>2003-06-27T08:46:55Z</time>
<speed>1.1</speed>
</trkpt>
<trkpt lat="47.238976" lon="8.602281">
<ele>660.6</ele>
<time>2003-06-27T08:47:00Z</time>
<speed>1.4</speed>
</trkpt>
<trkpt lat="47.239054" lon="8.602267">
<ele>660.7</ele>
<time>2003-06-27T08:47:05Z</time>
<speed>1.4</speed>
</trkpt>
<trkpt lat="47.239124" lon="8.602263">
<ele>661.7</ele>
<time>2003-06-27T08:47:10Z</time>
<speed>1.1</speed>
</trkpt>
<trkpt lat="47.239209" lon="8.602238">
<ele>661.1</ele>
<time>2003-06-27T08:47:16Z</time>
<speed>1.1</speed>
</trkpt>
<trkpt lat="47.239268" lon="8.602235">
<ele>660.6</ele>
<time>2003-06-27T08:47:21Z</time>
<speed>1.1</speed>
</trkpt>
<trkpt lat="47.239314" lon="8.602215">
<ele>661.3</ele>
<time>2003-06-27T08:47:26Z</time>
<speed>0.8</speed>
</trkpt>
<trkpt lat="47.239374" lon="8.602185">
<ele>660.5</ele>
<time>2003-06-27T08:47:31Z</time>
<speed>1.4</speed>
</trkpt>
<trkpt lat="47.239433" lon="8.602154">
<ele>661.2</ele>
<time>2003-06-27T08:47:36Z</time>
<speed>0.8</speed>
</trkpt>
<trkpt lat="47.239486" lon="8.602136">
<ele>661.3</ele>
<time>2003-06-27T08:47:41Z</time>
<speed>1.1</speed>
</trkpt>
<trkpt lat="47.239546" lon="8.602107">
<ele>660.6</ele>
<time>2003-06-27T08:47:46Z</time>
<speed>1.1</speed>
</trkpt>
<trkpt lat="47.239611" lon="8.602090">
<ele>660.7</ele>
<time>2003-06-27T08:47:51Z</time>
<speed>1.1</speed>
</trkpt>
<trkpt lat="47.239663" lon="8.602072">
<ele>660.7</ele>
<time>2003-06-27T08:47:56Z</time>
<speed>1.1</speed>
</trkpt>
<trkpt lat="47.239716" lon="8.602054">
<ele>660.8</ele>
<time>2003-06-27T08:48:01Z</time>
<speed>1.1</speed>
</trkpt>
<trkpt lat="47.239774" lon="8.602051">
<ele>660.2</ele>
<time>2003-06-27T08:48:06Z</time>
<speed>0.8</speed>
</trkpt>
<trkpt lat="47.239799" lon="8.602055">
<ele>660.4</ele>
<time>2003-06-27T08:48:11Z</time>
<speed>0.8</speed>
</trkpt>
<trkpt lat="47.239860" lon="8.602091">
<ele>660.9</ele>
<time>2003-06-27T08:48:16Z</time>
<speed>1.4</speed>
</trkpt>
<trkpt lat="47.239932" lon="8.602076">
<ele>660.3</ele>
<time>2003-06-27T08:48:21Z</time>
<speed>1.1</speed>
</trkpt>
<trkpt lat="47.240002" lon="8.602088">
<ele>660.0</ele>
<time>2003-06-27T08:48:26Z</time>
<speed>1.1</speed>
</trkpt>
<trkpt lat="47.240066" lon="8.602087">
<ele>658.8</ele>
<time>2003-06-27T08:48:31Z</time>
<speed>1.4</speed>
</trkpt>
<trkpt lat="47.240124" lon="8.602084">
<ele>658.3</ele>
<time>2003-06-27T08:48:36Z</time>
<speed>1.1</speed>
</trkpt>
<trkpt lat="47.240190" lon="8.602070">
<ele>657.0</ele>
<time>2003-06-27T08:48:41Z</time>
<speed>1.1</speed>
</trkpt>
<trkpt lat="47.240254" lon="8.602066">
<ele>657.2</ele>
<time>2003-06-27T08:48:46Z</time>
<speed>1.1</speed>
</trkpt>
<trkpt lat="47.240312" lon="8.602063">
<ele>656.7</ele>
<time>2003-06-27T08:48:51Z</time>
<speed>1.1</speed>
</trkpt>
<trkpt lat="47.240378" lon="8.602049">
<ele>655.4</ele>
<time>2003-06-27T08:48:56Z</time>
<speed>1.1</speed>
</trkpt>
<trkpt lat="47.240442" lon="8.602048">
<ele>654.2</ele>
<time>2003-06-27T08:49:01Z</time>
<speed>1.4</speed>
</trkpt>
<trkpt lat="47.240508" lon="8.602033">
<ele>652.9</ele>
<time>2003-06-27T08:49:06Z</time>
<speed>1.1</speed>
</trkpt>
<trkpt lat="47.240565" lon="8.602043">
<ele>652.5</ele>
<time>2003-06-27T08:49:11Z</time>
<speed>1.1</speed>
</trkpt>
<trkpt lat="47.240623" lon="8.602040">
<ele>651.9</ele>
<time>2003-06-27T08:49:16Z</time>
<speed>1.1</speed>
</trkpt>
<trkpt lat="47.240682" lon="8.602024">
<ele>651.3</ele>
<time>2003-06-27T08:49:21Z</time>
<speed>1.1</speed>
</trkpt>
<trkpt lat="47.240735" lon="8.602006">
<ele>651.4</ele>
<time>2003-06-27T08:49:26Z</time>
<speed>1.4</speed>
</trkpt>
<trkpt lat="47.240805" lon="8.602004">
<ele>650.9</ele>
<time>2003-06-27T08:49:31Z</time>
<speed>1.4</speed>
</trkpt>
<trkpt lat="47.240864" lon="8.601988">
<ele>650.3</ele>
<time>2003-06-27T08:49:36Z</time>
<speed>1.1</speed>
</trkpt>
<trkpt lat="47.240918" lon="8.601957">
<ele>650.2</ele>
<time>2003-06-27T08:49:41Z</time>
<speed>1.4</speed>
</trkpt>
<trkpt lat="47.240977" lon="8.601941">
<ele>649.6</ele>
<time>2003-06-27T08:49:46Z</time>
<speed>1.1</speed>
</trkpt>
<trkpt lat="47.241036" lon="8.601925">
<ele>649.0</ele>
<time>2003-06-27T08:49:51Z</time>
<speed>1.1</speed>
</trkpt>
<trkpt lat="47.241102" lon="8.601895">
<ele>649.0</ele>
<time>2003-06-27T08:49:56Z</time>
<speed>1.4</speed>
</trkpt>
<trkpt lat="47.241155" lon="8.601877">
<ele>649.0</ele>
<time>2003-06-27T08:50:01Z</time>
<speed>1.1</speed>
</trkpt>
<trkpt lat="47.241215" lon="8.601848">
<ele>648.3</ele>
<time>2003-06-27T08:50:06Z</time>
<speed>1.4</speed>
</trkpt>
<trkpt lat="47.241274" lon="8.601831">
<ele>647.7</ele>
<time>2003-06-27T08:50:11Z</time>
<speed>1.4</speed>
</trkpt>
<trkpt lat="47.241340" lon="8.601802">
<ele>647.7</ele>
<time>2003-06-27T08:50:16Z</time>
<speed>1.4</speed>
</trkpt>
<trkpt lat="47.241386" lon="8.601782">
<ele>648.4</ele>
<time>2003-06-27T08:50:21Z</time>
<speed>0.8</speed>
</trkpt>
<trkpt lat="47.241443" lon="8.601777">
<ele>649.3</ele>
<time>2003-06-27T08:50:26Z</time>
<speed>1.1</speed>
</trkpt>
<trkpt lat="47.241471" lon="8.601755">
<ele>649.2</ele>
<time>2003-06-27T08:50:31Z</time>
<speed>0.6</speed>
</trkpt>
<trkpt lat="47.241524" lon="8.601721">
<ele>650.6</ele>
<time>2003-06-27T08:50:36Z</time>
<speed>0.8</speed>
</trkpt>
<trkpt lat="47.241571" lon="8.601688">
<ele>651.2</ele>
<time>2003-06-27T08:50:41Z</time>
<speed>1.1</speed>
</trkpt>
<trkpt lat="47.241611" lon="8.601653">
<ele>652.5</ele>
<time>2003-06-27T08:50:46Z</time>
<speed>0.8</speed>
</trkpt>
<trkpt lat="47.241665" lon="8.601607">
<ele>653.7</ele>
<time>2003-06-27T08:50:51Z</time>
<speed>1.1</speed>
</trkpt>
<trkpt lat="47.241713" lon="8.601560">
<ele>654.3</ele>
<time>2003-06-27T08:50:56Z</time>
<speed>0.8</speed>
</trkpt>
<trkpt lat="47.241756" lon="8.601501">
<ele>653.9</ele>
<time>2003-06-27T08:51:01Z</time>
<speed>0.6</speed>
</trkpt>
<trkpt lat="47.241786" lon="8.601438">
<ele>655.0</ele>
<time>2003-06-27T08:51:06Z</time>
<speed>0.8</speed>
</trkpt>
<trkpt lat="47.241823" lon="8.601363">
<ele>655.2</ele>
<time>2003-06-27T08:51:11Z</time>
<speed>0.6</speed>
</trkpt>
<trkpt lat="47.241887" lon="8.601282">
<ele>654.1</ele>
<time>2003-06-27T08:51:16Z</time>
<speed>0.8</speed>
</trkpt>
<trkpt lat="47.241939" lon="8.601198">
<ele>652.9</ele>
<time>2003-06-27T08:51:21Z</time>
<speed>0.6</speed>
</trkpt>
<trkpt lat="47.241997" lon="8.601102">
<ele>652.3</ele>
<time>2003-06-27T08:51:26Z</time>
<speed>1.1</speed>
</trkpt>
<trkpt lat="47.242029" lon="8.601012">
<ele>653.1</ele>
<time>2003-06-27T08:51:31Z</time>
<speed>0.6</speed>
</trkpt>
<trkpt lat="47.242078" lon="8.600953">
<ele>653.6</ele>
<time>2003-06-27T08:51:36Z</time>
<speed>0.6</speed>
</trkpt>
<trkpt lat="47.242106" lon="8.600903">
<ele>654.7</ele>
<time>2003-06-27T08:51:41Z</time>
<speed>0.6</speed>
</trkpt>
<trkpt lat="47.242131" lon="8.600841">
<ele>653.6</ele>
<time>2003-06-27T08:51:46Z</time>
<speed>0.8</speed>
</trkpt>
<trkpt lat="47.242182" lon="8.600741">
<ele>655.1</ele>
<time>2003-06-27T08:51:51Z</time>
<speed>0.8</speed>
</trkpt>
<trkpt lat="47.242217" lon="8.600692">
<ele>655.5</ele>
<time>2003-06-27T08:51:56Z</time>
<speed>0.6</speed>
</trkpt>
<trkpt lat="47.242262" lon="8.600605">
<ele>656.4</ele>
<time>2003-06-27T08:52:01Z</time>
<speed>0.6</speed>
</trkpt>
<trkpt lat="47.242290" lon="8.600572">
<ele>654.8</ele>
<time>2003-06-27T08:52:06Z</time>
<speed>0.6</speed>
</trkpt>
<trkpt lat="47.242340" lon="8.600514">
<ele>653.9</ele>
<time>2003-06-27T08:52:11Z</time>
<speed>0.6</speed>
</trkpt>
<trkpt lat="47.242390" lon="8.600442">
<ele>654.2</ele>
<time>2003-06-27T08:52:16Z</time>
<speed>0.8</speed>
</trkpt>
<trkpt lat="47.242441" lon="8.600356">
<ele>654.4</ele>
<time>2003-06-27T08:52:21Z</time>
<speed>0.6</speed>
</trkpt>
<trkpt lat="47.242489" lon="8.600310">
<ele>654.9</ele>
<time>2003-06-27T08:52:26Z</time>
<speed>0.8</speed>
</trkpt>
<trkpt lat="47.242536" lon="8.600277">
<ele>655.5</ele>
<time>2003-06-27T08:52:31Z</time>
<speed>0.6</speed>
</trkpt>
<trkpt lat="47.242585" lon="8.600219">
<ele>654.5</ele>
<time>2003-06-27T08:52:36Z</time>
<speed>0.8</speed>
</trkpt>
<trkpt lat="47.242628" lon="8.600160">
<ele>654.2</ele>
<time>2003-06-27T08:52:41Z</time>
<speed>0.8</speed>
</trkpt>
<trkpt lat="47.242663" lon="8.600112">
<ele>654.7</ele>
<time>2003-06-27T08:52:46Z</time>
<speed>0.6</speed>
</trkpt>
<trkpt lat="47.242705" lon="8.600066">
<ele>654.4</ele>
<time>2003-06-27T08:52:51Z</time>
<speed>0.6</speed>
</trkpt>
<trkpt lat="47.242753" lon="8.600021">
<ele>653.6</ele>
<time>2003-06-27T08:52:56Z</time>
<speed>0.8</speed>
</trkpt>
<trkpt lat="47.242816" lon="8.599953">
<ele>652.5</ele>
<time>2003-06-27T08:53:01Z</time>
<speed>0.8</speed>
</trkpt>
<trkpt lat="47.242863" lon="8.599919">
<ele>653.1</ele>
<time>2003-06-27T08:53:06Z</time>
<speed>0.6</speed>
</trkpt>
<trkpt lat="47.242898" lon="8.599884">
<ele>653.7</ele>
<time>2003-06-27T08:53:11Z</time>
<speed>0.3</speed>
</trkpt>
<trkpt lat="47.242966" lon="8.599829">
<ele>653.5</ele>
<time>2003-06-27T08:53:16Z</time>
<speed>0.6</speed>
</trkpt>
<trkpt lat="47.243020" lon="8.599785">
<ele>653.4</ele>
<time>2003-06-27T08:53:21Z</time>
<speed>0.6</speed>
</trkpt>
<trkpt lat="47.243062" lon="8.599738">
<ele>653.1</ele>
<time>2003-06-27T08:53:26Z</time>
<speed>0.6</speed>
</trkpt>
<trkpt lat="47.243125" lon="8.599668">
<ele>653.5</ele>
<time>2003-06-27T08:53:31Z</time>
<speed>0.8</speed>
</trkpt>
<trkpt lat="47.243171" lon="8.599648">
<ele>654.2</ele>
<time>2003-06-27T08:53:36Z</time>
<speed>0.3</speed>
</trkpt>
<trkpt lat="47.243210" lon="8.599640">
<ele>654.3</ele>
<time>2003-06-27T08:53:41Z</time>
<speed>0.3</speed>
</trkpt>
<trkpt lat="47.243221" lon="8.599560">
<ele>655.9</ele>
<time>2003-06-27T08:53:46Z</time>
<speed>0.6</speed>
</trkpt>
<trkpt lat="47.243213" lon="8.599506">
<ele>655.4</ele>
<time>2003-06-27T08:53:51Z</time>
<speed>0.3</speed>
</trkpt>
<trkpt lat="47.243227" lon="8.599497">
<ele>653.9</ele>
<time>2003-06-27T08:53:56Z</time>
<speed>0.3</speed>
</trkpt>
<trkpt lat="47.243261" lon="8.599462">
<ele>654.5</ele>
<time>2003-06-27T08:54:01Z</time>
<speed>0.3</speed>
</trkpt>
<trkpt lat="47.243296" lon="8.599413">
<ele>655.0</ele>
<time>2003-06-27T08:54:06Z</time>
<speed>0.3</speed>
</trkpt>
<trkpt lat="47.243336" lon="8.599393">
<ele>654.9</ele>
<time>2003-06-27T08:54:11Z</time>
<speed>0.0</speed>
</trkpt>
<trkpt lat="47.243380" lon="8.599338">
<ele>651.8</ele>
<time>2003-06-27T08:54:16Z</time>
<speed>0.6</speed>
</trkpt>
<trkpt lat="47.243404" lon="8.599276">
<ele>650.7</ele>
<time>2003-06-27T08:54:21Z</time>
<speed>0.6</speed>
</trkpt>
<trkpt lat="47.243421" lon="8.599226">
<ele>650.3</ele>
<time>2003-06-27T08:54:26Z</time>
<speed>0.6</speed>
</trkpt>
<trkpt lat="47.243434" lon="8.599215">
<ele>650.3</ele>
<time>2003-06-27T08:54:31Z</time>
<speed>0.0</speed>
</trkpt>
<trkpt lat="47.243428" lon="8.599215">
<ele>649.6</ele>
<time>2003-06-27T08:54:36Z</time>
<speed>0.0</speed>
</trkpt>
<trkpt lat="47.243421" lon="8.599228">
<ele>648.9</ele>
<time>2003-06-27T08:54:42Z</time>
<speed>0.0</speed>
</trkpt>
<trkpt lat="47.243427" lon="8.599230">
<ele>648.3</ele>
<time>2003-06-27T08:54:47Z</time>
<speed>0.0</speed>
</trkpt>
<trkpt lat="47.243421" lon="8.599228">
<ele>648.9</ele>
<time>2003-06-27T08:54:52Z</time>
<speed>0.0</speed>
</trkpt>
<trkpt lat="47.243427" lon="8.599228">
<ele>649.7</ele>
<time>2003-06-27T08:54:57Z</time>
<speed>0.0</speed>
</trkpt>
<trkpt lat="47.243433" lon="8.599243">
<ele>649.1</ele>
<time>2003-06-27T08:55:02Z</time>
<speed>0.0</speed>
</trkpt>
<trkpt lat="47.243426" lon="8.599241">
<ele>649.8</ele>
<time>2003-06-27T08:55:07Z</time>
<speed>0.0</speed>
</trkpt>
<trkpt lat="47.243426" lon="8.599241">
<ele>649.8</ele>
<time>2003-06-27T08:55:12Z</time>
<speed>0.0</speed>
</trkpt>
<trkpt lat="47.243419" lon="8.599254">
<ele>649.1</ele>
<time>2003-06-27T08:55:17Z</time>
<speed>0.0</speed>
</trkpt>
<trkpt lat="47.243419" lon="8.599254">
<ele>649.1</ele>
<time>2003-06-27T08:55:22Z</time>
<speed>0.0</speed>
</trkpt>
<trkpt lat="47.243400" lon="8.599252">
<ele>648.3</ele>
<time>2003-06-27T08:55:27Z</time>
<speed>0.3</speed>
</trkpt>
<trkpt lat="47.243394" lon="8.599250">
<ele>649.0</ele>
<time>2003-06-27T08:55:32Z</time>
<speed>0.0</speed>
</trkpt>
<trkpt lat="47.243394" lon="8.599250">
<ele>649.0</ele>
<time>2003-06-27T08:55:37Z</time>
<speed>0.0</speed>
</trkpt>
<trkpt lat="47.243394" lon="8.599250">
<ele>649.0</ele>
<time>2003-06-27T08:55:42Z</time>
<speed>0.0</speed>
</trkpt>
<trkpt lat="47.243394" lon="8.599250">
<ele>649.0</ele>
<time>2003-06-27T08:55:47Z</time>
<speed>0.0</speed>
</trkpt>
<trkpt lat="47.243394" lon="8.599250">
<ele>649.0</ele>
<time>2003-06-27T08:55:52Z</time>
<speed>0.0</speed>
</trkpt>
<trkpt lat="47.243375" lon="8.599248">
<ele>648.2</ele>
<time>2003-06-27T08:55:57Z</time>
<speed>0.0</speed>
</trkpt>
<trkpt lat="47.243375" lon="8.599248">
<ele>648.2</ele>
<time>2003-06-27T08:56:02Z</time>
<speed>0.0</speed>
</trkpt>
<trkpt lat="47.243375" lon="8.599248">
<ele>648.2</ele>
<time>2003-06-27T08:56:07Z</time>
<speed>0.0</speed>
</trkpt>
<trkpt lat="47.243375" lon="8.599248">
<ele>648.2</ele>
<time>2003-06-27T08:56:12Z</time>
<speed>0.0</speed>
</trkpt>
<trkpt lat="47.243375" lon="8.599248">
<ele>648.2</ele>
<time>2003-06-27T08:56:17Z</time>
<speed>0.0</speed>
</trkpt>
<trkpt lat="47.243375" lon="8.599248">
<ele>648.2</ele>
<time>2003-06-27T08:56:22Z</time>
<speed>0.0</speed>
</trkpt>
<trkpt lat="47.243375" lon="8.599248">
<ele>648.2</ele>
<time>2003-06-27T08:56:27Z</time>
<speed>0.0</speed>
</trkpt>
<trkpt lat="47.243375" lon="8.599248">
<ele>648.2</ele>
<time>2003-06-27T08:56:32Z</time>
<speed>0.0</speed>
</trkpt>
<trkpt lat="47.243375" lon="8.599248">
<ele>648.2</ele>
<time>2003-06-27T08:56:37Z</time>
<speed>0.0</speed>
</trkpt>
<trkpt lat="47.243375" lon="8.599248">
<ele>648.2</ele>
<time>2003-06-27T08:56:42Z</time>
<speed>0.0</speed>
</trkpt>
<trkpt lat="47.243376" lon="8.599235">
<ele>648.1</ele>
<time>2003-06-27T08:56:47Z</time>
<speed>0.0</speed>
</trkpt>
<trkpt lat="47.243376" lon="8.599235">
<ele>648.1</ele>
<time>2003-06-27T08:56:52Z</time>
<speed>0.0</speed>
</trkpt>
<trkpt lat="47.243369" lon="8.599233">
<ele>648.8</ele>
<time>2003-06-27T08:56:57Z</time>
<speed>0.0</speed>
</trkpt>
<trkpt lat="47.243369" lon="8.599233">
<ele>648.8</ele>
<time>2003-06-27T08:57:02Z</time>
<speed>0.0</speed>
</trkpt>
<trkpt lat="47.243369" lon="8.599233">
<ele>648.8</ele>
<time>2003-06-27T08:57:07Z</time>
<speed>0.0</speed>
</trkpt>
<trkpt lat="47.243369" lon="8.599233">
<ele>648.8</ele>
<time>2003-06-27T08:57:12Z</time>
<speed>0.0</speed>
</trkpt>
<trkpt lat="47.243369" lon="8.599233">
<ele>648.8</ele>
<time>2003-06-27T08:57:17Z</time>
<speed>0.0</speed>
</trkpt>
<trkpt lat="47.243369" lon="8.599233">
<ele>648.8</ele>
<time>2003-06-27T08:57:22Z</time>
<speed>0.0</speed>
</trkpt>
<trkpt lat="47.243369" lon="8.599233">
<ele>648.8</ele>
<time>2003-06-27T08:57:27Z</time>
<speed>0.0</speed>
</trkpt>
<trkpt lat="47.243369" lon="8.599233">
<ele>648.8</ele>
<time>2003-06-27T08:57:32Z</time>
<speed>0.0</speed>
</trkpt>
<trkpt lat="47.243368" lon="8.599246">
<ele>648.9</ele>
<time>2003-06-27T08:57:37Z</time>
<speed>0.0</speed>
</trkpt>
<trkpt lat="47.243368" lon="8.599246">
<ele>648.9</ele>
<time>2003-06-27T08:57:42Z</time>
<speed>0.0</speed>
</trkpt>
<trkpt lat="47.243368" lon="8.599246">
<ele>648.9</ele>
<time>2003-06-27T08:57:47Z</time>
<speed>0.0</speed>
</trkpt>
<trkpt lat="47.243368" lon="8.599246">
<ele>648.9</ele>
<time>2003-06-27T08:57:52Z</time>
<speed>0.0</speed>
</trkpt>
<trkpt lat="47.243382" lon="8.599235">
<ele>648.9</ele>
<time>2003-06-27T08:57:57Z</time>
<speed>0.0</speed>
</trkpt>
<trkpt lat="47.243388" lon="8.599235">
<ele>649.6</ele>
<time>2003-06-27T08:58:02Z</time>
<speed>0.0</speed>
</trkpt>
<trkpt lat="47.243388" lon="8.599235">
<ele>649.6</ele>
<time>2003-06-27T08:58:07Z</time>
<speed>0.0</speed>
</trkpt>
<trkpt lat="47.243388" lon="8.599235">
<ele>649.6</ele>
<time>2003-06-27T08:58:12Z</time>
<speed>0.0</speed>
</trkpt>
<trkpt lat="47.243388" lon="8.599235">
<ele>649.6</ele>
<time>2003-06-27T08:58:17Z</time>
<speed>0.0</speed>
</trkpt>
<trkpt lat="47.243410" lon="8.599200">
<ele>648.7</ele>
<time>2003-06-27T08:58:22Z</time>
<speed>0.0</speed>
</trkpt>
<trkpt lat="47.243418" lon="8.599174">
<ele>649.2</ele>
<time>2003-06-27T08:58:27Z</time>
<speed>0.3</speed>
</trkpt>
<trkpt lat="47.243387" lon="8.599170">
<ele>648.3</ele>
<time>2003-06-27T08:58:32Z</time>
<speed>0.3</speed>
</trkpt>
<trkpt lat="47.243357" lon="8.599153">
<ele>647.4</ele>
<time>2003-06-27T08:58:37Z</time>
<speed>0.6</speed>
</trkpt>
<trkpt lat="47.243330" lon="8.599162">
<ele>647.4</ele>
<time>2003-06-27T08:58:42Z</time>
<speed>0.3</speed>
</trkpt>
<trkpt lat="47.243348" lon="8.599192">
<ele>647.0</ele>
<time>2003-06-27T08:58:47Z</time>
<speed>0.0</speed>
</trkpt>
<trkpt lat="47.243353" lon="8.599207">
<ele>646.4</ele>
<time>2003-06-27T08:58:52Z</time>
<speed>0.0</speed>
</trkpt>
<trkpt lat="47.243353" lon="8.599207">
<ele>646.4</ele>
<time>2003-06-27T08:58:57Z</time>
<speed>0.0</speed>
</trkpt>
<trkpt lat="47.243366" lon="8.599226">
<ele>643.7</ele>
<time>2003-06-27T08:59:02Z</time>
<speed>0.3</speed>
</trkpt>
<trkpt lat="47.243376" lon="8.599254">
<ele>644.0</ele>
<time>2003-06-27T08:59:07Z</time>
<speed>0.0</speed>
</trkpt>
<trkpt lat="47.243376" lon="8.599254">
<ele>644.0</ele>
<time>2003-06-27T08:59:12Z</time>
<speed>0.0</speed>
</trkpt>
<trkpt lat="47.243376" lon="8.599254">
<ele>644.0</ele>
<time>2003-06-27T08:59:17Z</time>
<speed>0.0</speed>
</trkpt>
<trkpt lat="47.243376" lon="8.599254">
<ele>644.0</ele>
<time>2003-06-27T08:59:22Z</time>
<speed>0.0</speed>
</trkpt>
<trkpt lat="47.243376" lon="8.599254">
<ele>644.0</ele>
<time>2003-06-27T08:59:27Z</time>
<speed>0.0</speed>
</trkpt>
<trkpt lat="47.243377" lon="8.599241">
<ele>643.9</ele>
<time>2003-06-27T08:59:32Z</time>
<speed>0.0</speed>
</trkpt>
<trkpt lat="47.243384" lon="8.599228">
<ele>644.5</ele>
<time>2003-06-27T08:59:37Z</time>
<speed>0.0</speed>
</trkpt>
<trkpt lat="47.243384" lon="8.599228">
<ele>644.5</ele>
<time>2003-06-27T08:59:42Z</time>
<speed>0.0</speed>
</trkpt>
<trkpt lat="47.243384" lon="8.599228">
<ele>644.5</ele>
<time>2003-06-27T08:59:47Z</time>
<speed>0.0</speed>
</trkpt>
<trkpt lat="47.243384" lon="8.599228">
<ele>644.5</ele>
<time>2003-06-27T08:59:52Z</time>
<speed>0.0</speed>
</trkpt>
<trkpt lat="47.243403" lon="8.599230">
<ele>645.3</ele>
<time>2003-06-27T08:59:57Z</time>
<speed>0.0</speed>
</trkpt>
<trkpt lat="47.243403" lon="8.599230">
<ele>645.3</ele>
<time>2003-06-27T09:00:02Z</time>
<speed>0.0</speed>
</trkpt>
<trkpt lat="47.243403" lon="8.599230">
<ele>645.3</ele>
<time>2003-06-27T09:00:07Z</time>
<speed>0.0</speed>
</trkpt>
<trkpt lat="47.243403" lon="8.599230">
<ele>645.3</ele>
<time>2003-06-27T09:00:12Z</time>
<speed>0.0</speed>
</trkpt>
<trkpt lat="47.243403" lon="8.599230">
<ele>645.3</ele>
<time>2003-06-27T09:00:17Z</time>
<speed>0.0</speed>
</trkpt>
<trkpt lat="47.243409" lon="8.599230">
<ele>646.1</ele>
<time>2003-06-27T09:00:22Z</time>
<speed>0.0</speed>
</trkpt>
<trkpt lat="47.243409" lon="8.599230">
<ele>646.1</ele>
<time>2003-06-27T09:00:27Z</time>
<speed>0.0</speed>
</trkpt>
<trkpt lat="47.243409" lon="8.599230">
<ele>646.1</ele>
<time>2003-06-27T09:00:32Z</time>
<speed>0.0</speed>
</trkpt>
<trkpt lat="47.243416" lon="8.599217">
<ele>646.7</ele>
<time>2003-06-27T09:00:37Z</time>
<speed>0.0</speed>
</trkpt>
<trkpt lat="47.243416" lon="8.599217">
<ele>646.7</ele>
<time>2003-06-27T09:00:42Z</time>
<speed>0.0</speed>
</trkpt>
<trkpt lat="47.243416" lon="8.599217">
<ele>646.7</ele>
<time>2003-06-27T09:00:47Z</time>
<speed>0.0</speed>
</trkpt>
<trkpt lat="47.243416" lon="8.599217">
<ele>646.7</ele>
<time>2003-06-27T09:00:52Z</time>
<speed>0.0</speed>
</trkpt>
<trkpt lat="47.243416" lon="8.599217">
<ele>646.7</ele>
<time>2003-06-27T09:00:57Z</time>
<speed>0.0</speed>
</trkpt>
<trkpt lat="47.243422" lon="8.599217">
<ele>647.4</ele>
<time>2003-06-27T09:01:02Z</time>
<speed>0.0</speed>
</trkpt>
<trkpt lat="47.243422" lon="8.599217">
<ele>647.4</ele>
<time>2003-06-27T09:01:07Z</time>
<speed>0.0</speed>
</trkpt>
<trkpt lat="47.243422" lon="8.599217">
<ele>647.4</ele>
<time>2003-06-27T09:01:12Z</time>
<speed>0.0</speed>
</trkpt>
<trkpt lat="47.243422" lon="8.599217">
<ele>647.4</ele>
<time>2003-06-27T09:01:17Z</time>
<speed>0.0</speed>
</trkpt>
<trkpt lat="47.243422" lon="8.599217">
<ele>647.4</ele>
<time>2003-06-27T09:01:22Z</time>
<speed>0.0</speed>
</trkpt>
<trkpt lat="47.243430" lon="8.599206">
<ele>646.7</ele>
<time>2003-06-27T09:01:27Z</time>
<speed>0.0</speed>
</trkpt>
<trkpt lat="47.243430" lon="8.599206">
<ele>646.7</ele>
<time>2003-06-27T09:01:32Z</time>
<speed>0.0</speed>
</trkpt>
<trkpt lat="47.243429" lon="8.599204">
<ele>648.1</ele>
<time>2003-06-27T09:01:37Z</time>
<speed>0.0</speed>
</trkpt>
<trkpt lat="47.243429" lon="8.599204">
<ele>648.1</ele>
<time>2003-06-27T09:01:42Z</time>
<speed>0.0</speed>
</trkpt>
<trkpt lat="47.243429" lon="8.599204">
<ele>648.1</ele>
<time>2003-06-27T09:01:47Z</time>
<speed>0.0</speed>
</trkpt>
<trkpt lat="47.243430" lon="8.599191">
<ele>648.0</ele>
<time>2003-06-27T09:01:52Z</time>
<speed>0.0</speed>
</trkpt>
<trkpt lat="47.243430" lon="8.599191">
<ele>648.0</ele>
<time>2003-06-27T09:01:57Z</time>
<speed>0.0</speed>
</trkpt>
<trkpt lat="47.243430" lon="8.599191">
<ele>648.0</ele>
<time>2003-06-27T09:02:02Z</time>
<speed>0.0</speed>
</trkpt>
<trkpt lat="47.243430" lon="8.599191">
<ele>648.0</ele>
<time>2003-06-27T09:02:07Z</time>
<speed>0.0</speed>
</trkpt>
<trkpt lat="47.243430" lon="8.599191">
<ele>648.0</ele>
<time>2003-06-27T09:02:12Z</time>
<speed>0.0</speed>
</trkpt>
<trkpt lat="47.243430" lon="8.599191">
<ele>648.0</ele>
<time>2003-06-27T09:02:17Z</time>
<speed>0.0</speed>
</trkpt>
<trkpt lat="47.243430" lon="8.599191">
<ele>648.0</ele>
<time>2003-06-27T09:02:22Z</time>
<speed>0.0</speed>
</trkpt>
<trkpt lat="47.243430" lon="8.599191">
<ele>648.0</ele>
<time>2003-06-27T09:02:27Z</time>
<speed>0.0</speed>
</trkpt>
<trkpt lat="47.243430" lon="8.599191">
<ele>648.0</ele>
<time>2003-06-27T09:02:32Z</time>
<speed>0.0</speed>
</trkpt>
<trkpt lat="47.243430" lon="8.599191">
<ele>648.0</ele>
<time>2003-06-27T09:02:37Z</time>
<speed>0.0</speed>
</trkpt>
<trkpt lat="47.243430" lon="8.599191">
<ele>648.0</ele>
<time>2003-06-27T09:02:42Z</time>
<speed>0.0</speed>
</trkpt>
<trkpt lat="47.243430" lon="8.599191">
<ele>648.0</ele>
<time>2003-06-27T09:02:47Z</time>
<speed>0.0</speed>
</trkpt>
<trkpt lat="47.243424" lon="8.599189">
<ele>648.6</ele>
<time>2003-06-27T09:02:52Z</time>
<speed>0.0</speed>
</trkpt>
<trkpt lat="47.243424" lon="8.599189">
<ele>648.6</ele>
<time>2003-06-27T09:02:57Z</time>
<speed>0.0</speed>
</trkpt>
<trkpt lat="47.243424" lon="8.599189">
<ele>648.6</ele>
<time>2003-06-27T09:03:02Z</time>
<speed>0.0</speed>
</trkpt>
<trkpt lat="47.243424" lon="8.599189">
<ele>648.6</ele>
<time>2003-06-27T09:03:07Z</time>
<speed>0.0</speed>
</trkpt>
<trkpt lat="47.243423" lon="8.599202">
<ele>648.7</ele>
<time>2003-06-27T09:03:12Z</time>
<speed>0.0</speed>
</trkpt>
<trkpt lat="47.243423" lon="8.599202">
<ele>648.7</ele>
<time>2003-06-27T09:03:17Z</time>
<speed>0.0</speed>
</trkpt>
<trkpt lat="47.243423" lon="8.599202">
<ele>648.7</ele>
<time>2003-06-27T09:03:22Z</time>
<speed>0.0</speed>
</trkpt>
<trkpt lat="47.243423" lon="8.599202">
<ele>648.7</ele>
<time>2003-06-27T09:03:27Z</time>
<speed>0.0</speed>
</trkpt>
<trkpt lat="47.243423" lon="8.599202">
<ele>648.7</ele>
<time>2003-06-27T09:03:32Z</time>
<speed>0.0</speed>
</trkpt>
<trkpt lat="47.243423" lon="8.599202">
<ele>648.7</ele>
<time>2003-06-27T09:03:37Z</time>
<speed>0.0</speed>
</trkpt>
<trkpt lat="47.243423" lon="8.599202">
<ele>648.7</ele>
<time>2003-06-27T09:03:42Z</time>
<speed>0.0</speed>
</trkpt>
<trkpt lat="47.243423" lon="8.599202">
<ele>648.7</ele>
<time>2003-06-27T09:03:47Z</time>
<speed>0.0</speed>
</trkpt>
<trkpt lat="47.243429" lon="8.599202">
<ele>649.5</ele>
<time>2003-06-27T09:03:52Z</time>
<speed>0.0</speed>
</trkpt>
<trkpt lat="47.243429" lon="8.599202">
<ele>649.5</ele>
<time>2003-06-27T09:03:57Z</time>
<speed>0.0</speed>
</trkpt>
<trkpt lat="47.243429" lon="8.599202">
<ele>649.5</ele>
<time>2003-06-27T09:04:02Z</time>
<speed>0.0</speed>
</trkpt>
<trkpt lat="47.243429" lon="8.599202">
<ele>649.5</ele>
<time>2003-06-27T09:04:07Z</time>
<speed>0.0</speed>
</trkpt>
<trkpt lat="47.243429" lon="8.599202">
<ele>649.5</ele>
<time>2003-06-27T09:04:12Z</time>
<speed>0.0</speed>
</trkpt>
<trkpt lat="47.243422" lon="8.599215">
<ele>648.8</ele>
<time>2003-06-27T09:04:17Z</time>
<speed>0.0</speed>
</trkpt>
<trkpt lat="47.243422" lon="8.599215">
<ele>648.8</ele>
<time>2003-06-27T09:04:22Z</time>
<speed>0.0</speed>
</trkpt>
<trkpt lat="47.243422" lon="8.599215">
<ele>648.8</ele>
<time>2003-06-27T09:04:27Z</time>
<speed>0.0</speed>
</trkpt>
<trkpt lat="47.243422" lon="8.599215">
<ele>648.8</ele>
<time>2003-06-27T09:04:32Z</time>
<speed>0.0</speed>
</trkpt>
<trkpt lat="47.243422" lon="8.599215">
<ele>648.8</ele>
<time>2003-06-27T09:04:37Z</time>
<speed>0.0</speed>
</trkpt>
<trkpt lat="47.243422" lon="8.599215">
<ele>648.8</ele>
<time>2003-06-27T09:04:42Z</time>
<speed>0.0</speed>
</trkpt>
<trkpt lat="47.243422" lon="8.599215">
<ele>648.8</ele>
<time>2003-06-27T09:04:47Z</time>
<speed>0.0</speed>
</trkpt>
<trkpt lat="47.243415" lon="8.599213">
<ele>649.5</ele>
<time>2003-06-27T09:04:52Z</time>
<speed>0.0</speed>
</trkpt>
<trkpt lat="47.243415" lon="8.599213">
<ele>649.5</ele>
<time>2003-06-27T09:04:57Z</time>
<speed>0.0</speed>
</trkpt>
<trkpt lat="47.243415" lon="8.599213">
<ele>649.5</ele>
<time>2003-06-27T09:05:02Z</time>
<speed>0.0</speed>
</trkpt>
<trkpt lat="47.243415" lon="8.599213">
<ele>649.5</ele>
<time>2003-06-27T09:05:07Z</time>
<speed>0.0</speed>
</trkpt>
<trkpt lat="47.243415" lon="8.599213">
<ele>649.5</ele>
<time>2003-06-27T09:05:12Z</time>
<speed>0.0</speed>
</trkpt>
<trkpt lat="47.243409" lon="8.599211">
<ele>650.2</ele>
<time>2003-06-27T09:05:17Z</time>
<speed>0.0</speed>
</trkpt>
<trkpt lat="47.243409" lon="8.599211">
<ele>650.2</ele>
<time>2003-06-27T09:05:22Z</time>
<speed>0.0</speed>
</trkpt>
<trkpt lat="47.243409" lon="8.599211">
<ele>650.2</ele>
<time>2003-06-27T09:05:27Z</time>
<speed>0.0</speed>
</trkpt>
<trkpt lat="47.243409" lon="8.599211">
<ele>650.2</ele>
<time>2003-06-27T09:05:32Z</time>
<speed>0.0</speed>
</trkpt>
<trkpt lat="47.243409" lon="8.599211">
<ele>650.2</ele>
<time>2003-06-27T09:05:37Z</time>
<speed>0.0</speed>
</trkpt>
<trkpt lat="47.243409" lon="8.599211">
<ele>650.2</ele>
<time>2003-06-27T09:05:42Z</time>
<speed>0.0</speed>
</trkpt>
<trkpt lat="47.243409" lon="8.599211">
<ele>650.2</ele>
<time>2003-06-27T09:05:47Z</time>
<speed>0.0</speed>
</trkpt>
<trkpt lat="47.243402" lon="8.599209">
<ele>650.9</ele>
<time>2003-06-27T09:05:52Z</time>
<speed>0.0</speed>
</trkpt>
<trkpt lat="47.243396" lon="8.599207">
<ele>651.5</ele>
<time>2003-06-27T09:05:57Z</time>
<speed>0.0</speed>
</trkpt>
<trkpt lat="47.243396" lon="8.599207">
<ele>651.5</ele>
<time>2003-06-27T09:06:02Z</time>
<speed>0.0</speed>
</trkpt>
<trkpt lat="47.243396" lon="8.599207">
<ele>651.5</ele>
<time>2003-06-27T09:06:07Z</time>
<speed>0.0</speed>
</trkpt>
<trkpt lat="47.243396" lon="8.599207">
<ele>651.5</ele>
<time>2003-06-27T09:06:12Z</time>
<speed>0.0</speed>
</trkpt>
<trkpt lat="47.243396" lon="8.599207">
<ele>651.5</ele>
<time>2003-06-27T09:06:17Z</time>
<speed>0.0</speed>
</trkpt>
<trkpt lat="47.243396" lon="8.599207">
<ele>651.5</ele>
<time>2003-06-27T09:06:22Z</time>
<speed>0.0</speed>
</trkpt>
<trkpt lat="47.243402" lon="8.599207">
<ele>652.3</ele>
<time>2003-06-27T09:06:27Z</time>
<speed>0.0</speed>
</trkpt>
<trkpt lat="47.243402" lon="8.599207">
<ele>652.3</ele>
<time>2003-06-27T09:06:32Z</time>
<speed>0.0</speed>
</trkpt>
<trkpt lat="47.243402" lon="8.599207">
<ele>652.3</ele>
<time>2003-06-27T09:06:37Z</time>
<speed>0.0</speed>
</trkpt>
<trkpt lat="47.243402" lon="8.599207">
<ele>652.3</ele>
<time>2003-06-27T09:06:42Z</time>
<speed>0.0</speed>
</trkpt>
<trkpt lat="47.243397" lon="8.599194">
<ele>651.4</ele>
<time>2003-06-27T09:06:47Z</time>
<speed>0.0</speed>
</trkpt>
<trkpt lat="47.243397" lon="8.599194">
<ele>651.4</ele>
<time>2003-06-27T09:06:52Z</time>
<speed>0.0</speed>
</trkpt>
<trkpt lat="47.243397" lon="8.599194">
<ele>651.4</ele>
<time>2003-06-27T09:06:57Z</time>
<speed>0.0</speed>
</trkpt>
<trkpt lat="47.243397" lon="8.599194">
<ele>651.4</ele>
<time>2003-06-27T09:07:02Z</time>
<speed>0.0</speed>
</trkpt>
<trkpt lat="47.243397" lon="8.599194">
<ele>651.4</ele>
<time>2003-06-27T09:07:07Z</time>
<speed>0.0</speed>
</trkpt>
<trkpt lat="47.243409" lon="8.599196">
<ele>651.5</ele>
<time>2003-06-27T09:07:12Z</time>
<speed>0.0</speed>
</trkpt>
<trkpt lat="47.243409" lon="8.599196">
<ele>651.5</ele>
<time>2003-06-27T09:07:17Z</time>
<speed>0.0</speed>
</trkpt>
<trkpt lat="47.243409" lon="8.599196">
<ele>651.5</ele>
<time>2003-06-27T09:07:22Z</time>
<speed>0.0</speed>
</trkpt>
<trkpt lat="47.243410" lon="8.599183">
<ele>651.4</ele>
<time>2003-06-27T09:07:27Z</time>
<speed>0.0</speed>
</trkpt>
<trkpt lat="47.243418" lon="8.599172">
<ele>650.6</ele>
<time>2003-06-27T09:07:32Z</time>
<speed>0.0</speed>
</trkpt>
<trkpt lat="47.243432" lon="8.599161">
<ele>650.6</ele>
<time>2003-06-27T09:07:37Z</time>
<speed>0.3</speed>
</trkpt>
<trkpt lat="47.243439" lon="8.599150">
<ele>649.8</ele>
<time>2003-06-27T09:07:42Z</time>
<speed>0.3</speed>
</trkpt>
<trkpt lat="47.243458" lon="8.599152">
<ele>650.6</ele>
<time>2003-06-27T09:07:47Z</time>
<speed>0.3</speed>
</trkpt>
<trkpt lat="47.243476" lon="8.599169">
<ele>650.1</ele>
<time>2003-06-27T09:07:52Z</time>
<speed>0.0</speed>
</trkpt>
<trkpt lat="47.243485" lon="8.599129">
<ele>650.5</ele>
<time>2003-06-27T09:07:57Z</time>
<speed>0.3</speed>
</trkpt>
<trkpt lat="47.243468" lon="8.599116">
<ele>648.2</ele>
<time>2003-06-27T09:08:02Z</time>
<speed>0.0</speed>
</trkpt>
<trkpt lat="47.243468" lon="8.599116">
<ele>648.2</ele>
<time>2003-06-27T09:08:07Z</time>
<speed>0.0</speed>
</trkpt>
<trkpt lat="47.243469" lon="8.599103">
<ele>648.1</ele>
<time>2003-06-27T09:08:12Z</time>
<speed>0.0</speed>
</trkpt>
<trkpt lat="47.243469" lon="8.599105">
<ele>646.7</ele>
<time>2003-06-27T09:08:17Z</time>
<speed>0.0</speed>
</trkpt>
<trkpt lat="47.243463" lon="8.599103">
<ele>647.4</ele>
<time>2003-06-27T09:08:22Z</time>
<speed>0.0</speed>
</trkpt>
<trkpt lat="47.243457" lon="8.599103">
<ele>646.6</ele>
<time>2003-06-27T09:08:27Z</time>
<speed>0.6</speed>
</trkpt>
<trkpt lat="47.243462" lon="8.599116">
<ele>647.5</ele>
<time>2003-06-27T09:08:32Z</time>
<speed>0.0</speed>
</trkpt>
<trkpt lat="47.243429" lon="8.599126">
<ele>646.7</ele>
<time>2003-06-27T09:08:37Z</time>
<speed>0.6</speed>
</trkpt>
<trkpt lat="47.243415" lon="8.599150">
<ele>646.9</ele>
<time>2003-06-27T09:08:42Z</time>
<speed>0.3</speed>
</trkpt>
<trkpt lat="47.243371" lon="8.599144">
<ele>645.9</ele>
<time>2003-06-27T09:08:47Z</time>
<speed>0.6</speed>
</trkpt>
<trkpt lat="47.243343" lon="8.599166">
<ele>646.0</ele>
<time>2003-06-27T09:08:52Z</time>
<speed>0.6</speed>
</trkpt>
<trkpt lat="47.243342" lon="8.599179">
<ele>646.1</ele>
<time>2003-06-27T09:08:57Z</time>
<speed>0.0</speed>
</trkpt>
<trkpt lat="47.243342" lon="8.599179">
<ele>646.1</ele>
<time>2003-06-27T09:09:02Z</time>
<speed>0.0</speed>
</trkpt>
<trkpt lat="47.243342" lon="8.599179">
<ele>646.1</ele>
<time>2003-06-27T09:09:07Z</time>
<speed>0.0</speed>
</trkpt>
<trkpt lat="47.243342" lon="8.599179">
<ele>646.1</ele>
<time>2003-06-27T09:09:12Z</time>
<speed>0.0</speed>
</trkpt>
<trkpt lat="47.243336" lon="8.599177">
<ele>646.8</ele>
<time>2003-06-27T09:09:17Z</time>
<speed>0.0</speed>
</trkpt>
<trkpt lat="47.243341" lon="8.599192">
<ele>646.2</ele>
<time>2003-06-27T09:09:22Z</time>
<speed>0.0</speed>
</trkpt>
<trkpt lat="47.243340" lon="8.599205">
<ele>646.3</ele>
<time>2003-06-27T09:09:27Z</time>
<speed>0.3</speed>
</trkpt>
<trkpt lat="47.243352" lon="8.599220">
<ele>646.5</ele>
<time>2003-06-27T09:09:32Z</time>
<speed>0.0</speed>
</trkpt>
<trkpt lat="47.243358" lon="8.599220">
<ele>647.2</ele>
<time>2003-06-27T09:09:37Z</time>
<speed>0.0</speed>
</trkpt>
<trkpt lat="47.243352" lon="8.599218">
<ele>647.9</ele>
<time>2003-06-27T09:09:42Z</time>
<speed>0.0</speed>
</trkpt>
<trkpt lat="47.243352" lon="8.599218">
<ele>647.9</ele>
<time>2003-06-27T09:09:47Z</time>
<speed>0.0</speed>
</trkpt>
<trkpt lat="47.243352" lon="8.599218">
<ele>647.9</ele>
<time>2003-06-27T09:09:52Z</time>
<speed>0.0</speed>
</trkpt>
<trkpt lat="47.243352" lon="8.599218">
<ele>647.9</ele>
<time>2003-06-27T09:09:57Z</time>
<speed>0.0</speed>
</trkpt>
<trkpt lat="47.243352" lon="8.599218">
<ele>647.9</ele>
<time>2003-06-27T09:10:02Z</time>
<speed>0.0</speed>
</trkpt>
<trkpt lat="47.243352" lon="8.599218">
<ele>647.9</ele>
<time>2003-06-27T09:10:07Z</time>
<speed>0.0</speed>
</trkpt>
<trkpt lat="47.243346" lon="8.599218">
<ele>647.2</ele>
<time>2003-06-27T09:10:12Z</time>
<speed>0.0</speed>
</trkpt>
<trkpt lat="47.243352" lon="8.599218">
<ele>647.9</ele>
<time>2003-06-27T09:10:17Z</time>
<speed>0.0</speed>
</trkpt>
<trkpt lat="47.243346" lon="8.599203">
<ele>648.5</ele>
<time>2003-06-27T09:10:22Z</time>
<speed>0.0</speed>
</trkpt>
<trkpt lat="47.243346" lon="8.599203">
<ele>648.5</ele>
<time>2003-06-27T09:10:27Z</time>
<speed>0.0</speed>
</trkpt>
<trkpt lat="47.243346" lon="8.599203">
<ele>648.5</ele>
<time>2003-06-27T09:10:32Z</time>
<speed>0.0</speed>
</trkpt>
<trkpt lat="47.243346" lon="8.599203">
<ele>648.5</ele>
<time>2003-06-27T09:10:37Z</time>
<speed>0.0</speed>
</trkpt>
<trkpt lat="47.243346" lon="8.599203">
<ele>648.5</ele>
<time>2003-06-27T09:10:42Z</time>
<speed>0.0</speed>
</trkpt>
<trkpt lat="47.243348" lon="8.599192">
<ele>647.0</ele>
<time>2003-06-27T09:10:47Z</time>
<speed>0.3</speed>
</trkpt>
<trkpt lat="47.243359" lon="8.599207">
<ele>647.1</ele>
<time>2003-06-27T09:10:52Z</time>
<speed>0.0</speed>
</trkpt>
<trkpt lat="47.243359" lon="8.599207">
<ele>647.1</ele>
<time>2003-06-27T09:10:57Z</time>
<speed>0.0</speed>
</trkpt>
<trkpt lat="47.243359" lon="8.599207">
<ele>647.1</ele>
<time>2003-06-27T09:11:02Z</time>
<speed>0.0</speed>
</trkpt>
<trkpt lat="47.243359" lon="8.599207">
<ele>647.1</ele>
<time>2003-06-27T09:11:07Z</time>
<speed>0.0</speed>
</trkpt>
<trkpt lat="47.243359" lon="8.599207">
<ele>647.1</ele>
<time>2003-06-27T09:11:12Z</time>
<speed>0.0</speed>
</trkpt>
<trkpt lat="47.243359" lon="8.599207">
<ele>647.1</ele>
<time>2003-06-27T09:11:17Z</time>
<speed>0.0</speed>
</trkpt>
<trkpt lat="47.243359" lon="8.599207">
<ele>647.1</ele>
<time>2003-06-27T09:11:22Z</time>
<speed>0.0</speed>
</trkpt>
<trkpt lat="47.243359" lon="8.599207">
<ele>647.1</ele>
<time>2003-06-27T09:11:27Z</time>
<speed>0.0</speed>
</trkpt>
<trkpt lat="47.243359" lon="8.599207">
<ele>647.1</ele>
<time>2003-06-27T09:11:32Z</time>
<speed>0.0</speed>
</trkpt>
<trkpt lat="47.243359" lon="8.599207">
<ele>647.1</ele>
<time>2003-06-27T09:11:37Z</time>
<speed>0.0</speed>
</trkpt>
<trkpt lat="47.243359" lon="8.599207">
<ele>647.1</ele>
<time>2003-06-27T09:11:42Z</time>
<speed>0.0</speed>
</trkpt>
<trkpt lat="47.243359" lon="8.599207">
<ele>647.1</ele>
<time>2003-06-27T09:11:47Z</time>
<speed>0.0</speed>
</trkpt>
<trkpt lat="47.243359" lon="8.599207">
<ele>647.1</ele>
<time>2003-06-27T09:11:52Z</time>
<speed>0.0</speed>
</trkpt>
<trkpt lat="47.243353" lon="8.599207">
<ele>646.4</ele>
<time>2003-06-27T09:11:57Z</time>
<speed>0.3</speed>
</trkpt>
<trkpt lat="47.243359" lon="8.599207">
<ele>647.1</ele>
<time>2003-06-27T09:12:02Z</time>
<speed>0.3</speed>
</trkpt>
<trkpt lat="47.243371" lon="8.599222">
<ele>647.3</ele>
<time>2003-06-27T09:12:07Z</time>
<speed>0.0</speed>
</trkpt>
<trkpt lat="47.243365" lon="8.599207">
<ele>647.9</ele>
<time>2003-06-27T09:12:12Z</time>
<speed>0.0</speed>
</trkpt>
<trkpt lat="47.243365" lon="8.599207">
<ele>647.9</ele>
<time>2003-06-27T09:12:17Z</time>
<speed>0.0</speed>
</trkpt>
<trkpt lat="47.243365" lon="8.599207">
<ele>647.9</ele>
<time>2003-06-27T09:12:22Z</time>
<speed>0.0</speed>
</trkpt>
<trkpt lat="47.243365" lon="8.599207">
<ele>647.9</ele>
<time>2003-06-27T09:12:27Z</time>
<speed>0.0</speed>
</trkpt>
<trkpt lat="47.243365" lon="8.599207">
<ele>647.9</ele>
<time>2003-06-27T09:12:32Z</time>
<speed>0.0</speed>
</trkpt>
<trkpt lat="47.243365" lon="8.599207">
<ele>647.9</ele>
<time>2003-06-27T09:12:37Z</time>
<speed>0.0</speed>
</trkpt>
<trkpt lat="47.243372" lon="8.599209">
<ele>647.2</ele>
<time>2003-06-27T09:12:42Z</time>
<speed>0.0</speed>
</trkpt>
<trkpt lat="47.243372" lon="8.599209">
<ele>647.2</ele>
<time>2003-06-27T09:12:47Z</time>
<speed>0.0</speed>
</trkpt>
<trkpt lat="47.243372" lon="8.599209">
<ele>647.2</ele>
<time>2003-06-27T09:12:52Z</time>
<speed>0.0</speed>
</trkpt>
<trkpt lat="47.243372" lon="8.599209">
<ele>647.2</ele>
<time>2003-06-27T09:12:57Z</time>
<speed>0.0</speed>
</trkpt>
<trkpt lat="47.243372" lon="8.599209">
<ele>647.2</ele>
<time>2003-06-27T09:13:02Z</time>
<speed>0.0</speed>
</trkpt>
<trkpt lat="47.243372" lon="8.599209">
<ele>647.2</ele>
<time>2003-06-27T09:13:07Z</time>
<speed>0.0</speed>
</trkpt>
<trkpt lat="47.243372" lon="8.599209">
<ele>647.2</ele>
<time>2003-06-27T09:13:12Z</time>
<speed>0.0</speed>
</trkpt>
<trkpt lat="47.243378" lon="8.599209">
<ele>647.9</ele>
<time>2003-06-27T09:13:17Z</time>
<speed>0.0</speed>
</trkpt>
<trkpt lat="47.243369" lon="8.599233">
<ele>648.8</ele>
<time>2003-06-27T09:13:22Z</time>
<speed>0.0</speed>
</trkpt>
<trkpt lat="47.243369" lon="8.599233">
<ele>648.8</ele>
<time>2003-06-27T09:13:27Z</time>
<speed>0.0</speed>
</trkpt>
<trkpt lat="47.243369" lon="8.599233">
<ele>648.8</ele>
<time>2003-06-27T09:13:32Z</time>
<speed>0.0</speed>
</trkpt>
<trkpt lat="47.243369" lon="8.599233">
<ele>648.8</ele>
<time>2003-06-27T09:13:37Z</time>
<speed>0.0</speed>
</trkpt>
<trkpt lat="47.243369" lon="8.599233">
<ele>648.8</ele>
<time>2003-06-27T09:13:42Z</time>
<speed>0.0</speed>
</trkpt>
<trkpt lat="47.243369" lon="8.599233">
<ele>648.8</ele>
<time>2003-06-27T09:13:47Z</time>
<speed>0.0</speed>
</trkpt>
<trkpt lat="47.243369" lon="8.599233">
<ele>648.8</ele>
<time>2003-06-27T09:13:52Z</time>
<speed>0.0</speed>
</trkpt>
<trkpt lat="47.243369" lon="8.599233">
<ele>648.8</ele>
<time>2003-06-27T09:13:57Z</time>
<speed>0.0</speed>
</trkpt>
<trkpt lat="47.243364" lon="8.599218">
<ele>649.4</ele>
<time>2003-06-27T09:14:02Z</time>
<speed>0.0</speed>
</trkpt>
<trkpt lat="47.243385" lon="8.599196">
<ele>648.6</ele>
<time>2003-06-27T09:14:07Z</time>
<speed>0.0</speed>
</trkpt>
<trkpt lat="47.243385" lon="8.599196">
<ele>648.6</ele>
<time>2003-06-27T09:14:12Z</time>
<speed>0.0</speed>
</trkpt>
<trkpt lat="47.243385" lon="8.599196">
<ele>648.6</ele>
<time>2003-06-27T09:14:17Z</time>
<speed>0.0</speed>
</trkpt>
<trkpt lat="47.243386" lon="8.599183">
<ele>648.4</ele>
<time>2003-06-27T09:14:22Z</time>
<speed>0.0</speed>
</trkpt>
<trkpt lat="47.243385" lon="8.599196">
<ele>648.6</ele>
<time>2003-06-27T09:14:27Z</time>
<speed>0.0</speed>
</trkpt>
<trkpt lat="47.243385" lon="8.599196">
<ele>648.6</ele>
<time>2003-06-27T09:14:32Z</time>
<speed>0.0</speed>
</trkpt>
<trkpt lat="47.243385" lon="8.599196">
<ele>648.6</ele>
<time>2003-06-27T09:14:37Z</time>
<speed>0.0</speed>
</trkpt>
<trkpt lat="47.243385" lon="8.599196">
<ele>648.6</ele>
<time>2003-06-27T09:14:42Z</time>
<speed>0.0</speed>
</trkpt>
<trkpt lat="47.243385" lon="8.599196">
<ele>648.6</ele>
<time>2003-06-27T09:14:47Z</time>
<speed>0.0</speed>
</trkpt>
<trkpt lat="47.243385" lon="8.599196">
<ele>648.6</ele>
<time>2003-06-27T09:14:52Z</time>
<speed>0.0</speed>
</trkpt>
<trkpt lat="47.243386" lon="8.599183">
<ele>648.4</ele>
<time>2003-06-27T09:14:57Z</time>
<speed>0.0</speed>
</trkpt>
<trkpt lat="47.243380" lon="8.599183">
<ele>647.7</ele>
<time>2003-06-27T09:15:02Z</time>
<speed>0.0</speed>
</trkpt>
<trkpt lat="47.243386" lon="8.599183">
<ele>648.4</ele>
<time>2003-06-27T09:15:07Z</time>
<speed>0.0</speed>
</trkpt>
<trkpt lat="47.243386" lon="8.599183">
<ele>648.4</ele>
<time>2003-06-27T09:15:12Z</time>
<speed>0.0</speed>
</trkpt>
<trkpt lat="47.243386" lon="8.599183">
<ele>648.4</ele>
<time>2003-06-27T09:15:17Z</time>
<speed>0.0</speed>
</trkpt>
<trkpt lat="47.243386" lon="8.599183">
<ele>648.4</ele>
<time>2003-06-27T09:15:22Z</time>
<speed>0.0</speed>
</trkpt>
<trkpt lat="47.243386" lon="8.599183">
<ele>648.4</ele>
<time>2003-06-27T09:15:27Z</time>
<speed>0.0</speed>
</trkpt>
<trkpt lat="47.243386" lon="8.599183">
<ele>648.4</ele>
<time>2003-06-27T09:15:32Z</time>
<speed>0.0</speed>
</trkpt>
<trkpt lat="47.243386" lon="8.599183">
<ele>648.4</ele>
<time>2003-06-27T09:15:37Z</time>
<speed>0.0</speed>
</trkpt>
<trkpt lat="47.243386" lon="8.599183">
<ele>648.4</ele>
<time>2003-06-27T09:15:42Z</time>
<speed>0.0</speed>
</trkpt>
<trkpt lat="47.243387" lon="8.599170">
<ele>648.3</ele>
<time>2003-06-27T09:15:47Z</time>
<speed>0.0</speed>
</trkpt>
<trkpt lat="47.243387" lon="8.599170">
<ele>648.3</ele>
<time>2003-06-27T09:15:52Z</time>
<speed>0.0</speed>
</trkpt>
<trkpt lat="47.243387" lon="8.599170">
<ele>648.3</ele>
<time>2003-06-27T09:15:57Z</time>
<speed>0.0</speed>
</trkpt>
<trkpt lat="47.243387" lon="8.599170">
<ele>648.3</ele>
<time>2003-06-27T09:16:02Z</time>
<speed>0.0</speed>
</trkpt>
<trkpt lat="47.243386" lon="8.599183">
<ele>648.4</ele>
<time>2003-06-27T09:16:07Z</time>
<speed>0.0</speed>
</trkpt>
<trkpt lat="47.243386" lon="8.599183">
<ele>648.4</ele>
<time>2003-06-27T09:16:12Z</time>
<speed>0.0</speed>
</trkpt>
<trkpt lat="47.243386" lon="8.599183">
<ele>648.4</ele>
<time>2003-06-27T09:16:17Z</time>
<speed>0.0</speed>
</trkpt>
<trkpt lat="47.243386" lon="8.599183">
<ele>648.4</ele>
<time>2003-06-27T09:16:22Z</time>
<speed>0.0</speed>
</trkpt>
<trkpt lat="47.243386" lon="8.599183">
<ele>648.4</ele>
<time>2003-06-27T09:16:27Z</time>
<speed>0.0</speed>
</trkpt>
<trkpt lat="47.243386" lon="8.599183">
<ele>648.4</ele>
<time>2003-06-27T09:16:32Z</time>
<speed>0.0</speed>
</trkpt>
<trkpt lat="47.243385" lon="8.599194">
<ele>650.0</ele>
<time>2003-06-27T09:16:37Z</time>
<speed>0.0</speed>
</trkpt>
<trkpt lat="47.243385" lon="8.599194">
<ele>650.0</ele>
<time>2003-06-27T09:16:42Z</time>
<speed>0.0</speed>
</trkpt>
<trkpt lat="47.243385" lon="8.599194">
<ele>650.0</ele>
<time>2003-06-27T09:16:47Z</time>
<speed>0.0</speed>
</trkpt>
<trkpt lat="47.243385" lon="8.599194">
<ele>650.0</ele>
<time>2003-06-27T09:16:52Z</time>
<speed>0.0</speed>
</trkpt>
<trkpt lat="47.243385" lon="8.599194">
<ele>650.0</ele>
<time>2003-06-27T09:16:57Z</time>
<speed>0.0</speed>
</trkpt>
<trkpt lat="47.243385" lon="8.599194">
<ele>650.0</ele>
<time>2003-06-27T09:17:02Z</time>
<speed>0.0</speed>
</trkpt>
<trkpt lat="47.243391" lon="8.599196">
<ele>649.3</ele>
<time>2003-06-27T09:17:07Z</time>
<speed>0.0</speed>
</trkpt>
<trkpt lat="47.243391" lon="8.599196">
<ele>649.3</ele>
<time>2003-06-27T09:17:12Z</time>
<speed>0.0</speed>
</trkpt>
<trkpt lat="47.243391" lon="8.599196">
<ele>649.3</ele>
<time>2003-06-27T09:17:17Z</time>
<speed>0.0</speed>
</trkpt>
<trkpt lat="47.243390" lon="8.599209">
<ele>649.4</ele>
<time>2003-06-27T09:17:22Z</time>
<speed>0.0</speed>
</trkpt>
<trkpt lat="47.243390" lon="8.599209">
<ele>649.4</ele>
<time>2003-06-27T09:17:27Z</time>
<speed>0.0</speed>
</trkpt>
<trkpt lat="47.243390" lon="8.599209">
<ele>649.4</ele>
<time>2003-06-27T09:17:32Z</time>
<speed>0.0</speed>
</trkpt>
<trkpt lat="47.243390" lon="8.599209">
<ele>649.4</ele>
<time>2003-06-27T09:17:37Z</time>
<speed>0.0</speed>
</trkpt>
<trkpt lat="47.243390" lon="8.599209">
<ele>649.4</ele>
<time>2003-06-27T09:17:42Z</time>
<speed>0.0</speed>
</trkpt>
<trkpt lat="47.243390" lon="8.599209">
<ele>649.4</ele>
<time>2003-06-27T09:17:47Z</time>
<speed>0.0</speed>
</trkpt>
<trkpt lat="47.243390" lon="8.599209">
<ele>649.4</ele>
<time>2003-06-27T09:17:52Z</time>
<speed>0.0</speed>
</trkpt>
<trkpt lat="47.243390" lon="8.599209">
<ele>649.4</ele>
<time>2003-06-27T09:17:57Z</time>
<speed>0.0</speed>
</trkpt>
<trkpt lat="47.243390" lon="8.599209">
<ele>649.4</ele>
<time>2003-06-27T09:18:02Z</time>
<speed>0.0</speed>
</trkpt>
<trkpt lat="47.243384" lon="8.599207">
<ele>650.1</ele>
<time>2003-06-27T09:18:07Z</time>
<speed>0.0</speed>
</trkpt>
<trkpt lat="47.243384" lon="8.599207">
<ele>650.1</ele>
<time>2003-06-27T09:18:12Z</time>
<speed>0.0</speed>
</trkpt>
<trkpt lat="47.243384" lon="8.599207">
<ele>650.1</ele>
<time>2003-06-27T09:18:17Z</time>
<speed>0.0</speed>
</trkpt>
<trkpt lat="47.243390" lon="8.599207">
<ele>650.8</ele>
<time>2003-06-27T09:18:22Z</time>
<speed>0.0</speed>
</trkpt>
<trkpt lat="47.243390" lon="8.599207">
<ele>650.8</ele>
<time>2003-06-27T09:18:27Z</time>
<speed>0.0</speed>
</trkpt>
<trkpt lat="47.243390" lon="8.599207">
<ele>650.8</ele>
<time>2003-06-27T09:18:32Z</time>
<speed>0.0</speed>
</trkpt>
<trkpt lat="47.243390" lon="8.599207">
<ele>650.8</ele>
<time>2003-06-27T09:18:37Z</time>
<speed>0.0</speed>
</trkpt>
<trkpt lat="47.243384" lon="8.599192">
<ele>651.4</ele>
<time>2003-06-27T09:18:42Z</time>
<speed>0.0</speed>
</trkpt>
<trkpt lat="47.243384" lon="8.599192">
<ele>651.4</ele>
<time>2003-06-27T09:18:47Z</time>
<speed>0.0</speed>
</trkpt>
<trkpt lat="47.243384" lon="8.599192">
<ele>651.4</ele>
<time>2003-06-27T09:18:52Z</time>
<speed>0.0</speed>
</trkpt>
<trkpt lat="47.243384" lon="8.599192">
<ele>651.4</ele>
<time>2003-06-27T09:18:57Z</time>
<speed>0.0</speed>
</trkpt>
<trkpt lat="47.243384" lon="8.599192">
<ele>651.4</ele>
<time>2003-06-27T09:19:02Z</time>
<speed>0.0</speed>
</trkpt>
<trkpt lat="47.243384" lon="8.599192">
<ele>651.4</ele>
<time>2003-06-27T09:19:07Z</time>
<speed>0.0</speed>
</trkpt>
<trkpt lat="47.243384" lon="8.599192">
<ele>651.4</ele>
<time>2003-06-27T09:19:12Z</time>
<speed>0.0</speed>
</trkpt>
<trkpt lat="47.243383" lon="8.599205">
<ele>651.5</ele>
<time>2003-06-27T09:19:17Z</time>
<speed>0.0</speed>
</trkpt>
<trkpt lat="47.243379" lon="8.599179">
<ele>650.5</ele>
<time>2003-06-27T09:19:22Z</time>
<speed>0.0</speed>
</trkpt>
<trkpt lat="47.243392" lon="8.599181">
<ele>650.6</ele>
<time>2003-06-27T09:19:27Z</time>
<speed>0.0</speed>
</trkpt>
<trkpt lat="47.243392" lon="8.599181">
<ele>650.6</ele>
<time>2003-06-27T09:19:32Z</time>
<speed>0.0</speed>
</trkpt>
<trkpt lat="47.243392" lon="8.599181">
<ele>650.6</ele>
<time>2003-06-27T09:19:37Z</time>
<speed>0.0</speed>
</trkpt>
<trkpt lat="47.243386" lon="8.599166">
<ele>651.2</ele>
<time>2003-06-27T09:19:42Z</time>
<speed>0.0</speed>
</trkpt>
<trkpt lat="47.243386" lon="8.599166">
<ele>651.2</ele>
<time>2003-06-27T09:19:47Z</time>
<speed>0.0</speed>
</trkpt>
<trkpt lat="47.243386" lon="8.599166">
<ele>651.2</ele>
<time>2003-06-27T09:19:52Z</time>
<speed>0.0</speed>
</trkpt>
<trkpt lat="47.243386" lon="8.599166">
<ele>651.2</ele>
<time>2003-06-27T09:19:57Z</time>
<speed>0.0</speed>
</trkpt>
<trkpt lat="47.243386" lon="8.599166">
<ele>651.2</ele>
<time>2003-06-27T09:20:02Z</time>
<speed>0.0</speed>
</trkpt>
<trkpt lat="47.243385" lon="8.599179">
<ele>651.3</ele>
<time>2003-06-27T09:20:07Z</time>
<speed>0.0</speed>
</trkpt>
<trkpt lat="47.243385" lon="8.599179">
<ele>651.3</ele>
<time>2003-06-27T09:20:12Z</time>
<speed>0.0</speed>
</trkpt>
<trkpt lat="47.243385" lon="8.599179">
<ele>651.3</ele>
<time>2003-06-27T09:20:17Z</time>
<speed>0.0</speed>
</trkpt>
<trkpt lat="47.243392" lon="8.599181">
<ele>650.6</ele>
<time>2003-06-27T09:20:22Z</time>
<speed>0.0</speed>
</trkpt>
<trkpt lat="47.243392" lon="8.599181">
<ele>650.6</ele>
<time>2003-06-27T09:20:27Z</time>
<speed>0.0</speed>
</trkpt>
<trkpt lat="47.243392" lon="8.599181">
<ele>650.6</ele>
<time>2003-06-27T09:20:32Z</time>
<speed>0.0</speed>
</trkpt>
<trkpt lat="47.243392" lon="8.599181">
<ele>650.6</ele>
<time>2003-06-27T09:20:37Z</time>
<speed>0.0</speed>
</trkpt>
<trkpt lat="47.243392" lon="8.599181">
<ele>650.6</ele>
<time>2003-06-27T09:20:42Z</time>
<speed>0.0</speed>
</trkpt>
<trkpt lat="47.243392" lon="8.599181">
<ele>650.6</ele>
<time>2003-06-27T09:20:47Z</time>
<speed>0.0</speed>
</trkpt>
<trkpt lat="47.243392" lon="8.599181">
<ele>650.6</ele>
<time>2003-06-27T09:20:52Z</time>
<speed>0.0</speed>
</trkpt>
<trkpt lat="47.243392" lon="8.599181">
<ele>650.6</ele>
<time>2003-06-27T09:20:57Z</time>
<speed>0.0</speed>
</trkpt>
<trkpt lat="47.243393" lon="8.599168">
<ele>650.5</ele>
<time>2003-06-27T09:21:02Z</time>
<speed>0.0</speed>
</trkpt>
<trkpt lat="47.243393" lon="8.599168">
<ele>650.5</ele>
<time>2003-06-27T09:21:07Z</time>
<speed>0.0</speed>
</trkpt>
<trkpt lat="47.243393" lon="8.599168">
<ele>650.5</ele>
<time>2003-06-27T09:21:12Z</time>
<speed>0.0</speed>
</trkpt>
<trkpt lat="47.243393" lon="8.599168">
<ele>650.5</ele>
<time>2003-06-27T09:21:17Z</time>
<speed>0.0</speed>
</trkpt>
<trkpt lat="47.243393" lon="8.599168">
<ele>650.5</ele>
<time>2003-06-27T09:21:22Z</time>
<speed>0.0</speed>
</trkpt>
<trkpt lat="47.243398" lon="8.599183">
<ele>649.9</ele>
<time>2003-06-27T09:21:27Z</time>
<speed>0.0</speed>
</trkpt>
<trkpt lat="47.243398" lon="8.599183">
<ele>649.9</ele>
<time>2003-06-27T09:21:32Z</time>
<speed>0.0</speed>
</trkpt>
<trkpt lat="47.243398" lon="8.599183">
<ele>649.9</ele>
<time>2003-06-27T09:21:37Z</time>
<speed>0.0</speed>
</trkpt>
<trkpt lat="47.243398" lon="8.599183">
<ele>649.9</ele>
<time>2003-06-27T09:21:42Z</time>
<speed>0.0</speed>
</trkpt>
<trkpt lat="47.243398" lon="8.599183">
<ele>649.9</ele>
<time>2003-06-27T09:21:47Z</time>
<speed>0.0</speed>
</trkpt>
<trkpt lat="47.243398" lon="8.599183">
<ele>649.9</ele>
<time>2003-06-27T09:21:52Z</time>
<speed>0.0</speed>
</trkpt>
<trkpt lat="47.243398" lon="8.599183">
<ele>649.9</ele>
<time>2003-06-27T09:21:57Z</time>
<speed>0.0</speed>
</trkpt>
<trkpt lat="47.243398" lon="8.599183">
<ele>649.9</ele>
<time>2003-06-27T09:22:02Z</time>
<speed>0.0</speed>
</trkpt>
<trkpt lat="47.243398" lon="8.599183">
<ele>649.9</ele>
<time>2003-06-27T09:22:07Z</time>
<speed>0.0</speed>
</trkpt>
<trkpt lat="47.243398" lon="8.599183">
<ele>649.9</ele>
<time>2003-06-27T09:22:12Z</time>
<speed>0.0</speed>
</trkpt>
<trkpt lat="47.243398" lon="8.599183">
<ele>649.9</ele>
<time>2003-06-27T09:22:17Z</time>
<speed>0.0</speed>
</trkpt>
<trkpt lat="47.243391" lon="8.599194">
<ele>650.7</ele>
<time>2003-06-27T09:22:22Z</time>
<speed>0.0</speed>
</trkpt>
<trkpt lat="47.243391" lon="8.599194">
<ele>650.7</ele>
<time>2003-06-27T09:22:27Z</time>
<speed>0.0</speed>
</trkpt>
<trkpt lat="47.243391" lon="8.599194">
<ele>650.7</ele>
<time>2003-06-27T09:22:32Z</time>
<speed>0.0</speed>
</trkpt>
<trkpt lat="47.243391" lon="8.599194">
<ele>650.7</ele>
<time>2003-06-27T09:22:37Z</time>
<speed>0.0</speed>
</trkpt>
<trkpt lat="47.243391" lon="8.599194">
<ele>650.7</ele>
<time>2003-06-27T09:22:42Z</time>
<speed>0.0</speed>
</trkpt>
<trkpt lat="47.243384" lon="8.599192">
<ele>651.4</ele>
<time>2003-06-27T09:22:47Z</time>
<speed>0.0</speed>
</trkpt>
<trkpt lat="47.243384" lon="8.599192">
<ele>651.4</ele>
<time>2003-06-27T09:22:52Z</time>
<speed>0.0</speed>
</trkpt>
<trkpt lat="47.243390" lon="8.599192">
<ele>652.1</ele>
<time>2003-06-27T09:22:57Z</time>
<speed>0.0</speed>
</trkpt>
<trkpt lat="47.243390" lon="8.599192">
<ele>652.1</ele>
<time>2003-06-27T09:23:02Z</time>
<speed>0.0</speed>
</trkpt>
<trkpt lat="47.243390" lon="8.599192">
<ele>652.1</ele>
<time>2003-06-27T09:23:07Z</time>
<speed>0.0</speed>
</trkpt>
<trkpt lat="47.243390" lon="8.599192">
<ele>652.1</ele>
<time>2003-06-27T09:23:12Z</time>
<speed>0.0</speed>
</trkpt>
<trkpt lat="47.243390" lon="8.599192">
<ele>652.1</ele>
<time>2003-06-27T09:23:17Z</time>
<speed>0.0</speed>
</trkpt>
<trkpt lat="47.243390" lon="8.599192">
<ele>652.1</ele>
<time>2003-06-27T09:23:22Z</time>
<speed>0.0</speed>
</trkpt>
<trkpt lat="47.243389" lon="8.599205">
<ele>652.2</ele>
<time>2003-06-27T09:23:27Z</time>
<speed>0.0</speed>
</trkpt>
<trkpt lat="47.243389" lon="8.599205">
<ele>652.2</ele>
<time>2003-06-27T09:23:32Z</time>
<speed>0.0</speed>
</trkpt>
<trkpt lat="47.243389" lon="8.599205">
<ele>652.2</ele>
<time>2003-06-27T09:23:37Z</time>
<speed>0.0</speed>
</trkpt>
<trkpt lat="47.243389" lon="8.599205">
<ele>652.2</ele>
<time>2003-06-27T09:23:42Z</time>
<speed>0.0</speed>
</trkpt>
<trkpt lat="47.243389" lon="8.599205">
<ele>652.2</ele>
<time>2003-06-27T09:23:47Z</time>
<speed>0.0</speed>
</trkpt>
<trkpt lat="47.243383" lon="8.599205">
<ele>651.5</ele>
<time>2003-06-27T09:23:52Z</time>
<speed>0.0</speed>
</trkpt>
<trkpt lat="47.243383" lon="8.599205">
<ele>651.5</ele>
<time>2003-06-27T09:23:57Z</time>
<speed>0.0</speed>
</trkpt>
<trkpt lat="47.243383" lon="8.599205">
<ele>651.5</ele>
<time>2003-06-27T09:24:02Z</time>
<speed>0.0</speed>
</trkpt>
<trkpt lat="47.243383" lon="8.599205">
<ele>651.5</ele>
<time>2003-06-27T09:24:07Z</time>
<speed>0.0</speed>
</trkpt>
<trkpt lat="47.243383" lon="8.599205">
<ele>651.5</ele>
<time>2003-06-27T09:24:12Z</time>
<speed>0.0</speed>
</trkpt>
<trkpt lat="47.243383" lon="8.599205">
<ele>651.5</ele>
<time>2003-06-27T09:24:17Z</time>
<speed>0.0</speed>
</trkpt>
<trkpt lat="47.243383" lon="8.599205">
<ele>651.5</ele>
<time>2003-06-27T09:24:22Z</time>
<speed>0.0</speed>
</trkpt>
<trkpt lat="47.243382" lon="8.599218">
<ele>651.6</ele>
<time>2003-06-27T09:24:27Z</time>
<speed>0.0</speed>
</trkpt>
<trkpt lat="47.243382" lon="8.599218">
<ele>651.6</ele>
<time>2003-06-27T09:24:32Z</time>
<speed>0.0</speed>
</trkpt>
<trkpt lat="47.243383" lon="8.599205">
<ele>651.5</ele>
<time>2003-06-27T09:24:37Z</time>
<speed>0.0</speed>
</trkpt>
<trkpt lat="47.243383" lon="8.599205">
<ele>651.5</ele>
<time>2003-06-27T09:24:42Z</time>
<speed>0.0</speed>
</trkpt>
<trkpt lat="47.243383" lon="8.599205">
<ele>651.5</ele>
<time>2003-06-27T09:24:47Z</time>
<speed>0.0</speed>
</trkpt>
<trkpt lat="47.243383" lon="8.599205">
<ele>651.5</ele>
<time>2003-06-27T09:24:52Z</time>
<speed>0.0</speed>
</trkpt>
<trkpt lat="47.243391" lon="8.599194">
<ele>650.7</ele>
<time>2003-06-27T09:24:57Z</time>
<speed>0.0</speed>
</trkpt>
<trkpt lat="47.243404" lon="8.599181">
<ele>652.1</ele>
<time>2003-06-27T09:25:02Z</time>
<speed>0.0</speed>
</trkpt>
<trkpt lat="47.243410" lon="8.599183">
<ele>651.4</ele>
<time>2003-06-27T09:25:07Z</time>
<speed>0.0</speed>
</trkpt>
<trkpt lat="47.243410" lon="8.599183">
<ele>651.4</ele>
<time>2003-06-27T09:25:12Z</time>
<speed>0.0</speed>
</trkpt>
<trkpt lat="47.243411" lon="8.599170">
<ele>651.3</ele>
<time>2003-06-27T09:25:17Z</time>
<speed>0.3</speed>
</trkpt>
<trkpt lat="47.243407" lon="8.599142">
<ele>651.8</ele>
<time>2003-06-27T09:25:22Z</time>
<speed>0.3</speed>
</trkpt>
<trkpt lat="47.243403" lon="8.599116">
<ele>650.8</ele>
<time>2003-06-27T09:25:27Z</time>
<speed>0.0</speed>
</trkpt>
<trkpt lat="47.243384" lon="8.599114">
<ele>650.0</ele>
<time>2003-06-27T09:25:32Z</time>
<speed>0.6</speed>
</trkpt>
<trkpt lat="47.243320" lon="8.599119">
<ele>648.4</ele>
<time>2003-06-27T09:25:37Z</time>
<speed>0.0</speed>
</trkpt>
<trkpt lat="47.243314" lon="8.599117">
<ele>649.1</ele>
<time>2003-06-27T09:25:42Z</time>
<speed>0.0</speed>
</trkpt>
<trkpt lat="47.243314" lon="8.599117">
<ele>649.1</ele>
<time>2003-06-27T09:25:47Z</time>
<speed>0.0</speed>
</trkpt>
<trkpt lat="47.243314" lon="8.599117">
<ele>649.1</ele>
<time>2003-06-27T09:25:52Z</time>
<speed>0.0</speed>
</trkpt>
<trkpt lat="47.243320" lon="8.599119">
<ele>648.4</ele>
<time>2003-06-27T09:25:57Z</time>
<speed>0.0</speed>
</trkpt>
<trkpt lat="47.243320" lon="8.599119">
<ele>648.4</ele>
<time>2003-06-27T09:26:02Z</time>
<speed>0.0</speed>
</trkpt>
<trkpt lat="47.243320" lon="8.599119">
<ele>648.4</ele>
<time>2003-06-27T09:26:07Z</time>
<speed>0.0</speed>
</trkpt>
<trkpt lat="47.243320" lon="8.599119">
<ele>648.4</ele>
<time>2003-06-27T09:26:12Z</time>
<speed>0.0</speed>
</trkpt>
<trkpt lat="47.243327" lon="8.599121">
<ele>647.7</ele>
<time>2003-06-27T09:26:17Z</time>
<speed>0.0</speed>
</trkpt>
<trkpt lat="47.243327" lon="8.599121">
<ele>647.7</ele>
<time>2003-06-27T09:26:22Z</time>
<speed>0.0</speed>
</trkpt>
<trkpt lat="47.243326" lon="8.599134">
<ele>647.8</ele>
<time>2003-06-27T09:26:27Z</time>
<speed>0.0</speed>
</trkpt>
<trkpt lat="47.243326" lon="8.599134">
<ele>647.8</ele>
<time>2003-06-27T09:26:32Z</time>
<speed>0.0</speed>
</trkpt>
<trkpt lat="47.243331" lon="8.599149">
<ele>647.3</ele>
<time>2003-06-27T09:26:37Z</time>
<speed>0.0</speed>
</trkpt>
<trkpt lat="47.243331" lon="8.599149">
<ele>647.3</ele>
<time>2003-06-27T09:26:42Z</time>
<speed>0.0</speed>
</trkpt>
<trkpt lat="47.243331" lon="8.599149">
<ele>647.3</ele>
<time>2003-06-27T09:26:47Z</time>
<speed>0.0</speed>
</trkpt>
<trkpt lat="47.243331" lon="8.599149">
<ele>647.3</ele>
<time>2003-06-27T09:26:52Z</time>
<speed>0.0</speed>
</trkpt>
<trkpt lat="47.243331" lon="8.599149">
<ele>647.3</ele>
<time>2003-06-27T09:26:57Z</time>
<speed>0.0</speed>
</trkpt>
<trkpt lat="47.243330" lon="8.599162">
<ele>647.4</ele>
<time>2003-06-27T09:27:02Z</time>
<speed>0.0</speed>
</trkpt>
<trkpt lat="47.243330" lon="8.599162">
<ele>647.4</ele>
<time>2003-06-27T09:27:07Z</time>
<speed>0.0</speed>
</trkpt>
<trkpt lat="47.243330" lon="8.599162">
<ele>647.4</ele>
<time>2003-06-27T09:27:12Z</time>
<speed>0.0</speed>
</trkpt>
<trkpt lat="47.243330" lon="8.599162">
<ele>647.4</ele>
<time>2003-06-27T09:27:17Z</time>
<speed>0.0</speed>
</trkpt>
<trkpt lat="47.243330" lon="8.599162">
<ele>647.4</ele>
<time>2003-06-27T09:27:22Z</time>
<speed>0.0</speed>
</trkpt>
<trkpt lat="47.243330" lon="8.599162">
<ele>647.4</ele>
<time>2003-06-27T09:27:27Z</time>
<speed>0.0</speed>
</trkpt>
<trkpt lat="47.243299" lon="8.599160">
<ele>645.1</ele>
<time>2003-06-27T09:27:32Z</time>
<speed>0.3</speed>
</trkpt>
<trkpt lat="47.243300" lon="8.599147">
<ele>645.0</ele>
<time>2003-06-27T09:27:37Z</time>
<speed>0.0</speed>
</trkpt>
<trkpt lat="47.243306" lon="8.599162">
<ele>644.4</ele>
<time>2003-06-27T09:27:42Z</time>
<speed>0.6</speed>
</trkpt>
<trkpt lat="47.243326" lon="8.599168">
<ele>642.4</ele>
<time>2003-06-27T09:27:47Z</time>
<speed>0.0</speed>
</trkpt>
<trkpt lat="47.243326" lon="8.599168">
<ele>642.4</ele>
<time>2003-06-27T09:27:52Z</time>
<speed>0.0</speed>
</trkpt>
<trkpt lat="47.243336" lon="8.599196">
<ele>642.7</ele>
<time>2003-06-27T09:27:57Z</time>
<speed>0.6</speed>
</trkpt>
<trkpt lat="47.243355" lon="8.599198">
<ele>643.5</ele>
<time>2003-06-27T09:28:02Z</time>
<speed>0.0</speed>
</trkpt>
<trkpt lat="47.243369" lon="8.599187">
<ele>643.4</ele>
<time>2003-06-27T09:28:07Z</time>
<speed>0.0</speed>
</trkpt>
<trkpt lat="47.243369" lon="8.599187">
<ele>643.4</ele>
<time>2003-06-27T09:28:12Z</time>
<speed>0.0</speed>
</trkpt>
<trkpt lat="47.243374" lon="8.599200">
<ele>644.3</ele>
<time>2003-06-27T09:28:17Z</time>
<speed>0.0</speed>
</trkpt>
<trkpt lat="47.243374" lon="8.599200">
<ele>644.3</ele>
<time>2003-06-27T09:28:22Z</time>
<speed>0.0</speed>
</trkpt>
<trkpt lat="47.243374" lon="8.599200">
<ele>644.3</ele>
<time>2003-06-27T09:28:27Z</time>
<speed>0.0</speed>
</trkpt>
<trkpt lat="47.243374" lon="8.599200">
<ele>644.3</ele>
<time>2003-06-27T09:28:32Z</time>
<speed>0.0</speed>
</trkpt>
<trkpt lat="47.243368" lon="8.599185">
<ele>644.8</ele>
<time>2003-06-27T09:28:37Z</time>
<speed>0.3</speed>
</trkpt>
<trkpt lat="47.243362" lon="8.599183">
<ele>645.5</ele>
<time>2003-06-27T09:28:42Z</time>
<speed>0.0</speed>
</trkpt>
<trkpt lat="47.243349" lon="8.599179">
<ele>646.9</ele>
<time>2003-06-27T09:28:47Z</time>
<speed>0.0</speed>
</trkpt>
<trkpt lat="47.243343" lon="8.599166">
<ele>646.0</ele>
<time>2003-06-27T09:28:52Z</time>
<speed>0.0</speed>
</trkpt>
<trkpt lat="47.243335" lon="8.599190">
<ele>646.9</ele>
<time>2003-06-27T09:28:57Z</time>
<speed>0.0</speed>
</trkpt>
<trkpt lat="47.243341" lon="8.599190">
<ele>647.6</ele>
<time>2003-06-27T09:29:02Z</time>
<speed>0.0</speed>
</trkpt>
<trkpt lat="47.243367" lon="8.599181">
<ele>647.7</ele>
<time>2003-06-27T09:29:07Z</time>
<speed>0.0</speed>
</trkpt>
<trkpt lat="47.243367" lon="8.599181">
<ele>647.7</ele>
<time>2003-06-27T09:29:12Z</time>
<speed>0.0</speed>
</trkpt>
<trkpt lat="47.243373" lon="8.599181">
<ele>648.4</ele>
<time>2003-06-27T09:29:17Z</time>
<speed>0.0</speed>
</trkpt>
<trkpt lat="47.243373" lon="8.599181">
<ele>648.4</ele>
<time>2003-06-27T09:29:22Z</time>
<speed>0.0</speed>
</trkpt>
<trkpt lat="47.243373" lon="8.599181">
<ele>648.4</ele>
<time>2003-06-27T09:29:27Z</time>
<speed>0.0</speed>
</trkpt>
<trkpt lat="47.243373" lon="8.599181">
<ele>648.4</ele>
<time>2003-06-27T09:29:33Z</time>
<speed>0.0</speed>
</trkpt>
<trkpt lat="47.243379" lon="8.599181">
<ele>649.1</ele>
<time>2003-06-27T09:29:38Z</time>
<speed>0.0</speed>
</trkpt>
<trkpt lat="47.243379" lon="8.599181">
<ele>649.1</ele>
<time>2003-06-27T09:29:43Z</time>
<speed>0.0</speed>
</trkpt>
<trkpt lat="47.243379" lon="8.599181">
<ele>649.1</ele>
<time>2003-06-27T09:29:48Z</time>
<speed>0.0</speed>
</trkpt>
<trkpt lat="47.243379" lon="8.599181">
<ele>649.1</ele>
<time>2003-06-27T09:29:53Z</time>
<speed>0.0</speed>
</trkpt>
<trkpt lat="47.243379" lon="8.599181">
<ele>649.1</ele>
<time>2003-06-27T09:29:58Z</time>
<speed>0.0</speed>
</trkpt>
<trkpt lat="47.243405" lon="8.599170">
<ele>650.5</ele>
<time>2003-06-27T09:30:03Z</time>
<speed>0.0</speed>
</trkpt>
<trkpt lat="47.243432" lon="8.599161">
<ele>650.6</ele>
<time>2003-06-27T09:30:08Z</time>
<speed>0.0</speed>
</trkpt>
<trkpt lat="47.243432" lon="8.599161">
<ele>650.6</ele>
<time>2003-06-27T09:30:13Z</time>
<speed>0.0</speed>
</trkpt>
<trkpt lat="47.243432" lon="8.599161">
<ele>650.6</ele>
<time>2003-06-27T09:30:18Z</time>
<speed>0.0</speed>
</trkpt>
<trkpt lat="47.243446" lon="8.599137">
<ele>650.4</ele>
<time>2003-06-27T09:30:23Z</time>
<speed>0.3</speed>
</trkpt>
<trkpt lat="47.243440" lon="8.599135">
<ele>651.1</ele>
<time>2003-06-27T09:30:28Z</time>
<speed>0.6</speed>
</trkpt>
<trkpt lat="47.243470" lon="8.599169">
<ele>649.4</ele>
<time>2003-06-27T09:30:33Z</time>
<speed>0.8</speed>
</trkpt>
<trkpt lat="47.243502" lon="8.599175">
<ele>648.8</ele>
<time>2003-06-27T09:30:38Z</time>
<speed>0.3</speed>
</trkpt>
<trkpt lat="47.243524" lon="8.599124">
<ele>649.2</ele>
<time>2003-06-27T09:30:43Z</time>
<speed>0.6</speed>
</trkpt>
<trkpt lat="47.243561" lon="8.599065">
<ele>648.2</ele>
<time>2003-06-27T09:30:48Z</time>
<speed>0.8</speed>
</trkpt>
<trkpt lat="47.243604" lon="8.599004">
<ele>649.2</ele>
<time>2003-06-27T09:30:53Z</time>
<speed>1.4</speed>
</trkpt>
<trkpt lat="47.243640" lon="8.598942">
<ele>649.6</ele>
<time>2003-06-27T09:30:58Z</time>
<speed>1.1</speed>
</trkpt>
<trkpt lat="47.243670" lon="8.598881">
<ele>649.2</ele>
<time>2003-06-27T09:31:03Z</time>
<speed>1.1</speed>
</trkpt>
<trkpt lat="47.243713" lon="8.598822">
<ele>648.9</ele>
<time>2003-06-27T09:31:08Z</time>
<speed>0.8</speed>
</trkpt>
<trkpt lat="47.243743" lon="8.598758">
<ele>649.9</ele>
<time>2003-06-27T09:31:13Z</time>
<speed>0.8</speed>
</trkpt>
<trkpt lat="47.243779" lon="8.598699">
<ele>648.9</ele>
<time>2003-06-27T09:31:18Z</time>
<speed>0.8</speed>
</trkpt>
<trkpt lat="47.243797" lon="8.598636">
<ele>648.4</ele>
<time>2003-06-27T09:31:23Z</time>
<speed>0.8</speed>
</trkpt>
<trkpt lat="47.243840" lon="8.598576">
<ele>648.1</ele>
<time>2003-06-27T09:31:28Z</time>
<speed>1.1</speed>
</trkpt>
<trkpt lat="47.243857" lon="8.598513">
<ele>647.7</ele>
<time>2003-06-27T09:31:33Z</time>
<speed>0.8</speed>
</trkpt>
<trkpt lat="47.243894" lon="8.598452">
<ele>648.0</ele>
<time>2003-06-27T09:31:38Z</time>
<speed>0.6</speed>
</trkpt>
<trkpt lat="47.243924" lon="8.598375">
<ele>648.9</ele>
<time>2003-06-27T09:31:43Z</time>
<speed>1.1</speed>
</trkpt>
<trkpt lat="47.243938" lon="8.598271">
<ele>648.9</ele>
<time>2003-06-27T09:31:48Z</time>
<speed>1.1</speed>
</trkpt>
<trkpt lat="47.243964" lon="8.598181">
<ele>648.9</ele>
<time>2003-06-27T09:31:53Z</time>
<speed>1.1</speed>
</trkpt>
<trkpt lat="47.243976" lon="8.598103">
<ele>649.1</ele>
<time>2003-06-27T09:31:58Z</time>
<speed>0.8</speed>
</trkpt>
<trkpt lat="47.243982" lon="8.598025">
<ele>648.5</ele>
<time>2003-06-27T09:32:03Z</time>
<speed>1.1</speed>
</trkpt>
<trkpt lat="47.243988" lon="8.597944">
<ele>649.3</ele>
<time>2003-06-27T09:32:08Z</time>
<speed>0.8</speed>
</trkpt>
<trkpt lat="47.244001" lon="8.597853">
<ele>649.3</ele>
<time>2003-06-27T09:32:13Z</time>
<speed>0.8</speed>
</trkpt>
<trkpt lat="47.244001" lon="8.597759">
<ele>649.2</ele>
<time>2003-06-27T09:32:18Z</time>
<speed>1.1</speed>
</trkpt>
<trkpt lat="47.244029" lon="8.597644">
<ele>649.1</ele>
<time>2003-06-27T09:32:23Z</time>
<speed>1.1</speed>
</trkpt>
<trkpt lat="47.244036" lon="8.597552">
<ele>648.4</ele>
<time>2003-06-27T09:32:28Z</time>
<speed>0.8</speed>
</trkpt>
<trkpt lat="47.244042" lon="8.597459">
<ele>649.1</ele>
<time>2003-06-27T09:32:33Z</time>
<speed>1.1</speed>
</trkpt>
<trkpt lat="47.244022" lon="8.597375">
<ele>649.8</ele>
<time>2003-06-27T09:32:38Z</time>
<speed>0.8</speed>
</trkpt>
<trkpt lat="47.244001" lon="8.597304">
<ele>650.5</ele>
<time>2003-06-27T09:32:43Z</time>
<speed>0.8</speed>
</trkpt>
<trkpt lat="47.243989" lon="8.597223">
<ele>649.1</ele>
<time>2003-06-27T09:32:48Z</time>
<speed>1.1</speed>
</trkpt>
<trkpt lat="47.243975" lon="8.597141">
<ele>649.1</ele>
<time>2003-06-27T09:32:53Z</time>
<speed>1.1</speed>
</trkpt>
<trkpt lat="47.243982" lon="8.597048">
<ele>649.8</ele>
<time>2003-06-27T09:32:58Z</time>
<speed>0.8</speed>
</trkpt>
<trkpt lat="47.243968" lon="8.596978">
<ele>649.9</ele>
<time>2003-06-27T09:33:03Z</time>
<speed>1.1</speed>
</trkpt>
<trkpt lat="47.243976" lon="8.596874">
<ele>649.1</ele>
<time>2003-06-27T09:33:08Z</time>
<speed>1.1</speed>
</trkpt>
<trkpt lat="47.243977" lon="8.596769">
<ele>647.6</ele>
<time>2003-06-27T09:33:13Z</time>
<speed>1.1</speed>
</trkpt>
<trkpt lat="47.243978" lon="8.596678">
<ele>646.1</ele>
<time>2003-06-27T09:33:18Z</time>
<speed>1.1</speed>
</trkpt>
<trkpt lat="47.243958" lon="8.596594">
<ele>646.8</ele>
<time>2003-06-27T09:33:23Z</time>
<speed>1.1</speed>
</trkpt>
<trkpt lat="47.243945" lon="8.596511">
<ele>646.8</ele>
<time>2003-06-27T09:33:28Z</time>
<speed>1.1</speed>
</trkpt>
<trkpt lat="47.243939" lon="8.596418">
<ele>646.0</ele>
<time>2003-06-27T09:33:33Z</time>
<speed>1.1</speed>
</trkpt>
<trkpt lat="47.243926" lon="8.596336">
<ele>646.0</ele>
<time>2003-06-27T09:33:38Z</time>
<speed>1.1</speed>
</trkpt>
<trkpt lat="47.243905" lon="8.596264">
<ele>646.8</ele>
<time>2003-06-27T09:33:43Z</time>
<speed>1.1</speed>
</trkpt>
<trkpt lat="47.243931" lon="8.596175">
<ele>646.9</ele>
<time>2003-06-27T09:33:48Z</time>
<speed>1.1</speed>
</trkpt>
<trkpt lat="47.243961" lon="8.596114">
<ele>646.5</ele>
<time>2003-06-27T09:33:53Z</time>
<speed>1.1</speed>
</trkpt>
<trkpt lat="47.243991" lon="8.596052">
<ele>646.1</ele>
<time>2003-06-27T09:33:58Z</time>
<speed>0.8</speed>
</trkpt>
<trkpt lat="47.244050" lon="8.595956">
<ele>645.6</ele>
<time>2003-06-27T09:34:03Z</time>
<speed>1.4</speed>
</trkpt>
<trkpt lat="47.244101" lon="8.595872">
<ele>644.4</ele>
<time>2003-06-27T09:34:08Z</time>
<speed>1.4</speed>
</trkpt>
<trkpt lat="47.244145" lon="8.595800">
<ele>644.0</ele>
<time>2003-06-27T09:34:13Z</time>
<speed>1.1</speed>
</trkpt>
<trkpt lat="47.244175" lon="8.595738">
<ele>643.6</ele>
<time>2003-06-27T09:34:18Z</time>
<speed>1.1</speed>
</trkpt>
<trkpt lat="47.244193" lon="8.595675">
<ele>643.1</ele>
<time>2003-06-27T09:34:23Z</time>
<speed>0.8</speed>
</trkpt>
<trkpt lat="47.244218" lon="8.595694">
<ele>642.0</ele>
<time>2003-06-27T09:34:28Z</time>
<speed>1.1</speed>
</trkpt>
<trkpt lat="47.244240" lon="8.595739">
<ele>641.0</ele>
<time>2003-06-27T09:34:33Z</time>
<speed>1.1</speed>
</trkpt>
<trkpt lat="47.244280" lon="8.595812">
<ele>641.0</ele>
<time>2003-06-27T09:34:38Z</time>
<speed>1.1</speed>
</trkpt>
<trkpt lat="47.244333" lon="8.595875">
<ele>641.0</ele>
<time>2003-06-27T09:34:43Z</time>
<speed>1.4</speed>
</trkpt>
<trkpt lat="47.244367" lon="8.595935">
<ele>640.2</ele>
<time>2003-06-27T09:34:48Z</time>
<speed>1.1</speed>
</trkpt>
<trkpt lat="47.244420" lon="8.595997">
<ele>640.2</ele>
<time>2003-06-27T09:34:53Z</time>
<speed>1.4</speed>
</trkpt>
<trkpt lat="47.244460" lon="8.596070">
<ele>640.2</ele>
<time>2003-06-27T09:34:58Z</time>
<speed>1.1</speed>
</trkpt>
<trkpt lat="47.244500" lon="8.596130">
<ele>640.1</ele>
<time>2003-06-27T09:35:03Z</time>
<speed>1.4</speed>
</trkpt>
<trkpt lat="47.244547" lon="8.596192">
<ele>639.4</ele>
<time>2003-06-27T09:35:08Z</time>
<speed>1.1</speed>
</trkpt>
<trkpt lat="47.244594" lon="8.596252">
<ele>640.0</ele>
<time>2003-06-27T09:35:13Z</time>
<speed>1.1</speed>
</trkpt>
<trkpt lat="47.244647" lon="8.596314">
<ele>640.0</ele>
<time>2003-06-27T09:35:18Z</time>
<speed>1.1</speed>
</trkpt>
<trkpt lat="47.244700" lon="8.596377">
<ele>640.0</ele>
<time>2003-06-27T09:35:23Z</time>
<speed>1.1</speed>
</trkpt>
<trkpt lat="47.244752" lon="8.596452">
<ele>640.1</ele>
<time>2003-06-27T09:35:28Z</time>
<speed>1.4</speed>
</trkpt>
<trkpt lat="47.244807" lon="8.596501">
<ele>640.0</ele>
<time>2003-06-27T09:35:33Z</time>
<speed>1.1</speed>
</trkpt>
<trkpt lat="47.244834" lon="8.596559">
<ele>639.8</ele>
<time>2003-06-27T09:35:38Z</time>
<speed>1.1</speed>
</trkpt>
<trkpt lat="47.244888" lon="8.596621">
<ele>639.8</ele>
<time>2003-06-27T09:35:43Z</time>
<speed>1.1</speed>
</trkpt>
<trkpt lat="47.244928" lon="8.596679">
<ele>641.1</ele>
<time>2003-06-27T09:35:48Z</time>
<speed>0.8</speed>
</trkpt>
<trkpt lat="47.244975" lon="8.596726">
<ele>641.7</ele>
<time>2003-06-27T09:35:53Z</time>
<speed>0.8</speed>
</trkpt>
<trkpt lat="47.245030" lon="8.596762">
<ele>641.5</ele>
<time>2003-06-27T09:35:58Z</time>
<speed>1.1</speed>
</trkpt>
<trkpt lat="47.245090" lon="8.596811">
<ele>642.1</ele>
<time>2003-06-27T09:36:03Z</time>
<speed>1.1</speed>
</trkpt>
<trkpt lat="47.245154" lon="8.596823">
<ele>641.0</ele>
<time>2003-06-27T09:36:08Z</time>
<speed>0.6</speed>
</trkpt>
<trkpt lat="47.245206" lon="8.596803">
<ele>642.5</ele>
<time>2003-06-27T09:36:13Z</time>
<speed>1.1</speed>
</trkpt>
<trkpt lat="47.245248" lon="8.596755">
<ele>643.7</ele>
<time>2003-06-27T09:36:18Z</time>
<speed>0.8</speed>
</trkpt>
<trkpt lat="47.245266" lon="8.596676">
<ele>644.5</ele>
<time>2003-06-27T09:36:23Z</time>
<speed>0.6</speed>
</trkpt>
<trkpt lat="47.245296" lon="8.596600">
<ele>645.4</ele>
<time>2003-06-27T09:36:28Z</time>
<speed>0.6</speed>
</trkpt>
<trkpt lat="47.245338" lon="8.596475">
<ele>643.9</ele>
<time>2003-06-27T09:36:33Z</time>
<speed>0.8</speed>
</trkpt>
<trkpt lat="47.245379" lon="8.596364">
<ele>642.4</ele>
<time>2003-06-27T09:36:38Z</time>
<speed>1.1</speed>
</trkpt>
<trkpt lat="47.245393" lon="8.596259">
<ele>642.3</ele>
<time>2003-06-27T09:36:43Z</time>
<speed>0.8</speed>
</trkpt>
<trkpt lat="47.245406" lon="8.596168">
<ele>642.4</ele>
<time>2003-06-27T09:36:48Z</time>
<speed>1.1</speed>
</trkpt>
<trkpt lat="47.245424" lon="8.596091">
<ele>641.8</ele>
<time>2003-06-27T09:36:53Z</time>
<speed>1.1</speed>
</trkpt>
<trkpt lat="47.245461" lon="8.596030">
<ele>642.2</ele>
<time>2003-06-27T09:36:58Z</time>
<speed>1.1</speed>
</trkpt>
<trkpt lat="47.245504" lon="8.595971">
<ele>641.9</ele>
<time>2003-06-27T09:37:03Z</time>
<speed>1.1</speed>
</trkpt>
<trkpt lat="47.245540" lon="8.595911">
<ele>640.8</ele>
<time>2003-06-27T09:37:08Z</time>
<speed>0.8</speed>
</trkpt>
<trkpt lat="47.245575" lon="8.595878">
<ele>640.0</ele>
<time>2003-06-27T09:37:13Z</time>
<speed>0.6</speed>
</trkpt>
<trkpt lat="47.245617" lon="8.595832">
<ele>639.7</ele>
<time>2003-06-27T09:37:18Z</time>
<speed>1.1</speed>
</trkpt>
<trkpt lat="47.245658" lon="8.595783">
<ele>640.9</ele>
<time>2003-06-27T09:37:23Z</time>
<speed>0.8</speed>
</trkpt>
<trkpt lat="47.245714" lon="8.595726">
<ele>640.7</ele>
<time>2003-06-27T09:37:28Z</time>
<speed>1.1</speed>
</trkpt>
<trkpt lat="47.245781" lon="8.595684">
<ele>640.6</ele>
<time>2003-06-27T09:37:33Z</time>
<speed>1.1</speed>
</trkpt>
<trkpt lat="47.245828" lon="8.595652">
<ele>639.8</ele>
<time>2003-06-27T09:37:38Z</time>
<speed>0.8</speed>
</trkpt>
<trkpt lat="47.245883" lon="8.595610">
<ele>638.2</ele>
<time>2003-06-27T09:37:43Z</time>
<speed>0.8</speed>
</trkpt>
<trkpt lat="47.245931" lon="8.595579">
<ele>637.5</ele>
<time>2003-06-27T09:37:48Z</time>
<speed>1.1</speed>
</trkpt>
<trkpt lat="47.245996" lon="8.595564">
<ele>636.2</ele>
<time>2003-06-27T09:37:53Z</time>
<speed>1.1</speed>
</trkpt>
<trkpt lat="47.246037" lon="8.595529">
<ele>637.4</ele>
<time>2003-06-27T09:37:58Z</time>
<speed>0.6</speed>
</trkpt>
<trkpt lat="47.246085" lon="8.595485">
<ele>636.6</ele>
<time>2003-06-27T09:38:03Z</time>
<speed>0.6</speed>
</trkpt>
<trkpt lat="47.246140" lon="8.595441">
<ele>636.4</ele>
<time>2003-06-27T09:38:08Z</time>
<speed>0.6</speed>
</trkpt>
<trkpt lat="47.246188" lon="8.595394">
<ele>636.9</ele>
<time>2003-06-27T09:38:13Z</time>
<speed>0.6</speed>
</trkpt>
<trkpt lat="47.246232" lon="8.595309">
<ele>636.4</ele>
<time>2003-06-27T09:38:18Z</time>
<speed>0.8</speed>
</trkpt>
<trkpt lat="47.246282" lon="8.595236">
<ele>636.7</ele>
<time>2003-06-27T09:38:23Z</time>
<speed>1.1</speed>
</trkpt>
<trkpt lat="47.246327" lon="8.595151">
<ele>636.2</ele>
<time>2003-06-27T09:38:28Z</time>
<speed>0.8</speed>
</trkpt>
<trkpt lat="47.246371" lon="8.595078">
<ele>635.8</ele>
<time>2003-06-27T09:38:33Z</time>
<speed>0.8</speed>
</trkpt>
<trkpt lat="47.246406" lon="8.595030">
<ele>636.2</ele>
<time>2003-06-27T09:38:38Z</time>
<speed>0.8</speed>
</trkpt>
<trkpt lat="47.246457" lon="8.594945">
<ele>636.4</ele>
<time>2003-06-27T09:38:43Z</time>
<speed>1.1</speed>
</trkpt>
<trkpt lat="47.246495" lon="8.594857">
<ele>636.6</ele>
<time>2003-06-27T09:38:48Z</time>
<speed>1.1</speed>
</trkpt>
<trkpt lat="47.246545" lon="8.594785">
<ele>636.9</ele>
<time>2003-06-27T09:38:53Z</time>
<speed>0.8</speed>
</trkpt>
<trkpt lat="47.246582" lon="8.594723">
<ele>637.3</ele>
<time>2003-06-27T09:38:58Z</time>
<speed>1.1</speed>
</trkpt>
<trkpt lat="47.246626" lon="8.594638">
<ele>636.7</ele>
<time>2003-06-27T09:39:03Z</time>
<speed>0.8</speed>
</trkpt>
<trkpt lat="47.246664" lon="8.594563">
<ele>637.0</ele>
<time>2003-06-27T09:39:08Z</time>
<speed>1.1</speed>
</trkpt>
<trkpt lat="47.246702" lon="8.594491">
<ele>635.8</ele>
<time>2003-06-27T09:39:13Z</time>
<speed>0.8</speed>
</trkpt>
<trkpt lat="47.246725" lon="8.594428">
<ele>636.1</ele>
<time>2003-06-27T09:39:18Z</time>
<speed>0.6</speed>
</trkpt>
<trkpt lat="47.246762" lon="8.594353">
<ele>636.4</ele>
<time>2003-06-27T09:39:23Z</time>
<speed>0.8</speed>
</trkpt>
<trkpt lat="47.246800" lon="8.594279">
<ele>636.6</ele>
<time>2003-06-27T09:39:28Z</time>
<speed>0.8</speed>
</trkpt>
<trkpt lat="47.246850" lon="8.594206">
<ele>636.9</ele>
<time>2003-06-27T09:39:33Z</time>
<speed>0.8</speed>
</trkpt>
<trkpt lat="47.246881" lon="8.594132">
<ele>636.5</ele>
<time>2003-06-27T09:39:38Z</time>
<speed>0.6</speed>
</trkpt>
<trkpt lat="47.246917" lon="8.594071">
<ele>636.8</ele>
<time>2003-06-27T09:39:43Z</time>
<speed>0.6</speed>
</trkpt>
<trkpt lat="47.246959" lon="8.594024">
<ele>636.6</ele>
<time>2003-06-27T09:39:48Z</time>
<speed>0.8</speed>
</trkpt>
<trkpt lat="47.247001" lon="8.593963">
<ele>637.7</ele>
<time>2003-06-27T09:39:53Z</time>
<speed>0.8</speed>
</trkpt>
<trkpt lat="47.247044" lon="8.593904">
<ele>637.4</ele>
<time>2003-06-27T09:39:58Z</time>
<speed>0.3</speed>
</trkpt>
<trkpt lat="47.247086" lon="8.593857">
<ele>637.2</ele>
<time>2003-06-27T09:40:03Z</time>
<speed>0.6</speed>
</trkpt>
<trkpt lat="47.247129" lon="8.593798">
<ele>636.8</ele>
<time>2003-06-27T09:40:08Z</time>
<speed>0.6</speed>
</trkpt>
<trkpt lat="47.247178" lon="8.593739">
<ele>637.3</ele>
<time>2003-06-27T09:40:13Z</time>
<speed>1.1</speed>
</trkpt>
<trkpt lat="47.247227" lon="8.593679">
<ele>637.7</ele>
<time>2003-06-27T09:40:18Z</time>
<speed>0.8</speed>
</trkpt>
<trkpt lat="47.247261" lon="8.593644">
<ele>638.2</ele>
<time>2003-06-27T09:40:23Z</time>
<speed>0.8</speed>
</trkpt>
<trkpt lat="47.247297" lon="8.593596">
<ele>638.7</ele>
<time>2003-06-27T09:40:28Z</time>
<speed>0.3</speed>
</trkpt>
<trkpt lat="47.247339" lon="8.593534">
<ele>639.8</ele>
<time>2003-06-27T09:40:33Z</time>
<speed>0.8</speed>
</trkpt>
<trkpt lat="47.247376" lon="8.593475">
<ele>638.7</ele>
<time>2003-06-27T09:40:38Z</time>
<speed>0.6</speed>
</trkpt>
<trkpt lat="47.247427" lon="8.593389">
<ele>638.9</ele>
<time>2003-06-27T09:40:43Z</time>
<speed>0.6</speed>
</trkpt>
<trkpt lat="47.247484" lon="8.593306">
<ele>638.5</ele>
<time>2003-06-27T09:40:48Z</time>
<speed>0.6</speed>
</trkpt>
<trkpt lat="47.247542" lon="8.593222">
<ele>638.0</ele>
<time>2003-06-27T09:40:53Z</time>
<speed>0.8</speed>
</trkpt>
<trkpt lat="47.247590" lon="8.593163">
<ele>638.4</ele>
<time>2003-06-27T09:40:58Z</time>
<speed>0.6</speed>
</trkpt>
<trkpt lat="47.247627" lon="8.593102">
<ele>638.8</ele>
<time>2003-06-27T09:41:03Z</time>
<speed>0.8</speed>
</trkpt>
<trkpt lat="47.247668" lon="8.593053">
<ele>640.0</ele>
<time>2003-06-27T09:41:08Z</time>
<speed>0.6</speed>
</trkpt>
<trkpt lat="47.247704" lon="8.593005">
<ele>640.4</ele>
<time>2003-06-27T09:41:13Z</time>
<speed>0.8</speed>
</trkpt>
<trkpt lat="47.247755" lon="8.592906">
<ele>640.5</ele>
<time>2003-06-27T09:41:18Z</time>
<speed>0.8</speed>
</trkpt>
<trkpt lat="47.247788" lon="8.592804">
<ele>641.3</ele>
<time>2003-06-27T09:41:23Z</time>
<speed>0.8</speed>
</trkpt>
<trkpt lat="47.247825" lon="8.592728">
<ele>642.9</ele>
<time>2003-06-27T09:41:28Z</time>
<speed>0.6</speed>
</trkpt>
<trkpt lat="47.247862" lon="8.592651">
<ele>644.6</ele>
<time>2003-06-27T09:41:33Z</time>
<speed>1.1</speed>
</trkpt>
<trkpt lat="47.247861" lon="8.592569">
<ele>646.0</ele>
<time>2003-06-27T09:41:38Z</time>
<speed>0.8</speed>
</trkpt>
<trkpt lat="47.247880" lon="8.592477">
<ele>646.8</ele>
<time>2003-06-27T09:41:43Z</time>
<speed>0.8</speed>
</trkpt>
<trkpt lat="47.247873" lon="8.592395">
<ele>647.5</ele>
<time>2003-06-27T09:41:48Z</time>
<speed>1.1</speed>
</trkpt>
<trkpt lat="47.247879" lon="8.592302">
<ele>648.2</ele>
<time>2003-06-27T09:41:53Z</time>
<speed>0.6</speed>
</trkpt>
<trkpt lat="47.247880" lon="8.592193">
<ele>649.5</ele>
<time>2003-06-27T09:41:58Z</time>
<speed>1.4</speed>
</trkpt>
<trkpt lat="47.247862" lon="8.592096">
<ele>650.1</ele>
<time>2003-06-27T09:42:03Z</time>
<speed>1.1</speed>
</trkpt>
<trkpt lat="47.247848" lon="8.592014">
<ele>650.1</ele>
<time>2003-06-27T09:42:08Z</time>
<speed>0.8</speed>
</trkpt>
<trkpt lat="47.247834" lon="8.591946">
<ele>648.8</ele>
<time>2003-06-27T09:42:13Z</time>
<speed>1.4</speed>
</trkpt>
<trkpt lat="47.247835" lon="8.591853">
<ele>648.7</ele>
<time>2003-06-27T09:42:18Z</time>
<speed>1.1</speed>
</trkpt>
<trkpt lat="47.247823" lon="8.591758">
<ele>648.6</ele>
<time>2003-06-27T09:42:23Z</time>
<speed>1.4</speed>
</trkpt>
<trkpt lat="47.247816" lon="8.591662">
<ele>649.3</ele>
<time>2003-06-27T09:42:28Z</time>
<speed>1.1</speed>
</trkpt>
<trkpt lat="47.247772" lon="8.591578">
<ele>647.0</ele>
<time>2003-06-27T09:42:33Z</time>
<speed>0.8</speed>
</trkpt>
<trkpt lat="47.247727" lon="8.591507">
<ele>644.8</ele>
<time>2003-06-27T09:42:38Z</time>
<speed>1.4</speed>
</trkpt>
<trkpt lat="47.247681" lon="8.591434">
<ele>644.1</ele>
<time>2003-06-27T09:42:43Z</time>
<speed>1.4</speed>
</trkpt>
<trkpt lat="47.247629" lon="8.591358">
<ele>644.0</ele>
<time>2003-06-27T09:42:48Z</time>
<speed>1.4</speed>
</trkpt>
<trkpt lat="47.247589" lon="8.591300">
<ele>642.6</ele>
<time>2003-06-27T09:42:53Z</time>
<speed>1.1</speed>
</trkpt>
<trkpt lat="47.247550" lon="8.591227">
<ele>642.6</ele>
<time>2003-06-27T09:42:58Z</time>
<speed>1.1</speed>
</trkpt>
<trkpt lat="47.247510" lon="8.591154">
<ele>642.6</ele>
<time>2003-06-27T09:43:03Z</time>
<speed>0.8</speed>
</trkpt>
<trkpt lat="47.247508" lon="8.591023">
<ele>640.1</ele>
<time>2003-06-27T09:43:08Z</time>
<speed>1.1</speed>
</trkpt>
<trkpt lat="47.247484" lon="8.590915">
<ele>638.4</ele>
<time>2003-06-27T09:43:13Z</time>
<speed>1.1</speed>
</trkpt>
<trkpt lat="47.247451" lon="8.590780">
<ele>635.1</ele>
<time>2003-06-27T09:43:18Z</time>
<speed>1.4</speed>
</trkpt>
<trkpt lat="47.247439" lon="8.590687">
<ele>633.6</ele>
<time>2003-06-27T09:43:23Z</time>
<speed>1.4</speed>
</trkpt>
<trkpt lat="47.247438" lon="8.590607">
<ele>633.7</ele>
<time>2003-06-27T09:43:28Z</time>
<speed>1.1</speed>
</trkpt>
<trkpt lat="47.247439" lon="8.590513">
<ele>633.6</ele>
<time>2003-06-27T09:43:33Z</time>
<speed>1.1</speed>
</trkpt>
<trkpt lat="47.247439" lon="8.590420">
<ele>633.6</ele>
<time>2003-06-27T09:43:38Z</time>
<speed>1.1</speed>
</trkpt>
<trkpt lat="47.247428" lon="8.590311">
<ele>633.4</ele>
<time>2003-06-27T09:43:43Z</time>
<speed>1.4</speed>
</trkpt>
<trkpt lat="47.247408" lon="8.590227">
<ele>634.0</ele>
<time>2003-06-27T09:43:48Z</time>
<speed>0.8</speed>
</trkpt>
<trkpt lat="47.247394" lon="8.590158">
<ele>634.1</ele>
<time>2003-06-27T09:43:53Z</time>
<speed>1.4</speed>
</trkpt>
<trkpt lat="47.247380" lon="8.590076">
<ele>634.1</ele>
<time>2003-06-27T09:43:58Z</time>
<speed>0.8</speed>
</trkpt>
<trkpt lat="47.247347" lon="8.590002">
<ele>634.9</ele>
<time>2003-06-27T09:44:03Z</time>
<speed>1.1</speed>
</trkpt>
<trkpt lat="47.247314" lon="8.589929">
<ele>635.6</ele>
<time>2003-06-27T09:44:08Z</time>
<speed>1.1</speed>
</trkpt>
<trkpt lat="47.247301" lon="8.589832">
<ele>636.9</ele>
<time>2003-06-27T09:44:13Z</time>
<speed>1.4</speed>
</trkpt>
<trkpt lat="47.247295" lon="8.589737">
<ele>637.5</ele>
<time>2003-06-27T09:44:18Z</time>
<speed>1.1</speed>
</trkpt>
<trkpt lat="47.247269" lon="8.589637">
<ele>638.7</ele>
<time>2003-06-27T09:44:23Z</time>
<speed>0.8</speed>
</trkpt>
<trkpt lat="47.247261" lon="8.589568">
<ele>639.6</ele>
<time>2003-06-27T09:44:28Z</time>
<speed>1.1</speed>
</trkpt>
<trkpt lat="47.247273" lon="8.589486">
<ele>642.5</ele>
<time>2003-06-27T09:44:33Z</time>
<speed>1.1</speed>
</trkpt>
<trkpt lat="47.247246" lon="8.589414">
<ele>642.6</ele>
<time>2003-06-27T09:44:38Z</time>
<speed>1.1</speed>
</trkpt>
<trkpt lat="47.247226" lon="8.589330">
<ele>643.2</ele>
<time>2003-06-27T09:44:43Z</time>
<speed>1.1</speed>
</trkpt>
<trkpt lat="47.247212" lon="8.589246">
<ele>644.6</ele>
<time>2003-06-27T09:44:48Z</time>
<speed>1.1</speed>
</trkpt>
<trkpt lat="47.247178" lon="8.589186">
<ele>645.4</ele>
<time>2003-06-27T09:44:53Z</time>
<speed>1.1</speed>
</trkpt>
<trkpt lat="47.247146" lon="8.589101">
<ele>644.6</ele>
<time>2003-06-27T09:44:59Z</time>
<speed>0.8</speed>
</trkpt>
<trkpt lat="47.247107" lon="8.589015">
<ele>644.5</ele>
<time>2003-06-27T09:45:04Z</time>
<speed>1.1</speed>
</trkpt>
<trkpt lat="47.247080" lon="8.588944">
<ele>644.6</ele>
<time>2003-06-27T09:45:09Z</time>
<speed>0.6</speed>
</trkpt>
<trkpt lat="47.247088" lon="8.588933">
<ele>643.8</ele>
<time>2003-06-27T09:45:14Z</time>
<speed>0.0</speed>
</trkpt>
<trkpt lat="47.247057" lon="8.588914">
<ele>644.2</ele>
<time>2003-06-27T09:45:19Z</time>
<speed>0.8</speed>
</trkpt>
<trkpt lat="47.247036" lon="8.588858">
<ele>643.7</ele>
<time>2003-06-27T09:45:24Z</time>
<speed>0.8</speed>
</trkpt>
<trkpt lat="47.246995" lon="8.588798">
<ele>643.8</ele>
<time>2003-06-27T09:45:29Z</time>
<speed>0.6</speed>
</trkpt>
<trkpt lat="47.246945" lon="8.588775">
<ele>644.8</ele>
<time>2003-06-27T09:45:34Z</time>
<speed>0.8</speed>
</trkpt>
<trkpt lat="47.246857" lon="8.588763">
<ele>643.0</ele>
<time>2003-06-27T09:45:39Z</time>
<speed>1.1</speed>
</trkpt>
<trkpt lat="47.246776" lon="8.588738">
<ele>641.8</ele>
<time>2003-06-27T09:45:44Z</time>
<speed>1.1</speed>
</trkpt>
<trkpt lat="47.246702" lon="8.588713">
<ele>641.3</ele>
<time>2003-06-27T09:45:49Z</time>
<speed>1.1</speed>
</trkpt>
<trkpt lat="47.246651" lon="8.588703">
<ele>642.4</ele>
<time>2003-06-27T09:45:54Z</time>
<speed>0.8</speed>
</trkpt>
<trkpt lat="47.246606" lon="8.588695">
<ele>642.9</ele>
<time>2003-06-27T09:45:59Z</time>
<speed>0.6</speed>
</trkpt>
<trkpt lat="47.246549" lon="8.588685">
<ele>643.3</ele>
<time>2003-06-27T09:46:04Z</time>
<speed>0.6</speed>
</trkpt>
<trkpt lat="47.246519" lon="8.588668">
<ele>642.4</ele>
<time>2003-06-27T09:46:09Z</time>
<speed>0.6</speed>
</trkpt>
<trkpt lat="47.246433" lon="8.588633">
<ele>638.9</ele>
<time>2003-06-27T09:46:14Z</time>
<speed>0.8</speed>
</trkpt>
<trkpt lat="47.246371" lon="8.588610">
<ele>638.5</ele>
<time>2003-06-27T09:46:19Z</time>
<speed>0.8</speed>
</trkpt>
<trkpt lat="47.246321" lon="8.588589">
<ele>638.1</ele>
<time>2003-06-27T09:46:24Z</time>
<speed>0.6</speed>
</trkpt>
<trkpt lat="47.246265" lon="8.588564">
<ele>639.9</ele>
<time>2003-06-27T09:46:29Z</time>
<speed>0.8</speed>
</trkpt>
<trkpt lat="47.246202" lon="8.588554">
<ele>639.6</ele>
<time>2003-06-27T09:46:34Z</time>
<speed>1.1</speed>
</trkpt>
<trkpt lat="47.246151" lon="8.588544">
<ele>640.7</ele>
<time>2003-06-27T09:46:39Z</time>
<speed>0.8</speed>
</trkpt>
<trkpt lat="47.246106" lon="8.588536">
<ele>641.2</ele>
<time>2003-06-27T09:46:44Z</time>
<speed>0.6</speed>
</trkpt>
<trkpt lat="47.246042" lon="8.588537">
<ele>642.4</ele>
<time>2003-06-27T09:46:49Z</time>
<speed>0.8</speed>
</trkpt>
<trkpt lat="47.245984" lon="8.588543">
<ele>641.5</ele>
<time>2003-06-27T09:46:54Z</time>
<speed>0.8</speed>
</trkpt>
<trkpt lat="47.245919" lon="8.588559">
<ele>641.4</ele>
<time>2003-06-27T09:46:59Z</time>
<speed>1.1</speed>
</trkpt>
<trkpt lat="47.245872" lon="8.588577">
<ele>642.1</ele>
<time>2003-06-27T09:47:04Z</time>
<speed>0.8</speed>
</trkpt>
<trkpt lat="47.245807" lon="8.588593">
<ele>642.0</ele>
<time>2003-06-27T09:47:09Z</time>
<speed>1.4</speed>
</trkpt>
<trkpt lat="47.245749" lon="8.588611">
<ele>641.2</ele>
<time>2003-06-27T09:47:14Z</time>
<speed>0.6</speed>
</trkpt>
<trkpt lat="47.245693" lon="8.588589">
<ele>641.5</ele>
<time>2003-06-27T09:47:19Z</time>
<speed>0.8</speed>
</trkpt>
<trkpt lat="47.245644" lon="8.588555">
<ele>641.0</ele>
<time>2003-06-27T09:47:24Z</time>
<speed>0.8</speed>
</trkpt>
<trkpt lat="47.245582" lon="8.588532">
<ele>640.6</ele>
<time>2003-06-27T09:47:29Z</time>
<speed>1.1</speed>
</trkpt>
<trkpt lat="47.245533" lon="8.588498">
<ele>640.2</ele>
<time>2003-06-27T09:47:34Z</time>
<speed>0.8</speed>
</trkpt>
<trkpt lat="47.245476" lon="8.588488">
<ele>640.6</ele>
<time>2003-06-27T09:47:39Z</time>
<speed>0.8</speed>
</trkpt>
<trkpt lat="47.245419" lon="8.588478">
<ele>641.0</ele>
<time>2003-06-27T09:47:44Z</time>
<speed>0.8</speed>
</trkpt>
<trkpt lat="47.245370" lon="8.588457">
<ele>640.7</ele>
<time>2003-06-27T09:47:49Z</time>
<speed>0.8</speed>
</trkpt>
<trkpt lat="47.245312" lon="8.588460">
<ele>641.2</ele>
<time>2003-06-27T09:47:54Z</time>
<speed>1.1</speed>
</trkpt>
<trkpt lat="47.245247" lon="8.588463">
<ele>641.0</ele>
<time>2003-06-27T09:47:59Z</time>
<speed>1.1</speed>
</trkpt>
<trkpt lat="47.245181" lon="8.588493">
<ele>640.9</ele>
<time>2003-06-27T09:48:04Z</time>
<speed>1.1</speed>
</trkpt>
<trkpt lat="47.245140" lon="8.588526">
<ele>641.1</ele>
<time>2003-06-27T09:48:09Z</time>
<speed>0.8</speed>
</trkpt>
<trkpt lat="47.245107" lon="8.588546">
<ele>641.8</ele>
<time>2003-06-27T09:48:14Z</time>
<speed>0.3</speed>
</trkpt>
<trkpt lat="47.245073" lon="8.588566">
<ele>642.6</ele>
<time>2003-06-27T09:48:19Z</time>
<speed>0.8</speed>
</trkpt>
<trkpt lat="47.245032" lon="8.588600">
<ele>642.7</ele>
<time>2003-06-27T09:48:24Z</time>
<speed>0.8</speed>
</trkpt>
<trkpt lat="47.244990" lon="8.588644">
<ele>644.3</ele>
<time>2003-06-27T09:48:29Z</time>
<speed>0.8</speed>
</trkpt>
<trkpt lat="47.244937" lon="8.588662">
<ele>644.2</ele>
<time>2003-06-27T09:48:34Z</time>
<speed>0.8</speed>
</trkpt>
<trkpt lat="47.244895" lon="8.588707">
<ele>645.9</ele>
<time>2003-06-27T09:48:39Z</time>
<speed>0.8</speed>
</trkpt>
<trkpt lat="47.244847" lon="8.588738">
<ele>646.7</ele>
<time>2003-06-27T09:48:44Z</time>
<speed>0.8</speed>
</trkpt>
<trkpt lat="47.244799" lon="8.588782">
<ele>647.5</ele>
<time>2003-06-27T09:48:49Z</time>
<speed>1.1</speed>
</trkpt>
<trkpt lat="47.244745" lon="8.588811">
<ele>649.0</ele>
<time>2003-06-27T09:48:54Z</time>
<speed>0.8</speed>
</trkpt>
<trkpt lat="47.244698" lon="8.588843">
<ele>649.8</ele>
<time>2003-06-27T09:48:59Z</time>
<speed>0.8</speed>
</trkpt>
<trkpt lat="47.244656" lon="8.588887">
<ele>651.4</ele>
<time>2003-06-27T09:49:04Z</time>
<speed>0.8</speed>
</trkpt>
<trkpt lat="47.244603" lon="8.588905">
<ele>651.4</ele>
<time>2003-06-27T09:49:09Z</time>
<speed>0.8</speed>
</trkpt>
<trkpt lat="47.244562" lon="8.588937">
<ele>652.9</ele>
<time>2003-06-27T09:49:14Z</time>
<speed>0.8</speed>
</trkpt>
<trkpt lat="47.244515" lon="8.588955">
<ele>653.6</ele>
<time>2003-06-27T09:49:19Z</time>
<speed>0.6</speed>
</trkpt>
<trkpt lat="47.244479" lon="8.588923">
<ele>653.2</ele>
<time>2003-06-27T09:49:24Z</time>
<speed>0.8</speed>
</trkpt>
<trkpt lat="47.244452" lon="8.588867">
<ele>651.9</ele>
<time>2003-06-27T09:49:29Z</time>
<speed>0.8</speed>
</trkpt>
<trkpt lat="47.244416" lon="8.588835">
<ele>651.5</ele>
<time>2003-06-27T09:49:34Z</time>
<speed>0.0</speed>
</trkpt>
<trkpt lat="47.244393" lon="8.588805">
<ele>651.2</ele>
<time>2003-06-27T09:49:39Z</time>
<speed>0.6</speed>
</trkpt>
<trkpt lat="47.244357" lon="8.588772">
<ele>650.8</ele>
<time>2003-06-27T09:49:44Z</time>
<speed>0.6</speed>
</trkpt>
<trkpt lat="47.244316" lon="8.588727">
<ele>649.6</ele>
<time>2003-06-27T09:49:49Z</time>
<speed>1.1</speed>
</trkpt>
<trkpt lat="47.244309" lon="8.588725">
<ele>650.2</ele>
<time>2003-06-27T09:49:54Z</time>
<speed>0.6</speed>
</trkpt>
<trkpt lat="47.244268" lon="8.588680">
<ele>649.0</ele>
<time>2003-06-27T09:49:59Z</time>
<speed>0.8</speed>
</trkpt>
<trkpt lat="47.244207" lon="8.588644">
<ele>648.5</ele>
<time>2003-06-27T09:50:04Z</time>
<speed>0.8</speed>
</trkpt>
<trkpt lat="47.244164" lon="8.588610">
<ele>648.8</ele>
<time>2003-06-27T09:50:09Z</time>
<speed>0.6</speed>
</trkpt>
<trkpt lat="47.244115" lon="8.588589">
<ele>648.4</ele>
<time>2003-06-27T09:50:14Z</time>
<speed>1.1</speed>
</trkpt>
<trkpt lat="47.244064" lon="8.588582">
<ele>648.2</ele>
<time>2003-06-27T09:50:19Z</time>
<speed>0.8</speed>
</trkpt>
<trkpt lat="47.244016" lon="8.588548">
<ele>647.7</ele>
<time>2003-06-27T09:50:24Z</time>
<speed>0.8</speed>
</trkpt>
<trkpt lat="47.243973" lon="8.588513">
<ele>648.0</ele>
<time>2003-06-27T09:50:29Z</time>
<speed>0.8</speed>
</trkpt>
<trkpt lat="47.243949" lon="8.588496">
<ele>647.8</ele>
<time>2003-06-27T09:50:34Z</time>
<speed>0.8</speed>
</trkpt>
<trkpt lat="47.243907" lon="8.588462">
<ele>648.0</ele>
<time>2003-06-27T09:50:39Z</time>
<speed>0.6</speed>
</trkpt>
<trkpt lat="47.243857" lon="8.588442">
<ele>647.7</ele>
<time>2003-06-27T09:50:44Z</time>
<speed>0.8</speed>
</trkpt>
<trkpt lat="47.243820" lon="8.588423">
<ele>647.4</ele>
<time>2003-06-27T09:50:49Z</time>
<speed>0.6</speed>
</trkpt>
<trkpt lat="47.243771" lon="8.588402">
<ele>647.0</ele>
<time>2003-06-27T09:50:54Z</time>
<speed>1.1</speed>
</trkpt>
<trkpt lat="47.243721" lon="8.588381">
<ele>646.7</ele>
<time>2003-06-27T09:50:59Z</time>
<speed>0.8</speed>
</trkpt>
<trkpt lat="47.243684" lon="8.588362">
<ele>646.4</ele>
<time>2003-06-27T09:51:04Z</time>
<speed>0.8</speed>
</trkpt>
<trkpt lat="47.243642" lon="8.588328">
<ele>646.7</ele>
<time>2003-06-27T09:51:09Z</time>
<speed>0.6</speed>
</trkpt>
<trkpt lat="47.243591" lon="8.588320">
<ele>646.4</ele>
<time>2003-06-27T09:51:14Z</time>
<speed>0.8</speed>
</trkpt>
<trkpt lat="47.243554" lon="8.588301">
<ele>646.1</ele>
<time>2003-06-27T09:51:19Z</time>
<speed>0.6</speed>
</trkpt>
<trkpt lat="47.243510" lon="8.588293">
<ele>646.6</ele>
<time>2003-06-27T09:51:24Z</time>
<speed>0.6</speed>
</trkpt>
<trkpt lat="47.243467" lon="8.588274">
<ele>645.6</ele>
<time>2003-06-27T09:51:29Z</time>
<speed>0.6</speed>
</trkpt>
<trkpt lat="47.243423" lon="8.588253">
<ele>646.0</ele>
<time>2003-06-27T09:51:34Z</time>
<speed>0.8</speed>
</trkpt>
<trkpt lat="47.243391" lon="8.588247">
<ele>646.5</ele>
<time>2003-06-27T09:51:39Z</time>
<speed>0.8</speed>
</trkpt>
<trkpt lat="47.243367" lon="8.588230">
<ele>646.3</ele>
<time>2003-06-27T09:51:44Z</time>
<speed>0.8</speed>
</trkpt>
<trkpt lat="47.243336" lon="8.588211">
<ele>646.7</ele>
<time>2003-06-27T09:51:49Z</time>
<speed>0.8</speed>
</trkpt>
<trkpt lat="47.243285" lon="8.588216">
<ele>646.6</ele>
<time>2003-06-27T09:51:54Z</time>
<speed>0.8</speed>
</trkpt>
<trkpt lat="47.243246" lon="8.588223">
<ele>646.5</ele>
<time>2003-06-27T09:51:59Z</time>
<speed>0.8</speed>
</trkpt>
<trkpt lat="47.243194" lon="8.588227">
<ele>647.8</ele>
<time>2003-06-27T09:52:04Z</time>
<speed>0.8</speed>
</trkpt>
<trkpt lat="47.243144" lon="8.588206">
<ele>647.4</ele>
<time>2003-06-27T09:52:09Z</time>
<speed>0.8</speed>
</trkpt>
<trkpt lat="47.243114" lon="8.588187">
<ele>647.9</ele>
<time>2003-06-27T09:52:14Z</time>
<speed>0.6</speed>
</trkpt>
<trkpt lat="47.243082" lon="8.588181">
<ele>648.4</ele>
<time>2003-06-27T09:52:19Z</time>
<speed>0.6</speed>
</trkpt>
<trkpt lat="47.243051" lon="8.588162">
<ele>648.8</ele>
<time>2003-06-27T09:52:24Z</time>
<speed>0.8</speed>
</trkpt>
<trkpt lat="47.243021" lon="8.588130">
<ele>649.2</ele>
<time>2003-06-27T09:52:29Z</time>
<speed>0.6</speed>
</trkpt>
<trkpt lat="47.242990" lon="8.588111">
<ele>649.6</ele>
<time>2003-06-27T09:52:34Z</time>
<speed>0.6</speed>
</trkpt>
<trkpt lat="47.242959" lon="8.588105">
<ele>650.2</ele>
<time>2003-06-27T09:52:39Z</time>
<speed>0.6</speed>
</trkpt>
<trkpt lat="47.242927" lon="8.588101">
<ele>649.3</ele>
<time>2003-06-27T09:52:44Z</time>
<speed>0.6</speed>
</trkpt>
<trkpt lat="47.242883" lon="8.588095">
<ele>648.4</ele>
<time>2003-06-27T09:52:49Z</time>
<speed>0.8</speed>
</trkpt>
<trkpt lat="47.242844" lon="8.588102">
<ele>648.3</ele>
<time>2003-06-27T09:52:54Z</time>
<speed>0.6</speed>
</trkpt>
<trkpt lat="47.242812" lon="8.588111">
<ele>647.5</ele>
<time>2003-06-27T09:52:59Z</time>
<speed>0.6</speed>
</trkpt>
<trkpt lat="47.242767" lon="8.588118">
<ele>646.7</ele>
<time>2003-06-27T09:53:04Z</time>
<speed>0.8</speed>
</trkpt>
<trkpt lat="47.242728" lon="8.588126">
<ele>646.6</ele>
<time>2003-06-27T09:53:09Z</time>
<speed>0.6</speed>
</trkpt>
<trkpt lat="47.242683" lon="8.588131">
<ele>647.2</ele>
<time>2003-06-27T09:53:14Z</time>
<speed>0.8</speed>
</trkpt>
<trkpt lat="47.242662" lon="8.588140">
<ele>647.9</ele>
<time>2003-06-27T09:53:19Z</time>
<speed>0.3</speed>
</trkpt>
<trkpt lat="47.242624" lon="8.588147">
<ele>647.8</ele>
<time>2003-06-27T09:53:24Z</time>
<speed>0.8</speed>
</trkpt>
<trkpt lat="47.242573" lon="8.588139">
<ele>647.6</ele>
<time>2003-06-27T09:53:29Z</time>
<speed>0.8</speed>
</trkpt>
<trkpt lat="47.242524" lon="8.588105">
<ele>647.1</ele>
<time>2003-06-27T09:53:34Z</time>
<speed>0.8</speed>
</trkpt>
<trkpt lat="47.242476" lon="8.588071">
<ele>646.7</ele>
<time>2003-06-27T09:53:39Z</time>
<speed>0.8</speed>
</trkpt>
<trkpt lat="47.242441" lon="8.588026">
<ele>646.2</ele>
<time>2003-06-27T09:53:44Z</time>
<speed>0.6</speed>
</trkpt>
<trkpt lat="47.242413" lon="8.587983">
<ele>645.0</ele>
<time>2003-06-27T09:53:49Z</time>
<speed>0.3</speed>
</trkpt>
<trkpt lat="47.242383" lon="8.587951">
<ele>645.4</ele>
<time>2003-06-27T09:53:54Z</time>
<speed>0.6</speed>
</trkpt>
<trkpt lat="47.242359" lon="8.587921">
<ele>645.0</ele>
<time>2003-06-27T09:53:59Z</time>
<speed>0.3</speed>
</trkpt>
<trkpt lat="47.242322" lon="8.587902">
<ele>644.7</ele>
<time>2003-06-27T09:54:04Z</time>
<speed>0.8</speed>
</trkpt>
<trkpt lat="47.242270" lon="8.587920">
<ele>644.7</ele>
<time>2003-06-27T09:54:09Z</time>
<speed>0.8</speed>
</trkpt>
<trkpt lat="47.242237" lon="8.587942">
<ele>644.0</ele>
<time>2003-06-27T09:54:14Z</time>
<speed>0.6</speed>
</trkpt>
<trkpt lat="47.242180" lon="8.587932">
<ele>644.5</ele>
<time>2003-06-27T09:54:19Z</time>
<speed>0.8</speed>
</trkpt>
<trkpt lat="47.242094" lon="8.587879">
<ele>643.7</ele>
<time>2003-06-27T09:54:24Z</time>
<speed>0.8</speed>
</trkpt>
<trkpt lat="47.242027" lon="8.587828">
<ele>643.8</ele>
<time>2003-06-27T09:54:29Z</time>
<speed>1.1</speed>
</trkpt>
<trkpt lat="47.241959" lon="8.587803">
<ele>644.0</ele>
<time>2003-06-27T09:54:34Z</time>
<speed>0.8</speed>
</trkpt>
<trkpt lat="47.241940" lon="8.587801">
<ele>643.2</ele>
<time>2003-06-27T09:54:39Z</time>
<speed>0.6</speed>
</trkpt>
<trkpt lat="47.241879" lon="8.587750">
<ele>644.0</ele>
<time>2003-06-27T09:54:44Z</time>
<speed>1.1</speed>
</trkpt>
<trkpt lat="47.241837" lon="8.587718">
<ele>642.9</ele>
<time>2003-06-27T09:54:49Z</time>
<speed>0.8</speed>
</trkpt>
<trkpt lat="47.241794" lon="8.587698">
<ele>643.3</ele>
<time>2003-06-27T09:54:54Z</time>
<speed>0.8</speed>
</trkpt>
<trkpt lat="47.241738" lon="8.587675">
<ele>643.6</ele>
<time>2003-06-27T09:54:59Z</time>
<speed>0.8</speed>
</trkpt>
<trkpt lat="47.241702" lon="8.587643">
<ele>643.2</ele>
<time>2003-06-27T09:55:04Z</time>
<speed>0.6</speed>
</trkpt>
<trkpt lat="47.241652" lon="8.587622">
<ele>642.8</ele>
<time>2003-06-27T09:55:09Z</time>
<speed>0.8</speed>
</trkpt>
<trkpt lat="47.241604" lon="8.587588">
<ele>642.4</ele>
<time>2003-06-27T09:55:14Z</time>
<speed>0.8</speed>
</trkpt>
<trkpt lat="47.241574" lon="8.587556">
<ele>642.7</ele>
<time>2003-06-27T09:55:19Z</time>
<speed>0.8</speed>
</trkpt>
<trkpt lat="47.241561" lon="8.587554">
<ele>642.7</ele>
<time>2003-06-27T09:55:24Z</time>
<speed>0.6</speed>
</trkpt>
<trkpt lat="47.241521" lon="8.587493">
<ele>642.7</ele>
<time>2003-06-27T09:55:29Z</time>
<speed>0.8</speed>
</trkpt>
<trkpt lat="47.241465" lon="8.587457">
<ele>643.0</ele>
<time>2003-06-27T09:55:34Z</time>
<speed>0.8</speed>
</trkpt>
<trkpt lat="47.241416" lon="8.587437">
<ele>642.6</ele>
<time>2003-06-27T09:55:39Z</time>
<speed>1.1</speed>
</trkpt>
<trkpt lat="47.241366" lon="8.587416">
<ele>642.3</ele>
<time>2003-06-27T09:55:44Z</time>
<speed>1.1</speed>
</trkpt>
<trkpt lat="47.241312" lon="8.587367">
<ele>642.4</ele>
<time>2003-06-27T09:55:49Z</time>
<speed>0.8</speed>
</trkpt>
<trkpt lat="47.241270" lon="8.587333">
<ele>642.6</ele>
<time>2003-06-27T09:55:54Z</time>
<speed>0.8</speed>
</trkpt>
<trkpt lat="47.241234" lon="8.587301">
<ele>642.3</ele>
<time>2003-06-27T09:55:59Z</time>
<speed>0.6</speed>
</trkpt>
<trkpt lat="47.241203" lon="8.587282">
<ele>642.7</ele>
<time>2003-06-27T09:56:04Z</time>
<speed>0.0</speed>
</trkpt>
<trkpt lat="47.241166" lon="8.587263">
<ele>642.4</ele>
<time>2003-06-27T09:56:09Z</time>
<speed>0.8</speed>
</trkpt>
<trkpt lat="47.241124" lon="8.587229">
<ele>642.7</ele>
<time>2003-06-27T09:56:14Z</time>
<speed>0.8</speed>
</trkpt>
<trkpt lat="47.241075" lon="8.587195">
<ele>642.2</ele>
<time>2003-06-27T09:56:19Z</time>
<speed>0.8</speed>
</trkpt>
<trkpt lat="47.241026" lon="8.587174">
<ele>641.9</ele>
<time>2003-06-27T09:56:24Z</time>
<speed>1.1</speed>
</trkpt>
<trkpt lat="47.241028" lon="8.587190">
<ele>649.8</ele>
<time>2003-06-27T09:56:29Z</time>
<speed>0.8</speed>
</trkpt>
<trkpt lat="47.241076" lon="8.587247">
<ele>662.6</ele>
<time>2003-06-27T09:56:34Z</time>
<speed>0.8</speed>
</trkpt>
<trkpt lat="47.241046" lon="8.587273">
<ele>669.8</ele>
<time>2003-06-27T09:56:39Z</time>
<speed>0.8</speed>
</trkpt>
<trkpt lat="47.240998" lon="8.587285">
<ele>674.7</ele>
<time>2003-06-27T09:56:44Z</time>
<speed>1.1</speed>
</trkpt>
<trkpt lat="47.240946" lon="8.587273">
<ele>677.3</ele>
<time>2003-06-27T09:56:49Z</time>
<speed>0.8</speed>
</trkpt>
<trkpt lat="47.240888" lon="8.587272">
<ele>680.6</ele>
<time>2003-06-27T09:56:54Z</time>
<speed>0.8</speed>
</trkpt>
<trkpt lat="47.240837" lon="8.587248">
<ele>683.0</ele>
<time>2003-06-27T09:56:59Z</time>
<speed>1.1</speed>
</trkpt>
<trkpt lat="47.240787" lon="8.587225">
<ele>684.1</ele>
<time>2003-06-27T09:57:04Z</time>
<speed>0.8</speed>
</trkpt>
<trkpt lat="47.240735" lon="8.587226">
<ele>686.8</ele>
<time>2003-06-27T09:57:09Z</time>
<speed>0.8</speed>
</trkpt>
<trkpt lat="47.240685" lon="8.587203">
<ele>687.8</ele>
<time>2003-06-27T09:57:14Z</time>
<speed>0.8</speed>
</trkpt>
<trkpt lat="47.240623" lon="8.587165">
<ele>688.7</ele>
<time>2003-06-27T09:57:19Z</time>
<speed>0.8</speed>
</trkpt>
<trkpt lat="47.240573" lon="8.587142">
<ele>689.7</ele>
<time>2003-06-27T09:57:24Z</time>
<speed>1.1</speed>
</trkpt>
<trkpt lat="47.240523" lon="8.587119">
<ele>690.8</ele>
<time>2003-06-27T09:57:29Z</time>
<speed>0.8</speed>
</trkpt>
<trkpt lat="47.240473" lon="8.587096">
<ele>691.9</ele>
<time>2003-06-27T09:57:34Z</time>
<speed>0.8</speed>
</trkpt>
<trkpt lat="47.240429" lon="8.587088">
<ele>692.3</ele>
<time>2003-06-27T09:57:39Z</time>
<speed>0.8</speed>
</trkpt>
<trkpt lat="47.240379" lon="8.587065">
<ele>693.4</ele>
<time>2003-06-27T09:57:44Z</time>
<speed>0.8</speed>
</trkpt>
<trkpt lat="47.240335" lon="8.587044">
<ele>693.8</ele>
<time>2003-06-27T09:57:49Z</time>
<speed>0.6</speed>
</trkpt>
<trkpt lat="47.240310" lon="8.587039">
<ele>695.0</ele>
<time>2003-06-27T09:57:54Z</time>
<speed>0.3</speed>
</trkpt>
<trkpt lat="47.240289" lon="8.587046">
<ele>697.2</ele>
<time>2003-06-27T09:57:59Z</time>
<speed>0.0</speed>
</trkpt>
<trkpt lat="47.240283" lon="8.587046">
<ele>696.4</ele>
<time>2003-06-27T09:58:04Z</time>
<speed>0.0</speed>
</trkpt>
<trkpt lat="47.240277" lon="8.587044">
<ele>697.1</ele>
<time>2003-06-27T09:58:09Z</time>
<speed>0.3</speed>
</trkpt>
<trkpt lat="47.240265" lon="8.587029">
<ele>696.9</ele>
<time>2003-06-27T09:58:14Z</time>
<speed>0.0</speed>
</trkpt>
<trkpt lat="47.240258" lon="8.587027">
<ele>697.6</ele>
<time>2003-06-27T09:58:19Z</time>
<speed>0.0</speed>
</trkpt>
<trkpt lat="47.240265" lon="8.587029">
<ele>696.9</ele>
<time>2003-06-27T09:58:24Z</time>
<speed>0.0</speed>
</trkpt>
<trkpt lat="47.240265" lon="8.587029">
<ele>696.9</ele>
<time>2003-06-27T09:58:29Z</time>
<speed>0.0</speed>
</trkpt>
<trkpt lat="47.240264" lon="8.587042">
<ele>697.0</ele>
<time>2003-06-27T09:58:34Z</time>
<speed>0.0</speed>
</trkpt>
<trkpt lat="47.240258" lon="8.587027">
<ele>697.6</ele>
<time>2003-06-27T09:58:39Z</time>
<speed>0.0</speed>
</trkpt>
<trkpt lat="47.240258" lon="8.587027">
<ele>697.6</ele>
<time>2003-06-27T09:58:44Z</time>
<speed>0.0</speed>
</trkpt>
<trkpt lat="47.240263" lon="8.587040">
<ele>698.4</ele>
<time>2003-06-27T09:58:49Z</time>
<speed>0.0</speed>
</trkpt>
<trkpt lat="47.240258" lon="8.587027">
<ele>697.6</ele>
<time>2003-06-27T09:58:54Z</time>
<speed>0.0</speed>
</trkpt>
<trkpt lat="47.240258" lon="8.587027">
<ele>697.6</ele>
<time>2003-06-27T09:58:59Z</time>
<speed>0.0</speed>
</trkpt>
<trkpt lat="47.240258" lon="8.587027">
<ele>697.6</ele>
<time>2003-06-27T09:59:04Z</time>
<speed>0.0</speed>
</trkpt>
<trkpt lat="47.240258" lon="8.587027">
<ele>697.6</ele>
<time>2003-06-27T09:59:09Z</time>
<speed>0.0</speed>
</trkpt>
<trkpt lat="47.240258" lon="8.587027">
<ele>697.6</ele>
<time>2003-06-27T09:59:14Z</time>
<speed>0.0</speed>
</trkpt>
<trkpt lat="47.240258" lon="8.587027">
<ele>697.6</ele>
<time>2003-06-27T09:59:19Z</time>
<speed>0.0</speed>
</trkpt>
<trkpt lat="47.240258" lon="8.587027">
<ele>697.6</ele>
<time>2003-06-27T09:59:24Z</time>
<speed>0.0</speed>
</trkpt>
<trkpt lat="47.240258" lon="8.587027">
<ele>697.6</ele>
<time>2003-06-27T09:59:29Z</time>
<speed>0.0</speed>
</trkpt>
<trkpt lat="47.240258" lon="8.587027">
<ele>697.6</ele>
<time>2003-06-27T09:59:34Z</time>
<speed>0.0</speed>
</trkpt>
<trkpt lat="47.240257" lon="8.587040">
<ele>697.7</ele>
<time>2003-06-27T09:59:39Z</time>
<speed>0.0</speed>
</trkpt>
<trkpt lat="47.240257" lon="8.587040">
<ele>697.7</ele>
<time>2003-06-27T09:59:44Z</time>
<speed>0.0</speed>
</trkpt>
<trkpt lat="47.240257" lon="8.587040">
<ele>697.7</ele>
<time>2003-06-27T09:59:49Z</time>
<speed>0.0</speed>
</trkpt>
<trkpt lat="47.240251" lon="8.587038">
<ele>698.4</ele>
<time>2003-06-27T09:59:54Z</time>
<speed>0.0</speed>
</trkpt>
<trkpt lat="47.240257" lon="8.587038">
<ele>699.1</ele>
<time>2003-06-27T09:59:59Z</time>
<speed>0.0</speed>
</trkpt>
<trkpt lat="47.240257" lon="8.587038">
<ele>699.1</ele>
<time>2003-06-27T10:00:04Z</time>
<speed>0.0</speed>
</trkpt>
<trkpt lat="47.240271" lon="8.587027">
<ele>699.1</ele>
<time>2003-06-27T10:00:09Z</time>
<speed>0.0</speed>
</trkpt>
<trkpt lat="47.240271" lon="8.587027">
<ele>699.1</ele>
<time>2003-06-27T10:00:14Z</time>
<speed>0.0</speed>
</trkpt>
<trkpt lat="47.240271" lon="8.587027">
<ele>699.1</ele>
<time>2003-06-27T10:00:19Z</time>
<speed>0.0</speed>
</trkpt>
<trkpt lat="47.240271" lon="8.587027">
<ele>699.1</ele>
<time>2003-06-27T10:00:24Z</time>
<speed>0.0</speed>
</trkpt>
<trkpt lat="47.240271" lon="8.587027">
<ele>699.1</ele>
<time>2003-06-27T10:00:29Z</time>
<speed>0.0</speed>
</trkpt>
<trkpt lat="47.240271" lon="8.587027">
<ele>699.1</ele>
<time>2003-06-27T10:00:34Z</time>
<speed>0.0</speed>
</trkpt>
<trkpt lat="47.240264" lon="8.587027">
<ele>698.3</ele>
<time>2003-06-27T10:00:39Z</time>
<speed>0.0</speed>
</trkpt>
<trkpt lat="47.240251" lon="8.587038">
<ele>698.4</ele>
<time>2003-06-27T10:00:44Z</time>
<speed>0.6</speed>
</trkpt>
<trkpt lat="47.240205" lon="8.587043">
<ele>699.0</ele>
<time>2003-06-27T10:00:49Z</time>
<speed>0.8</speed>
</trkpt>
<trkpt lat="47.240147" lon="8.587046">
<ele>699.5</ele>
<time>2003-06-27T10:00:54Z</time>
<speed>1.1</speed>
</trkpt>
<trkpt lat="47.240090" lon="8.587051">
<ele>698.6</ele>
<time>2003-06-27T10:00:59Z</time>
<speed>0.6</speed>
</trkpt>
<trkpt lat="47.240032" lon="8.587055">
<ele>699.1</ele>
<time>2003-06-27T10:01:05Z</time>
<speed>0.8</speed>
</trkpt>
<trkpt lat="47.239974" lon="8.587058">
<ele>699.6</ele>
<time>2003-06-27T10:01:10Z</time>
<speed>1.1</speed>
</trkpt>
<trkpt lat="47.239923" lon="8.587050">
<ele>699.4</ele>
<time>2003-06-27T10:01:15Z</time>
<speed>0.8</speed>
</trkpt>
<trkpt lat="47.239872" lon="8.587055">
<ele>699.2</ele>
<time>2003-06-27T10:01:20Z</time>
<speed>0.8</speed>
</trkpt>
<trkpt lat="47.239808" lon="8.587043">
<ele>700.3</ele>
<time>2003-06-27T10:01:25Z</time>
<speed>1.1</speed>
</trkpt>
<trkpt lat="47.239752" lon="8.587020">
<ele>700.7</ele>
<time>2003-06-27T10:01:30Z</time>
<speed>0.8</speed>
</trkpt>
<trkpt lat="47.239688" lon="8.587008">
<ele>701.7</ele>
<time>2003-06-27T10:01:35Z</time>
<speed>0.8</speed>
</trkpt>
<trkpt lat="47.239626" lon="8.586986">
<ele>701.3</ele>
<time>2003-06-27T10:01:40Z</time>
<speed>1.1</speed>
</trkpt>
<trkpt lat="47.239575" lon="8.586976">
<ele>702.5</ele>
<time>2003-06-27T10:01:45Z</time>
<speed>0.6</speed>
</trkpt>
<trkpt lat="47.239557" lon="8.586959">
<ele>703.0</ele>
<time>2003-06-27T10:01:50Z</time>
<speed>0.3</speed>
</trkpt>
<trkpt lat="47.239511" lon="8.586964">
<ele>703.6</ele>
<time>2003-06-27T10:01:55Z</time>
<speed>0.8</speed>
</trkpt>
<trkpt lat="47.239460" lon="8.586969">
<ele>703.4</ele>
<time>2003-06-27T10:02:00Z</time>
<speed>1.1</speed>
</trkpt>
<trkpt lat="47.239395" lon="8.586970">
<ele>704.6</ele>
<time>2003-06-27T10:02:05Z</time>
<speed>1.1</speed>
</trkpt>
<trkpt lat="47.239336" lon="8.586985">
<ele>706.6</ele>
<time>2003-06-27T10:02:10Z</time>
<speed>0.8</speed>
</trkpt>
<trkpt lat="47.239276" lon="8.587014">
<ele>707.4</ele>
<time>2003-06-27T10:02:15Z</time>
<speed>1.1</speed>
</trkpt>
<trkpt lat="47.239216" lon="8.587045">
<ele>706.7</ele>
<time>2003-06-27T10:02:20Z</time>
<speed>1.1</speed>
</trkpt>
<trkpt lat="47.239163" lon="8.587076">
<ele>706.7</ele>
<time>2003-06-27T10:02:25Z</time>
<speed>1.1</speed>
</trkpt>
<trkpt lat="47.239097" lon="8.587106">
<ele>706.7</ele>
<time>2003-06-27T10:02:30Z</time>
<speed>1.1</speed>
</trkpt>
<trkpt lat="47.239038" lon="8.587122">
<ele>707.4</ele>
<time>2003-06-27T10:02:35Z</time>
<speed>1.1</speed>
</trkpt>
<trkpt lat="47.238984" lon="8.587153">
<ele>707.4</ele>
<time>2003-06-27T10:02:40Z</time>
<speed>0.8</speed>
</trkpt>
<trkpt lat="47.238938" lon="8.587173">
<ele>706.7</ele>
<time>2003-06-27T10:02:45Z</time>
<speed>1.1</speed>
</trkpt>
<trkpt lat="47.238886" lon="8.587192">
<ele>706.6</ele>
<time>2003-06-27T10:02:50Z</time>
<speed>1.1</speed>
</trkpt>
<trkpt lat="47.238838" lon="8.587223">
<ele>707.4</ele>
<time>2003-06-27T10:02:55Z</time>
<speed>0.8</speed>
</trkpt>
<trkpt lat="47.238778" lon="8.587252">
<ele>708.1</ele>
<time>2003-06-27T10:03:00Z</time>
<speed>1.4</speed>
</trkpt>
<trkpt lat="47.238726" lon="8.587271">
<ele>708.1</ele>
<time>2003-06-27T10:03:05Z</time>
<speed>1.4</speed>
</trkpt>
<trkpt lat="47.238673" lon="8.587289">
<ele>708.0</ele>
<time>2003-06-27T10:03:10Z</time>
<speed>1.1</speed>
</trkpt>
<trkpt lat="47.238621" lon="8.587307">
<ele>708.0</ele>
<time>2003-06-27T10:03:15Z</time>
<speed>1.1</speed>
</trkpt>
<trkpt lat="47.238567" lon="8.587338">
<ele>708.1</ele>
<time>2003-06-27T10:03:20Z</time>
<speed>1.1</speed>
</trkpt>
<trkpt lat="47.238521" lon="8.587356">
<ele>708.7</ele>
<time>2003-06-27T10:03:25Z</time>
<speed>1.1</speed>
</trkpt>
<trkpt lat="47.238467" lon="8.587388">
<ele>708.8</ele>
<time>2003-06-27T10:03:30Z</time>
<speed>1.1</speed>
</trkpt>
<trkpt lat="47.238408" lon="8.587404">
<ele>709.4</ele>
<time>2003-06-27T10:03:35Z</time>
<speed>1.1</speed>
</trkpt>
<trkpt lat="47.238362" lon="8.587424">
<ele>708.7</ele>
<time>2003-06-27T10:03:40Z</time>
<speed>1.4</speed>
</trkpt>
<trkpt lat="47.238309" lon="8.587456">
<ele>708.7</ele>
<time>2003-06-27T10:03:45Z</time>
<speed>1.1</speed>
</trkpt>
<trkpt lat="47.238250" lon="8.587472">
<ele>709.4</ele>
<time>2003-06-27T10:03:50Z</time>
<speed>1.1</speed>
</trkpt>
<trkpt lat="47.238203" lon="8.587490">
<ele>710.1</ele>
<time>2003-06-27T10:03:55Z</time>
<speed>0.8</speed>
</trkpt>
<trkpt lat="47.238152" lon="8.587495">
<ele>709.9</ele>
<time>2003-06-27T10:04:00Z</time>
<speed>1.1</speed>
</trkpt>
<trkpt lat="47.238104" lon="8.587526">
<ele>710.7</ele>
<time>2003-06-27T10:04:05Z</time>
<speed>1.1</speed>
</trkpt>
<trkpt lat="47.238052" lon="8.587545">
<ele>710.6</ele>
<time>2003-06-27T10:04:10Z</time>
<speed>1.1</speed>
</trkpt>
<trkpt lat="47.237999" lon="8.587563">
<ele>710.6</ele>
<time>2003-06-27T10:04:15Z</time>
<speed>1.4</speed>
</trkpt>
<trkpt lat="47.237946" lon="8.587579">
<ele>712.0</ele>
<time>2003-06-27T10:04:20Z</time>
<speed>1.1</speed>
</trkpt>
<trkpt lat="47.237894" lon="8.587597">
<ele>711.9</ele>
<time>2003-06-27T10:04:25Z</time>
<speed>1.1</speed>
</trkpt>
<trkpt lat="47.237835" lon="8.587614">
<ele>712.5</ele>
<time>2003-06-27T10:04:30Z</time>
<speed>1.4</speed>
</trkpt>
<trkpt lat="47.237776" lon="8.587630">
<ele>713.1</ele>
<time>2003-06-27T10:04:35Z</time>
<speed>1.4</speed>
</trkpt>
<trkpt lat="47.237710" lon="8.587644">
<ele>714.4</ele>
<time>2003-06-27T10:04:40Z</time>
<speed>1.1</speed>
</trkpt>
<trkpt lat="47.237651" lon="8.587660">
<ele>715.1</ele>
<time>2003-06-27T10:04:45Z</time>
<speed>1.1</speed>
</trkpt>
<trkpt lat="47.237600" lon="8.587666">
<ele>714.9</ele>
<time>2003-06-27T10:04:50Z</time>
<speed>0.8</speed>
</trkpt>
<trkpt lat="47.237547" lon="8.587684">
<ele>714.9</ele>
<time>2003-06-27T10:04:55Z</time>
<speed>1.4</speed>
</trkpt>
<trkpt lat="47.237501" lon="8.587702">
<ele>715.6</ele>
<time>2003-06-27T10:05:00Z</time>
<speed>0.8</speed>
</trkpt>
<trkpt lat="47.237455" lon="8.587722">
<ele>714.8</ele>
<time>2003-06-27T10:05:05Z</time>
<speed>1.1</speed>
</trkpt>
<trkpt lat="47.237395" lon="8.587752">
<ele>715.6</ele>
<time>2003-06-27T10:05:10Z</time>
<speed>1.1</speed>
</trkpt>
<trkpt lat="47.237354" lon="8.587785">
<ele>715.7</ele>
<time>2003-06-27T10:05:15Z</time>
<speed>0.8</speed>
</trkpt>
<trkpt lat="47.237295" lon="8.587801">
<ele>716.3</ele>
<time>2003-06-27T10:05:20Z</time>
<speed>1.1</speed>
</trkpt>
<trkpt lat="47.237255" lon="8.587821">
<ele>716.3</ele>
<time>2003-06-27T10:05:25Z</time>
<speed>1.1</speed>
</trkpt>
<trkpt lat="47.237201" lon="8.587853">
<ele>716.4</ele>
<time>2003-06-27T10:05:30Z</time>
<speed>1.1</speed>
</trkpt>
<trkpt lat="47.237155" lon="8.587871">
<ele>717.0</ele>
<time>2003-06-27T10:05:35Z</time>
<speed>1.1</speed>
</trkpt>
<trkpt lat="47.237101" lon="8.587902">
<ele>717.1</ele>
<time>2003-06-27T10:05:40Z</time>
<speed>1.1</speed>
</trkpt>
<trkpt lat="47.237053" lon="8.587946">
<ele>718.0</ele>
<time>2003-06-27T10:05:45Z</time>
<speed>1.1</speed>
</trkpt>
<trkpt lat="47.237006" lon="8.587980">
<ele>717.4</ele>
<time>2003-06-27T10:05:50Z</time>
<speed>1.4</speed>
</trkpt>
<trkpt lat="47.236958" lon="8.588024">
<ele>718.3</ele>
<time>2003-06-27T10:05:55Z</time>
<speed>1.1</speed>
</trkpt>
<trkpt lat="47.236910" lon="8.588055">
<ele>719.0</ele>
<time>2003-06-27T10:06:00Z</time>
<speed>1.1</speed>
</trkpt>
<trkpt lat="47.236863" lon="8.588089">
<ele>718.4</ele>
<time>2003-06-27T10:06:05Z</time>
<speed>0.8</speed>
</trkpt>
<trkpt lat="47.236823" lon="8.588122">
<ele>718.5</ele>
<time>2003-06-27T10:06:10Z</time>
<speed>1.1</speed>
</trkpt>
<trkpt lat="47.236775" lon="8.588153">
<ele>719.3</ele>
<time>2003-06-27T10:06:15Z</time>
<speed>1.1</speed>
</trkpt>
<trkpt lat="47.236733" lon="8.588199">
<ele>719.5</ele>
<time>2003-06-27T10:06:20Z</time>
<speed>1.1</speed>
</trkpt>
<trkpt lat="47.236679" lon="8.588244">
<ele>719.7</ele>
<time>2003-06-27T10:06:25Z</time>
<speed>1.1</speed>
</trkpt>
<trkpt lat="47.236637" lon="8.588290">
<ele>719.9</ele>
<time>2003-06-27T10:06:30Z</time>
<speed>1.1</speed>
</trkpt>
<trkpt lat="47.236594" lon="8.588349">
<ele>720.2</ele>
<time>2003-06-27T10:06:35Z</time>
<speed>1.1</speed>
</trkpt>
<trkpt lat="47.236553" lon="8.588383">
<ele>720.4</ele>
<time>2003-06-27T10:06:40Z</time>
<speed>1.4</speed>
</trkpt>
<trkpt lat="47.236511" lon="8.588444">
<ele>719.3</ele>
<time>2003-06-27T10:06:45Z</time>
<speed>0.8</speed>
</trkpt>
<trkpt lat="47.236462" lon="8.588488">
<ele>720.2</ele>
<time>2003-06-27T10:06:50Z</time>
<speed>1.1</speed>
</trkpt>
<trkpt lat="47.236421" lon="8.588535">
<ele>720.4</ele>
<time>2003-06-27T10:06:55Z</time>
<speed>1.1</speed>
</trkpt>
<trkpt lat="47.236371" lon="8.588592">
<ele>721.4</ele>
<time>2003-06-27T10:07:00Z</time>
<speed>1.4</speed>
</trkpt>
<trkpt lat="47.236323" lon="8.588636">
<ele>722.3</ele>
<time>2003-06-27T10:07:05Z</time>
<speed>1.1</speed>
</trkpt>
<trkpt lat="47.236269" lon="8.588668">
<ele>722.3</ele>
<time>2003-06-27T10:07:10Z</time>
<speed>1.4</speed>
</trkpt>
<trkpt lat="47.236228" lon="8.588701">
<ele>722.4</ele>
<time>2003-06-27T10:07:15Z</time>
<speed>1.1</speed>
</trkpt>
<trkpt lat="47.236181" lon="8.588732">
<ele>723.2</ele>
<time>2003-06-27T10:07:20Z</time>
<speed>1.1</speed>
</trkpt>
<trkpt lat="47.236128" lon="8.588764">
<ele>723.3</ele>
<time>2003-06-27T10:07:25Z</time>
<speed>1.1</speed>
</trkpt>
<trkpt lat="47.236088" lon="8.588784">
<ele>723.3</ele>
<time>2003-06-27T10:07:30Z</time>
<speed>1.1</speed>
</trkpt>
<trkpt lat="47.236033" lon="8.588828">
<ele>723.4</ele>
<time>2003-06-27T10:07:35Z</time>
<speed>0.8</speed>
</trkpt>
<trkpt lat="47.235987" lon="8.588846">
<ele>724.1</ele>
<time>2003-06-27T10:07:40Z</time>
<speed>0.8</speed>
</trkpt>
<trkpt lat="47.235934" lon="8.588865">
<ele>724.1</ele>
<time>2003-06-27T10:07:45Z</time>
<speed>0.8</speed>
</trkpt>
<trkpt lat="47.235882" lon="8.588868">
<ele>725.3</ele>
<time>2003-06-27T10:07:50Z</time>
<speed>0.8</speed>
</trkpt>
<trkpt lat="47.235831" lon="8.588873">
<ele>725.2</ele>
<time>2003-06-27T10:07:55Z</time>
<speed>0.8</speed>
</trkpt>
<trkpt lat="47.235785" lon="8.588878">
<ele>725.8</ele>
<time>2003-06-27T10:08:00Z</time>
<speed>0.8</speed>
</trkpt>
<trkpt lat="47.235740" lon="8.588883">
<ele>726.3</ele>
<time>2003-06-27T10:08:05Z</time>
<speed>0.8</speed>
</trkpt>
<trkpt lat="47.235695" lon="8.588890">
<ele>725.5</ele>
<time>2003-06-27T10:08:10Z</time>
<speed>1.1</speed>
</trkpt>
<trkpt lat="47.235643" lon="8.588894">
<ele>726.8</ele>
<time>2003-06-27T10:08:15Z</time>
<speed>0.8</speed>
</trkpt>
<trkpt lat="47.235603" lon="8.588914">
<ele>726.8</ele>
<time>2003-06-27T10:08:20Z</time>
<speed>0.8</speed>
</trkpt>
<trkpt lat="47.235551" lon="8.588932">
<ele>726.7</ele>
<time>2003-06-27T10:08:25Z</time>
<speed>1.1</speed>
</trkpt>
<trkpt lat="47.235504" lon="8.588950">
<ele>727.4</ele>
<time>2003-06-27T10:08:30Z</time>
<speed>0.8</speed>
</trkpt>
<trkpt lat="47.235464" lon="8.588970">
<ele>727.4</ele>
<time>2003-06-27T10:08:35Z</time>
<speed>0.8</speed>
</trkpt>
<trkpt lat="47.235432" lon="8.588979">
<ele>726.7</ele>
<time>2003-06-27T10:08:40Z</time>
<speed>0.6</speed>
</trkpt>
<trkpt lat="47.235379" lon="8.588998">
<ele>726.6</ele>
<time>2003-06-27T10:08:46Z</time>
<speed>1.1</speed>
</trkpt>
<trkpt lat="47.235326" lon="8.589029">
<ele>726.7</ele>
<time>2003-06-27T10:08:51Z</time>
<speed>1.1</speed>
</trkpt>
<trkpt lat="47.235280" lon="8.589047">
<ele>727.4</ele>
<time>2003-06-27T10:08:56Z</time>
<speed>0.8</speed>
</trkpt>
<trkpt lat="47.235233" lon="8.589065">
<ele>728.1</ele>
<time>2003-06-27T10:09:01Z</time>
<speed>0.8</speed>
</trkpt>
<trkpt lat="47.235181" lon="8.589084">
<ele>728.0</ele>
<time>2003-06-27T10:09:06Z</time>
<speed>1.1</speed>
</trkpt>
<trkpt lat="47.235171" lon="8.589138">
<ele>726.3</ele>
<time>2003-06-27T10:09:11Z</time>
<speed>0.0</speed>
</trkpt>
<trkpt lat="47.235191" lon="8.589129">
<ele>725.6</ele>
<time>2003-06-27T10:09:16Z</time>
<speed>0.8</speed>
</trkpt>
<trkpt lat="47.235211" lon="8.589120">
<ele>724.9</ele>
<time>2003-06-27T10:09:21Z</time>
<speed>0.0</speed>
</trkpt>
<trkpt lat="47.235211" lon="8.589120">
<ele>724.9</ele>
<time>2003-06-27T10:09:26Z</time>
<speed>0.0</speed>
</trkpt>
<trkpt lat="47.235206" lon="8.589107">
<ele>724.0</ele>
<time>2003-06-27T10:09:31Z</time>
<speed>0.0</speed>
</trkpt>
<trkpt lat="47.235181" lon="8.589103">
<ele>723.9</ele>
<time>2003-06-27T10:09:36Z</time>
<speed>0.8</speed>
</trkpt>
<trkpt lat="47.235160" lon="8.589125">
<ele>724.7</ele>
<time>2003-06-27T10:09:41Z</time>
<speed>0.6</speed>
</trkpt>
<trkpt lat="47.235161" lon="8.589097">
<ele>725.9</ele>
<time>2003-06-27T10:09:46Z</time>
<speed>0.0</speed>
</trkpt>
<trkpt lat="47.235161" lon="8.589097">
<ele>725.9</ele>
<time>2003-06-27T10:09:51Z</time>
<speed>0.0</speed>
</trkpt>
<trkpt lat="47.235148" lon="8.589093">
<ele>727.3</ele>
<time>2003-06-27T10:09:56Z</time>
<speed>0.6</speed>
</trkpt>
<trkpt lat="47.235122" lon="8.589102">
<ele>727.2</ele>
<time>2003-06-27T10:10:01Z</time>
<speed>0.6</speed>
</trkpt>
<trkpt lat="47.235077" lon="8.589107">
<ele>727.8</ele>
<time>2003-06-27T10:10:06Z</time>
<speed>0.8</speed>
</trkpt>
<trkpt lat="47.235039" lon="8.589101">
<ele>727.6</ele>
<time>2003-06-27T10:10:11Z</time>
<speed>0.3</speed>
</trkpt>
<trkpt lat="47.235038" lon="8.589099">
<ele>729.0</ele>
<time>2003-06-27T10:10:16Z</time>
<speed>0.3</speed>
</trkpt>
<trkpt lat="47.234987" lon="8.589089">
<ele>730.2</ele>
<time>2003-06-27T10:10:21Z</time>
<speed>0.6</speed>
</trkpt>
<trkpt lat="47.234975" lon="8.589087">
<ele>730.1</ele>
<time>2003-06-27T10:10:26Z</time>
<speed>0.0</speed>
</trkpt>
<trkpt lat="47.234961" lon="8.589098">
<ele>730.2</ele>
<time>2003-06-27T10:10:31Z</time>
<speed>0.6</speed>
</trkpt>
<trkpt lat="47.234917" lon="8.589091">
<ele>730.6</ele>
<time>2003-06-27T10:10:36Z</time>
<speed>0.8</speed>
</trkpt>
<trkpt lat="47.234873" lon="8.589070">
<ele>731.0</ele>
<time>2003-06-27T10:10:41Z</time>
<speed>0.6</speed>
</trkpt>
<trkpt lat="47.234823" lon="8.589062">
<ele>730.8</ele>
<time>2003-06-27T10:10:46Z</time>
<speed>0.6</speed>
</trkpt>
<trkpt lat="47.234779" lon="8.589056">
<ele>729.9</ele>
<time>2003-06-27T10:10:51Z</time>
<speed>0.8</speed>
</trkpt>
<trkpt lat="47.234713" lon="8.589070">
<ele>731.1</ele>
<time>2003-06-27T10:10:56Z</time>
<speed>1.4</speed>
</trkpt>
<trkpt lat="47.234649" lon="8.589073">
<ele>730.9</ele>
<time>2003-06-27T10:11:01Z</time>
<speed>1.1</speed>
</trkpt>
<trkpt lat="47.234596" lon="8.589092">
<ele>730.9</ele>
<time>2003-06-27T10:11:06Z</time>
<speed>1.1</speed>
</trkpt>
<trkpt lat="47.234537" lon="8.589108">
<ele>731.5</ele>
<time>2003-06-27T10:11:11Z</time>
<speed>1.1</speed>
</trkpt>
<trkpt lat="47.234492" lon="8.589113">
<ele>732.1</ele>
<time>2003-06-27T10:11:16Z</time>
<speed>0.6</speed>
</trkpt>
<trkpt lat="47.234432" lon="8.589127">
<ele>734.1</ele>
<time>2003-06-27T10:11:21Z</time>
<speed>0.8</speed>
</trkpt>
<trkpt lat="47.234419" lon="8.589138">
<ele>734.2</ele>
<time>2003-06-27T10:11:26Z</time>
<speed>0.0</speed>
</trkpt>
<trkpt lat="47.234399" lon="8.589147">
<ele>734.9</ele>
<time>2003-06-27T10:11:31Z</time>
<speed>0.6</speed>
</trkpt>
<trkpt lat="47.234345" lon="8.589177">
<ele>736.3</ele>
<time>2003-06-27T10:11:36Z</time>
<speed>0.8</speed>
</trkpt>
<trkpt lat="47.234291" lon="8.589208">
<ele>736.4</ele>
<time>2003-06-27T10:11:41Z</time>
<speed>1.1</speed>
</trkpt>
<trkpt lat="47.234245" lon="8.589226">
<ele>737.1</ele>
<time>2003-06-27T10:11:46Z</time>
<speed>0.8</speed>
</trkpt>
<trkpt lat="47.234197" lon="8.589257">
<ele>737.9</ele>
<time>2003-06-27T10:11:51Z</time>
<speed>0.8</speed>
</trkpt>
<trkpt lat="47.234156" lon="8.589304">
<ele>738.1</ele>
<time>2003-06-27T10:11:56Z</time>
<speed>1.1</speed>
</trkpt>
<trkpt lat="47.234102" lon="8.589335">
<ele>738.1</ele>
<time>2003-06-27T10:12:01Z</time>
<speed>0.8</speed>
</trkpt>
<trkpt lat="47.234047" lon="8.589377">
<ele>739.7</ele>
<time>2003-06-27T10:12:06Z</time>
<speed>1.4</speed>
</trkpt>
<trkpt lat="47.233999" lon="8.589422">
<ele>740.6</ele>
<time>2003-06-27T10:12:11Z</time>
<speed>1.1</speed>
</trkpt>
<trkpt lat="47.233939" lon="8.589451">
<ele>741.3</ele>
<time>2003-06-27T10:12:16Z</time>
<speed>1.1</speed>
</trkpt>
<trkpt lat="47.233865" lon="8.589491">
<ele>742.1</ele>
<time>2003-06-27T10:12:21Z</time>
<speed>1.1</speed>
</trkpt>
<trkpt lat="47.233830" lon="8.589540">
<ele>741.6</ele>
<time>2003-06-27T10:12:26Z</time>
<speed>0.8</speed>
</trkpt>
<trkpt lat="47.233803" lon="8.589562">
<ele>741.7</ele>
<time>2003-06-27T10:12:31Z</time>
<speed>0.6</speed>
</trkpt>
<trkpt lat="47.233803" lon="8.589562">
<ele>741.7</ele>
<time>2003-06-27T10:12:36Z</time>
<speed>0.0</speed>
</trkpt>
<trkpt lat="47.233803" lon="8.589562">
<ele>741.7</ele>
<time>2003-06-27T10:12:41Z</time>
<speed>0.0</speed>
</trkpt>
<trkpt lat="47.233809" lon="8.589564">
<ele>741.0</ele>
<time>2003-06-27T10:12:47Z</time>
<speed>0.0</speed>
</trkpt>
<trkpt lat="47.233809" lon="8.589564">
<ele>741.0</ele>
<time>2003-06-27T10:12:52Z</time>
<speed>0.0</speed>
</trkpt>
<trkpt lat="47.233809" lon="8.589564">
<ele>741.0</ele>
<time>2003-06-27T10:12:57Z</time>
<speed>0.0</speed>
</trkpt>
<trkpt lat="47.233809" lon="8.589564">
<ele>741.0</ele>
<time>2003-06-27T10:13:02Z</time>
<speed>0.0</speed>
</trkpt>
<trkpt lat="47.233809" lon="8.589564">
<ele>741.0</ele>
<time>2003-06-27T10:13:07Z</time>
<speed>0.0</speed>
</trkpt>
<trkpt lat="47.233796" lon="8.589562">
<ele>741.0</ele>
<time>2003-06-27T10:13:12Z</time>
<speed>0.8</speed>
</trkpt>
<trkpt lat="47.233763" lon="8.589582">
<ele>741.7</ele>
<time>2003-06-27T10:13:17Z</time>
<speed>0.8</speed>
</trkpt>
<trkpt lat="47.233716" lon="8.589600">
<ele>742.4</ele>
<time>2003-06-27T10:13:22Z</time>
<speed>0.6</speed>
</trkpt>
<trkpt lat="47.233666" lon="8.589592">
<ele>742.1</ele>
<time>2003-06-27T10:13:27Z</time>
<speed>1.1</speed>
</trkpt>
<trkpt lat="47.233608" lon="8.589596">
<ele>742.7</ele>
<time>2003-06-27T10:13:32Z</time>
<speed>0.8</speed>
</trkpt>
<trkpt lat="47.233554" lon="8.589627">
<ele>742.7</ele>
<time>2003-06-27T10:13:37Z</time>
<speed>1.1</speed>
</trkpt>
<trkpt lat="47.233506" lon="8.589671">
<ele>743.6</ele>
<time>2003-06-27T10:13:42Z</time>
<speed>0.8</speed>
</trkpt>
<trkpt lat="47.233453" lon="8.589688">
<ele>745.0</ele>
<time>2003-06-27T10:13:47Z</time>
<speed>0.8</speed>
</trkpt>
<trkpt lat="47.233402" lon="8.589680">
<ele>744.7</ele>
<time>2003-06-27T10:13:52Z</time>
<speed>0.6</speed>
</trkpt>
<trkpt lat="47.233350" lon="8.589683">
<ele>746.0</ele>
<time>2003-06-27T10:13:57Z</time>
<speed>0.8</speed>
</trkpt>
<trkpt lat="47.233290" lon="8.589712">
<ele>746.7</ele>
<time>2003-06-27T10:14:02Z</time>
<speed>0.8</speed>
</trkpt>
<trkpt lat="47.233241" lon="8.589693">
<ele>744.9</ele>
<time>2003-06-27T10:14:07Z</time>
<speed>1.1</speed>
</trkpt>
<trkpt lat="47.233190" lon="8.589698">
<ele>744.8</ele>
<time>2003-06-27T10:14:12Z</time>
<speed>1.1</speed>
</trkpt>
<trkpt lat="47.233120" lon="8.589688">
<ele>743.7</ele>
<time>2003-06-27T10:14:17Z</time>
<speed>1.1</speed>
</trkpt>
<trkpt lat="47.233061" lon="8.589705">
<ele>744.4</ele>
<time>2003-06-27T10:14:22Z</time>
<speed>1.1</speed>
</trkpt>
<trkpt lat="47.233016" lon="8.589712">
<ele>743.5</ele>
<time>2003-06-27T10:14:27Z</time>
<speed>0.8</speed>
</trkpt>
<trkpt lat="47.232964" lon="8.589730">
<ele>743.5</ele>
<time>2003-06-27T10:14:32Z</time>
<speed>0.8</speed>
</trkpt>
<trkpt lat="47.232917" lon="8.589748">
<ele>744.2</ele>
<time>2003-06-27T10:14:37Z</time>
<speed>0.8</speed>
</trkpt>
<trkpt lat="47.232865" lon="8.589767">
<ele>744.1</ele>
<time>2003-06-27T10:14:42Z</time>
<speed>1.1</speed>
</trkpt>
<trkpt lat="47.232811" lon="8.589798">
<ele>744.2</ele>
<time>2003-06-27T10:14:47Z</time>
<speed>1.1</speed>
</trkpt>
<trkpt lat="47.232762" lon="8.589855">
<ele>745.2</ele>
<time>2003-06-27T10:14:52Z</time>
<speed>1.4</speed>
</trkpt>
<trkpt lat="47.232715" lon="8.589888">
<ele>744.6</ele>
<time>2003-06-27T10:14:57Z</time>
<speed>1.1</speed>
</trkpt>
<trkpt lat="47.232667" lon="8.589933">
<ele>745.4</ele>
<time>2003-06-27T10:15:02Z</time>
<speed>1.1</speed>
</trkpt>
<trkpt lat="47.232627" lon="8.589953">
<ele>745.5</ele>
<time>2003-06-27T10:15:07Z</time>
<speed>0.8</speed>
</trkpt>
<trkpt lat="47.232594" lon="8.589960">
<ele>746.1</ele>
<time>2003-06-27T10:15:12Z</time>
<speed>0.8</speed>
</trkpt>
<trkpt lat="47.232544" lon="8.589952">
<ele>745.9</ele>
<time>2003-06-27T10:15:17Z</time>
<speed>0.8</speed>
</trkpt>
<trkpt lat="47.232493" lon="8.589942">
<ele>747.0</ele>
<time>2003-06-27T10:15:22Z</time>
<speed>0.8</speed>
</trkpt>
<trkpt lat="47.232449" lon="8.589921">
<ele>747.4</ele>
<time>2003-06-27T10:15:27Z</time>
<speed>0.8</speed>
</trkpt>
<trkpt lat="47.232405" lon="8.589914">
<ele>747.9</ele>
<time>2003-06-27T10:15:32Z</time>
<speed>0.8</speed>
</trkpt>
<trkpt lat="47.232354" lon="8.589904">
<ele>749.0</ele>
<time>2003-06-27T10:15:37Z</time>
<speed>0.8</speed>
</trkpt>
<trkpt lat="47.232297" lon="8.589894">
<ele>749.4</ele>
<time>2003-06-27T10:15:42Z</time>
<speed>0.8</speed>
</trkpt>
<trkpt lat="47.232246" lon="8.589886">
<ele>749.2</ele>
<time>2003-06-27T10:15:47Z</time>
<speed>0.8</speed>
</trkpt>
<trkpt lat="47.232207" lon="8.589893">
<ele>749.1</ele>
<time>2003-06-27T10:15:52Z</time>
<speed>0.8</speed>
</trkpt>
<trkpt lat="47.232161" lon="8.589911">
<ele>749.8</ele>
<time>2003-06-27T10:15:57Z</time>
<speed>1.1</speed>
</trkpt>
<trkpt lat="47.232108" lon="8.589930">
<ele>749.7</ele>
<time>2003-06-27T10:16:02Z</time>
<speed>0.8</speed>
</trkpt>
<trkpt lat="47.232068" lon="8.589950">
<ele>749.8</ele>
<time>2003-06-27T10:16:07Z</time>
<speed>1.1</speed>
</trkpt>
<trkpt lat="47.232024" lon="8.589942">
<ele>750.2</ele>
<time>2003-06-27T10:16:12Z</time>
<speed>0.6</speed>
</trkpt>
<trkpt lat="47.231977" lon="8.589975">
<ele>749.6</ele>
<time>2003-06-27T10:16:17Z</time>
<speed>1.1</speed>
</trkpt>
<trkpt lat="47.231930" lon="8.590006">
<ele>750.4</ele>
<time>2003-06-27T10:16:22Z</time>
<speed>0.8</speed>
</trkpt>
<trkpt lat="47.231890" lon="8.590027">
<ele>750.4</ele>
<time>2003-06-27T10:16:27Z</time>
<speed>0.8</speed>
</trkpt>
<trkpt lat="47.231850" lon="8.590032">
<ele>751.8</ele>
<time>2003-06-27T10:16:32Z</time>
<speed>0.3</speed>
</trkpt>
<trkpt lat="47.231831" lon="8.590043">
<ele>751.1</ele>
<time>2003-06-27T10:16:37Z</time>
<speed>0.3</speed>
</trkpt>
<trkpt lat="47.231817" lon="8.590052">
<ele>752.5</ele>
<time>2003-06-27T10:16:42Z</time>
<speed>0.0</speed>
</trkpt>
<trkpt lat="47.231810" lon="8.590050">
<ele>753.2</ele>
<time>2003-06-27T10:16:47Z</time>
<speed>0.3</speed>
</trkpt>
<trkpt lat="47.231790" lon="8.590061">
<ele>752.5</ele>
<time>2003-06-27T10:16:52Z</time>
<speed>0.3</speed>
</trkpt>
<trkpt lat="47.231769" lon="8.590083">
<ele>753.3</ele>
<time>2003-06-27T10:16:57Z</time>
<speed>0.3</speed>
</trkpt>
<trkpt lat="47.231769" lon="8.590083">
<ele>753.3</ele>
<time>2003-06-27T10:17:02Z</time>
<speed>0.0</speed>
</trkpt>
<trkpt lat="47.231763" lon="8.590081">
<ele>754.0</ele>
<time>2003-06-27T10:17:07Z</time>
<speed>0.0</speed>
</trkpt>
<trkpt lat="47.231763" lon="8.590081">
<ele>754.0</ele>
<time>2003-06-27T10:17:12Z</time>
<speed>0.0</speed>
</trkpt>
<trkpt lat="47.231762" lon="8.590094">
<ele>754.1</ele>
<time>2003-06-27T10:17:17Z</time>
<speed>0.0</speed>
</trkpt>
<trkpt lat="47.231762" lon="8.590094">
<ele>754.1</ele>
<time>2003-06-27T10:17:22Z</time>
<speed>0.0</speed>
</trkpt>
<trkpt lat="47.231762" lon="8.590094">
<ele>754.1</ele>
<time>2003-06-27T10:17:28Z</time>
<speed>0.0</speed>
</trkpt>
<trkpt lat="47.231762" lon="8.590094">
<ele>754.1</ele>
<time>2003-06-27T10:17:34Z</time>
<speed>0.0</speed>
</trkpt>
<trkpt lat="47.231762" lon="8.590094">
<ele>754.1</ele>
<time>2003-06-27T10:17:39Z</time>
<speed>0.0</speed>
</trkpt>
<trkpt lat="47.231762" lon="8.590094">
<ele>754.1</ele>
<time>2003-06-27T10:17:44Z</time>
<speed>0.0</speed>
</trkpt>
<trkpt lat="47.231762" lon="8.590094">
<ele>754.1</ele>
<time>2003-06-27T10:17:49Z</time>
<speed>0.0</speed>
</trkpt>
<trkpt lat="47.231762" lon="8.590094">
<ele>754.1</ele>
<time>2003-06-27T10:17:54Z</time>
<speed>0.0</speed>
</trkpt>
<trkpt lat="47.231762" lon="8.590094">
<ele>754.1</ele>
<time>2003-06-27T10:17:59Z</time>
<speed>0.0</speed>
</trkpt>
<trkpt lat="47.231762" lon="8.590094">
<ele>754.1</ele>
<time>2003-06-27T10:18:04Z</time>
<speed>0.0</speed>
</trkpt>
<trkpt lat="47.231762" lon="8.590094">
<ele>754.1</ele>
<time>2003-06-27T10:18:09Z</time>
<speed>0.0</speed>
</trkpt>
<trkpt lat="47.231762" lon="8.590094">
<ele>754.1</ele>
<time>2003-06-27T10:18:14Z</time>
<speed>0.0</speed>
</trkpt>
<trkpt lat="47.231761" lon="8.590107">
<ele>754.2</ele>
<time>2003-06-27T10:18:19Z</time>
<speed>0.0</speed>
</trkpt>
<trkpt lat="47.231761" lon="8.590107">
<ele>754.2</ele>
<time>2003-06-27T10:18:24Z</time>
<speed>0.0</speed>
</trkpt>
<trkpt lat="47.231755" lon="8.590107">
<ele>753.4</ele>
<time>2003-06-27T10:18:29Z</time>
<speed>0.0</speed>
</trkpt>
<trkpt lat="47.231755" lon="8.590107">
<ele>753.4</ele>
<time>2003-06-27T10:18:34Z</time>
<speed>0.0</speed>
</trkpt>
<trkpt lat="47.231755" lon="8.590107">
<ele>753.4</ele>
<time>2003-06-27T10:18:39Z</time>
<speed>0.0</speed>
</trkpt>
<trkpt lat="47.231755" lon="8.590107">
<ele>753.4</ele>
<time>2003-06-27T10:18:44Z</time>
<speed>0.0</speed>
</trkpt>
<trkpt lat="47.231754" lon="8.590120">
<ele>753.5</ele>
<time>2003-06-27T10:18:49Z</time>
<speed>0.0</speed>
</trkpt>
<trkpt lat="47.231754" lon="8.590120">
<ele>753.5</ele>
<time>2003-06-27T10:18:54Z</time>
<speed>0.0</speed>
</trkpt>
<trkpt lat="47.231754" lon="8.590120">
<ele>753.5</ele>
<time>2003-06-27T10:18:59Z</time>
<speed>0.0</speed>
</trkpt>
<trkpt lat="47.231754" lon="8.590120">
<ele>753.5</ele>
<time>2003-06-27T10:19:04Z</time>
<speed>0.0</speed>
</trkpt>
<trkpt lat="47.231754" lon="8.590120">
<ele>753.5</ele>
<time>2003-06-27T10:19:09Z</time>
<speed>0.0</speed>
</trkpt>
<trkpt lat="47.231754" lon="8.590120">
<ele>753.5</ele>
<time>2003-06-27T10:19:14Z</time>
<speed>0.0</speed>
</trkpt>
<trkpt lat="47.231754" lon="8.590120">
<ele>753.5</ele>
<time>2003-06-27T10:19:19Z</time>
<speed>0.0</speed>
</trkpt>
<trkpt lat="47.231754" lon="8.590120">
<ele>753.5</ele>
<time>2003-06-27T10:19:24Z</time>
<speed>0.0</speed>
</trkpt>
<trkpt lat="47.231754" lon="8.590120">
<ele>753.5</ele>
<time>2003-06-27T10:19:29Z</time>
<speed>0.0</speed>
</trkpt>
<trkpt lat="47.231754" lon="8.590120">
<ele>753.5</ele>
<time>2003-06-27T10:19:34Z</time>
<speed>0.0</speed>
</trkpt>
<trkpt lat="47.231754" lon="8.590120">
<ele>753.5</ele>
<time>2003-06-27T10:19:39Z</time>
<speed>0.0</speed>
</trkpt>
<trkpt lat="47.231741" lon="8.590118">
<ele>753.5</ele>
<time>2003-06-27T10:19:44Z</time>
<speed>0.3</speed>
</trkpt>
<trkpt lat="47.231702" lon="8.590126">
<ele>753.4</ele>
<time>2003-06-27T10:19:49Z</time>
<speed>0.6</speed>
</trkpt>
<trkpt lat="47.231702" lon="8.590126">
<ele>753.4</ele>
<time>2003-06-27T10:19:54Z</time>
<speed>0.0</speed>
</trkpt>
<trkpt lat="47.231702" lon="8.590126">
<ele>753.4</ele>
<time>2003-06-27T10:19:59Z</time>
<speed>0.6</speed>
</trkpt>
<trkpt lat="47.231702" lon="8.590126">
<ele>753.4</ele>
<time>2003-06-27T10:20:04Z</time>
<speed>0.8</speed>
</trkpt>
<trkpt lat="47.231735" lon="8.590116">
<ele>754.1</ele>
<time>2003-06-27T10:20:09Z</time>
<speed>0.6</speed>
</trkpt>
<trkpt lat="47.231747" lon="8.590118">
<ele>754.2</ele>
<time>2003-06-27T10:20:14Z</time>
<speed>0.0</speed>
</trkpt>
<trkpt lat="47.231747" lon="8.590118">
<ele>754.2</ele>
<time>2003-06-27T10:20:19Z</time>
<speed>0.0</speed>
</trkpt>
<trkpt lat="47.231747" lon="8.590118">
<ele>754.2</ele>
<time>2003-06-27T10:20:24Z</time>
<speed>0.0</speed>
</trkpt>
<trkpt lat="47.231742" lon="8.590105">
<ele>753.4</ele>
<time>2003-06-27T10:20:29Z</time>
<speed>0.0</speed>
</trkpt>
<trkpt lat="47.231742" lon="8.590105">
<ele>753.4</ele>
<time>2003-06-27T10:20:34Z</time>
<speed>0.0</speed>
</trkpt>
<trkpt lat="47.231736" lon="8.590105">
<ele>752.6</ele>
<time>2003-06-27T10:20:39Z</time>
<speed>0.0</speed>
</trkpt>
<trkpt lat="47.231741" lon="8.590118">
<ele>753.5</ele>
<time>2003-06-27T10:20:44Z</time>
<speed>0.0</speed>
</trkpt>
<trkpt lat="47.231741" lon="8.590118">
<ele>753.5</ele>
<time>2003-06-27T10:20:49Z</time>
<speed>0.0</speed>
</trkpt>
<trkpt lat="47.231741" lon="8.590118">
<ele>753.5</ele>
<time>2003-06-27T10:20:54Z</time>
<speed>0.0</speed>
</trkpt>
<trkpt lat="47.231741" lon="8.590118">
<ele>753.5</ele>
<time>2003-06-27T10:20:59Z</time>
<speed>0.0</speed>
</trkpt>
<trkpt lat="47.231741" lon="8.590118">
<ele>753.5</ele>
<time>2003-06-27T10:21:04Z</time>
<speed>0.0</speed>
</trkpt>
<trkpt lat="47.231741" lon="8.590118">
<ele>753.5</ele>
<time>2003-06-27T10:21:09Z</time>
<speed>0.0</speed>
</trkpt>
<trkpt lat="47.231722" lon="8.590116">
<ele>752.7</ele>
<time>2003-06-27T10:21:14Z</time>
<speed>0.8</speed>
</trkpt>
<trkpt lat="47.231664" lon="8.590135">
<ele>751.9</ele>
<time>2003-06-27T10:21:19Z</time>
<speed>1.1</speed>
</trkpt>
<trkpt lat="47.231604" lon="8.590164">
<ele>752.6</ele>
<time>2003-06-27T10:21:24Z</time>
<speed>1.4</speed>
</trkpt>
<trkpt lat="47.231532" lon="8.590180">
<ele>751.8</ele>
<time>2003-06-27T10:21:29Z</time>
<speed>1.1</speed>
</trkpt>
<trkpt lat="47.231473" lon="8.590196">
<ele>752.4</ele>
<time>2003-06-27T10:21:34Z</time>
<speed>1.4</speed>
</trkpt>
<trkpt lat="47.231402" lon="8.590211">
<ele>753.0</ele>
<time>2003-06-27T10:21:39Z</time>
<speed>1.4</speed>
</trkpt>
<trkpt lat="47.231336" lon="8.590240">
<ele>752.9</ele>
<time>2003-06-27T10:21:44Z</time>
<speed>1.4</speed>
</trkpt>
<trkpt lat="47.231263" lon="8.590269">
<ele>752.2</ele>
<time>2003-06-27T10:21:49Z</time>
<speed>1.4</speed>
</trkpt>
<trkpt lat="47.231196" lon="8.590312">
<ele>752.3</ele>
<time>2003-06-27T10:21:54Z</time>
<speed>1.7</speed>
</trkpt>
<trkpt lat="47.231128" lon="8.590367">
<ele>752.5</ele>
<time>2003-06-27T10:21:59Z</time>
<speed>1.1</speed>
</trkpt>
<trkpt lat="47.231080" lon="8.590413">
<ele>752.0</ele>
<time>2003-06-27T10:22:04Z</time>
<speed>1.4</speed>
</trkpt>
<trkpt lat="47.231038" lon="8.590460">
<ele>752.2</ele>
<time>2003-06-27T10:22:09Z</time>
<speed>1.1</speed>
</trkpt>
<trkpt lat="47.230983" lon="8.590517">
<ele>752.4</ele>
<time>2003-06-27T10:22:14Z</time>
<speed>1.4</speed>
</trkpt>
<trkpt lat="47.230928" lon="8.590561">
<ele>752.6</ele>
<time>2003-06-27T10:22:19Z</time>
<speed>1.4</speed>
</trkpt>
<trkpt lat="47.230872" lon="8.590632">
<ele>753.0</ele>
<time>2003-06-27T10:22:24Z</time>
<speed>1.4</speed>
</trkpt>
<trkpt lat="47.230828" lon="8.590704">
<ele>753.4</ele>
<time>2003-06-27T10:22:29Z</time>
<speed>1.4</speed>
</trkpt>
<trkpt lat="47.230771" lon="8.590788">
<ele>753.8</ele>
<time>2003-06-27T10:22:34Z</time>
<speed>1.4</speed>
</trkpt>
<trkpt lat="47.230733" lon="8.590862">
<ele>753.6</ele>
<time>2003-06-27T10:22:39Z</time>
<speed>1.1</speed>
</trkpt>
<trkpt lat="47.230696" lon="8.590935">
<ele>754.7</ele>
<time>2003-06-27T10:22:44Z</time>
<speed>1.4</speed>
</trkpt>
<trkpt lat="47.230653" lon="8.590994">
<ele>755.1</ele>
<time>2003-06-27T10:22:49Z</time>
<speed>1.1</speed>
</trkpt>
<trkpt lat="47.230615" lon="8.591068">
<ele>754.8</ele>
<time>2003-06-27T10:22:54Z</time>
<speed>1.4</speed>
</trkpt>
<trkpt lat="47.230573" lon="8.591128">
<ele>755.1</ele>
<time>2003-06-27T10:22:59Z</time>
<speed>1.1</speed>
</trkpt>
<trkpt lat="47.230530" lon="8.591187">
<ele>755.4</ele>
<time>2003-06-27T10:23:04Z</time>
<speed>1.4</speed>
</trkpt>
<trkpt lat="47.230481" lon="8.591246">
<ele>755.0</ele>
<time>2003-06-27T10:23:09Z</time>
<speed>1.4</speed>
</trkpt>
<trkpt lat="47.230431" lon="8.591304">
<ele>756.0</ele>
<time>2003-06-27T10:23:14Z</time>
<speed>1.4</speed>
</trkpt>
<trkpt lat="47.230390" lon="8.591352">
<ele>754.8</ele>
<time>2003-06-27T10:23:19Z</time>
<speed>1.4</speed>
</trkpt>
<trkpt lat="47.230346" lon="8.591425">
<ele>755.3</ele>
<time>2003-06-27T10:23:24Z</time>
<speed>1.1</speed>
</trkpt>
<trkpt lat="47.230303" lon="8.591484">
<ele>755.6</ele>
<time>2003-06-27T10:23:29Z</time>
<speed>1.1</speed>
</trkpt>
<trkpt lat="47.230247" lon="8.591554">
<ele>755.9</ele>
<time>2003-06-27T10:23:34Z</time>
<speed>1.1</speed>
</trkpt>
<trkpt lat="47.230203" lon="8.591627">
<ele>756.4</ele>
<time>2003-06-27T10:23:39Z</time>
<speed>1.1</speed>
</trkpt>
<trkpt lat="47.230160" lon="8.591686">
<ele>756.7</ele>
<time>2003-06-27T10:23:44Z</time>
<speed>1.1</speed>
</trkpt>
<trkpt lat="47.230106" lon="8.591730">
<ele>756.8</ele>
<time>2003-06-27T10:23:49Z</time>
<speed>1.1</speed>
</trkpt>
<trkpt lat="47.230048" lon="8.591814">
<ele>757.3</ele>
<time>2003-06-27T10:23:54Z</time>
<speed>1.4</speed>
</trkpt>
<trkpt lat="47.229967" lon="8.591865">
<ele>758.8</ele>
<time>2003-06-27T10:23:59Z</time>
<speed>1.7</speed>
</trkpt>
<trkpt lat="47.229912" lon="8.591923">
<ele>759.1</ele>
<time>2003-06-27T10:24:04Z</time>
<speed>1.1</speed>
</trkpt>
<trkpt lat="47.229851" lon="8.591965">
<ele>759.9</ele>
<time>2003-06-27T10:24:09Z</time>
<speed>1.7</speed>
</trkpt>
<trkpt lat="47.229795" lon="8.592023">
<ele>760.2</ele>
<time>2003-06-27T10:24:14Z</time>
<speed>1.4</speed>
</trkpt>
<trkpt lat="47.229746" lon="8.592082">
<ele>759.7</ele>
<time>2003-06-27T10:24:19Z</time>
<speed>1.4</speed>
</trkpt>
<trkpt lat="47.229699" lon="8.592115">
<ele>759.1</ele>
<time>2003-06-27T10:24:24Z</time>
<speed>0.6</speed>
</trkpt>
<trkpt lat="47.229692" lon="8.592128">
<ele>758.5</ele>
<time>2003-06-27T10:24:29Z</time>
<speed>0.6</speed>
</trkpt>
<trkpt lat="47.229656" lon="8.592190">
<ele>758.1</ele>
<time>2003-06-27T10:24:34Z</time>
<speed>1.1</speed>
</trkpt>
<trkpt lat="47.229613" lon="8.592249">
<ele>758.5</ele>
<time>2003-06-27T10:24:39Z</time>
<speed>1.1</speed>
</trkpt>
<trkpt lat="47.229570" lon="8.592308">
<ele>758.8</ele>
<time>2003-06-27T10:24:44Z</time>
<speed>1.1</speed>
</trkpt>
<trkpt lat="47.229521" lon="8.592368">
<ele>758.4</ele>
<time>2003-06-27T10:24:49Z</time>
<speed>1.4</speed>
</trkpt>
<trkpt lat="47.229466" lon="8.592425">
<ele>758.6</ele>
<time>2003-06-27T10:24:54Z</time>
<speed>1.4</speed>
</trkpt>
<trkpt lat="47.229416" lon="8.592497">
<ele>758.3</ele>
<time>2003-06-27T10:24:59Z</time>
<speed>1.1</speed>
</trkpt>
<trkpt lat="47.229361" lon="8.592542">
<ele>758.5</ele>
<time>2003-06-27T10:25:04Z</time>
<speed>1.4</speed>
</trkpt>
<trkpt lat="47.229307" lon="8.592586">
<ele>758.6</ele>
<time>2003-06-27T10:25:09Z</time>
<speed>1.1</speed>
</trkpt>
<trkpt lat="47.229245" lon="8.592643">
<ele>758.1</ele>
<time>2003-06-27T10:25:14Z</time>
<speed>1.4</speed>
</trkpt>
<trkpt lat="47.229190" lon="8.592686">
<ele>759.7</ele>
<time>2003-06-27T10:25:19Z</time>
<speed>1.1</speed>
</trkpt>
<trkpt lat="47.229118" lon="8.592713">
<ele>760.4</ele>
<time>2003-06-27T10:25:24Z</time>
<speed>1.4</speed>
</trkpt>
<trkpt lat="47.229039" lon="8.592738">
<ele>761.7</ele>
<time>2003-06-27T10:25:29Z</time>
<speed>1.4</speed>
</trkpt>
<trkpt lat="47.228971" lon="8.592781">
<ele>761.8</ele>
<time>2003-06-27T10:25:34Z</time>
<speed>1.4</speed>
</trkpt>
<trkpt lat="47.228923" lon="8.592827">
<ele>761.3</ele>
<time>2003-06-27T10:25:39Z</time>
<speed>1.4</speed>
</trkpt>
<trkpt lat="47.228857" lon="8.592856">
<ele>761.3</ele>
<time>2003-06-27T10:25:44Z</time>
<speed>1.1</speed>
</trkpt>
<trkpt lat="47.228787" lon="8.592858">
<ele>761.7</ele>
<time>2003-06-27T10:25:49Z</time>
<speed>1.4</speed>
</trkpt>
<trkpt lat="47.228710" lon="8.592859">
<ele>761.5</ele>
<time>2003-06-27T10:25:54Z</time>
<speed>1.4</speed>
</trkpt>
<trkpt lat="47.228645" lon="8.592860">
<ele>762.7</ele>
<time>2003-06-27T10:25:59Z</time>
<speed>1.4</speed>
</trkpt>
<trkpt lat="47.228581" lon="8.592863">
<ele>762.4</ele>
<time>2003-06-27T10:26:04Z</time>
<speed>1.1</speed>
</trkpt>
<trkpt lat="47.228514" lon="8.592906">
<ele>762.5</ele>
<time>2003-06-27T10:26:09Z</time>
<speed>1.4</speed>
</trkpt>
<trkpt lat="47.228455" lon="8.592922">
<ele>763.2</ele>
<time>2003-06-27T10:26:14Z</time>
<speed>1.4</speed>
</trkpt>
<trkpt lat="47.228388" lon="8.592964">
<ele>763.3</ele>
<time>2003-06-27T10:26:19Z</time>
<speed>1.1</speed>
</trkpt>
<trkpt lat="47.228341" lon="8.592998">
<ele>762.6</ele>
<time>2003-06-27T10:26:24Z</time>
<speed>1.4</speed>
</trkpt>
<trkpt lat="47.228286" lon="8.593042">
<ele>762.8</ele>
<time>2003-06-27T10:26:29Z</time>
<speed>1.4</speed>
</trkpt>
<trkpt lat="47.228230" lon="8.593112">
<ele>763.1</ele>
<time>2003-06-27T10:26:34Z</time>
<speed>1.4</speed>
</trkpt>
<trkpt lat="47.228173" lon="8.593183">
<ele>763.5</ele>
<time>2003-06-27T10:26:39Z</time>
<speed>1.4</speed>
</trkpt>
<trkpt lat="47.228117" lon="8.593253">
<ele>763.9</ele>
<time>2003-06-27T10:26:44Z</time>
<speed>1.4</speed>
</trkpt>
<trkpt lat="47.228073" lon="8.593326">
<ele>764.3</ele>
<time>2003-06-27T10:26:49Z</time>
<speed>1.4</speed>
</trkpt>
<trkpt lat="47.228023" lon="8.593398">
<ele>764.0</ele>
<time>2003-06-27T10:26:54Z</time>
<speed>1.1</speed>
</trkpt>
<trkpt lat="47.227987" lon="8.593459">
<ele>763.6</ele>
<time>2003-06-27T10:26:59Z</time>
<speed>1.4</speed>
</trkpt>
<trkpt lat="47.227949" lon="8.593547">
<ele>763.5</ele>
<time>2003-06-27T10:27:04Z</time>
<speed>1.1</speed>
</trkpt>
<trkpt lat="47.227913" lon="8.593610">
<ele>761.7</ele>
<time>2003-06-27T10:27:09Z</time>
<speed>1.1</speed>
</trkpt>
<trkpt lat="47.227870" lon="8.593671">
<ele>760.6</ele>
<time>2003-06-27T10:27:14Z</time>
<speed>1.1</speed>
</trkpt>
<trkpt lat="47.227834" lon="8.593733">
<ele>760.3</ele>
<time>2003-06-27T10:27:19Z</time>
<speed>1.1</speed>
</trkpt>
<trkpt lat="47.227790" lon="8.593805">
<ele>760.7</ele>
<time>2003-06-27T10:27:24Z</time>
<speed>1.1</speed>
</trkpt>
<trkpt lat="47.227747" lon="8.593879">
<ele>759.7</ele>
<time>2003-06-27T10:27:29Z</time>
<speed>1.1</speed>
</trkpt>
<trkpt lat="47.227716" lon="8.593956">
<ele>758.8</ele>
<time>2003-06-27T10:27:34Z</time>
<speed>1.1</speed>
</trkpt>
<trkpt lat="47.227672" lon="8.594028">
<ele>759.2</ele>
<time>2003-06-27T10:27:39Z</time>
<speed>1.4</speed>
</trkpt>
<trkpt lat="47.227635" lon="8.594103">
<ele>759.0</ele>
<time>2003-06-27T10:27:44Z</time>
<speed>1.1</speed>
</trkpt>
<trkpt lat="47.227597" lon="8.594175">
<ele>760.1</ele>
<time>2003-06-27T10:27:49Z</time>
<speed>1.1</speed>
</trkpt>
<trkpt lat="47.227568" lon="8.594223">
<ele>760.4</ele>
<time>2003-06-27T10:27:54Z</time>
<speed>0.8</speed>
</trkpt>
<trkpt lat="47.227562" lon="8.594223">
<ele>759.7</ele>
<time>2003-06-27T10:27:59Z</time>
<speed>0.0</speed>
</trkpt>
<trkpt lat="47.227562" lon="8.594223">
<ele>759.7</ele>
<time>2003-06-27T10:28:04Z</time>
<speed>0.0</speed>
</trkpt>
<trkpt lat="47.227562" lon="8.594223">
<ele>759.7</ele>
<time>2003-06-27T10:28:09Z</time>
<speed>0.0</speed>
</trkpt>
<trkpt lat="47.227562" lon="8.594223">
<ele>759.7</ele>
<time>2003-06-27T10:28:14Z</time>
<speed>0.0</speed>
</trkpt>
<trkpt lat="47.227562" lon="8.594223">
<ele>759.7</ele>
<time>2003-06-27T10:28:19Z</time>
<speed>0.0</speed>
</trkpt>
<trkpt lat="47.227567" lon="8.594236">
<ele>760.5</ele>
<time>2003-06-27T10:28:24Z</time>
<speed>0.0</speed>
</trkpt>
<trkpt lat="47.227561" lon="8.594236">
<ele>759.8</ele>
<time>2003-06-27T10:28:29Z</time>
<speed>0.0</speed>
</trkpt>
<trkpt lat="47.227561" lon="8.594236">
<ele>759.8</ele>
<time>2003-06-27T10:28:34Z</time>
<speed>0.0</speed>
</trkpt>
<trkpt lat="47.227553" lon="8.594247">
<ele>760.5</ele>
<time>2003-06-27T10:28:39Z</time>
<speed>0.3</speed>
</trkpt>
<trkpt lat="47.227543" lon="8.594300">
<ele>760.2</ele>
<time>2003-06-27T10:28:44Z</time>
<speed>0.6</speed>
</trkpt>
<trkpt lat="47.227527" lon="8.594350">
<ele>760.6</ele>
<time>2003-06-27T10:28:49Z</time>
<speed>0.8</speed>
</trkpt>
<trkpt lat="47.227510" lon="8.594400">
<ele>760.9</ele>
<time>2003-06-27T10:28:54Z</time>
<speed>0.8</speed>
</trkpt>
<trkpt lat="47.227509" lon="8.594428">
<ele>759.7</ele>
<time>2003-06-27T10:28:59Z</time>
<speed>0.0</speed>
</trkpt>
<trkpt lat="47.227508" lon="8.594441">
<ele>759.8</ele>
<time>2003-06-27T10:29:04Z</time>
<speed>0.0</speed>
</trkpt>
<trkpt lat="47.227514" lon="8.594443">
<ele>759.1</ele>
<time>2003-06-27T10:29:10Z</time>
<speed>0.0</speed>
</trkpt>
<trkpt lat="47.227515" lon="8.594430">
<ele>759.0</ele>
<time>2003-06-27T10:29:15Z</time>
<speed>0.0</speed>
</trkpt>
<trkpt lat="47.227522" lon="8.594432">
<ele>758.3</ele>
<time>2003-06-27T10:29:20Z</time>
<speed>0.0</speed>
</trkpt>
<trkpt lat="47.227522" lon="8.594432">
<ele>758.3</ele>
<time>2003-06-27T10:29:25Z</time>
<speed>0.0</speed>
</trkpt>
<trkpt lat="47.227522" lon="8.594432">
<ele>758.3</ele>
<time>2003-06-27T10:29:30Z</time>
<speed>0.0</speed>
</trkpt>
<trkpt lat="47.227515" lon="8.594432">
<ele>757.6</ele>
<time>2003-06-27T10:29:35Z</time>
<speed>0.0</speed>
</trkpt>
<trkpt lat="47.227515" lon="8.594432">
<ele>757.6</ele>
<time>2003-06-27T10:29:40Z</time>
<speed>0.0</speed>
</trkpt>
<trkpt lat="47.227515" lon="8.594432">
<ele>757.6</ele>
<time>2003-06-27T10:29:45Z</time>
<speed>0.0</speed>
</trkpt>
<trkpt lat="47.227498" lon="8.594495">
<ele>758.1</ele>
<time>2003-06-27T10:29:50Z</time>
<speed>0.6</speed>
</trkpt>
<trkpt lat="47.227487" lon="8.594561">
<ele>757.8</ele>
<time>2003-06-27T10:29:55Z</time>
<speed>0.8</speed>
</trkpt>
<trkpt lat="47.227470" lon="8.594611">
<ele>758.2</ele>
<time>2003-06-27T10:30:00Z</time>
<speed>0.8</speed>
</trkpt>
<trkpt lat="47.227452" lon="8.594689">
<ele>757.3</ele>
<time>2003-06-27T10:30:05Z</time>
<speed>1.1</speed>
</trkpt>
<trkpt lat="47.227443" lon="8.594728">
<ele>756.9</ele>
<time>2003-06-27T10:30:10Z</time>
<speed>0.0</speed>
</trkpt>
<trkpt lat="47.227438" lon="8.594713">
<ele>757.5</ele>
<time>2003-06-27T10:30:15Z</time>
<speed>0.3</speed>
</trkpt>
<trkpt lat="47.227433" lon="8.594685">
<ele>757.9</ele>
<time>2003-06-27T10:30:20Z</time>
<speed>0.0</speed>
</trkpt>
<trkpt lat="47.227442" lon="8.594646">
<ele>758.4</ele>
<time>2003-06-27T10:30:25Z</time>
<speed>0.6</speed>
</trkpt>
<trkpt lat="47.227453" lon="8.594596">
<ele>757.3</ele>
<time>2003-06-27T10:30:30Z</time>
<speed>0.3</speed>
</trkpt>
<trkpt lat="47.227453" lon="8.594596">
<ele>757.3</ele>
<time>2003-06-27T10:30:35Z</time>
<speed>0.0</speed>
</trkpt>
<trkpt lat="47.227454" lon="8.594583">
<ele>757.2</ele>
<time>2003-06-27T10:30:40Z</time>
<speed>0.0</speed>
</trkpt>
<trkpt lat="47.227454" lon="8.594583">
<ele>757.2</ele>
<time>2003-06-27T10:30:45Z</time>
<speed>0.0</speed>
</trkpt>
<trkpt lat="47.227454" lon="8.594583">
<ele>757.2</ele>
<time>2003-06-27T10:30:50Z</time>
<speed>0.0</speed>
</trkpt>
<trkpt lat="47.227461" lon="8.594572">
<ele>756.4</ele>
<time>2003-06-27T10:30:55Z</time>
<speed>0.0</speed>
</trkpt>
<trkpt lat="47.227446" lon="8.594611">
<ele>755.2</ele>
<time>2003-06-27T10:31:00Z</time>
<speed>1.1</speed>
</trkpt>
<trkpt lat="47.227428" lon="8.594689">
<ele>754.4</ele>
<time>2003-06-27T10:31:05Z</time>
<speed>1.1</speed>
</trkpt>
<trkpt lat="47.227402" lon="8.594779">
<ele>754.3</ele>
<time>2003-06-27T10:31:10Z</time>
<speed>1.1</speed>
</trkpt>
<trkpt lat="47.227378" lon="8.594842">
<ele>754.0</ele>
<time>2003-06-27T10:31:15Z</time>
<speed>1.1</speed>
</trkpt>
<trkpt lat="47.227348" lon="8.594903">
<ele>754.4</ele>
<time>2003-06-27T10:31:20Z</time>
<speed>1.1</speed>
</trkpt>
<trkpt lat="47.227324" lon="8.594980">
<ele>754.2</ele>
<time>2003-06-27T10:31:25Z</time>
<speed>1.1</speed>
</trkpt>
<trkpt lat="47.227288" lon="8.595028">
<ele>753.7</ele>
<time>2003-06-27T10:31:30Z</time>
<speed>1.1</speed>
</trkpt>
<trkpt lat="47.227252" lon="8.595089">
<ele>753.4</ele>
<time>2003-06-27T10:31:35Z</time>
<speed>1.1</speed>
</trkpt>
<trkpt lat="47.227217" lon="8.595138">
<ele>752.9</ele>
<time>2003-06-27T10:31:40Z</time>
<speed>1.1</speed>
</trkpt>
<trkpt lat="47.227170" lon="8.595171">
<ele>752.3</ele>
<time>2003-06-27T10:31:45Z</time>
<speed>0.8</speed>
</trkpt>
<trkpt lat="47.227128" lon="8.595217">
<ele>752.5</ele>
<time>2003-06-27T10:31:50Z</time>
<speed>1.1</speed>
</trkpt>
<trkpt lat="47.227088" lon="8.595239">
<ele>751.2</ele>
<time>2003-06-27T10:31:55Z</time>
<speed>1.1</speed>
</trkpt>
<trkpt lat="47.227040" lon="8.595286">
<ele>750.6</ele>
<time>2003-06-27T10:32:00Z</time>
<speed>0.8</speed>
</trkpt>
<trkpt lat="47.226993" lon="8.595319">
<ele>750.0</ele>
<time>2003-06-27T10:32:05Z</time>
<speed>0.8</speed>
</trkpt>
<trkpt lat="47.226947" lon="8.595339">
<ele>749.3</ele>
<time>2003-06-27T10:32:10Z</time>
<speed>0.8</speed>
</trkpt>
<trkpt lat="47.226907" lon="8.595359">
<ele>749.3</ele>
<time>2003-06-27T10:32:15Z</time>
<speed>1.1</speed>
</trkpt>
<trkpt lat="47.226861" lon="8.595392">
<ele>748.7</ele>
<time>2003-06-27T10:32:20Z</time>
<speed>1.1</speed>
</trkpt>
<trkpt lat="47.226808" lon="8.595411">
<ele>748.7</ele>
<time>2003-06-27T10:32:25Z</time>
<speed>1.4</speed>
</trkpt>
<trkpt lat="47.226754" lon="8.595457">
<ele>747.4</ele>
<time>2003-06-27T10:32:30Z</time>
<speed>1.1</speed>
</trkpt>
<trkpt lat="47.226695" lon="8.595475">
<ele>746.6</ele>
<time>2003-06-27T10:32:35Z</time>
<speed>1.1</speed>
</trkpt>
<trkpt lat="47.226643" lon="8.595493">
<ele>746.6</ele>
<time>2003-06-27T10:32:40Z</time>
<speed>1.1</speed>
</trkpt>
<trkpt lat="47.226583" lon="8.595525">
<ele>745.9</ele>
<time>2003-06-27T10:32:45Z</time>
<speed>1.1</speed>
</trkpt>
<trkpt lat="47.226530" lon="8.595556">
<ele>745.9</ele>
<time>2003-06-27T10:32:50Z</time>
<speed>1.1</speed>
</trkpt>
<trkpt lat="47.226477" lon="8.595574">
<ele>745.9</ele>
<time>2003-06-27T10:32:55Z</time>
<speed>1.4</speed>
</trkpt>
<trkpt lat="47.226418" lon="8.595605">
<ele>745.2</ele>
<time>2003-06-27T10:33:00Z</time>
<speed>1.4</speed>
</trkpt>
<trkpt lat="47.226357" lon="8.595650">
<ele>744.6</ele>
<time>2003-06-27T10:33:05Z</time>
<speed>1.1</speed>
</trkpt>
<trkpt lat="47.226296" lon="8.595694">
<ele>744.1</ele>
<time>2003-06-27T10:33:10Z</time>
<speed>1.4</speed>
</trkpt>
<trkpt lat="47.226236" lon="8.595738">
<ele>743.5</ele>
<time>2003-06-27T10:33:15Z</time>
<speed>1.4</speed>
</trkpt>
<trkpt lat="47.226182" lon="8.595770">
<ele>743.5</ele>
<time>2003-06-27T10:33:20Z</time>
<speed>1.1</speed>
</trkpt>
<trkpt lat="47.226128" lon="8.595814">
<ele>743.7</ele>
<time>2003-06-27T10:33:25Z</time>
<speed>1.1</speed>
</trkpt>
<trkpt lat="47.226085" lon="8.595875">
<ele>742.6</ele>
<time>2003-06-27T10:33:30Z</time>
<speed>1.1</speed>
</trkpt>
<trkpt lat="47.226036" lon="8.595935">
<ele>742.2</ele>
<time>2003-06-27T10:33:35Z</time>
<speed>1.4</speed>
</trkpt>
<trkpt lat="47.225999" lon="8.596009">
<ele>741.9</ele>
<time>2003-06-27T10:33:40Z</time>
<speed>1.4</speed>
</trkpt>
<trkpt lat="47.225981" lon="8.596087">
<ele>741.1</ele>
<time>2003-06-27T10:33:45Z</time>
<speed>1.4</speed>
</trkpt>
<trkpt lat="47.225949" lon="8.596177">
<ele>740.3</ele>
<time>2003-06-27T10:33:50Z</time>
<speed>1.4</speed>
</trkpt>
<trkpt lat="47.225938" lon="8.596257">
<ele>738.7</ele>
<time>2003-06-27T10:33:55Z</time>
<speed>1.1</speed>
</trkpt>
<trkpt lat="47.225926" lon="8.596335">
<ele>738.6</ele>
<time>2003-06-27T10:34:00Z</time>
<speed>1.1</speed>
</trkpt>
<trkpt lat="47.225920" lon="8.596416">
<ele>737.8</ele>
<time>2003-06-27T10:34:05Z</time>
<speed>1.1</speed>
</trkpt>
<trkpt lat="47.225921" lon="8.596496">
<ele>737.8</ele>
<time>2003-06-27T10:34:10Z</time>
<speed>0.8</speed>
</trkpt>
<trkpt lat="47.225922" lon="8.596578">
<ele>736.3</ele>
<time>2003-06-27T10:34:15Z</time>
<speed>0.8</speed>
</trkpt>
<trkpt lat="47.225923" lon="8.596661">
<ele>734.8</ele>
<time>2003-06-27T10:34:20Z</time>
<speed>0.8</speed>
</trkpt>
<trkpt lat="47.225918" lon="8.596728">
<ele>733.9</ele>
<time>2003-06-27T10:34:25Z</time>
<speed>0.8</speed>
</trkpt>
<trkpt lat="47.225918" lon="8.596821">
<ele>734.0</ele>
<time>2003-06-27T10:34:30Z</time>
<speed>1.1</speed>
</trkpt>
<trkpt lat="47.225911" lon="8.596913">
<ele>734.7</ele>
<time>2003-06-27T10:34:35Z</time>
<speed>1.1</speed>
</trkpt>
<trkpt lat="47.225905" lon="8.596991">
<ele>735.3</ele>
<time>2003-06-27T10:34:40Z</time>
<speed>0.8</speed>
</trkpt>
<trkpt lat="47.225911" lon="8.597086">
<ele>734.6</ele>
<time>2003-06-27T10:34:45Z</time>
<speed>1.1</speed>
</trkpt>
<trkpt lat="47.225899" lon="8.597163">
<ele>735.9</ele>
<time>2003-06-27T10:34:50Z</time>
<speed>0.8</speed>
</trkpt>
<trkpt lat="47.225877" lon="8.597198">
<ele>736.8</ele>
<time>2003-06-27T10:34:55Z</time>
<speed>0.3</speed>
</trkpt>
<trkpt lat="47.225864" lon="8.597274">
<ele>738.1</ele>
<time>2003-06-27T10:35:00Z</time>
<speed>0.8</speed>
</trkpt>
<trkpt lat="47.225859" lon="8.597339">
<ele>738.6</ele>
<time>2003-06-27T10:35:05Z</time>
<speed>0.6</speed>
</trkpt>
<trkpt lat="47.225859" lon="8.597433">
<ele>738.7</ele>
<time>2003-06-27T10:35:10Z</time>
<speed>0.8</speed>
</trkpt>
<trkpt lat="47.225883" lon="8.597560">
<ele>736.2</ele>
<time>2003-06-27T10:35:15Z</time>
<speed>1.4</speed>
</trkpt>
<trkpt lat="47.225923" lon="8.597637">
<ele>733.4</ele>
<time>2003-06-27T10:35:20Z</time>
<speed>0.6</speed>
</trkpt>
<trkpt lat="47.225941" lon="8.597669">
<ele>731.6</ele>
<time>2003-06-27T10:35:25Z</time>
<speed>0.0</speed>
</trkpt>
<trkpt lat="47.225947" lon="8.597669">
<ele>732.4</ele>
<time>2003-06-27T10:35:30Z</time>
<speed>0.0</speed>
</trkpt>
<trkpt lat="47.225965" lon="8.597671">
<ele>733.2</ele>
<time>2003-06-27T10:35:35Z</time>
<speed>0.3</speed>
</trkpt>
<trkpt lat="47.225970" lon="8.597697">
<ele>734.1</ele>
<time>2003-06-27T10:35:40Z</time>
<speed>0.3</speed>
</trkpt>
<trkpt lat="47.225973" lon="8.597736">
<ele>735.1</ele>
<time>2003-06-27T10:35:45Z</time>
<speed>0.3</speed>
</trkpt>
<trkpt lat="47.225984" lon="8.597751">
<ele>735.3</ele>
<time>2003-06-27T10:35:50Z</time>
<speed>0.0</speed>
</trkpt>
<trkpt lat="47.225990" lon="8.597751">
<ele>736.0</ele>
<time>2003-06-27T10:35:55Z</time>
<speed>0.0</speed>
</trkpt>
<trkpt lat="47.225964" lon="8.597761">
<ele>736.0</ele>
<time>2003-06-27T10:36:00Z</time>
<speed>0.6</speed>
</trkpt>
<trkpt lat="47.225924" lon="8.597781">
<ele>736.0</ele>
<time>2003-06-27T10:36:06Z</time>
<speed>0.8</speed>
</trkpt>
<trkpt lat="47.225905" lon="8.597872">
<ele>735.3</ele>
<time>2003-06-27T10:36:19Z</time>
<speed>0.3</speed>
</trkpt>
<trkpt lat="47.225922" lon="8.597822">
<ele>734.9</ele>
<time>2003-06-27T10:36:24Z</time>
<speed>0.0</speed>
</trkpt>
<trkpt lat="47.225917" lon="8.597794">
<ele>735.4</ele>
<time>2003-06-27T10:36:30Z</time>
<speed>0.0</speed>
</trkpt>
<trkpt lat="47.225907" lon="8.597846">
<ele>735.1</ele>
<time>2003-06-27T10:36:38Z</time>
<speed>0.8</speed>
</trkpt>
<trkpt lat="47.225904" lon="8.597805">
<ele>735.4</ele>
<time>2003-06-27T10:36:43Z</time>
<speed>0.3</speed>
</trkpt>
<trkpt lat="47.225929" lon="8.597715">
<ele>735.5</ele>
<time>2003-06-27T10:36:52Z</time>
<speed>0.3</speed>
</trkpt>
<trkpt lat="47.225927" lon="8.597665">
<ele>733.0</ele>
<time>2003-06-27T10:36:59Z</time>
<speed>0.0</speed>
</trkpt>
<trkpt lat="47.225950" lon="8.597630">
<ele>732.1</ele>
<time>2003-06-27T10:37:04Z</time>
<speed>0.3</speed>
</trkpt>
<trkpt lat="47.225967" lon="8.597645">
<ele>733.0</ele>
<time>2003-06-27T10:37:09Z</time>
<speed>0.3</speed>
</trkpt>
<trkpt lat="47.225972" lon="8.597658">
<ele>733.8</ele>
<time>2003-06-27T10:37:14Z</time>
<speed>0.0</speed>
</trkpt>
<trkpt lat="47.225973" lon="8.597645">
<ele>733.7</ele>
<time>2003-06-27T10:37:21Z</time>
<speed>0.0</speed>
</trkpt>
<trkpt lat="47.225969" lon="8.597619">
<ele>732.7</ele>
<time>2003-06-27T10:37:26Z</time>
<speed>0.0</speed>
</trkpt>
<trkpt lat="47.225958" lon="8.597604">
<ele>732.6</ele>
<time>2003-06-27T10:37:31Z</time>
<speed>0.0</speed>
</trkpt>
<trkpt lat="47.225944" lon="8.597615">
<ele>732.6</ele>
<time>2003-06-27T10:37:36Z</time>
<speed>0.0</speed>
</trkpt>
<trkpt lat="47.225929" lon="8.597639">
<ele>732.8</ele>
<time>2003-06-27T10:37:41Z</time>
<speed>0.3</speed>
</trkpt>
<trkpt lat="47.225914" lon="8.597676">
<ele>733.0</ele>
<time>2003-06-27T10:37:46Z</time>
<speed>0.6</speed>
</trkpt>
<trkpt lat="47.225914" lon="8.597757">
<ele>732.9</ele>
<time>2003-06-27T10:37:51Z</time>
<speed>0.8</speed>
</trkpt>
<trkpt lat="47.225928" lon="8.597746">
<ele>732.9</ele>
<time>2003-06-27T10:37:56Z</time>
<speed>0.0</speed>
</trkpt>
<trkpt lat="47.225916" lon="8.597729">
<ele>734.1</ele>
<time>2003-06-27T10:38:03Z</time>
<speed>0.0</speed>
</trkpt>
<trkpt lat="47.225908" lon="8.597755">
<ele>733.6</ele>
<time>2003-06-27T10:38:08Z</time>
<speed>0.6</speed>
</trkpt>
<trkpt lat="47.225894" lon="8.597766">
<ele>733.7</ele>
<time>2003-06-27T10:38:14Z</time>
<speed>0.0</speed>
</trkpt>
<trkpt lat="47.225903" lon="8.597742">
<ele>732.8</ele>
<time>2003-06-27T10:38:25Z</time>
<speed>0.3</speed>
</trkpt>
<trkpt lat="47.225902" lon="8.597755">
<ele>732.9</ele>
<time>2003-06-27T10:38:39Z</time>
<speed>0.0</speed>
</trkpt>
<trkpt lat="47.225903" lon="8.597742">
<ele>732.8</ele>
<time>2003-06-27T10:38:44Z</time>
<speed>0.0</speed>
</trkpt>
<trkpt lat="47.225890" lon="8.597740">
<ele>732.7</ele>
<time>2003-06-27T10:38:49Z</time>
<speed>0.0</speed>
</trkpt>
<trkpt lat="47.225885" lon="8.597725">
<ele>733.3</ele>
<time>2003-06-27T10:38:54Z</time>
<speed>0.0</speed>
</trkpt>
<trkpt lat="47.225888" lon="8.597685">
<ele>733.0</ele>
<time>2003-06-27T10:38:59Z</time>
<speed>0.0</speed>
</trkpt>
<trkpt lat="47.225909" lon="8.597648">
<ele>733.5</ele>
<time>2003-06-27T10:39:07Z</time>
<speed>0.0</speed>
</trkpt>
<trkpt lat="47.225946" lon="8.597587">
<ele>733.8</ele>
<time>2003-06-27T10:39:18Z</time>
<speed>0.0</speed>
</trkpt>
<trkpt lat="47.225940" lon="8.597574">
<ele>733.0</ele>
<time>2003-06-27T10:39:24Z</time>
<speed>0.0</speed>
</trkpt>
<trkpt lat="47.225921" lon="8.597570">
<ele>733.6</ele>
<time>2003-06-27T10:39:33Z</time>
<speed>0.3</speed>
</trkpt>
<trkpt lat="47.225936" lon="8.597546">
<ele>733.5</ele>
<time>2003-06-27T10:39:38Z</time>
<speed>0.3</speed>
</trkpt>
<trkpt lat="47.225937" lon="8.597535">
<ele>732.0</ele>
<time>2003-06-27T10:39:50Z</time>
<speed>0.0</speed>
</trkpt>
<trkpt lat="47.225922" lon="8.597572">
<ele>732.2</ele>
<time>2003-06-27T10:39:55Z</time>
<speed>0.3</speed>
</trkpt>
<trkpt lat="47.225935" lon="8.597576">
<ele>730.9</ele>
<time>2003-06-27T10:40:08Z</time>
<speed>0.0</speed>
</trkpt>
<trkpt lat="47.226026" lon="8.597724">
<ele>731.0</ele>
<time>2003-06-27T10:40:44Z</time>
<speed>0.3</speed>
</trkpt>
<trkpt lat="47.225951" lon="8.597697">
<ele>731.9</ele>
<time>2003-06-27T10:40:52Z</time>
<speed>0.6</speed>
</trkpt>
<trkpt lat="47.225968" lon="8.597725">
<ele>732.9</ele>
<time>2003-06-27T10:40:58Z</time>
<speed>0.8</speed>
</trkpt>
<trkpt lat="47.225983" lon="8.597701">
<ele>732.7</ele>
<time>2003-06-27T10:41:03Z</time>
<speed>0.3</speed>
</trkpt>
<trkpt lat="47.226026" lon="8.597629">
<ele>732.3</ele>
<time>2003-06-27T10:41:08Z</time>
<speed>0.3</speed>
</trkpt>
<trkpt lat="47.226025" lon="8.597642">
<ele>732.4</ele>
<time>2003-06-27T10:41:13Z</time>
<speed>0.0</speed>
</trkpt>
<trkpt lat="47.226025" lon="8.597642">
<ele>732.4</ele>
<time>2003-06-27T10:41:18Z</time>
<speed>0.3</speed>
</trkpt>
<trkpt lat="47.226022" lon="8.597681">
<ele>732.7</ele>
<time>2003-06-27T10:41:23Z</time>
<speed>0.6</speed>
</trkpt>
<trkpt lat="47.226002" lon="8.597705">
<ele>732.1</ele>
<time>2003-06-27T10:41:29Z</time>
<speed>0.3</speed>
</trkpt>
<trkpt lat="47.226068" lon="8.597676">
<ele>732.1</ele>
<time>2003-06-27T10:41:43Z</time>
<speed>0.3</speed>
</trkpt>
<trkpt lat="47.226082" lon="8.597652">
<ele>732.0</ele>
<time>2003-06-27T10:41:48Z</time>
<speed>0.3</speed>
</trkpt>
<trkpt lat="47.226056" lon="8.597661">
<ele>732.0</ele>
<time>2003-06-27T10:42:01Z</time>
<speed>0.3</speed>
</trkpt>
<trkpt lat="47.226069" lon="8.597663">
<ele>732.0</ele>
<time>2003-06-27T10:42:06Z</time>
<speed>1.1</speed>
</trkpt>
<trkpt lat="47.226061" lon="8.597594">
<ele>732.9</ele>
<time>2003-06-27T10:42:11Z</time>
<speed>0.8</speed>
</trkpt>
<trkpt lat="47.226036" lon="8.597577">
<ele>732.7</ele>
<time>2003-06-27T10:42:16Z</time>
<speed>0.0</speed>
</trkpt>
<trkpt lat="47.226026" lon="8.597549">
<ele>732.4</ele>
<time>2003-06-27T10:42:21Z</time>
<speed>0.3</speed>
</trkpt>
<trkpt lat="47.225971" lon="8.597593">
<ele>732.5</ele>
<time>2003-06-27T10:42:27Z</time>
<speed>0.8</speed>
</trkpt>
<trkpt lat="47.225955" lon="8.597643">
<ele>732.9</ele>
<time>2003-06-27T10:42:32Z</time>
<speed>0.6</speed>
</trkpt>
<trkpt lat="47.226019" lon="8.597545">
<ele>734.5</ele>
<time>2003-06-27T10:42:47Z</time>
<speed>0.0</speed>
</trkpt>
<trkpt lat="47.226007" lon="8.597530">
<ele>734.3</ele>
<time>2003-06-27T10:42:52Z</time>
<speed>0.0</speed>
</trkpt>
<trkpt lat="47.225997" lon="8.597503">
<ele>732.6</ele>
<time>2003-06-27T10:42:57Z</time>
<speed>0.3</speed>
</trkpt>
<trkpt lat="47.226005" lon="8.597477">
<ele>733.2</ele>
<time>2003-06-27T10:43:02Z</time>
<speed>0.0</speed>
</trkpt>
<trkpt lat="47.226020" lon="8.597453">
<ele>733.0</ele>
<time>2003-06-27T10:43:07Z</time>
<speed>0.3</speed>
</trkpt>
<trkpt lat="47.226035" lon="8.597416">
<ele>732.8</ele>
<time>2003-06-27T10:43:12Z</time>
<speed>0.3</speed>
</trkpt>
<trkpt lat="47.226042" lon="8.597418">
<ele>732.1</ele>
<time>2003-06-27T10:43:17Z</time>
<speed>0.0</speed>
</trkpt>
<trkpt lat="47.226041" lon="8.597431">
<ele>732.2</ele>
<time>2003-06-27T10:43:22Z</time>
<speed>0.0</speed>
</trkpt>
<trkpt lat="47.226027" lon="8.597442">
<ele>732.2</ele>
<time>2003-06-27T10:43:27Z</time>
<speed>0.3</speed>
</trkpt>
<trkpt lat="47.226013" lon="8.597466">
<ele>732.4</ele>
<time>2003-06-27T10:43:32Z</time>
<speed>0.3</speed>
</trkpt>
<trkpt lat="47.226005" lon="8.597477">
<ele>733.2</ele>
<time>2003-06-27T10:43:37Z</time>
<speed>0.3</speed>
</trkpt>
<trkpt lat="47.225984" lon="8.597501">
<ele>732.6</ele>
<time>2003-06-27T10:43:44Z</time>
<speed>0.3</speed>
</trkpt>
<trkpt lat="47.226016" lon="8.597507">
<ele>732.0</ele>
<time>2003-06-27T10:43:57Z</time>
<speed>0.3</speed>
</trkpt>
<trkpt lat="47.226033" lon="8.597520">
<ele>734.3</ele>
<time>2003-06-27T10:44:02Z</time>
<speed>0.0</speed>
</trkpt>
<trkpt lat="47.226039" lon="8.597533">
<ele>735.2</ele>
<time>2003-06-27T10:44:07Z</time>
<speed>0.0</speed>
</trkpt>
<trkpt lat="47.226030" lon="8.597558">
<ele>736.0</ele>
<time>2003-06-27T10:44:12Z</time>
<speed>0.0</speed>
</trkpt>
<trkpt lat="47.226023" lon="8.597569">
<ele>736.8</ele>
<time>2003-06-27T10:44:17Z</time>
<speed>0.0</speed>
</trkpt>
<trkpt lat="47.226003" lon="8.597580">
<ele>736.1</ele>
<time>2003-06-27T10:44:28Z</time>
<speed>0.0</speed>
</trkpt>
<trkpt lat="47.226038" lon="8.597549">
<ele>733.9</ele>
<time>2003-06-27T10:44:46Z</time>
<speed>0.0</speed>
</trkpt>
<trkpt lat="47.226031" lon="8.597468">
<ele>733.2</ele>
<time>2003-06-27T10:44:51Z</time>
<speed>0.3</speed>
</trkpt>
<trkpt lat="47.226001" lon="8.597528">
<ele>735.0</ele>
<time>2003-06-27T10:46:23Z</time>
<speed>0.0</speed>
</trkpt>
<trkpt lat="47.225991" lon="8.597580">
<ele>734.6</ele>
<time>2003-06-27T10:46:28Z</time>
<speed>1.1</speed>
</trkpt>
<trkpt lat="47.225960" lon="8.597641">
<ele>735.0</ele>
<time>2003-06-27T10:46:33Z</time>
<speed>0.8</speed>
</trkpt>
<trkpt lat="47.225928" lon="8.597729">
<ele>735.6</ele>
<time>2003-06-27T10:46:40Z</time>
<speed>1.1</speed>
</trkpt>
<trkpt lat="47.225918" lon="8.597700">
<ele>735.3</ele>
<time>2003-06-27T10:46:45Z</time>
<speed>0.3</speed>
</trkpt>
<trkpt lat="47.225914" lon="8.597659">
<ele>735.7</ele>
<time>2003-06-27T10:46:52Z</time>
<speed>0.0</speed>
</trkpt>
<trkpt lat="47.225983" lon="8.597591">
<ele>735.4</ele>
<time>2003-06-27T10:47:05Z</time>
<speed>0.6</speed>
</trkpt>
<trkpt lat="47.225988" lon="8.597619">
<ele>735.0</ele>
<time>2003-06-27T10:47:10Z</time>
<speed>0.3</speed>
</trkpt>
<trkpt lat="47.225984" lon="8.597578">
<ele>735.3</ele>
<time>2003-06-27T10:47:15Z</time>
<speed>0.0</speed>
</trkpt>
<trkpt lat="47.225961" lon="8.597628">
<ele>734.9</ele>
<time>2003-06-27T10:47:20Z</time>
<speed>0.3</speed>
</trkpt>
<trkpt lat="47.225946" lon="8.597665">
<ele>735.2</ele>
<time>2003-06-27T10:47:25Z</time>
<speed>0.0</speed>
</trkpt>
<trkpt lat="47.225954" lon="8.597641">
<ele>734.3</ele>
<time>2003-06-27T10:47:30Z</time>
<speed>0.0</speed>
</trkpt>
<trkpt lat="47.225964" lon="8.597682">
<ele>734.7</ele>
<time>2003-06-27T10:47:35Z</time>
<speed>0.6</speed>
</trkpt>
<trkpt lat="47.225971" lon="8.597669">
<ele>735.3</ele>
<time>2003-06-27T10:47:40Z</time>
<speed>0.0</speed>
</trkpt>
<trkpt lat="47.225990" lon="8.597673">
<ele>734.7</ele>
<time>2003-06-27T10:47:45Z</time>
<speed>0.6</speed>
</trkpt>
<trkpt lat="47.225997" lon="8.597660">
<ele>735.3</ele>
<time>2003-06-27T10:47:50Z</time>
<speed>0.0</speed>
</trkpt>
<trkpt lat="47.226010" lon="8.597586">
<ele>732.6</ele>
<time>2003-06-27T10:47:55Z</time>
<speed>0.6</speed>
</trkpt>
<trkpt lat="47.226017" lon="8.597573">
<ele>733.3</ele>
<time>2003-06-27T10:48:00Z</time>
<speed>0.0</speed>
</trkpt>
<trkpt lat="47.226032" lon="8.597549">
<ele>733.1</ele>
<time>2003-06-27T10:48:05Z</time>
<speed>0.0</speed>
</trkpt>
<trkpt lat="47.226039" lon="8.597535">
<ele>733.8</ele>
<time>2003-06-27T10:48:10Z</time>
<speed>0.0</speed>
</trkpt>
<trkpt lat="47.226026" lon="8.597533">
<ele>733.7</ele>
<time>2003-06-27T10:48:15Z</time>
<speed>0.3</speed>
</trkpt>
<trkpt lat="47.226013" lon="8.597545">
<ele>733.7</ele>
<time>2003-06-27T10:48:20Z</time>
<speed>0.3</speed>
</trkpt>
<trkpt lat="47.226014" lon="8.597516">
<ele>734.9</ele>
<time>2003-06-27T10:48:48Z</time>
<speed>0.6</speed>
</trkpt>
<trkpt lat="47.226036" lon="8.597479">
<ele>735.4</ele>
<time>2003-06-27T10:48:53Z</time>
<speed>0.0</speed>
</trkpt>
<trkpt lat="47.226029" lon="8.597492">
<ele>734.8</ele>
<time>2003-06-27T10:48:58Z</time>
<speed>0.0</speed>
</trkpt>
<trkpt lat="47.226022" lon="8.597490">
<ele>735.5</ele>
<time>2003-06-27T10:49:03Z</time>
<speed>0.0</speed>
</trkpt>
<trkpt lat="47.226016" lon="8.597490">
<ele>734.7</ele>
<time>2003-06-27T10:49:08Z</time>
<speed>0.0</speed>
</trkpt>
<trkpt lat="47.226011" lon="8.597475">
<ele>735.3</ele>
<time>2003-06-27T10:49:13Z</time>
<speed>0.0</speed>
</trkpt>
<trkpt lat="47.226026" lon="8.597438">
<ele>735.1</ele>
<time>2003-06-27T10:49:18Z</time>
<speed>0.3</speed>
</trkpt>
<trkpt lat="47.226008" lon="8.597436">
<ele>734.3</ele>
<time>2003-06-27T10:49:23Z</time>
<speed>0.3</speed>
</trkpt>
<trkpt lat="47.225988" lon="8.597432">
<ele>734.9</ele>
<time>2003-06-27T10:49:36Z</time>
<speed>0.0</speed>
</trkpt>
<trkpt lat="47.226001" lon="8.597339">
<ele>736.3</ele>
<time>2003-06-27T10:49:47Z</time>
<speed>0.8</speed>
</trkpt>
<trkpt lat="47.225958" lon="8.597492">
<ele>736.7</ele>
<time>2003-06-27T10:50:01Z</time>
<speed>0.3</speed>
</trkpt>
<trkpt lat="47.225939" lon="8.597490">
<ele>735.9</ele>
<time>2003-06-27T10:50:09Z</time>
<speed>0.3</speed>
</trkpt>
<trkpt lat="47.225895" lon="8.597577">
<ele>735.0</ele>
<time>2003-06-27T10:50:35Z</time>
<speed>0.6</speed>
</trkpt>
<trkpt lat="47.225952" lon="8.597667">
<ele>734.5</ele>
<time>2003-06-27T10:50:40Z</time>
<speed>0.8</speed>
</trkpt>
<trkpt lat="47.225955" lon="8.597628">
<ele>734.2</ele>
<time>2003-06-27T10:50:45Z</time>
<speed>0.3</speed>
</trkpt>
<trkpt lat="47.225977" lon="8.597591">
<ele>734.7</ele>
<time>2003-06-27T10:50:56Z</time>
<speed>0.6</speed>
</trkpt>
<trkpt lat="47.225982" lon="8.597619">
<ele>734.2</ele>
<time>2003-06-27T10:51:01Z</time>
<speed>0.0</speed>
</trkpt>
<trkpt lat="47.225988" lon="8.597619">
<ele>735.0</ele>
<time>2003-06-27T10:51:16Z</time>
<speed>0.0</speed>
</trkpt>
<trkpt lat="47.225914" lon="8.597661">
<ele>734.3</ele>
<time>2003-06-27T10:51:27Z</time>
<speed>1.1</speed>
</trkpt>
<trkpt lat="47.225924" lon="8.597609">
<ele>734.6</ele>
<time>2003-06-27T10:51:52Z</time>
<speed>0.6</speed>
</trkpt>
<trkpt lat="47.225953" lon="8.597574">
<ele>734.5</ele>
<time>2003-06-27T10:51:57Z</time>
<speed>0.3</speed>
</trkpt>
<trkpt lat="47.225962" lon="8.597535">
<ele>734.9</ele>
<time>2003-06-27T10:52:02Z</time>
<speed>0.0</speed>
</trkpt>
<trkpt lat="47.225986" lon="8.597458">
<ele>735.1</ele>
<time>2003-06-27T10:52:07Z</time>
<speed>0.3</speed>
</trkpt>
<trkpt lat="47.225986" lon="8.597473">
<ele>733.8</ele>
<time>2003-06-27T10:52:12Z</time>
<speed>0.3</speed>
</trkpt>
<trkpt lat="47.225997" lon="8.597501">
<ele>734.0</ele>
<time>2003-06-27T10:52:17Z</time>
<speed>0.3</speed>
</trkpt>
<trkpt lat="47.226009" lon="8.597503">
<ele>734.1</ele>
<time>2003-06-27T10:52:22Z</time>
<speed>0.0</speed>
</trkpt>
<trkpt lat="47.226015" lon="8.597501">
<ele>736.2</ele>
<time>2003-06-27T10:52:27Z</time>
<speed>0.3</speed>
</trkpt>
<trkpt lat="47.226008" lon="8.597515">
<ele>735.6</ele>
<time>2003-06-27T10:52:32Z</time>
<speed>0.0</speed>
</trkpt>
<trkpt lat="47.226009" lon="8.597501">
<ele>735.5</ele>
<time>2003-06-27T10:52:37Z</time>
<speed>0.0</speed>
</trkpt>
<trkpt lat="47.226024" lon="8.597464">
<ele>735.3</ele>
<time>2003-06-27T10:52:42Z</time>
<speed>0.3</speed>
</trkpt>
<trkpt lat="47.226031" lon="8.597466">
<ele>734.6</ele>
<time>2003-06-27T10:52:47Z</time>
<speed>0.0</speed>
</trkpt>
<trkpt lat="47.226030" lon="8.597479">
<ele>734.7</ele>
<time>2003-06-27T10:52:52Z</time>
<speed>0.0</speed>
</trkpt>
<trkpt lat="47.226050" lon="8.597549">
<ele>735.3</ele>
<time>2003-06-27T10:53:05Z</time>
<speed>0.3</speed>
</trkpt>
<trkpt lat="47.226012" lon="8.597636">
<ele>735.2</ele>
<time>2003-06-27T10:53:14Z</time>
<speed>0.8</speed>
</trkpt>
<trkpt lat="47.226027" lon="8.597612">
<ele>735.0</ele>
<time>2003-06-27T10:53:19Z</time>
<speed>0.0</speed>
</trkpt>
<trkpt lat="47.225997" lon="8.597660">
<ele>735.3</ele>
<time>2003-06-27T10:53:24Z</time>
<speed>0.0</speed>
</trkpt>
<trkpt lat="47.225999" lon="8.597634">
<ele>735.1</ele>
<time>2003-06-27T10:53:29Z</time>
<speed>0.0</speed>
</trkpt>
<trkpt lat="47.226006" lon="8.597636">
<ele>734.4</ele>
<time>2003-06-27T10:53:40Z</time>
<speed>0.6</speed>
</trkpt>
<trkpt lat="47.225971" lon="8.597419">
<ele>732.6</ele>
<time>2003-06-27T10:54:18Z</time>
<speed>1.4</speed>
</trkpt>
<trkpt lat="47.225870" lon="8.597497">
<ele>732.1</ele>
<time>2003-06-27T10:54:30Z</time>
<speed>0.8</speed>
</trkpt>
<trkpt lat="47.225951" lon="8.597602">
<ele>733.3</ele>
<time>2003-06-27T10:54:35Z</time>
<speed>0.0</speed>
</trkpt>
<trkpt lat="47.225961" lon="8.597550">
<ele>733.6</ele>
<time>2003-06-27T10:54:40Z</time>
<speed>0.3</speed>
</trkpt>
<trkpt lat="47.225965" lon="8.597591">
<ele>733.2</ele>
<time>2003-06-27T10:54:48Z</time>
<speed>0.0</speed>
</trkpt>
<trkpt lat="47.225970" lon="8.597606">
<ele>732.6</ele>
<time>2003-06-27T10:55:29Z</time>
<speed>0.0</speed>
</trkpt>
<trkpt lat="47.225989" lon="8.597686">
<ele>734.8</ele>
<time>2003-06-27T10:59:03Z</time>
<speed>1.9</speed>
</trkpt>
<trkpt lat="47.225822" lon="8.597606">
<ele>734.2</ele>
<time>2003-06-27T10:59:08Z</time>
<speed>0.3</speed>
</trkpt>
<trkpt lat="47.225878" lon="8.597549">
<ele>734.0</ele>
<time>2003-06-27T10:59:13Z</time>
<speed>0.3</speed>
</trkpt>
<trkpt lat="47.225894" lon="8.597592">
<ele>733.7</ele>
<time>2003-06-27T10:59:18Z</time>
<speed>0.3</speed>
</trkpt>
<trkpt lat="47.225883" lon="8.597564">
<ele>733.4</ele>
<time>2003-06-27T10:59:23Z</time>
<speed>0.3</speed>
</trkpt>
<trkpt lat="47.225862" lon="8.597586">
<ele>734.2</ele>
<time>2003-06-27T10:59:28Z</time>
<speed>0.0</speed>
</trkpt>
<trkpt lat="47.225847" lon="8.597623">
<ele>734.5</ele>
<time>2003-06-27T10:59:33Z</time>
<speed>0.3</speed>
</trkpt>
<trkpt lat="47.225847" lon="8.597623">
<ele>734.5</ele>
<time>2003-06-27T10:59:38Z</time>
<speed>0.6</speed>
</trkpt>
<trkpt lat="47.225856" lon="8.597664">
<ele>734.8</ele>
<time>2003-06-27T10:59:52Z</time>
<speed>0.0</speed>
</trkpt>
<trkpt lat="47.225874" lon="8.597601">
<ele>734.4</ele>
<time>2003-06-27T10:59:57Z</time>
<speed>0.6</speed>
</trkpt>
<trkpt lat="47.225908" lon="8.597486">
<ele>735.0</ele>
<time>2003-06-27T11:00:10Z</time>
<speed>0.8</speed>
</trkpt>
<trkpt lat="47.225950" lon="8.597439">
<ele>734.8</ele>
<time>2003-06-27T11:00:18Z</time>
<speed>0.8</speed>
</trkpt>
<trkpt lat="47.225965" lon="8.597322">
<ele>734.6</ele>
<time>2003-06-27T11:00:35Z</time>
<speed>0.6</speed>
</trkpt>
<trkpt lat="47.226014" lon="8.597343">
<ele>735.0</ele>
<time>2003-06-27T11:00:45Z</time>
<speed>0.3</speed>
</trkpt>
<trkpt lat="47.225988" lon="8.597528">
<ele>733.5</ele>
<time>2003-06-27T11:00:50Z</time>
<speed>0.3</speed>
</trkpt>
<trkpt lat="47.225986" lon="8.597554">
<ele>733.7</ele>
<time>2003-06-27T11:00:55Z</time>
<speed>0.0</speed>
</trkpt>
<trkpt lat="47.226024" lon="8.597560">
<ele>733.9</ele>
<time>2003-06-27T11:01:00Z</time>
<speed>0.3</speed>
</trkpt>
<trkpt lat="47.226063" lon="8.597552">
<ele>734.0</ele>
<time>2003-06-27T11:01:06Z</time>
<speed>0.6</speed>
</trkpt>
<trkpt lat="47.226115" lon="8.597549">
<ele>732.7</ele>
<time>2003-06-27T11:01:14Z</time>
<speed>0.3</speed>
</trkpt>
<trkpt lat="47.225817" lon="8.597670">
<ele>736.2</ele>
<time>2003-06-27T11:02:44Z</time>
<speed>0.6</speed>
</trkpt>
<trkpt lat="47.225944" lon="8.597691">
<ele>735.4</ele>
<time>2003-06-27T11:02:49Z</time>
<speed>0.6</speed>
</trkpt>
<trkpt lat="47.225909" lon="8.597727">
<ele>734.8</ele>
<time>2003-06-27T11:02:54Z</time>
<speed>0.0</speed>
</trkpt>
<trkpt lat="47.225899" lon="8.597698">
<ele>734.6</ele>
<time>2003-06-27T11:02:59Z</time>
<speed>0.3</speed>
</trkpt>
<trkpt lat="47.225896" lon="8.597644">
<ele>734.8</ele>
<time>2003-06-27T11:03:04Z</time>
<speed>0.0</speed>
</trkpt>
<trkpt lat="47.225911" lon="8.597622">
<ele>733.3</ele>
<time>2003-06-27T11:03:09Z</time>
<speed>0.6</speed>
</trkpt>
<trkpt lat="47.225947" lon="8.597574">
<ele>733.7</ele>
<time>2003-06-27T11:03:18Z</time>
<speed>0.3</speed>
</trkpt>
<trkpt lat="47.225949" lon="8.597548">
<ele>733.5</ele>
<time>2003-06-27T11:03:26Z</time>
<speed>0.0</speed>
</trkpt>
<trkpt lat="47.225959" lon="8.597576">
<ele>733.8</ele>
<time>2003-06-27T11:03:31Z</time>
<speed>0.0</speed>
</trkpt>
<trkpt lat="47.225980" lon="8.597647">
<ele>733.0</ele>
<time>2003-06-27T11:03:40Z</time>
<speed>0.0</speed>
</trkpt>
<trkpt lat="47.225979" lon="8.597660">
<ele>733.1</ele>
<time>2003-06-27T11:03:45Z</time>
<speed>0.3</speed>
</trkpt>
<trkpt lat="47.225961" lon="8.597660">
<ele>730.9</ele>
<time>2003-06-27T11:03:51Z</time>
<speed>0.6</speed>
</trkpt>
<trkpt lat="47.225967" lon="8.597660">
<ele>731.6</ele>
<time>2003-06-27T11:03:56Z</time>
<speed>0.0</speed>
</trkpt>
<trkpt lat="47.225987" lon="8.597649">
<ele>732.3</ele>
<time>2003-06-27T11:04:01Z</time>
<speed>0.0</speed>
</trkpt>
<trkpt lat="47.225982" lon="8.597623">
<ele>731.4</ele>
<time>2003-06-27T11:04:06Z</time>
<speed>0.3</speed>
</trkpt>
<trkpt lat="47.225981" lon="8.597636">
<ele>731.5</ele>
<time>2003-06-27T11:04:11Z</time>
<speed>0.0</speed>
</trkpt>
<trkpt lat="47.225991" lon="8.597618">
<ele>726.4</ele>
<time>2003-06-27T11:04:16Z</time>
<speed>0.6</speed>
</trkpt>
<trkpt lat="47.225963" lon="8.597636">
<ele>729.3</ele>
<time>2003-06-27T11:04:21Z</time>
<speed>0.3</speed>
</trkpt>
<trkpt lat="47.225937" lon="8.597645">
<ele>729.3</ele>
<time>2003-06-27T11:04:26Z</time>
<speed>0.3</speed>
</trkpt>
<trkpt lat="47.225939" lon="8.597636">
<ele>726.4</ele>
<time>2003-06-27T11:04:31Z</time>
<speed>0.0</speed>
</trkpt>
<trkpt lat="47.225941" lon="8.597612">
<ele>724.8</ele>
<time>2003-06-27T11:04:36Z</time>
<speed>0.0</speed>
</trkpt>
<trkpt lat="47.225948" lon="8.597616">
<ele>722.7</ele>
<time>2003-06-27T11:04:41Z</time>
<speed>0.0</speed>
</trkpt>
<trkpt lat="47.225936" lon="8.597616">
<ele>721.2</ele>
<time>2003-06-27T11:04:46Z</time>
<speed>0.3</speed>
</trkpt>
<trkpt lat="47.225929" lon="8.597614">
<ele>721.9</ele>
<time>2003-06-27T11:04:51Z</time>
<speed>0.0</speed>
</trkpt>
<trkpt lat="47.225936" lon="8.597616">
<ele>721.2</ele>
<time>2003-06-27T11:04:56Z</time>
<speed>0.0</speed>
</trkpt>
<trkpt lat="47.225929" lon="8.597614">
<ele>721.9</ele>
<time>2003-06-27T11:05:01Z</time>
<speed>0.0</speed>
</trkpt>
<trkpt lat="47.225930" lon="8.597601">
<ele>721.8</ele>
<time>2003-06-27T11:05:06Z</time>
<speed>0.0</speed>
</trkpt>
<trkpt lat="47.225924" lon="8.597599">
<ele>722.5</ele>
<time>2003-06-27T11:05:11Z</time>
<speed>0.0</speed>
</trkpt>
<trkpt lat="47.225935" lon="8.597614">
<ele>722.6</ele>
<time>2003-06-27T11:05:16Z</time>
<speed>0.0</speed>
</trkpt>
<trkpt lat="47.225898" lon="8.597595">
<ele>722.3</ele>
<time>2003-06-27T11:05:21Z</time>
<speed>0.3</speed>
</trkpt>
<trkpt lat="47.225868" lon="8.597576">
<ele>722.8</ele>
<time>2003-06-27T11:05:26Z</time>
<speed>0.6</speed>
</trkpt>
<trkpt lat="47.225844" lon="8.597546">
<ele>722.4</ele>
<time>2003-06-27T11:05:31Z</time>
<speed>0.8</speed>
</trkpt>
<trkpt lat="47.225850" lon="8.597561">
<ele>721.9</ele>
<time>2003-06-27T11:05:36Z</time>
<speed>0.3</speed>
</trkpt>
<trkpt lat="47.225833" lon="8.597531">
<ele>722.3</ele>
<time>2003-06-27T11:05:41Z</time>
<speed>0.8</speed>
</trkpt>
<trkpt lat="47.225878" lon="8.597432">
<ele>721.7</ele>
<time>2003-06-27T11:05:56Z</time>
<speed>0.3</speed>
</trkpt>
<trkpt lat="47.225938" lon="8.597494">
<ele>722.4</ele>
<time>2003-06-27T11:06:01Z</time>
<speed>0.0</speed>
</trkpt>
<trkpt lat="47.225982" lon="8.597517">
<ele>720.6</ele>
<time>2003-06-27T11:06:06Z</time>
<speed>0.3</speed>
</trkpt>
<trkpt lat="47.225986" lon="8.597545">
<ele>720.1</ele>
<time>2003-06-27T11:06:11Z</time>
<speed>0.0</speed>
</trkpt>
<trkpt lat="47.225964" lon="8.597564">
<ele>723.7</ele>
<time>2003-06-27T11:06:16Z</time>
<speed>0.3</speed>
</trkpt>
<trkpt lat="47.225924" lon="8.597584">
<ele>723.8</ele>
<time>2003-06-27T11:06:21Z</time>
<speed>0.6</speed>
</trkpt>
<trkpt lat="47.225953" lon="8.597552">
<ele>720.8</ele>
<time>2003-06-27T11:06:26Z</time>
<speed>0.0</speed>
</trkpt>
<trkpt lat="47.225962" lon="8.597528">
<ele>719.9</ele>
<time>2003-06-27T11:06:31Z</time>
<speed>0.0</speed>
</trkpt>
<trkpt lat="47.225948" lon="8.597539">
<ele>719.9</ele>
<time>2003-06-27T11:06:36Z</time>
<speed>0.3</speed>
</trkpt>
<trkpt lat="47.225930" lon="8.597522">
<ele>720.4</ele>
<time>2003-06-27T11:06:41Z</time>
<speed>0.0</speed>
</trkpt>
<trkpt lat="47.225929" lon="8.597535">
<ele>720.5</ele>
<time>2003-06-27T11:06:46Z</time>
<speed>0.0</speed>
</trkpt>
<trkpt lat="47.225935" lon="8.597535">
<ele>721.3</ele>
<time>2003-06-27T11:06:51Z</time>
<speed>0.0</speed>
</trkpt>
<trkpt lat="47.225942" lon="8.597537">
<ele>720.6</ele>
<time>2003-06-27T11:06:56Z</time>
<speed>0.0</speed>
</trkpt>
<trkpt lat="47.225949" lon="8.597524">
<ele>721.2</ele>
<time>2003-06-27T11:07:01Z</time>
<speed>0.0</speed>
</trkpt>
<trkpt lat="47.225953" lon="8.597552">
<ele>720.8</ele>
<time>2003-06-27T11:07:06Z</time>
<speed>0.3</speed>
</trkpt>
<trkpt lat="47.225966" lon="8.597554">
<ele>720.8</ele>
<time>2003-06-27T11:07:11Z</time>
<speed>0.3</speed>
</trkpt>
<trkpt lat="47.225957" lon="8.597594">
<ele>720.4</ele>
<time>2003-06-27T11:07:16Z</time>
<speed>0.3</speed>
</trkpt>
<trkpt lat="47.225964" lon="8.597581">
<ele>721.0</ele>
<time>2003-06-27T11:07:21Z</time>
<speed>0.0</speed>
</trkpt>
<trkpt lat="47.225959" lon="8.597567">
<ele>720.2</ele>
<time>2003-06-27T11:07:26Z</time>
<speed>0.3</speed>
</trkpt>
<trkpt lat="47.225959" lon="8.597567">
<ele>720.2</ele>
<time>2003-06-27T11:07:31Z</time>
<speed>0.0</speed>
</trkpt>
<trkpt lat="47.225966" lon="8.597556">
<ele>719.4</ele>
<time>2003-06-27T11:07:36Z</time>
<speed>0.0</speed>
</trkpt>
<trkpt lat="47.225967" lon="8.597543">
<ele>719.3</ele>
<time>2003-06-27T11:07:41Z</time>
<speed>0.0</speed>
</trkpt>
<trkpt lat="47.225966" lon="8.597556">
<ele>719.4</ele>
<time>2003-06-27T11:07:47Z</time>
<speed>0.3</speed>
</trkpt>
<trkpt lat="47.225965" lon="8.597569">
<ele>719.5</ele>
<time>2003-06-27T11:07:52Z</time>
<speed>0.0</speed>
</trkpt>
<trkpt lat="47.225961" lon="8.597541">
<ele>720.0</ele>
<time>2003-06-27T11:08:00Z</time>
<speed>0.3</speed>
</trkpt>
<trkpt lat="47.225974" lon="8.597530">
<ele>720.0</ele>
<time>2003-06-27T11:08:05Z</time>
<speed>0.3</speed>
</trkpt>
<trkpt lat="47.225986" lon="8.597545">
<ele>720.1</ele>
<time>2003-06-27T11:08:10Z</time>
<speed>0.3</speed>
</trkpt>
<trkpt lat="47.225973" lon="8.597637">
<ele>720.1</ele>
<time>2003-06-27T11:08:26Z</time>
<speed>0.6</speed>
</trkpt>
<trkpt lat="47.225994" lon="8.597693">
<ele>720.6</ele>
<time>2003-06-27T11:08:31Z</time>
<speed>0.6</speed>
</trkpt>
<trkpt lat="47.226071" lon="8.597785">
<ele>720.9</ele>
<time>2003-06-27T11:09:02Z</time>
<speed>0.6</speed>
</trkpt>
<trkpt lat="47.226137" lon="8.597582">
<ele>721.0</ele>
<time>2003-06-27T11:09:34Z</time>
<speed>0.3</speed>
</trkpt>
<trkpt lat="47.226062" lon="8.597464">
<ele>720.5</ele>
<time>2003-06-27T11:09:39Z</time>
<speed>0.0</speed>
</trkpt>
<trkpt lat="47.226046" lon="8.597421">
<ele>720.8</ele>
<time>2003-06-27T11:10:02Z</time>
<speed>0.0</speed>
</trkpt>
<trkpt lat="47.226039" lon="8.597434">
<ele>720.1</ele>
<time>2003-06-27T11:10:07Z</time>
<speed>0.0</speed>
</trkpt>
<trkpt lat="47.226051" lon="8.597355">
<ele>720.3</ele>
<time>2003-06-27T11:10:12Z</time>
<speed>0.3</speed>
</trkpt>
<trkpt lat="47.226074" lon="8.597305">
<ele>720.6</ele>
<time>2003-06-27T11:10:17Z</time>
<speed>0.6</speed>
</trkpt>
<trkpt lat="47.226089" lon="8.597268">
<ele>720.4</ele>
<time>2003-06-27T11:10:22Z</time>
<speed>0.3</speed>
</trkpt>
<trkpt lat="47.226088" lon="8.597281">
<ele>720.5</ele>
<time>2003-06-27T11:10:30Z</time>
<speed>0.0</speed>
</trkpt>
<trkpt lat="47.226070" lon="8.597357">
<ele>721.1</ele>
<time>2003-06-27T11:10:35Z</time>
<speed>0.3</speed>
</trkpt>
<trkpt lat="47.226052" lon="8.597436">
<ele>720.2</ele>
<time>2003-06-27T11:10:40Z</time>
<speed>0.8</speed>
</trkpt>
<trkpt lat="47.226082" lon="8.597453">
<ele>721.2</ele>
<time>2003-06-27T11:10:45Z</time>
<speed>0.8</speed>
</trkpt>
<trkpt lat="47.226128" lon="8.597526">
<ele>721.9</ele>
<time>2003-06-27T11:10:50Z</time>
<speed>1.1</speed>
</trkpt>
<trkpt lat="47.226126" lon="8.597630">
<ele>723.5</ele>
<time>2003-06-27T11:10:55Z</time>
<speed>0.6</speed>
</trkpt>
<trkpt lat="47.226165" lon="8.597623">
<ele>723.5</ele>
<time>2003-06-27T11:11:05Z</time>
<speed>0.0</speed>
</trkpt>
<trkpt lat="47.226223" lon="8.597639">
<ele>718.9</ele>
<time>2003-06-27T11:11:15Z</time>
<speed>0.3</speed>
</trkpt>
<trkpt lat="47.226194" lon="8.597609">
<ele>717.8</ele>
<time>2003-06-27T11:11:20Z</time>
<speed>0.0</speed>
</trkpt>
<trkpt lat="47.226151" lon="8.597575">
<ele>718.1</ele>
<time>2003-06-27T11:11:25Z</time>
<speed>0.3</speed>
</trkpt>
<trkpt lat="47.226120" lon="8.597556">
<ele>718.6</ele>
<time>2003-06-27T11:11:30Z</time>
<speed>0.3</speed>
</trkpt>
<trkpt lat="47.226090" lon="8.597537">
<ele>719.0</ele>
<time>2003-06-27T11:11:35Z</time>
<speed>0.3</speed>
</trkpt>
<trkpt lat="47.226052" lon="8.597531">
<ele>718.8</ele>
<time>2003-06-27T11:11:40Z</time>
<speed>0.6</speed>
</trkpt>
<trkpt lat="47.226002" lon="8.597588">
<ele>719.8</ele>
<time>2003-06-27T11:11:45Z</time>
<speed>0.8</speed>
</trkpt>
<trkpt lat="47.226002" lon="8.597588">
<ele>719.8</ele>
<time>2003-06-27T11:11:50Z</time>
<speed>0.0</speed>
</trkpt>
<trkpt lat="47.226003" lon="8.597575">
<ele>719.7</ele>
<time>2003-06-27T11:11:55Z</time>
<speed>0.3</speed>
</trkpt>
<trkpt lat="47.225978" lon="8.597571">
<ele>719.6</ele>
<time>2003-06-27T11:12:00Z</time>
<speed>0.3</speed>
</trkpt>
<trkpt lat="47.226010" lon="8.597577">
<ele>719.0</ele>
<time>2003-06-27T11:12:09Z</time>
<speed>0.3</speed>
</trkpt>
<trkpt lat="47.226000" lon="8.597630">
<ele>718.7</ele>
<time>2003-06-27T11:12:23Z</time>
<speed>0.0</speed>
</trkpt>
<trkpt lat="47.225986" lon="8.597641">
<ele>718.8</ele>
<time>2003-06-27T11:12:28Z</time>
<speed>0.3</speed>
</trkpt>
<trkpt lat="47.225985" lon="8.597654">
<ele>718.9</ele>
<time>2003-06-27T11:12:33Z</time>
<speed>0.3</speed>
</trkpt>
<trkpt lat="47.225984" lon="8.597667">
<ele>719.0</ele>
<time>2003-06-27T11:12:38Z</time>
<speed>0.0</speed>
</trkpt>
<trkpt lat="47.225965" lon="8.597663">
<ele>719.6</ele>
<time>2003-06-27T11:12:43Z</time>
<speed>0.0</speed>
</trkpt>
<trkpt lat="47.225944" lon="8.597687">
<ele>719.0</ele>
<time>2003-06-27T11:12:48Z</time>
<speed>0.0</speed>
</trkpt>
<trkpt lat="47.225926" lon="8.597670">
<ele>719.5</ele>
<time>2003-06-27T11:12:53Z</time>
<speed>0.0</speed>
</trkpt>
<trkpt lat="47.225925" lon="8.597683">
<ele>719.6</ele>
<time>2003-06-27T11:12:58Z</time>
<speed>0.3</speed>
</trkpt>
<trkpt lat="47.225938" lon="8.597685">
<ele>719.6</ele>
<time>2003-06-27T11:13:03Z</time>
<speed>0.3</speed>
</trkpt>
<trkpt lat="47.225953" lon="8.597648">
<ele>719.4</ele>
<time>2003-06-27T11:13:08Z</time>
<speed>0.0</speed>
</trkpt>
<trkpt lat="47.225962" lon="8.597624">
<ele>718.5</ele>
<time>2003-06-27T11:13:13Z</time>
<speed>0.0</speed>
</trkpt>
<trkpt lat="47.225955" lon="8.597622">
<ele>719.2</ele>
<time>2003-06-27T11:13:18Z</time>
<speed>0.3</speed>
</trkpt>
<trkpt lat="47.225941" lon="8.597646">
<ele>719.3</ele>
<time>2003-06-27T11:13:23Z</time>
<speed>0.3</speed>
</trkpt>
<trkpt lat="47.225941" lon="8.597646">
<ele>719.3</ele>
<time>2003-06-27T11:13:28Z</time>
<speed>0.0</speed>
</trkpt>
<trkpt lat="47.225947" lon="8.597648">
<ele>718.7</ele>
<time>2003-06-27T11:13:33Z</time>
<speed>0.0</speed>
</trkpt>
<trkpt lat="47.225959" lon="8.597663">
<ele>718.8</ele>
<time>2003-06-27T11:13:38Z</time>
<speed>0.0</speed>
</trkpt>
<trkpt lat="47.225952" lon="8.597676">
<ele>718.2</ele>
<time>2003-06-27T11:13:43Z</time>
<speed>0.0</speed>
</trkpt>
<trkpt lat="47.225961" lon="8.597637">
<ele>718.6</ele>
<time>2003-06-27T11:13:48Z</time>
<speed>0.0</speed>
</trkpt>
<trkpt lat="47.225963" lon="8.597611">
<ele>718.4</ele>
<time>2003-06-27T11:13:53Z</time>
<speed>0.0</speed>
</trkpt>
<trkpt lat="47.225946" lon="8.597661">
<ele>718.8</ele>
<time>2003-06-27T11:13:58Z</time>
<speed>0.3</speed>
</trkpt>
<trkpt lat="47.225947" lon="8.597648">
<ele>718.7</ele>
<time>2003-06-27T11:14:03Z</time>
<speed>0.0</speed>
</trkpt>
<trkpt lat="47.225947" lon="8.597648">
<ele>718.7</ele>
<time>2003-06-27T11:14:08Z</time>
<speed>0.3</speed>
</trkpt>
<trkpt lat="47.225910" lon="8.597629">
<ele>718.4</ele>
<time>2003-06-27T11:14:13Z</time>
<speed>0.8</speed>
</trkpt>
<trkpt lat="47.225894" lon="8.597679">
<ele>718.7</ele>
<time>2003-06-27T11:14:18Z</time>
<speed>0.6</speed>
</trkpt>
<trkpt lat="47.225900" lon="8.597679">
<ele>719.5</ele>
<time>2003-06-27T11:14:23Z</time>
<speed>0.3</speed>
</trkpt>
<trkpt lat="47.225903" lon="8.597720">
<ele>719.1</ele>
<time>2003-06-27T11:14:28Z</time>
<speed>0.3</speed>
</trkpt>
<trkpt lat="47.225913" lon="8.597681">
<ele>719.5</ele>
<time>2003-06-27T11:14:33Z</time>
<speed>0.6</speed>
</trkpt>
<trkpt lat="47.225919" lon="8.597590">
<ele>718.8</ele>
<time>2003-06-27T11:14:38Z</time>
<speed>0.8</speed>
</trkpt>
<trkpt lat="47.225929" lon="8.597537">
<ele>719.1</ele>
<time>2003-06-27T11:14:43Z</time>
<speed>0.8</speed>
</trkpt>
<trkpt lat="47.225931" lon="8.597511">
<ele>718.9</ele>
<time>2003-06-27T11:14:48Z</time>
<speed>0.0</speed>
</trkpt>
<trkpt lat="47.225942" lon="8.597446">
<ele>719.2</ele>
<time>2003-06-27T11:14:53Z</time>
<speed>0.8</speed>
</trkpt>
<trkpt lat="47.225944" lon="8.597420">
<ele>719.0</ele>
<time>2003-06-27T11:14:58Z</time>
<speed>0.0</speed>
</trkpt>
<trkpt lat="47.225932" lon="8.597418">
<ele>718.9</ele>
<time>2003-06-27T11:15:05Z</time>
<speed>0.0</speed>
</trkpt>
<trkpt lat="47.225919" lon="8.597431">
<ele>717.5</ele>
<time>2003-06-27T11:15:10Z</time>
<speed>0.3</speed>
</trkpt>
<trkpt lat="47.225918" lon="8.597429">
<ele>718.9</ele>
<time>2003-06-27T11:15:15Z</time>
<speed>0.0</speed>
</trkpt>
<trkpt lat="47.225919" lon="8.597414">
<ele>720.2</ele>
<time>2003-06-27T11:15:20Z</time>
<speed>0.3</speed>
</trkpt>
<trkpt lat="47.225919" lon="8.597414">
<ele>720.2</ele>
<time>2003-06-27T11:15:25Z</time>
<speed>0.0</speed>
</trkpt>
<trkpt lat="47.225910" lon="8.597438">
<ele>721.1</ele>
<time>2003-06-27T11:15:30Z</time>
<speed>0.3</speed>
</trkpt>
<trkpt lat="47.225932" lon="8.597403">
<ele>720.2</ele>
<time>2003-06-27T11:15:41Z</time>
<speed>0.3</speed>
</trkpt>
<trkpt lat="47.225927" lon="8.597388">
<ele>720.8</ele>
<time>2003-06-27T11:15:46Z</time>
<speed>0.0</speed>
</trkpt>
<trkpt lat="47.225926" lon="8.597401">
<ele>720.9</ele>
<time>2003-06-27T11:16:03Z</time>
<speed>0.6</speed>
</trkpt>
<trkpt lat="47.225923" lon="8.597440">
<ele>721.2</ele>
<time>2003-06-27T11:16:10Z</time>
<speed>0.0</speed>
</trkpt>
<trkpt lat="47.225923" lon="8.597440">
<ele>721.2</ele>
<time>2003-06-27T11:16:15Z</time>
<speed>0.3</speed>
</trkpt>
<trkpt lat="47.225923" lon="8.597440">
<ele>721.2</ele>
<time>2003-06-27T11:16:20Z</time>
<speed>0.0</speed>
</trkpt>
<trkpt lat="47.225915" lon="8.597451">
<ele>721.9</ele>
<time>2003-06-27T11:16:25Z</time>
<speed>0.0</speed>
</trkpt>
<trkpt lat="47.225930" lon="8.597429">
<ele>720.4</ele>
<time>2003-06-27T11:16:30Z</time>
<speed>0.0</speed>
</trkpt>
<trkpt lat="47.225955" lon="8.597353">
<ele>720.6</ele>
<time>2003-06-27T11:16:35Z</time>
<speed>0.3</speed>
</trkpt>
<trkpt lat="47.225969" lon="8.597342">
<ele>720.6</ele>
<time>2003-06-27T11:16:40Z</time>
<speed>0.0</speed>
</trkpt>
<trkpt lat="47.225980" lon="8.597357">
<ele>720.7</ele>
<time>2003-06-27T11:16:45Z</time>
<speed>0.0</speed>
</trkpt>
<trkpt lat="47.225987" lon="8.597265">
<ele>720.0</ele>
<time>2003-06-27T11:16:50Z</time>
<speed>0.6</speed>
</trkpt>
<trkpt lat="47.225970" lon="8.597502">
<ele>720.4</ele>
<time>2003-06-27T11:16:56Z</time>
<speed>0.6</speed>
</trkpt>
<trkpt lat="47.225995" lon="8.597506">
<ele>720.6</ele>
<time>2003-06-27T11:17:01Z</time>
<speed>0.3</speed>
</trkpt>
<trkpt lat="47.226011" lon="8.597295">
<ele>720.3</ele>
<time>2003-06-27T11:17:12Z</time>
<speed>0.3</speed>
</trkpt>
<trkpt lat="47.226028" lon="8.597232">
<ele>719.9</ele>
<time>2003-06-27T11:17:17Z</time>
<speed>0.6</speed>
</trkpt>
<trkpt lat="47.226028" lon="8.597247">
<ele>718.6</ele>
<time>2003-06-27T11:17:22Z</time>
<speed>0.0</speed>
</trkpt>
<trkpt lat="47.226016" lon="8.597310">
<ele>719.8</ele>
<time>2003-06-27T11:17:27Z</time>
<speed>0.6</speed>
</trkpt>
<trkpt lat="47.226004" lon="8.597389">
<ele>719.6</ele>
<time>2003-06-27T11:17:32Z</time>
<speed>0.3</speed>
</trkpt>
<trkpt lat="47.226008" lon="8.597430">
<ele>719.3</ele>
<time>2003-06-27T11:17:37Z</time>
<speed>0.3</speed>
</trkpt>
<trkpt lat="47.226009" lon="8.597417">
<ele>719.2</ele>
<time>2003-06-27T11:17:42Z</time>
<speed>0.3</speed>
</trkpt>
<trkpt lat="47.226008" lon="8.597430">
<ele>719.3</ele>
<time>2003-06-27T11:17:47Z</time>
<speed>0.0</speed>
</trkpt>
<trkpt lat="47.226002" lon="8.597430">
<ele>718.5</ele>
<time>2003-06-27T11:17:52Z</time>
<speed>0.0</speed>
</trkpt>
<trkpt lat="47.225992" lon="8.597469">
<ele>718.1</ele>
<time>2003-06-27T11:17:57Z</time>
<speed>0.0</speed>
</trkpt>
<trkpt lat="47.225999" lon="8.597473">
<ele>716.0</ele>
<time>2003-06-27T11:18:10Z</time>
<speed>0.0</speed>
</trkpt>
<trkpt lat="47.226001" lon="8.597447">
<ele>715.8</ele>
<time>2003-06-27T11:18:15Z</time>
<speed>0.3</speed>
</trkpt>
<trkpt lat="47.226000" lon="8.597460">
<ele>715.9</ele>
<time>2003-06-27T11:18:20Z</time>
<speed>0.0</speed>
</trkpt>
<trkpt lat="47.226000" lon="8.597460">
<ele>715.9</ele>
<time>2003-06-27T11:18:25Z</time>
<speed>0.0</speed>
</trkpt>
<trkpt lat="47.226006" lon="8.597475">
<ele>715.4</ele>
<time>2003-06-27T11:18:30Z</time>
<speed>0.0</speed>
</trkpt>
<trkpt lat="47.226007" lon="8.597540">
<ele>716.6</ele>
<time>2003-06-27T11:18:35Z</time>
<speed>0.8</speed>
</trkpt>
<trkpt lat="47.226034" lon="8.597611">
<ele>716.6</ele>
<time>2003-06-27T11:18:40Z</time>
<speed>0.8</speed>
</trkpt>
<trkpt lat="47.226030" lon="8.597664">
<ele>717.0</ele>
<time>2003-06-27T11:18:46Z</time>
<speed>0.3</speed>
</trkpt>
<trkpt lat="47.226020" lon="8.597620">
<ele>718.0</ele>
<time>2003-06-27T11:18:51Z</time>
<speed>0.0</speed>
</trkpt>
<trkpt lat="47.226014" lon="8.597605">
<ele>718.6</ele>
<time>2003-06-27T11:18:56Z</time>
<speed>0.0</speed>
</trkpt>
<trkpt lat="47.226014" lon="8.597605">
<ele>718.6</ele>
<time>2003-06-27T11:19:01Z</time>
<speed>0.0</speed>
</trkpt>
<trkpt lat="47.225996" lon="8.597588">
<ele>719.1</ele>
<time>2003-06-27T11:19:06Z</time>
<speed>0.0</speed>
</trkpt>
<trkpt lat="47.225991" lon="8.597573">
<ele>719.7</ele>
<time>2003-06-27T11:19:11Z</time>
<speed>0.3</speed>
</trkpt>
<trkpt lat="47.225986" lon="8.597545">
<ele>720.1</ele>
<time>2003-06-27T11:19:16Z</time>
<speed>0.3</speed>
</trkpt>
<trkpt lat="47.225949" lon="8.597526">
<ele>719.8</ele>
<time>2003-06-27T11:19:21Z</time>
<speed>0.6</speed>
</trkpt>
<trkpt lat="47.225937" lon="8.597524">
<ele>719.8</ele>
<time>2003-06-27T11:19:26Z</time>
<speed>0.3</speed>
</trkpt>
<trkpt lat="47.225963" lon="8.597515">
<ele>719.8</ele>
<time>2003-06-27T11:19:31Z</time>
<speed>0.0</speed>
</trkpt>
<trkpt lat="47.225991" lon="8.597480">
<ele>719.6</ele>
<time>2003-06-27T11:19:36Z</time>
<speed>0.6</speed>
</trkpt>
<trkpt lat="47.225997" lon="8.597480">
<ele>720.3</ele>
<time>2003-06-27T11:19:41Z</time>
<speed>0.0</speed>
</trkpt>
<trkpt lat="47.225999" lon="8.597454">
<ele>720.1</ele>
<time>2003-06-27T11:19:46Z</time>
<speed>0.0</speed>
</trkpt>
<trkpt lat="47.226012" lon="8.597456">
<ele>720.2</ele>
<time>2003-06-27T11:19:51Z</time>
<speed>0.0</speed>
</trkpt>
<trkpt lat="47.225995" lon="8.597506">
<ele>720.6</ele>
<time>2003-06-27T11:19:56Z</time>
<speed>0.6</speed>
</trkpt>
<trkpt lat="47.225988" lon="8.597519">
<ele>719.9</ele>
<time>2003-06-27T11:20:01Z</time>
<speed>0.0</speed>
</trkpt>
<trkpt lat="47.225997" lon="8.597480">
<ele>720.3</ele>
<time>2003-06-27T11:20:06Z</time>
<speed>0.3</speed>
</trkpt>
<trkpt lat="47.226016" lon="8.597484">
<ele>719.7</ele>
<time>2003-06-27T11:20:12Z</time>
<speed>0.0</speed>
</trkpt>
<trkpt lat="47.226018" lon="8.597458">
<ele>719.5</ele>
<time>2003-06-27T11:20:17Z</time>
<speed>0.0</speed>
</trkpt>
<trkpt lat="47.226006" lon="8.597456">
<ele>719.5</ele>
<time>2003-06-27T11:20:22Z</time>
<speed>0.0</speed>
</trkpt>
<trkpt lat="47.226000" lon="8.597456">
<ele>718.7</ele>
<time>2003-06-27T11:20:27Z</time>
<speed>0.3</speed>
</trkpt>
<trkpt lat="47.225993" lon="8.597454">
<ele>719.4</ele>
<time>2003-06-27T11:20:33Z</time>
<speed>0.3</speed>
</trkpt>
<trkpt lat="47.225984" lon="8.597493">
<ele>719.0</ele>
<time>2003-06-27T11:20:38Z</time>
<speed>0.6</speed>
</trkpt>
<trkpt lat="47.225956" lon="8.597528">
<ele>719.2</ele>
<time>2003-06-27T11:20:43Z</time>
<speed>0.6</speed>
</trkpt>
<trkpt lat="47.225957" lon="8.597515">
<ele>719.1</ele>
<time>2003-06-27T11:20:48Z</time>
<speed>0.0</speed>
</trkpt>
<trkpt lat="47.225969" lon="8.597517">
<ele>719.1</ele>
<time>2003-06-27T11:20:53Z</time>
<speed>0.3</speed>
</trkpt>
<trkpt lat="47.225963" lon="8.597517">
<ele>718.4</ele>
<time>2003-06-27T11:20:58Z</time>
<speed>0.3</speed>
</trkpt>
<trkpt lat="47.225978" lon="8.597493">
<ele>718.2</ele>
<time>2003-06-27T11:21:03Z</time>
<speed>0.3</speed>
</trkpt>
<trkpt lat="47.225958" lon="8.597502">
<ele>719.0</ele>
<time>2003-06-27T11:21:08Z</time>
<speed>0.3</speed>
</trkpt>
<trkpt lat="47.225951" lon="8.597515">
<ele>718.3</ele>
<time>2003-06-27T11:21:13Z</time>
<speed>0.0</speed>
</trkpt>
<trkpt lat="47.225945" lon="8.597500">
<ele>718.9</ele>
<time>2003-06-27T11:21:18Z</time>
<speed>0.3</speed>
</trkpt>
<trkpt lat="47.225931" lon="8.597511">
<ele>718.9</ele>
<time>2003-06-27T11:21:31Z</time>
<speed>0.0</speed>
</trkpt>
<trkpt lat="47.225937" lon="8.597526">
<ele>718.4</ele>
<time>2003-06-27T11:21:45Z</time>
<speed>0.3</speed>
</trkpt>
<trkpt lat="47.225923" lon="8.597535">
<ele>719.8</ele>
<time>2003-06-27T11:21:50Z</time>
<speed>0.0</speed>
</trkpt>
<trkpt lat="47.225963" lon="8.597515">
<ele>719.8</ele>
<time>2003-06-27T11:22:05Z</time>
<speed>0.6</speed>
</trkpt>
<trkpt lat="47.225954" lon="8.597554">
<ele>719.4</ele>
<time>2003-06-27T11:22:10Z</time>
<speed>0.0</speed>
</trkpt>
<trkpt lat="47.225955" lon="8.597541">
<ele>719.3</ele>
<time>2003-06-27T11:22:15Z</time>
<speed>0.8</speed>
</trkpt>
<trkpt lat="47.225982" lon="8.597477">
<ele>711.0</ele>
<time>2003-06-27T11:22:32Z</time>
<speed>0.0</speed>
</trkpt>
<trkpt lat="47.225971" lon="8.597466">
<ele>708.0</ele>
<time>2003-06-27T11:22:37Z</time>
<speed>0.0</speed>
</trkpt>
<trkpt lat="47.225974" lon="8.597488">
<ele>711.8</ele>
<time>2003-06-27T11:22:42Z</time>
<speed>0.0</speed>
</trkpt>
<trkpt lat="47.225986" lon="8.597484">
<ele>716.1</ele>
<time>2003-06-27T11:22:47Z</time>
<speed>0.6</speed>
</trkpt>
<trkpt lat="47.226025" lon="8.597462">
<ele>717.5</ele>
<time>2003-06-27T11:22:54Z</time>
<speed>0.6</speed>
</trkpt>
<trkpt lat="47.225995" lon="8.597430">
<ele>717.8</ele>
<time>2003-06-27T11:22:59Z</time>
<speed>0.8</speed>
</trkpt>
<trkpt lat="47.225968" lon="8.597452">
<ele>717.9</ele>
<time>2003-06-27T11:23:14Z</time>
<speed>0.0</speed>
</trkpt>
<trkpt lat="47.225976" lon="8.597441">
<ele>717.1</ele>
<time>2003-06-27T11:23:19Z</time>
<speed>0.0</speed>
</trkpt>
<trkpt lat="47.225977" lon="8.597428">
<ele>717.0</ele>
<time>2003-06-27T11:23:24Z</time>
<speed>0.0</speed>
</trkpt>
<trkpt lat="47.226019" lon="8.597382">
<ele>716.8</ele>
<time>2003-06-27T11:23:51Z</time>
<speed>0.3</speed>
</trkpt>
<trkpt lat="47.225988" lon="8.597534">
<ele>718.6</ele>
<time>2003-06-27T11:24:30Z</time>
<speed>1.1</speed>
</trkpt>
<trkpt lat="47.225955" lon="8.597541">
<ele>719.3</ele>
<time>2003-06-27T11:24:35Z</time>
<speed>0.3</speed>
</trkpt>
<trkpt lat="47.225943" lon="8.597526">
<ele>719.1</ele>
<time>2003-06-27T11:24:42Z</time>
<speed>0.0</speed>
</trkpt>
<trkpt lat="47.225955" lon="8.597620">
<ele>720.6</ele>
<time>2003-06-27T11:24:53Z</time>
<speed>0.3</speed>
</trkpt>
<trkpt lat="47.225955" lon="8.597618">
<ele>722.0</ele>
<time>2003-06-27T11:24:58Z</time>
<speed>0.3</speed>
</trkpt>
<trkpt lat="47.225970" lon="8.597596">
<ele>720.5</ele>
<time>2003-06-27T11:25:03Z</time>
<speed>0.3</speed>
</trkpt>
<trkpt lat="47.225990" lon="8.597493">
<ele>719.7</ele>
<time>2003-06-27T11:25:08Z</time>
<speed>1.4</speed>
</trkpt>
<trkpt lat="47.226027" lon="8.597419">
<ele>720.0</ele>
<time>2003-06-27T11:25:13Z</time>
<speed>1.1</speed>
</trkpt>
<trkpt lat="47.226041" lon="8.597408">
<ele>719.9</ele>
<time>2003-06-27T11:25:18Z</time>
<speed>0.6</speed>
</trkpt>
<trkpt lat="47.226035" lon="8.597408">
<ele>719.2</ele>
<time>2003-06-27T11:25:23Z</time>
<speed>0.0</speed>
</trkpt>
<trkpt lat="47.226031" lon="8.597460">
<ele>719.6</ele>
<time>2003-06-27T11:25:28Z</time>
<speed>0.6</speed>
</trkpt>
<trkpt lat="47.225978" lon="8.597478">
<ele>719.6</ele>
<time>2003-06-27T11:25:33Z</time>
<speed>1.1</speed>
</trkpt>
<trkpt lat="47.225944" lon="8.597513">
<ele>719.0</ele>
<time>2003-06-27T11:25:38Z</time>
<speed>1.1</speed>
</trkpt>
<trkpt lat="47.225965" lon="8.597489">
<ele>719.6</ele>
<time>2003-06-27T11:25:43Z</time>
<speed>0.0</speed>
</trkpt>
<trkpt lat="47.225971" lon="8.597491">
<ele>718.9</ele>
<time>2003-06-27T11:25:48Z</time>
<speed>0.0</speed>
</trkpt>
<trkpt lat="47.225968" lon="8.597530">
<ele>719.2</ele>
<time>2003-06-27T11:25:54Z</time>
<speed>0.0</speed>
</trkpt>
<trkpt lat="47.225985" lon="8.597480">
<ele>718.9</ele>
<time>2003-06-27T11:26:00Z</time>
<speed>0.3</speed>
</trkpt>
<trkpt lat="47.225999" lon="8.597469">
<ele>718.8</ele>
<time>2003-06-27T11:26:05Z</time>
<speed>0.3</speed>
</trkpt>
<trkpt lat="47.225999" lon="8.597469">
<ele>718.8</ele>
<time>2003-06-27T11:26:13Z</time>
<speed>0.0</speed>
</trkpt>
<trkpt lat="47.225971" lon="8.597491">
<ele>718.9</ele>
<time>2003-06-27T11:26:22Z</time>
<speed>0.0</speed>
</trkpt>
<trkpt lat="47.225977" lon="8.597491">
<ele>719.7</ele>
<time>2003-06-27T11:26:27Z</time>
<speed>0.3</speed>
</trkpt>
<trkpt lat="47.225971" lon="8.597491">
<ele>718.9</ele>
<time>2003-06-27T11:26:32Z</time>
<speed>0.3</speed>
</trkpt>
<trkpt lat="47.225972" lon="8.597476">
<ele>720.2</ele>
<time>2003-06-27T11:26:40Z</time>
<speed>0.0</speed>
</trkpt>
<trkpt lat="47.225977" lon="8.597491">
<ele>719.7</ele>
<time>2003-06-27T11:26:45Z</time>
<speed>0.0</speed>
</trkpt>
<trkpt lat="47.225973" lon="8.597463">
<ele>720.1</ele>
<time>2003-06-27T11:26:51Z</time>
<speed>0.3</speed>
</trkpt>
<trkpt lat="47.225968" lon="8.597450">
<ele>719.3</ele>
<time>2003-06-27T11:26:59Z</time>
<speed>0.3</speed>
</trkpt>
<trkpt lat="47.225957" lon="8.597515">
<ele>719.1</ele>
<time>2003-06-27T11:27:09Z</time>
<speed>0.0</speed>
</trkpt>
<trkpt lat="47.225950" lon="8.597528">
<ele>718.4</ele>
<time>2003-06-27T11:27:14Z</time>
<speed>0.0</speed>
</trkpt>
<trkpt lat="47.225951" lon="8.597515">
<ele>718.3</ele>
<time>2003-06-27T11:27:19Z</time>
<speed>0.3</speed>
</trkpt>
<trkpt lat="47.225938" lon="8.597513">
<ele>718.3</ele>
<time>2003-06-27T11:27:24Z</time>
<speed>0.3</speed>
</trkpt>
<trkpt lat="47.225893" lon="8.597518">
<ele>718.8</ele>
<time>2003-06-27T11:27:29Z</time>
<speed>1.1</speed>
</trkpt>
<trkpt lat="47.225890" lon="8.597464">
<ele>719.1</ele>
<time>2003-06-27T11:27:34Z</time>
<speed>0.3</speed>
</trkpt>
<trkpt lat="47.225864" lon="8.597473">
<ele>719.1</ele>
<time>2003-06-27T11:27:39Z</time>
<speed>0.3</speed>
</trkpt>
<trkpt lat="47.225838" lon="8.597469">
<ele>719.0</ele>
<time>2003-06-27T11:27:44Z</time>
<speed>0.8</speed>
</trkpt>
<trkpt lat="47.225805" lon="8.597492">
<ele>718.3</ele>
<time>2003-06-27T11:27:49Z</time>
<speed>0.6</speed>
</trkpt>
<trkpt lat="47.225787" lon="8.597473">
<ele>720.2</ele>
<time>2003-06-27T11:27:54Z</time>
<speed>0.6</speed>
</trkpt>
<trkpt lat="47.225783" lon="8.597433">
<ele>719.2</ele>
<time>2003-06-27T11:28:02Z</time>
<speed>0.3</speed>
</trkpt>
<trkpt lat="47.225777" lon="8.597431">
<ele>719.9</ele>
<time>2003-06-27T11:28:07Z</time>
<speed>0.0</speed>
</trkpt>
<trkpt lat="47.225788" lon="8.597447">
<ele>720.0</ele>
<time>2003-06-27T11:28:20Z</time>
<speed>0.0</speed>
</trkpt>
<trkpt lat="47.225828" lon="8.597426">
<ele>720.0</ele>
<time>2003-06-27T11:28:25Z</time>
<speed>0.3</speed>
</trkpt>
<trkpt lat="47.225867" lon="8.597419">
<ele>720.1</ele>
<time>2003-06-27T11:28:30Z</time>
<speed>0.3</speed>
</trkpt>
<trkpt lat="47.225893" lon="8.597423">
<ele>720.2</ele>
<time>2003-06-27T11:28:35Z</time>
<speed>0.3</speed>
</trkpt>
<trkpt lat="47.225911" lon="8.597440">
<ele>719.7</ele>
<time>2003-06-27T11:28:40Z</time>
<speed>0.0</speed>
</trkpt>
<trkpt lat="47.225931" lon="8.597416">
<ele>720.3</ele>
<time>2003-06-27T11:28:45Z</time>
<speed>0.0</speed>
</trkpt>
<trkpt lat="47.225936" lon="8.597444">
<ele>719.8</ele>
<time>2003-06-27T11:28:50Z</time>
<speed>0.0</speed>
</trkpt>
<trkpt lat="47.225935" lon="8.597457">
<ele>719.9</ele>
<time>2003-06-27T11:28:55Z</time>
<speed>0.0</speed>
</trkpt>
<trkpt lat="47.225932" lon="8.597496">
<ele>720.2</ele>
<time>2003-06-27T11:29:00Z</time>
<speed>0.6</speed>
</trkpt>
<trkpt lat="47.225924" lon="8.597522">
<ele>719.7</ele>
<time>2003-06-27T11:29:06Z</time>
<speed>0.0</speed>
</trkpt>
<trkpt lat="47.225949" lon="8.597526">
<ele>719.8</ele>
<time>2003-06-27T11:29:11Z</time>
<speed>0.3</speed>
</trkpt>
<trkpt lat="47.225950" lon="8.597513">
<ele>719.7</ele>
<time>2003-06-27T11:29:16Z</time>
<speed>0.0</speed>
</trkpt>
<trkpt lat="47.225936" lon="8.597537">
<ele>719.9</ele>
<time>2003-06-27T11:29:21Z</time>
<speed>0.3</speed>
</trkpt>
<trkpt lat="47.225947" lon="8.597552">
<ele>720.0</ele>
<time>2003-06-27T11:29:26Z</time>
<speed>0.3</speed>
</trkpt>
<trkpt lat="47.225960" lon="8.597381">
<ele>720.1</ele>
<time>2003-06-27T11:29:37Z</time>
<speed>1.7</speed>
</trkpt>
<trkpt lat="47.225950" lon="8.597418">
<ele>721.1</ele>
<time>2003-06-27T11:29:45Z</time>
<speed>0.0</speed>
</trkpt>
<trkpt lat="47.225957" lon="8.597483">
<ele>723.1</ele>
<time>2003-06-27T11:29:50Z</time>
<speed>0.0</speed>
</trkpt>
<trkpt lat="47.225960" lon="8.597537">
<ele>722.8</ele>
<time>2003-06-27T11:29:55Z</time>
<speed>0.0</speed>
</trkpt>
<trkpt lat="47.225971" lon="8.597550">
<ele>724.4</ele>
<time>2003-06-27T11:30:00Z</time>
<speed>0.3</speed>
</trkpt>
<trkpt lat="47.225958" lon="8.597562">
<ele>724.4</ele>
<time>2003-06-27T11:30:09Z</time>
<speed>0.3</speed>
</trkpt>
<trkpt lat="47.225943" lon="8.597586">
<ele>724.6</ele>
<time>2003-06-27T11:30:20Z</time>
<speed>0.0</speed>
</trkpt>
<trkpt lat="47.225927" lon="8.597623">
<ele>724.8</ele>
<time>2003-06-27T11:30:30Z</time>
<speed>0.6</speed>
</trkpt>
<trkpt lat="47.225926" lon="8.597636">
<ele>724.9</ele>
<time>2003-06-27T11:30:35Z</time>
<speed>0.3</speed>
</trkpt>
<trkpt lat="47.225913" lon="8.597647">
<ele>724.9</ele>
<time>2003-06-27T11:30:40Z</time>
<speed>0.0</speed>
</trkpt>
<trkpt lat="47.225905" lon="8.597658">
<ele>725.7</ele>
<time>2003-06-27T11:30:45Z</time>
<speed>0.0</speed>
</trkpt>
<trkpt lat="47.225906" lon="8.597645">
<ele>725.6</ele>
<time>2003-06-27T11:30:50Z</time>
<speed>0.0</speed>
</trkpt>
<trkpt lat="47.225913" lon="8.597632">
<ele>726.2</ele>
<time>2003-06-27T11:30:58Z</time>
<speed>0.3</speed>
</trkpt>
<trkpt lat="47.225927" lon="8.597621">
<ele>726.2</ele>
<time>2003-06-27T11:31:03Z</time>
<speed>0.3</speed>
</trkpt>
<trkpt lat="47.225940" lon="8.597623">
<ele>726.3</ele>
<time>2003-06-27T11:31:10Z</time>
<speed>0.0</speed>
</trkpt>
<trkpt lat="47.225934" lon="8.597623">
<ele>725.5</ele>
<time>2003-06-27T11:31:15Z</time>
<speed>0.3</speed>
</trkpt>
<trkpt lat="47.225928" lon="8.597610">
<ele>724.7</ele>
<time>2003-06-27T11:31:20Z</time>
<speed>0.0</speed>
</trkpt>
<trkpt lat="47.225922" lon="8.597608">
<ele>725.4</ele>
<time>2003-06-27T11:31:25Z</time>
<speed>0.0</speed>
</trkpt>
<trkpt lat="47.225968" lon="8.597668">
<ele>726.0</ele>
<time>2003-06-27T11:31:40Z</time>
<speed>0.3</speed>
</trkpt>
<trkpt lat="47.225976" lon="8.597655">
<ele>726.7</ele>
<time>2003-06-27T11:31:45Z</time>
<speed>0.3</speed>
</trkpt>
<trkpt lat="47.225971" lon="8.597627">
<ele>727.1</ele>
<time>2003-06-27T11:31:50Z</time>
<speed>0.0</speed>
</trkpt>
<trkpt lat="47.225958" lon="8.597625">
<ele>727.1</ele>
<time>2003-06-27T11:31:55Z</time>
<speed>0.0</speed>
</trkpt>
<trkpt lat="47.225968" lon="8.597573">
<ele>727.4</ele>
<time>2003-06-27T11:32:00Z</time>
<speed>0.6</speed>
</trkpt>
<trkpt lat="47.225988" lon="8.597562">
<ele>728.1</ele>
<time>2003-06-27T11:32:05Z</time>
<speed>0.6</speed>
</trkpt>
<trkpt lat="47.225996" lon="8.597552">
<ele>725.9</ele>
<time>2003-06-27T11:32:10Z</time>
<speed>0.0</speed>
</trkpt>
<trkpt lat="47.225967" lon="8.597601">
<ele>726.2</ele>
<time>2003-06-27T11:32:23Z</time>
<speed>0.3</speed>
</trkpt>
<trkpt lat="47.225972" lon="8.597616">
<ele>725.6</ele>
<time>2003-06-27T11:32:28Z</time>
<speed>0.0</speed>
</trkpt>
<trkpt lat="47.225974" lon="8.597590">
<ele>725.4</ele>
<time>2003-06-27T11:32:33Z</time>
<speed>0.3</speed>
</trkpt>
<trkpt lat="47.226012" lon="8.597596">
<ele>725.6</ele>
<time>2003-06-27T11:32:38Z</time>
<speed>0.3</speed>
</trkpt>
<trkpt lat="47.226043" lon="8.597788">
<ele>725.1</ele>
<time>2003-06-27T11:32:51Z</time>
<speed>0.8</speed>
</trkpt>
<trkpt lat="47.226054" lon="8.597816">
<ele>725.4</ele>
<time>2003-06-27T11:32:56Z</time>
<speed>0.6</speed>
</trkpt>
<trkpt lat="47.226058" lon="8.597938">
<ele>725.0</ele>
<time>2003-06-27T11:33:01Z</time>
<speed>1.4</speed>
</trkpt>
<trkpt lat="47.226052" lon="8.598109">
<ele>725.6</ele>
<time>2003-06-27T11:33:49Z</time>
<speed>1.4</speed>
</trkpt>
<trkpt lat="47.226044" lon="8.598216">
<ele>725.0</ele>
<time>2003-06-27T11:33:54Z</time>
<speed>1.4</speed>
</trkpt>
<trkpt lat="47.226044" lon="8.598309">
<ele>725.1</ele>
<time>2003-06-27T11:33:59Z</time>
<speed>1.4</speed>
</trkpt>
<trkpt lat="47.226026" lon="8.598387">
<ele>724.2</ele>
<time>2003-06-27T11:34:04Z</time>
<speed>1.1</speed>
</trkpt>
<trkpt lat="47.226027" lon="8.598455">
<ele>724.0</ele>
<time>2003-06-27T11:34:09Z</time>
<speed>1.1</speed>
</trkpt>
<trkpt lat="47.226039" lon="8.598281">
<ele>725.5</ele>
<time>2003-06-27T11:34:14Z</time>
<speed>0.0</speed>
</trkpt>
<trkpt lat="47.226028" lon="8.598268">
<ele>724.0</ele>
<time>2003-06-27T11:34:19Z</time>
<speed>0.3</speed>
</trkpt>
<trkpt lat="47.226016" lon="8.598266">
<ele>723.9</ele>
<time>2003-06-27T11:34:24Z</time>
<speed>0.0</speed>
</trkpt>
<trkpt lat="47.226011" lon="8.598240">
<ele>723.0</ele>
<time>2003-06-27T11:34:29Z</time>
<speed>0.0</speed>
</trkpt>
<trkpt lat="47.226040" lon="8.598283">
<ele>724.1</ele>
<time>2003-06-27T11:34:34Z</time>
<speed>0.8</speed>
</trkpt>
<trkpt lat="47.226086" lon="8.598343">
<ele>724.8</ele>
<time>2003-06-27T11:34:39Z</time>
<speed>0.8</speed>
</trkpt>
<trkpt lat="47.226054" lon="8.598617">
<ele>725.5</ele>
<time>2003-06-27T11:34:48Z</time>
<speed>0.8</speed>
</trkpt>
<trkpt lat="47.226074" lon="8.598513">
<ele>726.1</ele>
<time>2003-06-27T11:34:53Z</time>
<speed>0.8</speed>
</trkpt>
<trkpt lat="47.226081" lon="8.597887">
<ele>725.4</ele>
<time>2003-06-27T11:35:01Z</time>
<speed>0.3</speed>
</trkpt>
<trkpt lat="47.226085" lon="8.597681">
<ele>720.9</ele>
<time>2003-06-27T11:35:06Z</time>
<speed>0.0</speed>
</trkpt>
<trkpt lat="47.226095" lon="8.597628">
<ele>721.2</ele>
<time>2003-06-27T11:35:15Z</time>
<speed>0.3</speed>
</trkpt>
<trkpt lat="47.226072" lon="8.597524">
<ele>716.7</ele>
<time>2003-06-27T11:35:20Z</time>
<speed>0.0</speed>
</trkpt>
<trkpt lat="47.226041" lon="8.597503">
<ele>718.6</ele>
<time>2003-06-27T11:35:25Z</time>
<speed>0.0</speed>
</trkpt>
<trkpt lat="47.226047" lon="8.597503">
<ele>719.3</ele>
<time>2003-06-27T11:35:30Z</time>
<speed>0.0</speed>
</trkpt>
<trkpt lat="47.226051" lon="8.597451">
<ele>718.9</ele>
<time>2003-06-27T11:35:35Z</time>
<speed>0.0</speed>
</trkpt>
<trkpt lat="47.226056" lon="8.597464">
<ele>719.7</ele>
<time>2003-06-27T11:35:40Z</time>
<speed>0.0</speed>
</trkpt>
<trkpt lat="47.226046" lon="8.597516">
<ele>719.4</ele>
<time>2003-06-27T11:35:48Z</time>
<speed>0.6</speed>
</trkpt>
<trkpt lat="47.226025" lon="8.597536">
<ele>721.6</ele>
<time>2003-06-27T11:35:53Z</time>
<speed>0.3</speed>
</trkpt>
<trkpt lat="47.226084" lon="8.597598">
<ele>722.3</ele>
<time>2003-06-27T11:36:02Z</time>
<speed>1.1</speed>
</trkpt>
<trkpt lat="47.226076" lon="8.597624">
<ele>721.8</ele>
<time>2003-06-27T11:36:07Z</time>
<speed>0.6</speed>
</trkpt>
<trkpt lat="47.226048" lon="8.597660">
<ele>722.0</ele>
<time>2003-06-27T11:36:12Z</time>
<speed>0.6</speed>
</trkpt>
<trkpt lat="47.226033" lon="8.597684">
<ele>722.1</ele>
<time>2003-06-27T11:36:18Z</time>
<speed>0.3</speed>
</trkpt>
<trkpt lat="47.226010" lon="8.597654">
<ele>721.8</ele>
<time>2003-06-27T11:36:23Z</time>
<speed>0.3</speed>
</trkpt>
<trkpt lat="47.225991" lon="8.597637">
<ele>722.3</ele>
<time>2003-06-27T11:36:29Z</time>
<speed>0.0</speed>
</trkpt>
<trkpt lat="47.225967" lon="8.597618">
<ele>723.5</ele>
<time>2003-06-27T11:36:36Z</time>
<speed>0.0</speed>
</trkpt>
<trkpt lat="47.225960" lon="8.597616">
<ele>724.2</ele>
<time>2003-06-27T11:36:44Z</time>
<speed>0.0</speed>
</trkpt>
<trkpt lat="47.225968" lon="8.597605">
<ele>723.4</ele>
<time>2003-06-27T11:36:49Z</time>
<speed>0.0</speed>
</trkpt>
<trkpt lat="47.225980" lon="8.597605">
<ele>724.8</ele>
<time>2003-06-27T11:36:54Z</time>
<speed>0.0</speed>
</trkpt>
<trkpt lat="47.225983" lon="8.597646">
<ele>724.5</ele>
<time>2003-06-27T11:37:00Z</time>
<speed>0.6</speed>
</trkpt>
<trkpt lat="47.225969" lon="8.597655">
<ele>725.9</ele>
<time>2003-06-27T11:37:05Z</time>
<speed>0.0</speed>
</trkpt>
<trkpt lat="47.225969" lon="8.597655">
<ele>725.9</ele>
<time>2003-06-27T11:37:10Z</time>
<speed>0.0</speed>
</trkpt>
<trkpt lat="47.225975" lon="8.597670">
<ele>725.4</ele>
<time>2003-06-27T11:37:16Z</time>
<speed>0.0</speed>
</trkpt>
<trkpt lat="47.225981" lon="8.597670">
<ele>726.1</ele>
<time>2003-06-27T11:37:21Z</time>
<speed>0.0</speed>
</trkpt>
<trkpt lat="47.225963" lon="8.597653">
<ele>726.6</ele>
<time>2003-06-27T11:37:26Z</time>
<speed>0.0</speed>
</trkpt>
<trkpt lat="47.225949" lon="8.597662">
<ele>728.0</ele>
<time>2003-06-27T11:37:31Z</time>
<speed>0.3</speed>
</trkpt>
<trkpt lat="47.225937" lon="8.597647">
<ele>727.9</ele>
<time>2003-06-27T11:37:36Z</time>
<speed>0.0</speed>
</trkpt>
<trkpt lat="47.225926" lon="8.597632">
<ele>727.7</ele>
<time>2003-06-27T11:37:41Z</time>
<speed>0.0</speed>
</trkpt>
<trkpt lat="47.225914" lon="8.597615">
<ele>729.0</ele>
<time>2003-06-27T11:37:46Z</time>
<speed>0.0</speed>
</trkpt>
<trkpt lat="47.225913" lon="8.597613">
<ele>730.4</ele>
<time>2003-06-27T11:37:51Z</time>
<speed>0.0</speed>
</trkpt>
<trkpt lat="47.225898" lon="8.597637">
<ele>730.5</ele>
<time>2003-06-27T11:37:56Z</time>
<speed>0.0</speed>
</trkpt>
<trkpt lat="47.225894" lon="8.597687">
<ele>732.3</ele>
<time>2003-06-27T11:38:01Z</time>
<speed>0.0</speed>
</trkpt>
<trkpt lat="47.225893" lon="8.597700">
<ele>732.4</ele>
<time>2003-06-27T11:38:06Z</time>
<speed>0.0</speed>
</trkpt>
<trkpt lat="47.225894" lon="8.597685">
<ele>733.7</ele>
<time>2003-06-27T11:38:11Z</time>
<speed>0.0</speed>
</trkpt>
<trkpt lat="47.225886" lon="8.597697">
<ele>734.5</ele>
<time>2003-06-27T11:38:16Z</time>
<speed>0.0</speed>
</trkpt>
<trkpt lat="47.225884" lon="8.597723">
<ele>734.7</ele>
<time>2003-06-27T11:38:21Z</time>
<speed>0.3</speed>
</trkpt>
<trkpt lat="47.225887" lon="8.597762">
<ele>735.7</ele>
<time>2003-06-27T11:38:26Z</time>
<speed>0.3</speed>
</trkpt>
<trkpt lat="47.225880" lon="8.597773">
<ele>736.5</ele>
<time>2003-06-27T11:38:31Z</time>
<speed>0.0</speed>
</trkpt>
<trkpt lat="47.225878" lon="8.597784">
<ele>738.0</ele>
<time>2003-06-27T11:38:36Z</time>
<speed>0.0</speed>
</trkpt>
<trkpt lat="47.225878" lon="8.597784">
<ele>738.0</ele>
<time>2003-06-27T11:38:41Z</time>
<speed>0.0</speed>
</trkpt>
<trkpt lat="47.225884" lon="8.597797">
<ele>738.8</ele>
<time>2003-06-27T11:38:46Z</time>
<speed>0.0</speed>
</trkpt>
<trkpt lat="47.225885" lon="8.597784">
<ele>738.7</ele>
<time>2003-06-27T11:38:51Z</time>
<speed>0.0</speed>
</trkpt>
<trkpt lat="47.225887" lon="8.597743">
<ele>739.8</ele>
<time>2003-06-27T11:38:56Z</time>
<speed>0.3</speed>
</trkpt>
<trkpt lat="47.225882" lon="8.597730">
<ele>739.0</ele>
<time>2003-06-27T11:39:01Z</time>
<speed>0.0</speed>
</trkpt>
<trkpt lat="47.225888" lon="8.597730">
<ele>739.7</ele>
<time>2003-06-27T11:39:06Z</time>
<speed>0.0</speed>
</trkpt>
<trkpt lat="47.225894" lon="8.597745">
<ele>739.2</ele>
<time>2003-06-27T11:39:11Z</time>
<speed>0.3</speed>
</trkpt>
<trkpt lat="47.225888" lon="8.597745">
<ele>738.4</ele>
<time>2003-06-27T11:39:16Z</time>
<speed>0.0</speed>
</trkpt>
<trkpt lat="47.225895" lon="8.597732">
<ele>739.1</ele>
<time>2003-06-27T11:39:21Z</time>
<speed>0.0</speed>
</trkpt>
<trkpt lat="47.225903" lon="8.597723">
<ele>736.9</ele>
<time>2003-06-27T11:39:26Z</time>
<speed>0.0</speed>
</trkpt>
<trkpt lat="47.225888" lon="8.597747">
<ele>737.0</ele>
<time>2003-06-27T11:39:31Z</time>
<speed>0.3</speed>
</trkpt>
<trkpt lat="47.225879" lon="8.597786">
<ele>736.6</ele>
<time>2003-06-27T11:39:41Z</time>
<speed>0.0</speed>
</trkpt>
<trkpt lat="47.225878" lon="8.597799">
<ele>736.7</ele>
<time>2003-06-27T11:39:46Z</time>
<speed>0.3</speed>
</trkpt>
<trkpt lat="47.225878" lon="8.597799">
<ele>736.7</ele>
<time>2003-06-27T11:39:53Z</time>
<speed>0.0</speed>
</trkpt>
<trkpt lat="47.225879" lon="8.597786">
<ele>736.6</ele>
<time>2003-06-27T11:39:59Z</time>
<speed>0.0</speed>
</trkpt>
<trkpt lat="47.225891" lon="8.597801">
<ele>736.8</ele>
<time>2003-06-27T11:40:10Z</time>
<speed>0.0</speed>
</trkpt>
<trkpt lat="47.225892" lon="8.597790">
<ele>735.3</ele>
<time>2003-06-27T11:40:15Z</time>
<speed>0.3</speed>
</trkpt>
<trkpt lat="47.225892" lon="8.597790">
<ele>735.3</ele>
<time>2003-06-27T11:40:20Z</time>
<speed>0.0</speed>
</trkpt>
<trkpt lat="47.225893" lon="8.597777">
<ele>735.2</ele>
<time>2003-06-27T11:40:25Z</time>
<speed>0.0</speed>
</trkpt>
<trkpt lat="47.225907" lon="8.597766">
<ele>735.1</ele>
<time>2003-06-27T11:40:30Z</time>
<speed>0.0</speed>
</trkpt>
<trkpt lat="47.225926" lon="8.597755">
<ele>735.8</ele>
<time>2003-06-27T11:40:35Z</time>
<speed>0.0</speed>
</trkpt>
<trkpt lat="47.225920" lon="8.597753">
<ele>736.5</ele>
<time>2003-06-27T11:40:40Z</time>
<speed>0.3</speed>
</trkpt>
<trkpt lat="47.225873" lon="8.597691">
<ele>737.2</ele>
<time>2003-06-27T11:40:45Z</time>
<speed>1.4</speed>
</trkpt>
<trkpt lat="47.225812" lon="8.597735">
<ele>736.7</ele>
<time>2003-06-27T11:40:50Z</time>
<speed>1.1</speed>
</trkpt>
<trkpt lat="47.225774" lon="8.597744">
<ele>735.2</ele>
<time>2003-06-27T11:40:55Z</time>
<speed>1.1</speed>
</trkpt>
<trkpt lat="47.225725" lon="8.597803">
<ele>734.8</ele>
<time>2003-06-27T11:41:00Z</time>
<speed>1.1</speed>
</trkpt>
<trkpt lat="47.225669" lon="8.597861">
<ele>735.0</ele>
<time>2003-06-27T11:41:05Z</time>
<speed>1.4</speed>
</trkpt>
<trkpt lat="47.225616" lon="8.597894">
<ele>733.7</ele>
<time>2003-06-27T11:41:10Z</time>
<speed>1.1</speed>
</trkpt>
<trkpt lat="47.225569" lon="8.597942">
<ele>731.7</ele>
<time>2003-06-27T11:41:15Z</time>
<speed>1.1</speed>
</trkpt>
<trkpt lat="47.225535" lon="8.597964">
<ele>731.1</ele>
<time>2003-06-27T11:41:20Z</time>
<speed>0.3</speed>
</trkpt>
<trkpt lat="47.225476" lon="8.597996">
<ele>730.4</ele>
<time>2003-06-27T11:41:25Z</time>
<speed>0.8</speed>
</trkpt>
<trkpt lat="47.225428" lon="8.598042">
<ele>729.9</ele>
<time>2003-06-27T11:41:30Z</time>
<speed>1.1</speed>
</trkpt>
<trkpt lat="47.225373" lon="8.598086">
<ele>730.0</ele>
<time>2003-06-27T11:41:35Z</time>
<speed>0.8</speed>
</trkpt>
<trkpt lat="47.225319" lon="8.598131">
<ele>730.2</ele>
<time>2003-06-27T11:41:40Z</time>
<speed>1.1</speed>
</trkpt>
<trkpt lat="47.225259" lon="8.598162">
<ele>729.5</ele>
<time>2003-06-27T11:41:45Z</time>
<speed>0.8</speed>
</trkpt>
<trkpt lat="47.225205" lon="8.598208">
<ele>728.3</ele>
<time>2003-06-27T11:41:50Z</time>
<speed>0.8</speed>
</trkpt>
<trkpt lat="47.225145" lon="8.598239">
<ele>727.6</ele>
<time>2003-06-27T11:41:55Z</time>
<speed>1.1</speed>
</trkpt>
<trkpt lat="47.225092" lon="8.598273">
<ele>726.2</ele>
<time>2003-06-27T11:42:00Z</time>
<speed>0.8</speed>
</trkpt>
<trkpt lat="47.225034" lon="8.598291">
<ele>725.5</ele>
<time>2003-06-27T11:42:05Z</time>
<speed>1.1</speed>
</trkpt>
<trkpt lat="47.224975" lon="8.598309">
<ele>724.7</ele>
<time>2003-06-27T11:42:10Z</time>
<speed>1.1</speed>
</trkpt>
<trkpt lat="47.224911" lon="8.598314">
<ele>723.1</ele>
<time>2003-06-27T11:42:15Z</time>
<speed>1.4</speed>
</trkpt>
<trkpt lat="47.224853" lon="8.598317">
<ele>723.6</ele>
<time>2003-06-27T11:42:20Z</time>
<speed>1.1</speed>
</trkpt>
<trkpt lat="47.224790" lon="8.598323">
<ele>722.0</ele>
<time>2003-06-27T11:42:25Z</time>
<speed>1.1</speed>
</trkpt>
<trkpt lat="47.224733" lon="8.598315">
<ele>721.0</ele>
<time>2003-06-27T11:42:30Z</time>
<speed>1.1</speed>
</trkpt>
<trkpt lat="47.224670" lon="8.598305">
<ele>720.7</ele>
<time>2003-06-27T11:42:35Z</time>
<speed>1.1</speed>
</trkpt>
<trkpt lat="47.224606" lon="8.598310">
<ele>719.1</ele>
<time>2003-06-27T11:42:40Z</time>
<speed>1.4</speed>
</trkpt>
<trkpt lat="47.224548" lon="8.598313">
<ele>719.6</ele>
<time>2003-06-27T11:42:45Z</time>
<speed>1.4</speed>
</trkpt>
<trkpt lat="47.224477" lon="8.598314">
<ele>720.0</ele>
<time>2003-06-27T11:42:50Z</time>
<speed>1.1</speed>
</trkpt>
<trkpt lat="47.224413" lon="8.598318">
<ele>719.8</ele>
<time>2003-06-27T11:42:55Z</time>
<speed>1.4</speed>
</trkpt>
<trkpt lat="47.224354" lon="8.598334">
<ele>720.5</ele>
<time>2003-06-27T11:43:00Z</time>
<speed>1.4</speed>
</trkpt>
<trkpt lat="47.224296" lon="8.598337">
<ele>721.0</ele>
<time>2003-06-27T11:43:05Z</time>
<speed>1.1</speed>
</trkpt>
<trkpt lat="47.224250" lon="8.598355">
<ele>721.7</ele>
<time>2003-06-27T11:43:10Z</time>
<speed>0.8</speed>
</trkpt>
<trkpt lat="47.224186" lon="8.598343">
<ele>722.8</ele>
<time>2003-06-27T11:43:15Z</time>
<speed>1.4</speed>
</trkpt>
<trkpt lat="47.224122" lon="8.598332">
<ele>723.8</ele>
<time>2003-06-27T11:43:20Z</time>
<speed>1.4</speed>
</trkpt>
<trkpt lat="47.224058" lon="8.598333">
<ele>725.0</ele>
<time>2003-06-27T11:43:25Z</time>
<speed>1.4</speed>
</trkpt>
<trkpt lat="47.223993" lon="8.598334">
<ele>726.2</ele>
<time>2003-06-27T11:43:30Z</time>
<speed>1.1</speed>
</trkpt>
<trkpt lat="47.223929" lon="8.598337">
<ele>726.0</ele>
<time>2003-06-27T11:43:35Z</time>
<speed>1.1</speed>
</trkpt>
<trkpt lat="47.223870" lon="8.598351">
<ele>728.1</ele>
<time>2003-06-27T11:43:40Z</time>
<speed>1.4</speed>
</trkpt>
<trkpt lat="47.223812" lon="8.598342">
<ele>728.5</ele>
<time>2003-06-27T11:43:45Z</time>
<speed>1.1</speed>
</trkpt>
<trkpt lat="47.223761" lon="8.598345">
<ele>729.7</ele>
<time>2003-06-27T11:43:50Z</time>
<speed>1.1</speed>
</trkpt>
<trkpt lat="47.223708" lon="8.598361">
<ele>731.1</ele>
<time>2003-06-27T11:43:55Z</time>
<speed>1.1</speed>
</trkpt>
<trkpt lat="47.223651" lon="8.598353">
<ele>730.1</ele>
<time>2003-06-27T11:44:00Z</time>
<speed>1.4</speed>
</trkpt>
<trkpt lat="47.223598" lon="8.598369">
<ele>731.5</ele>
<time>2003-06-27T11:44:05Z</time>
<speed>1.1</speed>
</trkpt>
<trkpt lat="47.223539" lon="8.598386">
<ele>732.1</ele>
<time>2003-06-27T11:44:10Z</time>
<speed>1.1</speed>
</trkpt>
<trkpt lat="47.223481" lon="8.598389">
<ele>732.6</ele>
<time>2003-06-27T11:44:15Z</time>
<speed>1.1</speed>
</trkpt>
<trkpt lat="47.223434" lon="8.598420">
<ele>733.4</ele>
<time>2003-06-27T11:44:20Z</time>
<speed>0.8</speed>
</trkpt>
<trkpt lat="47.223380" lon="8.598451">
<ele>733.5</ele>
<time>2003-06-27T11:44:25Z</time>
<speed>1.1</speed>
</trkpt>
<trkpt lat="47.223333" lon="8.598483">
<ele>734.2</ele>
<time>2003-06-27T11:44:30Z</time>
<speed>0.8</speed>
</trkpt>
<trkpt lat="47.223287" lon="8.598503">
<ele>733.5</ele>
<time>2003-06-27T11:44:35Z</time>
<speed>0.8</speed>
</trkpt>
<trkpt lat="47.223246" lon="8.598536">
<ele>733.6</ele>
<time>2003-06-27T11:44:40Z</time>
<speed>1.1</speed>
</trkpt>
<trkpt lat="47.223199" lon="8.598569">
<ele>733.0</ele>
<time>2003-06-27T11:44:45Z</time>
<speed>0.8</speed>
</trkpt>
<trkpt lat="47.223145" lon="8.598600">
<ele>733.1</ele>
<time>2003-06-27T11:44:50Z</time>
<speed>0.8</speed>
</trkpt>
<trkpt lat="47.223092" lon="8.598632">
<ele>733.1</ele>
<time>2003-06-27T11:44:55Z</time>
<speed>1.1</speed>
</trkpt>
<trkpt lat="47.223045" lon="8.598665">
<ele>732.5</ele>
<time>2003-06-27T11:45:00Z</time>
<speed>1.1</speed>
</trkpt>
<trkpt lat="47.222998" lon="8.598683">
<ele>733.2</ele>
<time>2003-06-27T11:45:05Z</time>
<speed>0.8</speed>
</trkpt>
<trkpt lat="47.222957" lon="8.598729">
<ele>733.4</ele>
<time>2003-06-27T11:45:10Z</time>
<speed>1.1</speed>
</trkpt>
<trkpt lat="47.222903" lon="8.598761">
<ele>733.5</ele>
<time>2003-06-27T11:45:15Z</time>
<speed>1.1</speed>
</trkpt>
<trkpt lat="47.222856" lon="8.598792">
<ele>734.3</ele>
<time>2003-06-27T11:45:20Z</time>
<speed>1.1</speed>
</trkpt>
<trkpt lat="47.222807" lon="8.598836">
<ele>735.2</ele>
<time>2003-06-27T11:45:25Z</time>
<speed>0.8</speed>
</trkpt>
<trkpt lat="47.222760" lon="8.598868">
<ele>735.9</ele>
<time>2003-06-27T11:45:30Z</time>
<speed>1.4</speed>
</trkpt>
<trkpt lat="47.222712" lon="8.598914">
<ele>735.4</ele>
<time>2003-06-27T11:45:35Z</time>
<speed>1.1</speed>
</trkpt>
<trkpt lat="47.222664" lon="8.598958">
<ele>736.3</ele>
<time>2003-06-27T11:45:40Z</time>
<speed>0.8</speed>
</trkpt>
<trkpt lat="47.222622" lon="8.599004">
<ele>736.5</ele>
<time>2003-06-27T11:45:45Z</time>
<speed>1.1</speed>
</trkpt>
<trkpt lat="47.222580" lon="8.599051">
<ele>736.8</ele>
<time>2003-06-27T11:45:50Z</time>
<speed>1.1</speed>
</trkpt>
<trkpt lat="47.222538" lon="8.599097">
<ele>737.0</ele>
<time>2003-06-27T11:45:55Z</time>
<speed>0.8</speed>
</trkpt>
<trkpt lat="47.222489" lon="8.599156">
<ele>736.6</ele>
<time>2003-06-27T11:46:00Z</time>
<speed>1.1</speed>
</trkpt>
<trkpt lat="47.222447" lon="8.599203">
<ele>736.8</ele>
<time>2003-06-27T11:46:05Z</time>
<speed>1.1</speed>
</trkpt>
<trkpt lat="47.222405" lon="8.599249">
<ele>737.0</ele>
<time>2003-06-27T11:46:10Z</time>
<speed>1.1</speed>
</trkpt>
<trkpt lat="47.222370" lon="8.599297">
<ele>736.5</ele>
<time>2003-06-27T11:46:15Z</time>
<speed>1.1</speed>
</trkpt>
<trkpt lat="47.222321" lon="8.599357">
<ele>736.1</ele>
<time>2003-06-27T11:46:20Z</time>
<speed>1.1</speed>
</trkpt>
<trkpt lat="47.222279" lon="8.599403">
<ele>736.4</ele>
<time>2003-06-27T11:46:25Z</time>
<speed>0.8</speed>
</trkpt>
<trkpt lat="47.222252" lon="8.599425">
<ele>736.4</ele>
<time>2003-06-27T11:46:30Z</time>
<speed>0.8</speed>
</trkpt>
<trkpt lat="47.222210" lon="8.599471">
<ele>736.7</ele>
<time>2003-06-27T11:46:35Z</time>
<speed>1.1</speed>
</trkpt>
<trkpt lat="47.222168" lon="8.599518">
<ele>736.9</ele>
<time>2003-06-27T11:46:40Z</time>
<speed>0.8</speed>
</trkpt>
<trkpt lat="47.222126" lon="8.599564">
<ele>737.1</ele>
<time>2003-06-27T11:46:45Z</time>
<speed>0.8</speed>
</trkpt>
<trkpt lat="47.222097" lon="8.599612">
<ele>737.4</ele>
<time>2003-06-27T11:46:50Z</time>
<speed>0.8</speed>
</trkpt>
<trkpt lat="47.222055" lon="8.599658">
<ele>737.6</ele>
<time>2003-06-27T11:46:55Z</time>
<speed>0.8</speed>
</trkpt>
<trkpt lat="47.222013" lon="8.599705">
<ele>737.8</ele>
<time>2003-06-27T11:47:00Z</time>
<speed>0.8</speed>
</trkpt>
<trkpt lat="47.221983" lon="8.599766">
<ele>738.2</ele>
<time>2003-06-27T11:47:05Z</time>
<speed>1.1</speed>
</trkpt>
<trkpt lat="47.221940" lon="8.599825">
<ele>738.5</ele>
<time>2003-06-27T11:47:10Z</time>
<speed>1.1</speed>
</trkpt>
<trkpt lat="47.221898" lon="8.599885">
<ele>738.8</ele>
<time>2003-06-27T11:47:15Z</time>
<speed>1.1</speed>
</trkpt>
<trkpt lat="47.221862" lon="8.599933">
<ele>738.4</ele>
<time>2003-06-27T11:47:20Z</time>
<speed>1.1</speed>
</trkpt>
<trkpt lat="47.221826" lon="8.599992">
<ele>739.4</ele>
<time>2003-06-27T11:47:25Z</time>
<speed>0.8</speed>
</trkpt>
<trkpt lat="47.221788" lon="8.600065">
<ele>740.6</ele>
<time>2003-06-27T11:47:30Z</time>
<speed>1.1</speed>
</trkpt>
<trkpt lat="47.221745" lon="8.600124">
<ele>740.9</ele>
<time>2003-06-27T11:47:35Z</time>
<speed>0.8</speed>
</trkpt>
<trkpt lat="47.221714" lon="8.600198">
<ele>741.4</ele>
<time>2003-06-27T11:47:40Z</time>
<speed>1.1</speed>
</trkpt>
<trkpt lat="47.221677" lon="8.600258">
<ele>742.4</ele>
<time>2003-06-27T11:47:45Z</time>
<speed>1.1</speed>
</trkpt>
<trkpt lat="47.221641" lon="8.600319">
<ele>742.1</ele>
<time>2003-06-27T11:47:50Z</time>
<speed>1.1</speed>
</trkpt>
<trkpt lat="47.221603" lon="8.600392">
<ele>743.3</ele>
<time>2003-06-27T11:47:55Z</time>
<speed>1.1</speed>
</trkpt>
<trkpt lat="47.221573" lon="8.600453">
<ele>743.6</ele>
<time>2003-06-27T11:48:00Z</time>
<speed>0.8</speed>
</trkpt>
<trkpt lat="47.221530" lon="8.600512">
<ele>744.0</ele>
<time>2003-06-27T11:48:05Z</time>
<speed>1.1</speed>
</trkpt>
<trkpt lat="47.221486" lon="8.600585">
<ele>744.4</ele>
<time>2003-06-27T11:48:10Z</time>
<speed>1.1</speed>
</trkpt>
<trkpt lat="47.221456" lon="8.600646">
<ele>744.8</ele>
<time>2003-06-27T11:48:15Z</time>
<speed>1.1</speed>
</trkpt>
<trkpt lat="47.221420" lon="8.600707">
<ele>744.4</ele>
<time>2003-06-27T11:48:20Z</time>
<speed>1.1</speed>
</trkpt>
<trkpt lat="47.221389" lon="8.600769">
<ele>744.8</ele>
<time>2003-06-27T11:48:25Z</time>
<speed>1.1</speed>
</trkpt>
<trkpt lat="47.221346" lon="8.600841">
<ele>745.2</ele>
<time>2003-06-27T11:48:30Z</time>
<speed>1.1</speed>
</trkpt>
<trkpt lat="47.221309" lon="8.600902">
<ele>744.9</ele>
<time>2003-06-27T11:48:35Z</time>
<speed>1.1</speed>
</trkpt>
<trkpt lat="47.221265" lon="8.600975">
<ele>745.3</ele>
<time>2003-06-27T11:48:40Z</time>
<speed>1.4</speed>
</trkpt>
<trkpt lat="47.221234" lon="8.601049">
<ele>745.8</ele>
<time>2003-06-27T11:48:45Z</time>
<speed>1.1</speed>
</trkpt>
<trkpt lat="47.221203" lon="8.601123">
<ele>746.3</ele>
<time>2003-06-27T11:48:50Z</time>
<speed>1.1</speed>
</trkpt>
<trkpt lat="47.221165" lon="8.601196">
<ele>747.4</ele>
<time>2003-06-27T11:48:55Z</time>
<speed>1.1</speed>
</trkpt>
<trkpt lat="47.221128" lon="8.601270">
<ele>747.2</ele>
<time>2003-06-27T11:49:00Z</time>
<speed>1.4</speed>
</trkpt>
<trkpt lat="47.221084" lon="8.601343">
<ele>747.6</ele>
<time>2003-06-27T11:49:05Z</time>
<speed>1.1</speed>
</trkpt>
<trkpt lat="47.221041" lon="8.601402">
<ele>747.9</ele>
<time>2003-06-27T11:49:10Z</time>
<speed>1.1</speed>
</trkpt>
<trkpt lat="47.220997" lon="8.601472">
<ele>749.7</ele>
<time>2003-06-27T11:49:15Z</time>
<speed>1.1</speed>
</trkpt>
<trkpt lat="47.220954" lon="8.601532">
<ele>750.1</ele>
<time>2003-06-27T11:49:20Z</time>
<speed>1.1</speed>
</trkpt>
<trkpt lat="47.220905" lon="8.601591">
<ele>749.6</ele>
<time>2003-06-27T11:49:25Z</time>
<speed>1.1</speed>
</trkpt>
<trkpt lat="47.220856" lon="8.601650">
<ele>749.2</ele>
<time>2003-06-27T11:49:30Z</time>
<speed>1.1</speed>
</trkpt>
<trkpt lat="47.220813" lon="8.601723">
<ele>749.6</ele>
<time>2003-06-27T11:49:35Z</time>
<speed>1.4</speed>
</trkpt>
<trkpt lat="47.220763" lon="8.601780">
<ele>750.6</ele>
<time>2003-06-27T11:49:40Z</time>
<speed>1.4</speed>
</trkpt>
<trkpt lat="47.220713" lon="8.601852">
<ele>750.3</ele>
<time>2003-06-27T11:49:45Z</time>
<speed>1.1</speed>
</trkpt>
<trkpt lat="47.220669" lon="8.601925">
<ele>750.8</ele>
<time>2003-06-27T11:49:50Z</time>
<speed>1.4</speed>
</trkpt>
<trkpt lat="47.220627" lon="8.601984">
<ele>751.1</ele>
<time>2003-06-27T11:49:55Z</time>
<speed>1.4</speed>
</trkpt>
<trkpt lat="47.220577" lon="8.602057">
<ele>750.8</ele>
<time>2003-06-27T11:50:00Z</time>
<speed>1.4</speed>
</trkpt>
<trkpt lat="47.220546" lon="8.602118">
<ele>751.1</ele>
<time>2003-06-27T11:50:05Z</time>
<speed>1.1</speed>
</trkpt>
<trkpt lat="47.220509" lon="8.602190">
<ele>752.3</ele>
<time>2003-06-27T11:50:10Z</time>
<speed>1.4</speed>
</trkpt>
<trkpt lat="47.220471" lon="8.602265">
<ele>752.1</ele>
<time>2003-06-27T11:50:15Z</time>
<speed>1.1</speed>
</trkpt>
<trkpt lat="47.220434" lon="8.602337">
<ele>753.2</ele>
<time>2003-06-27T11:50:20Z</time>
<speed>1.1</speed>
</trkpt>
<trkpt lat="47.220403" lon="8.602398">
<ele>753.6</ele>
<time>2003-06-27T11:50:25Z</time>
<speed>1.1</speed>
</trkpt>
<trkpt lat="47.220372" lon="8.602473">
<ele>754.1</ele>
<time>2003-06-27T11:50:30Z</time>
<speed>1.1</speed>
</trkpt>
<trkpt lat="47.220329" lon="8.602532">
<ele>754.4</ele>
<time>2003-06-27T11:50:35Z</time>
<speed>1.1</speed>
</trkpt>
<trkpt lat="47.220292" lon="8.602606">
<ele>754.1</ele>
<time>2003-06-27T11:50:40Z</time>
<speed>1.1</speed>
</trkpt>
<trkpt lat="47.220255" lon="8.602681">
<ele>753.9</ele>
<time>2003-06-27T11:50:45Z</time>
<speed>1.4</speed>
</trkpt>
<trkpt lat="47.220217" lon="8.602755">
<ele>753.6</ele>
<time>2003-06-27T11:50:50Z</time>
<speed>1.4</speed>
</trkpt>
<trkpt lat="47.220168" lon="8.602828">
<ele>753.3</ele>
<time>2003-06-27T11:50:55Z</time>
<speed>1.1</speed>
</trkpt>
<trkpt lat="47.220132" lon="8.602876">
<ele>752.9</ele>
<time>2003-06-27T11:51:00Z</time>
<speed>0.8</speed>
</trkpt>
<trkpt lat="47.220096" lon="8.602937">
<ele>752.5</ele>
<time>2003-06-27T11:51:05Z</time>
<speed>1.1</speed>
</trkpt>
<trkpt lat="47.220051" lon="8.603025">
<ele>751.7</ele>
<time>2003-06-27T11:51:10Z</time>
<speed>1.4</speed>
</trkpt>
<trkpt lat="47.220014" lon="8.603099">
<ele>751.4</ele>
<time>2003-06-27T11:51:15Z</time>
<speed>1.1</speed>
</trkpt>
<trkpt lat="47.219984" lon="8.603162">
<ele>750.4</ele>
<time>2003-06-27T11:51:20Z</time>
<speed>1.1</speed>
</trkpt>
<trkpt lat="47.219954" lon="8.603239">
<ele>749.5</ele>
<time>2003-06-27T11:51:25Z</time>
<speed>1.1</speed>
</trkpt>
<trkpt lat="47.219916" lon="8.603328">
<ele>747.9</ele>
<time>2003-06-27T11:51:30Z</time>
<speed>1.1</speed>
</trkpt>
<trkpt lat="47.219873" lon="8.603389">
<ele>746.8</ele>
<time>2003-06-27T11:51:35Z</time>
<speed>1.1</speed>
</trkpt>
<trkpt lat="47.219857" lon="8.603361">
<ele>745.8</ele>
<time>2003-06-27T11:51:40Z</time>
<speed>0.8</speed>
</trkpt>
<trkpt lat="47.219835" lon="8.603305">
<ele>745.3</ele>
<time>2003-06-27T11:51:45Z</time>
<speed>0.6</speed>
</trkpt>
<trkpt lat="47.219846" lon="8.603333">
<ele>745.6</ele>
<time>2003-06-27T11:51:50Z</time>
<speed>1.1</speed>
</trkpt>
<trkpt lat="47.219852" lon="8.603428">
<ele>744.9</ele>
<time>2003-06-27T11:51:55Z</time>
<speed>1.1</speed>
</trkpt>
<trkpt lat="47.219827" lon="8.603505">
<ele>744.7</ele>
<time>2003-06-27T11:52:00Z</time>
<speed>1.4</speed>
</trkpt>
<trkpt lat="47.219796" lon="8.603594">
<ele>743.9</ele>
<time>2003-06-27T11:52:05Z</time>
<speed>1.1</speed>
</trkpt>
<trkpt lat="47.219764" lon="8.603684">
<ele>743.1</ele>
<time>2003-06-27T11:52:10Z</time>
<speed>1.7</speed>
</trkpt>
<trkpt lat="47.219713" lon="8.603769">
<ele>742.9</ele>
<time>2003-06-27T11:52:15Z</time>
<speed>1.4</speed>
</trkpt>
<trkpt lat="47.219676" lon="8.603843">
<ele>742.6</ele>
<time>2003-06-27T11:52:20Z</time>
<speed>1.1</speed>
</trkpt>
<trkpt lat="47.219620" lon="8.603916">
<ele>741.6</ele>
<time>2003-06-27T11:52:25Z</time>
<speed>1.7</speed>
</trkpt>
<trkpt lat="47.219556" lon="8.603999">
<ele>741.3</ele>
<time>2003-06-27T11:52:30Z</time>
<speed>1.4</speed>
</trkpt>
<trkpt lat="47.219514" lon="8.604060">
<ele>740.2</ele>
<time>2003-06-27T11:52:35Z</time>
<speed>1.1</speed>
</trkpt>
<trkpt lat="47.219471" lon="8.604122">
<ele>739.2</ele>
<time>2003-06-27T11:52:40Z</time>
<speed>1.1</speed>
</trkpt>
<trkpt lat="47.219410" lon="8.604179">
<ele>738.7</ele>
<time>2003-06-27T11:52:45Z</time>
<speed>1.7</speed>
</trkpt>
<trkpt lat="47.219361" lon="8.604238">
<ele>738.3</ele>
<time>2003-06-27T11:52:50Z</time>
<speed>0.8</speed>
</trkpt>
<trkpt lat="47.219311" lon="8.604296">
<ele>739.3</ele>
<time>2003-06-27T11:52:55Z</time>
<speed>1.1</speed>
</trkpt>
<trkpt lat="47.219268" lon="8.604355">
<ele>739.6</ele>
<time>2003-06-27T11:53:00Z</time>
<speed>1.4</speed>
</trkpt>
<trkpt lat="47.219213" lon="8.604413">
<ele>739.8</ele>
<time>2003-06-27T11:53:05Z</time>
<speed>1.4</speed>
</trkpt>
<trkpt lat="47.219171" lon="8.604459">
<ele>740.1</ele>
<time>2003-06-27T11:53:10Z</time>
<speed>1.1</speed>
</trkpt>
<trkpt lat="47.219122" lon="8.604518">
<ele>739.6</ele>
<time>2003-06-27T11:53:15Z</time>
<speed>0.8</speed>
</trkpt>
<trkpt lat="47.219086" lon="8.604579">
<ele>739.3</ele>
<time>2003-06-27T11:53:20Z</time>
<speed>1.1</speed>
</trkpt>
<trkpt lat="47.219050" lon="8.604628">
<ele>738.8</ele>
<time>2003-06-27T11:53:25Z</time>
<speed>1.1</speed>
</trkpt>
<trkpt lat="47.219016" lon="8.604678">
<ele>737.0</ele>
<time>2003-06-27T11:53:30Z</time>
<speed>1.1</speed>
</trkpt>
<trkpt lat="47.218969" lon="8.604711">
<ele>736.4</ele>
<time>2003-06-27T11:53:35Z</time>
<speed>1.1</speed>
</trkpt>
<trkpt lat="47.218928" lon="8.604746">
<ele>735.1</ele>
<time>2003-06-27T11:53:40Z</time>
<speed>0.6</speed>
</trkpt>
<trkpt lat="47.218888" lon="8.604767">
<ele>735.1</ele>
<time>2003-06-27T11:53:45Z</time>
<speed>0.8</speed>
</trkpt>
<trkpt lat="47.218841" lon="8.604800">
<ele>734.5</ele>
<time>2003-06-27T11:53:50Z</time>
<speed>1.1</speed>
</trkpt>
<trkpt lat="47.218790" lon="8.604805">
<ele>734.3</ele>
<time>2003-06-27T11:53:55Z</time>
<speed>0.8</speed>
</trkpt>
<trkpt lat="47.218751" lon="8.604812">
<ele>734.2</ele>
<time>2003-06-27T11:54:00Z</time>
<speed>0.6</speed>
</trkpt>
<trkpt lat="47.218671" lon="8.604854">
<ele>732.9</ele>
<time>2003-06-27T11:54:06Z</time>
<speed>1.1</speed>
</trkpt>
<trkpt lat="47.218599" lon="8.604884">
<ele>732.1</ele>
<time>2003-06-27T11:54:11Z</time>
<speed>0.8</speed>
</trkpt>
<trkpt lat="47.218540" lon="8.604915">
<ele>731.4</ele>
<time>2003-06-27T11:54:16Z</time>
<speed>1.1</speed>
</trkpt>
<trkpt lat="47.218501" lon="8.604922">
<ele>731.4</ele>
<time>2003-06-27T11:54:21Z</time>
<speed>0.6</speed>
</trkpt>
<trkpt lat="47.218469" lon="8.604916">
<ele>731.9</ele>
<time>2003-06-27T11:54:26Z</time>
<speed>0.6</speed>
</trkpt>
<trkpt lat="47.218436" lon="8.604923">
<ele>732.6</ele>
<time>2003-06-27T11:54:31Z</time>
<speed>0.3</speed>
</trkpt>
<trkpt lat="47.218365" lon="8.604923">
<ele>734.4</ele>
<time>2003-06-27T11:54:36Z</time>
<speed>1.1</speed>
</trkpt>
<trkpt lat="47.218249" lon="8.604927">
<ele>736.9</ele>
<time>2003-06-27T11:54:41Z</time>
<speed>1.1</speed>
</trkpt>
<trkpt lat="47.218190" lon="8.604930">
<ele>737.4</ele>
<time>2003-06-27T11:54:46Z</time>
<speed>0.6</speed>
</trkpt>
<trkpt lat="47.218129" lon="8.604987">
<ele>736.9</ele>
<time>2003-06-27T11:54:51Z</time>
<speed>0.8</speed>
</trkpt>
<trkpt lat="47.218069" lon="8.605017">
<ele>737.7</ele>
<time>2003-06-27T11:54:56Z</time>
<speed>0.8</speed>
</trkpt>
<trkpt lat="47.217995" lon="8.605074">
<ele>735.7</ele>
<time>2003-06-27T11:55:01Z</time>
<speed>1.1</speed>
</trkpt>
<trkpt lat="47.217927" lon="8.605131">
<ele>734.5</ele>
<time>2003-06-27T11:55:06Z</time>
<speed>1.1</speed>
</trkpt>
<trkpt lat="47.217892" lon="8.605182">
<ele>732.6</ele>
<time>2003-06-27T11:55:11Z</time>
<speed>0.6</speed>
</trkpt>
<trkpt lat="47.217857" lon="8.605230">
<ele>732.2</ele>
<time>2003-06-27T11:55:16Z</time>
<speed>1.1</speed>
</trkpt>
<trkpt lat="47.217796" lon="8.605287">
<ele>731.7</ele>
<time>2003-06-27T11:55:21Z</time>
<speed>1.4</speed>
</trkpt>
<trkpt lat="47.217761" lon="8.605322">
<ele>731.2</ele>
<time>2003-06-27T11:55:26Z</time>
<speed>0.8</speed>
</trkpt>
<trkpt lat="47.217727" lon="8.605360">
<ele>729.2</ele>
<time>2003-06-27T11:55:31Z</time>
<speed>0.8</speed>
</trkpt>
<trkpt lat="47.217707" lon="8.605384">
<ele>728.6</ele>
<time>2003-06-27T11:55:36Z</time>
<speed>0.6</speed>
</trkpt>
<trkpt lat="47.217665" lon="8.605432">
<ele>727.4</ele>
<time>2003-06-27T11:55:41Z</time>
<speed>1.1</speed>
</trkpt>
<trkpt lat="47.217610" lon="8.605491">
<ele>726.3</ele>
<time>2003-06-27T11:55:46Z</time>
<speed>1.1</speed>
</trkpt>
<trkpt lat="47.217569" lon="8.605540">
<ele>725.1</ele>
<time>2003-06-27T11:55:51Z</time>
<speed>1.1</speed>
</trkpt>
<trkpt lat="47.217520" lon="8.605599">
<ele>724.7</ele>
<time>2003-06-27T11:55:56Z</time>
<speed>1.1</speed>
</trkpt>
<trkpt lat="47.217473" lon="8.605632">
<ele>724.1</ele>
<time>2003-06-27T11:56:01Z</time>
<speed>0.8</speed>
</trkpt>
<trkpt lat="47.217425" lon="8.605678">
<ele>723.5</ele>
<time>2003-06-27T11:56:06Z</time>
<speed>1.1</speed>
</trkpt>
<trkpt lat="47.217377" lon="8.605727">
<ele>721.6</ele>
<time>2003-06-27T11:56:11Z</time>
<speed>1.1</speed>
</trkpt>
<trkpt lat="47.217322" lon="8.605786">
<ele>720.5</ele>
<time>2003-06-27T11:56:16Z</time>
<speed>1.4</speed>
</trkpt>
<trkpt lat="47.217273" lon="8.605845">
<ele>720.1</ele>
<time>2003-06-27T11:56:21Z</time>
<speed>1.1</speed>
</trkpt>
<trkpt lat="47.217213" lon="8.605890">
<ele>719.5</ele>
<time>2003-06-27T11:56:26Z</time>
<speed>1.1</speed>
</trkpt>
<trkpt lat="47.217177" lon="8.605953">
<ele>717.7</ele>
<time>2003-06-27T11:56:31Z</time>
<speed>1.1</speed>
</trkpt>
<trkpt lat="47.217135" lon="8.605999">
<ele>718.0</ele>
<time>2003-06-27T11:56:36Z</time>
<speed>1.1</speed>
</trkpt>
<trkpt lat="47.217092" lon="8.606061">
<ele>716.9</ele>
<time>2003-06-27T11:56:41Z</time>
<speed>1.1</speed>
</trkpt>
<trkpt lat="47.217049" lon="8.606133">
<ele>717.3</ele>
<time>2003-06-27T11:56:46Z</time>
<speed>1.1</speed>
</trkpt>
<trkpt lat="47.217012" lon="8.606194">
<ele>716.9</ele>
<time>2003-06-27T11:56:51Z</time>
<speed>0.8</speed>
</trkpt>
<trkpt lat="47.217012" lon="8.606288">
<ele>717.0</ele>
<time>2003-06-27T11:56:56Z</time>
<speed>1.1</speed>
</trkpt>
<trkpt lat="47.217037" lon="8.606370">
<ele>718.5</ele>
<time>2003-06-27T11:57:01Z</time>
<speed>1.1</speed>
</trkpt>
<trkpt lat="47.217064" lon="8.606441">
<ele>718.4</ele>
<time>2003-06-27T11:57:06Z</time>
<speed>0.6</speed>
</trkpt>
<trkpt lat="47.217068" lon="8.606482">
<ele>718.0</ele>
<time>2003-06-27T11:57:11Z</time>
<speed>0.6</speed>
</trkpt>
<trkpt lat="47.217067" lon="8.606495">
<ele>718.1</ele>
<time>2003-06-27T11:57:16Z</time>
<speed>0.0</speed>
</trkpt>
<trkpt lat="47.217067" lon="8.606495">
<ele>718.1</ele>
<time>2003-06-27T11:57:21Z</time>
<speed>0.0</speed>
</trkpt>
<trkpt lat="47.217067" lon="8.606495">
<ele>718.1</ele>
<time>2003-06-27T11:57:26Z</time>
<speed>0.0</speed>
</trkpt>
<trkpt lat="47.217073" lon="8.606495">
<ele>718.9</ele>
<time>2003-06-27T11:57:31Z</time>
<speed>0.3</speed>
</trkpt>
<trkpt lat="47.217073" lon="8.606495">
<ele>718.9</ele>
<time>2003-06-27T11:57:36Z</time>
<speed>0.0</speed>
</trkpt>
<trkpt lat="47.217079" lon="8.606497">
<ele>718.2</ele>
<time>2003-06-27T11:57:41Z</time>
<speed>0.0</speed>
</trkpt>
<trkpt lat="47.217086" lon="8.606484">
<ele>718.8</ele>
<time>2003-06-27T11:57:46Z</time>
<speed>0.0</speed>
</trkpt>
<trkpt lat="47.217086" lon="8.606484">
<ele>718.8</ele>
<time>2003-06-27T11:57:51Z</time>
<speed>0.0</speed>
</trkpt>
<trkpt lat="47.217086" lon="8.606484">
<ele>718.8</ele>
<time>2003-06-27T11:57:56Z</time>
<speed>0.0</speed>
</trkpt>
<trkpt lat="47.217094" lon="8.606473">
<ele>718.1</ele>
<time>2003-06-27T11:58:01Z</time>
<speed>0.0</speed>
</trkpt>
<trkpt lat="47.217117" lon="8.606425">
<ele>717.1</ele>
<time>2003-06-27T11:58:06Z</time>
<speed>0.6</speed>
</trkpt>
<trkpt lat="47.217101" lon="8.606382">
<ele>717.4</ele>
<time>2003-06-27T11:58:11Z</time>
<speed>0.3</speed>
</trkpt>
<trkpt lat="47.217085" lon="8.606341">
<ele>716.3</ele>
<time>2003-06-27T11:58:16Z</time>
<speed>0.3</speed>
</trkpt>
<trkpt lat="47.217079" lon="8.606341">
<ele>715.5</ele>
<time>2003-06-27T11:58:21Z</time>
<speed>0.6</speed>
</trkpt>
<trkpt lat="47.217116" lon="8.606360">
<ele>715.8</ele>
<time>2003-06-27T11:58:26Z</time>
<speed>0.8</speed>
</trkpt>
<trkpt lat="47.217148" lon="8.606366">
<ele>715.3</ele>
<time>2003-06-27T11:58:31Z</time>
<speed>0.0</speed>
</trkpt>
<trkpt lat="47.217161" lon="8.606354">
<ele>715.2</ele>
<time>2003-06-27T11:58:36Z</time>
<speed>0.0</speed>
</trkpt>
<trkpt lat="47.217161" lon="8.606354">
<ele>715.2</ele>
<time>2003-06-27T11:58:41Z</time>
<speed>0.0</speed>
</trkpt>
<trkpt lat="47.217168" lon="8.606341">
<ele>715.9</ele>
<time>2003-06-27T11:58:46Z</time>
<speed>0.0</speed>
</trkpt>
<trkpt lat="47.217169" lon="8.606328">
<ele>715.8</ele>
<time>2003-06-27T11:58:51Z</time>
<speed>0.0</speed>
</trkpt>
<trkpt lat="47.217180" lon="8.606356">
<ele>716.0</ele>
<time>2003-06-27T11:58:56Z</time>
<speed>0.3</speed>
</trkpt>
<trkpt lat="47.217189" lon="8.606317">
<ele>716.4</ele>
<time>2003-06-27T11:59:01Z</time>
<speed>0.3</speed>
</trkpt>
<trkpt lat="47.217194" lon="8.606330">
<ele>717.3</ele>
<time>2003-06-27T11:59:06Z</time>
<speed>0.0</speed>
</trkpt>
<trkpt lat="47.217194" lon="8.606330">
<ele>717.3</ele>
<time>2003-06-27T11:59:11Z</time>
<speed>0.0</speed>
</trkpt>
<trkpt lat="47.217192" lon="8.606356">
<ele>717.5</ele>
<time>2003-06-27T11:59:16Z</time>
<speed>0.6</speed>
</trkpt>
<trkpt lat="47.217201" lon="8.606411">
<ele>718.0</ele>
<time>2003-06-27T11:59:21Z</time>
<speed>0.3</speed>
</trkpt>
<trkpt lat="47.217219" lon="8.606426">
<ele>718.9</ele>
<time>2003-06-27T11:59:26Z</time>
<speed>0.6</speed>
</trkpt>
<trkpt lat="47.217227" lon="8.606401">
<ele>718.0</ele>
<time>2003-06-27T11:59:31Z</time>
<speed>0.6</speed>
</trkpt>
<trkpt lat="47.217236" lon="8.606362">
<ele>718.4</ele>
<time>2003-06-27T11:59:36Z</time>
<speed>0.3</speed>
</trkpt>
<trkpt lat="47.217237" lon="8.606349">
<ele>718.3</ele>
<time>2003-06-27T11:59:41Z</time>
<speed>0.0</speed>
</trkpt>
<trkpt lat="47.217240" lon="8.606310">
<ele>718.0</ele>
<time>2003-06-27T11:59:46Z</time>
<speed>0.0</speed>
</trkpt>
<trkpt lat="47.217220" lon="8.606321">
<ele>717.3</ele>
<time>2003-06-27T11:59:51Z</time>
<speed>0.3</speed>
</trkpt>
<trkpt lat="47.217223" lon="8.606282">
<ele>717.0</ele>
<time>2003-06-27T11:59:56Z</time>
<speed>0.0</speed>
</trkpt>
<trkpt lat="47.217244" lon="8.606258">
<ele>717.6</ele>
<time>2003-06-27T12:00:01Z</time>
<speed>0.0</speed>
</trkpt>
<trkpt lat="47.217271" lon="8.606236">
<ele>717.5</ele>
<time>2003-06-27T12:00:06Z</time>
<speed>0.0</speed>
</trkpt>
<trkpt lat="47.217292" lon="8.606212">
<ele>718.1</ele>
<time>2003-06-27T12:00:11Z</time>
<speed>0.0</speed>
</trkpt>
<trkpt lat="47.217306" lon="8.606186">
<ele>719.4</ele>
<time>2003-06-27T12:00:16Z</time>
<speed>0.0</speed>
</trkpt>
<trkpt lat="47.217327" lon="8.606161">
<ele>720.0</ele>
<time>2003-06-27T12:00:21Z</time>
<speed>0.0</speed>
</trkpt>
<trkpt lat="47.217340" lon="8.606148">
<ele>721.3</ele>
<time>2003-06-27T12:00:26Z</time>
<speed>0.0</speed>
</trkpt>
<trkpt lat="47.217359" lon="8.606150">
<ele>722.1</ele>
<time>2003-06-27T12:00:31Z</time>
<speed>0.0</speed>
</trkpt>
<trkpt lat="47.217359" lon="8.606148">
<ele>723.5</ele>
<time>2003-06-27T12:00:36Z</time>
<speed>0.3</speed>
</trkpt>
<trkpt lat="47.217346" lon="8.606146">
<ele>723.5</ele>
<time>2003-06-27T12:00:41Z</time>
<speed>0.0</speed>
</trkpt>
<trkpt lat="47.217338" lon="8.606172">
<ele>722.9</ele>
<time>2003-06-27T12:00:46Z</time>
<speed>0.3</speed>
</trkpt>
<trkpt lat="47.217337" lon="8.606186">
<ele>723.0</ele>
<time>2003-06-27T12:00:51Z</time>
<speed>0.0</speed>
</trkpt>
<trkpt lat="47.217323" lon="8.606197">
<ele>723.1</ele>
<time>2003-06-27T12:00:56Z</time>
<speed>0.0</speed>
</trkpt>
<trkpt lat="47.217323" lon="8.606197">
<ele>723.1</ele>
<time>2003-06-27T12:01:01Z</time>
<speed>0.0</speed>
</trkpt>
<trkpt lat="47.217316" lon="8.606210">
<ele>722.5</ele>
<time>2003-06-27T12:01:06Z</time>
<speed>0.0</speed>
</trkpt>
<trkpt lat="47.217322" lon="8.606210">
<ele>723.2</ele>
<time>2003-06-27T12:01:11Z</time>
<speed>0.0</speed>
</trkpt>
<trkpt lat="47.217302" lon="8.606234">
<ele>722.6</ele>
<time>2003-06-27T12:01:16Z</time>
<speed>0.3</speed>
</trkpt>
<trkpt lat="47.217294" lon="8.606247">
<ele>722.0</ele>
<time>2003-06-27T12:01:21Z</time>
<speed>0.0</speed>
</trkpt>
<trkpt lat="47.217281" lon="8.606258">
<ele>722.0</ele>
<time>2003-06-27T12:01:26Z</time>
<speed>0.0</speed>
</trkpt>
<trkpt lat="47.217309" lon="8.606221">
<ele>723.2</ele>
<time>2003-06-27T12:01:31Z</time>
<speed>0.0</speed>
</trkpt>
<trkpt lat="47.217316" lon="8.606208">
<ele>723.9</ele>
<time>2003-06-27T12:01:36Z</time>
<speed>0.0</speed>
</trkpt>
<trkpt lat="47.217310" lon="8.606193">
<ele>724.4</ele>
<time>2003-06-27T12:01:41Z</time>
<speed>0.0</speed>
</trkpt>
<trkpt lat="47.217316" lon="8.606193">
<ele>725.2</ele>
<time>2003-06-27T12:01:46Z</time>
<speed>0.0</speed>
</trkpt>
<trkpt lat="47.217322" lon="8.606193">
<ele>725.9</ele>
<time>2003-06-27T12:01:51Z</time>
<speed>0.0</speed>
</trkpt>
<trkpt lat="47.217309" lon="8.606204">
<ele>725.9</ele>
<time>2003-06-27T12:01:56Z</time>
<speed>0.0</speed>
</trkpt>
<trkpt lat="47.217281" lon="8.606239">
<ele>726.1</ele>
<time>2003-06-27T12:02:01Z</time>
<speed>0.0</speed>
</trkpt>
<trkpt lat="47.217254" lon="8.606263">
<ele>724.8</ele>
<time>2003-06-27T12:02:06Z</time>
<speed>0.0</speed>
</trkpt>
<trkpt lat="47.217257" lon="8.606304">
<ele>724.4</ele>
<time>2003-06-27T12:02:11Z</time>
<speed>0.0</speed>
</trkpt>
<trkpt lat="47.217255" lon="8.606330">
<ele>724.6</ele>
<time>2003-06-27T12:02:16Z</time>
<speed>0.0</speed>
</trkpt>
<trkpt lat="47.217235" lon="8.606354">
<ele>724.0</ele>
<time>2003-06-27T12:02:21Z</time>
<speed>0.3</speed>
</trkpt>
<trkpt lat="47.217215" lon="8.606366">
<ele>723.3</ele>
<time>2003-06-27T12:02:27Z</time>
<speed>0.6</speed>
</trkpt>
<trkpt lat="47.217228" lon="8.606354">
<ele>723.3</ele>
<time>2003-06-27T12:02:32Z</time>
<speed>0.3</speed>
</trkpt>
<trkpt lat="47.217216" lon="8.606352">
<ele>723.2</ele>
<time>2003-06-27T12:02:37Z</time>
<speed>0.0</speed>
</trkpt>
<trkpt lat="47.217204" lon="8.606352">
<ele>721.8</ele>
<time>2003-06-27T12:02:42Z</time>
<speed>0.3</speed>
</trkpt>
<trkpt lat="47.217215" lon="8.606367">
<ele>721.9</ele>
<time>2003-06-27T12:02:47Z</time>
<speed>0.3</speed>
</trkpt>
<trkpt lat="47.217254" lon="8.606439">
<ele>723.4</ele>
<time>2003-06-27T12:02:52Z</time>
<speed>0.3</speed>
</trkpt>
<trkpt lat="47.217278" lon="8.606437">
<ele>727.7</ele>
<time>2003-06-27T12:02:57Z</time>
<speed>0.0</speed>
</trkpt>
<trkpt lat="47.217279" lon="8.606424">
<ele>727.6</ele>
<time>2003-06-27T12:03:02Z</time>
<speed>0.0</speed>
</trkpt>
<trkpt lat="47.217273" lon="8.606422">
<ele>728.3</ele>
<time>2003-06-27T12:03:07Z</time>
<speed>0.0</speed>
</trkpt>
<trkpt lat="47.217271" lon="8.606448">
<ele>728.5</ele>
<time>2003-06-27T12:03:12Z</time>
<speed>0.3</speed>
</trkpt>
<trkpt lat="47.217258" lon="8.606461">
<ele>727.1</ele>
<time>2003-06-27T12:03:17Z</time>
<speed>0.0</speed>
</trkpt>
<trkpt lat="47.217282" lon="8.606459">
<ele>731.4</ele>
<time>2003-06-27T12:03:22Z</time>
<speed>0.0</speed>
</trkpt>
<trkpt lat="47.217294" lon="8.606425">
<ele>738.3</ele>
<time>2003-06-27T12:03:27Z</time>
<speed>0.3</speed>
</trkpt>
<trkpt lat="47.217294" lon="8.606423">
<ele>739.7</ele>
<time>2003-06-27T12:03:32Z</time>
<speed>0.0</speed>
</trkpt>
<trkpt lat="47.217287" lon="8.606436">
<ele>739.1</ele>
<time>2003-06-27T12:03:37Z</time>
<speed>0.6</speed>
</trkpt>
<trkpt lat="47.217225" lon="8.606470">
<ele>726.4</ele>
<time>2003-06-27T12:03:42Z</time>
<speed>0.6</speed>
</trkpt>
<trkpt lat="47.217213" lon="8.606470">
<ele>724.9</ele>
<time>2003-06-27T12:03:47Z</time>
<speed>0.0</speed>
</trkpt>
<trkpt lat="47.217195" lon="8.606470">
<ele>722.7</ele>
<time>2003-06-27T12:03:52Z</time>
<speed>0.0</speed>
</trkpt>
<trkpt lat="47.217177" lon="8.606472">
<ele>719.1</ele>
<time>2003-06-27T12:03:57Z</time>
<speed>0.0</speed>
</trkpt>
<trkpt lat="47.217152" lon="8.606472">
<ele>716.1</ele>
<time>2003-06-27T12:04:02Z</time>
<speed>0.3</speed>
</trkpt>
<trkpt lat="47.217147" lon="8.606459">
<ele>715.3</ele>
<time>2003-06-27T12:04:07Z</time>
<speed>0.0</speed>
</trkpt>
<trkpt lat="47.217147" lon="8.606459">
<ele>715.3</ele>
<time>2003-06-27T12:04:12Z</time>
<speed>0.0</speed>
</trkpt>
<trkpt lat="47.217147" lon="8.606459">
<ele>715.3</ele>
<time>2003-06-27T12:04:17Z</time>
<speed>0.0</speed>
</trkpt>
<trkpt lat="47.217146" lon="8.606472">
<ele>715.4</ele>
<time>2003-06-27T12:04:22Z</time>
<speed>0.0</speed>
</trkpt>
<trkpt lat="47.217152" lon="8.606472">
<ele>716.1</ele>
<time>2003-06-27T12:04:27Z</time>
<speed>0.3</speed>
</trkpt>
<trkpt lat="47.217152" lon="8.606472">
<ele>716.1</ele>
<time>2003-06-27T12:04:32Z</time>
<speed>0.0</speed>
</trkpt>
<trkpt lat="47.217152" lon="8.606472">
<ele>716.1</ele>
<time>2003-06-27T12:04:37Z</time>
<speed>0.0</speed>
</trkpt>
<trkpt lat="47.217160" lon="8.606461">
<ele>715.4</ele>
<time>2003-06-27T12:04:42Z</time>
<speed>0.0</speed>
</trkpt>
<trkpt lat="47.217166" lon="8.606461">
<ele>716.1</ele>
<time>2003-06-27T12:04:47Z</time>
<speed>0.0</speed>
</trkpt>
</trkseg>
</trk>
</gpx>
